<?xml version="1.0" encoding="UTF-8" standalone="no" ?>
<gpx xmlns="http://www.topografix.com/GPX/1/1" xmlns:xsi="http://www.w3.org/2001/XMLSchema-instance" xsi:schemaLocation="http://www.topografix.com/GPX/1/1 http://www.topografix.com/GPX/1/1/gpx.xsd" version="1.1" creator="VisuGPX - https://www.visugpx.com">
  <metadata>
    <name>Nantes - Savenay (vtt44.com)</name>
    <desc><![CDATA[plus d\\\'infos sur vtt44.com]]></desc>
  </metadata>
  <trk>
    <name><![CDATA[2013-12-23 14:32:36]]></name>
    <trkseg>
      <trkpt lat="47.22421" lon="-1.55287">
        <ele>9.27</ele>
        <time>2013-12-23T08:03:56Z</time>
      </trkpt>
      <trkpt lat="47.22433" lon="-1.5529">
        <ele>9.27</ele>
        <time>2013-12-23T08:04:13Z</time>
      </trkpt>
      <trkpt lat="47.22443" lon="-1.55292">
        <ele>9.27</ele>
        <time>2013-12-23T08:04:16Z</time>
      </trkpt>
      <trkpt lat="47.22453" lon="-1.55294">
        <ele>8.79</ele>
        <time>2013-12-23T08:04:19Z</time>
      </trkpt>
      <trkpt lat="47.22465" lon="-1.55296">
        <ele>9.27</ele>
        <time>2013-12-23T08:04:22Z</time>
      </trkpt>
      <trkpt lat="47.22476" lon="-1.55299">
        <ele>9.75</ele>
        <time>2013-12-23T08:04:25Z</time>
      </trkpt>
      <trkpt lat="47.22488" lon="-1.55301">
        <ele>9.75</ele>
        <time>2013-12-23T08:04:28Z</time>
      </trkpt>
      <trkpt lat="47.22501" lon="-1.55303">
        <ele>9.75</ele>
        <time>2013-12-23T08:04:31Z</time>
      </trkpt>
      <trkpt lat="47.22512" lon="-1.55307">
        <ele>10.71</ele>
        <time>2013-12-23T08:04:34Z</time>
      </trkpt>
      <trkpt lat="47.22523" lon="-1.5531">
        <ele>10.71</ele>
        <time>2013-12-23T08:04:37Z</time>
      </trkpt>
      <trkpt lat="47.22534" lon="-1.55313">
        <ele>11.19</ele>
        <time>2013-12-23T08:04:40Z</time>
      </trkpt>
      <trkpt lat="47.22547" lon="-1.55317">
        <ele>11.19</ele>
        <time>2013-12-23T08:04:43Z</time>
      </trkpt>
      <trkpt lat="47.2256" lon="-1.5532">
        <ele>11.67</ele>
        <time>2013-12-23T08:04:46Z</time>
      </trkpt>
      <trkpt lat="47.22572" lon="-1.55322">
        <ele>11.67</ele>
        <time>2013-12-23T08:04:49Z</time>
      </trkpt>
      <trkpt lat="47.22584" lon="-1.55325">
        <ele>11.67</ele>
        <time>2013-12-23T08:04:52Z</time>
      </trkpt>
      <trkpt lat="47.22597" lon="-1.55328">
        <ele>11.19</ele>
        <time>2013-12-23T08:04:55Z</time>
      </trkpt>
      <trkpt lat="47.22608" lon="-1.55329">
        <ele>10.71</ele>
        <time>2013-12-23T08:04:58Z</time>
      </trkpt>
      <trkpt lat="47.22619" lon="-1.5533">
        <ele>11.19</ele>
        <time>2013-12-23T08:05:01Z</time>
      </trkpt>
      <trkpt lat="47.2263" lon="-1.55326">
        <ele>11.19</ele>
        <time>2013-12-23T08:05:05Z</time>
      </trkpt>
      <trkpt lat="47.2264" lon="-1.55326">
        <ele>10.71</ele>
        <time>2013-12-23T08:05:08Z</time>
      </trkpt>
      <trkpt lat="47.22651" lon="-1.5533">
        <ele>10.71</ele>
        <time>2013-12-23T08:05:11Z</time>
      </trkpt>
      <trkpt lat="47.22665" lon="-1.55334">
        <ele>10.71</ele>
        <time>2013-12-23T08:05:14Z</time>
      </trkpt>
      <trkpt lat="47.22675" lon="-1.55336">
        <ele>10.23</ele>
        <time>2013-12-23T08:05:16Z</time>
      </trkpt>
      <trkpt lat="47.22685" lon="-1.55336">
        <ele>9.75</ele>
        <time>2013-12-23T08:05:18Z</time>
      </trkpt>
      <trkpt lat="47.22695" lon="-1.55333">
        <ele>9.75</ele>
        <time>2013-12-23T08:05:20Z</time>
      </trkpt>
      <trkpt lat="47.22704" lon="-1.55329">
        <ele>9.27</ele>
        <time>2013-12-23T08:05:22Z</time>
      </trkpt>
      <trkpt lat="47.22713" lon="-1.55321">
        <ele>9.27</ele>
        <time>2013-12-23T08:05:24Z</time>
      </trkpt>
      <trkpt lat="47.22721" lon="-1.55313">
        <ele>9.27</ele>
        <time>2013-12-23T08:05:26Z</time>
      </trkpt>
      <trkpt lat="47.22729" lon="-1.55304">
        <ele>9.27</ele>
        <time>2013-12-23T08:05:28Z</time>
      </trkpt>
      <trkpt lat="47.22736" lon="-1.55294">
        <ele>8.79</ele>
        <time>2013-12-23T08:05:30Z</time>
      </trkpt>
      <trkpt lat="47.22742" lon="-1.55283">
        <ele>7.83</ele>
        <time>2013-12-23T08:05:32Z</time>
      </trkpt>
      <trkpt lat="47.22751" lon="-1.55271">
        <ele>7.35</ele>
        <time>2013-12-23T08:05:34Z</time>
      </trkpt>
      <trkpt lat="47.22759" lon="-1.55259">
        <ele>6.87</ele>
        <time>2013-12-23T08:05:36Z</time>
      </trkpt>
      <trkpt lat="47.22768" lon="-1.55247">
        <ele>6.87</ele>
        <time>2013-12-23T08:05:38Z</time>
      </trkpt>
      <trkpt lat="47.22777" lon="-1.55235">
        <ele>6.87</ele>
        <time>2013-12-23T08:05:40Z</time>
      </trkpt>
      <trkpt lat="47.22785" lon="-1.55224">
        <ele>7.35</ele>
        <time>2013-12-23T08:05:42Z</time>
      </trkpt>
      <trkpt lat="47.2279" lon="-1.55208">
        <ele>8.31</ele>
        <time>2013-12-23T08:05:45Z</time>
      </trkpt>
      <trkpt lat="47.22801" lon="-1.55196">
        <ele>8.31</ele>
        <time>2013-12-23T08:05:47Z</time>
      </trkpt>
      <trkpt lat="47.22811" lon="-1.55183">
        <ele>7.83</ele>
        <time>2013-12-23T08:05:49Z</time>
      </trkpt>
      <trkpt lat="47.22821" lon="-1.55172">
        <ele>7.83</ele>
        <time>2013-12-23T08:05:51Z</time>
      </trkpt>
      <trkpt lat="47.22829" lon="-1.55162">
        <ele>7.35</ele>
        <time>2013-12-23T08:05:53Z</time>
      </trkpt>
      <trkpt lat="47.22836" lon="-1.5515">
        <ele>6.39</ele>
        <time>2013-12-23T08:05:57Z</time>
      </trkpt>
      <trkpt lat="47.22844" lon="-1.55143">
        <ele>6.87</ele>
        <time>2013-12-23T08:06:01Z</time>
      </trkpt>
      <trkpt lat="47.22854" lon="-1.5513">
        <ele>6.39</ele>
        <time>2013-12-23T08:06:04Z</time>
      </trkpt>
      <trkpt lat="47.22865" lon="-1.55118">
        <ele>5.91</ele>
        <time>2013-12-23T08:06:07Z</time>
      </trkpt>
      <trkpt lat="47.22875" lon="-1.55106">
        <ele>6.39</ele>
        <time>2013-12-23T08:06:10Z</time>
      </trkpt>
      <trkpt lat="47.22882" lon="-1.55095">
        <ele>7.35</ele>
        <time>2013-12-23T08:06:13Z</time>
      </trkpt>
      <trkpt lat="47.22891" lon="-1.55084">
        <ele>7.83</ele>
        <time>2013-12-23T08:06:16Z</time>
      </trkpt>
      <trkpt lat="47.22901" lon="-1.55072">
        <ele>7.83</ele>
        <time>2013-12-23T08:06:19Z</time>
      </trkpt>
      <trkpt lat="47.22912" lon="-1.5506">
        <ele>7.83</ele>
        <time>2013-12-23T08:06:22Z</time>
      </trkpt>
      <trkpt lat="47.2292" lon="-1.55052">
        <ele>7.83</ele>
        <time>2013-12-23T08:06:24Z</time>
      </trkpt>
      <trkpt lat="47.22928" lon="-1.55044">
        <ele>7.83</ele>
        <time>2013-12-23T08:06:26Z</time>
      </trkpt>
      <trkpt lat="47.22937" lon="-1.55035">
        <ele>7.83</ele>
        <time>2013-12-23T08:06:28Z</time>
      </trkpt>
      <trkpt lat="47.22946" lon="-1.55026">
        <ele>7.35</ele>
        <time>2013-12-23T08:06:30Z</time>
      </trkpt>
      <trkpt lat="47.22954" lon="-1.55017">
        <ele>7.83</ele>
        <time>2013-12-23T08:06:32Z</time>
      </trkpt>
      <trkpt lat="47.22963" lon="-1.55008">
        <ele>7.83</ele>
        <time>2013-12-23T08:06:34Z</time>
      </trkpt>
      <trkpt lat="47.22972" lon="-1.54998">
        <ele>7.83</ele>
        <time>2013-12-23T08:06:36Z</time>
      </trkpt>
      <trkpt lat="47.22981" lon="-1.54989">
        <ele>7.35</ele>
        <time>2013-12-23T08:06:38Z</time>
      </trkpt>
      <trkpt lat="47.22988" lon="-1.5498">
        <ele>7.35</ele>
        <time>2013-12-23T08:06:40Z</time>
      </trkpt>
      <trkpt lat="47.22994" lon="-1.5497">
        <ele>7.83</ele>
        <time>2013-12-23T08:06:42Z</time>
      </trkpt>
      <trkpt lat="47.23001" lon="-1.5496">
        <ele>7.83</ele>
        <time>2013-12-23T08:06:44Z</time>
      </trkpt>
      <trkpt lat="47.23008" lon="-1.54949">
        <ele>7.83</ele>
        <time>2013-12-23T08:06:46Z</time>
      </trkpt>
      <trkpt lat="47.23015" lon="-1.54938">
        <ele>7.83</ele>
        <time>2013-12-23T08:06:48Z</time>
      </trkpt>
      <trkpt lat="47.23021" lon="-1.54926">
        <ele>7.35</ele>
        <time>2013-12-23T08:06:50Z</time>
      </trkpt>
      <trkpt lat="47.23026" lon="-1.54914">
        <ele>6.87</ele>
        <time>2013-12-23T08:06:52Z</time>
      </trkpt>
      <trkpt lat="47.23033" lon="-1.54896">
        <ele>7.35</ele>
        <time>2013-12-23T08:06:55Z</time>
      </trkpt>
      <trkpt lat="47.2304" lon="-1.54885">
        <ele>7.35</ele>
        <time>2013-12-23T08:06:57Z</time>
      </trkpt>
      <trkpt lat="47.23048" lon="-1.54875">
        <ele>6.87</ele>
        <time>2013-12-23T08:06:59Z</time>
      </trkpt>
      <trkpt lat="47.23056" lon="-1.54867">
        <ele>6.87</ele>
        <time>2013-12-23T08:07:01Z</time>
      </trkpt>
      <trkpt lat="47.23063" lon="-1.54857">
        <ele>5.91</ele>
        <time>2013-12-23T08:07:03Z</time>
      </trkpt>
      <trkpt lat="47.2307" lon="-1.54843">
        <ele>4.94</ele>
        <time>2013-12-23T08:07:05Z</time>
      </trkpt>
      <trkpt lat="47.23077" lon="-1.54829">
        <ele>4.46</ele>
        <time>2013-12-23T08:07:07Z</time>
      </trkpt>
      <trkpt lat="47.23084" lon="-1.54819">
        <ele>4.46</ele>
        <time>2013-12-23T08:07:09Z</time>
      </trkpt>
      <trkpt lat="47.23091" lon="-1.5481">
        <ele>4.94</ele>
        <time>2013-12-23T08:07:11Z</time>
      </trkpt>
      <trkpt lat="47.23101" lon="-1.54797">
        <ele>5.42</ele>
        <time>2013-12-23T08:07:14Z</time>
      </trkpt>
      <trkpt lat="47.23113" lon="-1.54788">
        <ele>6.39</ele>
        <time>2013-12-23T08:07:17Z</time>
      </trkpt>
      <trkpt lat="47.23124" lon="-1.54781">
        <ele>6.87</ele>
        <time>2013-12-23T08:07:20Z</time>
      </trkpt>
      <trkpt lat="47.23135" lon="-1.54776">
        <ele>6.87</ele>
        <time>2013-12-23T08:07:23Z</time>
      </trkpt>
      <trkpt lat="47.23146" lon="-1.54771">
        <ele>6.87</ele>
        <time>2013-12-23T08:07:26Z</time>
      </trkpt>
      <trkpt lat="47.23156" lon="-1.54763">
        <ele>7.35</ele>
        <time>2013-12-23T08:07:29Z</time>
      </trkpt>
      <trkpt lat="47.23169" lon="-1.54755">
        <ele>8.31</ele>
        <time>2013-12-23T08:07:32Z</time>
      </trkpt>
      <trkpt lat="47.23178" lon="-1.54749">
        <ele>8.31</ele>
        <time>2013-12-23T08:07:34Z</time>
      </trkpt>
      <trkpt lat="47.23188" lon="-1.54746">
        <ele>7.83</ele>
        <time>2013-12-23T08:07:36Z</time>
      </trkpt>
      <trkpt lat="47.23199" lon="-1.54746">
        <ele>7.83</ele>
        <time>2013-12-23T08:07:38Z</time>
      </trkpt>
      <trkpt lat="47.23212" lon="-1.54743">
        <ele>7.35</ele>
        <time>2013-12-23T08:07:41Z</time>
      </trkpt>
      <trkpt lat="47.23226" lon="-1.54737">
        <ele>6.39</ele>
        <time>2013-12-23T08:07:44Z</time>
      </trkpt>
      <trkpt lat="47.23235" lon="-1.54731">
        <ele>5.91</ele>
        <time>2013-12-23T08:07:46Z</time>
      </trkpt>
      <trkpt lat="47.23246" lon="-1.54721">
        <ele>6.39</ele>
        <time>2013-12-23T08:07:49Z</time>
      </trkpt>
      <trkpt lat="47.23259" lon="-1.54716">
        <ele>7.83</ele>
        <time>2013-12-23T08:07:52Z</time>
      </trkpt>
      <trkpt lat="47.23268" lon="-1.54717">
        <ele>8.31</ele>
        <time>2013-12-23T08:07:54Z</time>
      </trkpt>
      <trkpt lat="47.23278" lon="-1.54718">
        <ele>8.79</ele>
        <time>2013-12-23T08:07:56Z</time>
      </trkpt>
      <trkpt lat="47.23288" lon="-1.5472">
        <ele>8.79</ele>
        <time>2013-12-23T08:07:58Z</time>
      </trkpt>
      <trkpt lat="47.23298" lon="-1.54723">
        <ele>8.79</ele>
        <time>2013-12-23T08:08:00Z</time>
      </trkpt>
      <trkpt lat="47.23308" lon="-1.54726">
        <ele>8.79</ele>
        <time>2013-12-23T08:08:02Z</time>
      </trkpt>
      <trkpt lat="47.23318" lon="-1.54729">
        <ele>9.75</ele>
        <time>2013-12-23T08:08:04Z</time>
      </trkpt>
      <trkpt lat="47.23328" lon="-1.54732">
        <ele>9.75</ele>
        <time>2013-12-23T08:08:06Z</time>
      </trkpt>
      <trkpt lat="47.23338" lon="-1.54737">
        <ele>9.75</ele>
        <time>2013-12-23T08:08:08Z</time>
      </trkpt>
      <trkpt lat="47.23347" lon="-1.54742">
        <ele>9.75</ele>
        <time>2013-12-23T08:08:10Z</time>
      </trkpt>
      <trkpt lat="47.23356" lon="-1.54749">
        <ele>9.75</ele>
        <time>2013-12-23T08:08:12Z</time>
      </trkpt>
      <trkpt lat="47.23366" lon="-1.54758">
        <ele>10.23</ele>
        <time>2013-12-23T08:08:15Z</time>
      </trkpt>
      <trkpt lat="47.23378" lon="-1.54762">
        <ele>9.75</ele>
        <time>2013-12-23T08:08:18Z</time>
      </trkpt>
      <trkpt lat="47.23391" lon="-1.54768">
        <ele>9.75</ele>
        <time>2013-12-23T08:08:21Z</time>
      </trkpt>
      <trkpt lat="47.23404" lon="-1.54773">
        <ele>9.75</ele>
        <time>2013-12-23T08:08:24Z</time>
      </trkpt>
      <trkpt lat="47.23417" lon="-1.54771">
        <ele>9.75</ele>
        <time>2013-12-23T08:08:27Z</time>
      </trkpt>
      <trkpt lat="47.23429" lon="-1.54767">
        <ele>11.19</ele>
        <time>2013-12-23T08:08:30Z</time>
      </trkpt>
      <trkpt lat="47.23438" lon="-1.54765">
        <ele>12.15</ele>
        <time>2013-12-23T08:08:33Z</time>
      </trkpt>
      <trkpt lat="47.2345" lon="-1.54764">
        <ele>14.08</ele>
        <time>2013-12-23T08:08:37Z</time>
      </trkpt>
      <trkpt lat="47.23463" lon="-1.54767">
        <ele>15.04</ele>
        <time>2013-12-23T08:08:40Z</time>
      </trkpt>
      <trkpt lat="47.23475" lon="-1.54769">
        <ele>15.04</ele>
        <time>2013-12-23T08:08:43Z</time>
      </trkpt>
      <trkpt lat="47.23485" lon="-1.54771">
        <ele>15.52</ele>
        <time>2013-12-23T08:08:46Z</time>
      </trkpt>
      <trkpt lat="47.23494" lon="-1.54768">
        <ele>16</ele>
        <time>2013-12-23T08:08:49Z</time>
      </trkpt>
      <trkpt lat="47.23503" lon="-1.5476">
        <ele>16</ele>
        <time>2013-12-23T08:08:53Z</time>
      </trkpt>
      <trkpt lat="47.23511" lon="-1.54751">
        <ele>16</ele>
        <time>2013-12-23T08:08:56Z</time>
      </trkpt>
      <trkpt lat="47.23517" lon="-1.5474">
        <ele>15.52</ele>
        <time>2013-12-23T08:08:59Z</time>
      </trkpt>
      <trkpt lat="47.23525" lon="-1.54731">
        <ele>15.04</ele>
        <time>2013-12-23T08:09:02Z</time>
      </trkpt>
      <trkpt lat="47.23532" lon="-1.54736">
        <ele>19.36</ele>
        <time>2013-12-23T08:09:06Z</time>
      </trkpt>
      <trkpt lat="47.23533" lon="-1.54752">
        <ele>21.29</ele>
        <time>2013-12-23T08:09:10Z</time>
      </trkpt>
      <trkpt lat="47.23532" lon="-1.54769">
        <ele>21.77</ele>
        <time>2013-12-23T08:09:14Z</time>
      </trkpt>
      <trkpt lat="47.2353" lon="-1.54788">
        <ele>21.29</ele>
        <time>2013-12-23T08:09:18Z</time>
      </trkpt>
      <trkpt lat="47.23528" lon="-1.54803">
        <ele>19.84</ele>
        <time>2013-12-23T08:09:21Z</time>
      </trkpt>
      <trkpt lat="47.23526" lon="-1.5482">
        <ele>18.4</ele>
        <time>2013-12-23T08:09:24Z</time>
      </trkpt>
      <trkpt lat="47.23524" lon="-1.54837">
        <ele>17.44</ele>
        <time>2013-12-23T08:09:27Z</time>
      </trkpt>
      <trkpt lat="47.23521" lon="-1.54855">
        <ele>16.96</ele>
        <time>2013-12-23T08:09:30Z</time>
      </trkpt>
      <trkpt lat="47.23519" lon="-1.54871">
        <ele>16</ele>
        <time>2013-12-23T08:09:33Z</time>
      </trkpt>
      <trkpt lat="47.23517" lon="-1.54888">
        <ele>15.04</ele>
        <time>2013-12-23T08:09:36Z</time>
      </trkpt>
      <trkpt lat="47.23515" lon="-1.54906">
        <ele>14.56</ele>
        <time>2013-12-23T08:09:39Z</time>
      </trkpt>
      <trkpt lat="47.23508" lon="-1.54915">
        <ele>14.08</ele>
        <time>2013-12-23T08:09:42Z</time>
      </trkpt>
      <trkpt lat="47.23495" lon="-1.54915">
        <ele>13.6</ele>
        <time>2013-12-23T08:09:45Z</time>
      </trkpt>
      <trkpt lat="47.23486" lon="-1.54912">
        <ele>13.12</ele>
        <time>2013-12-23T08:09:47Z</time>
      </trkpt>
      <trkpt lat="47.23476" lon="-1.54909">
        <ele>12.63</ele>
        <time>2013-12-23T08:09:49Z</time>
      </trkpt>
      <trkpt lat="47.23465" lon="-1.54905">
        <ele>12.15</ele>
        <time>2013-12-23T08:09:51Z</time>
      </trkpt>
      <trkpt lat="47.23454" lon="-1.54902">
        <ele>11.67</ele>
        <time>2013-12-23T08:09:53Z</time>
      </trkpt>
      <trkpt lat="47.23442" lon="-1.54899">
        <ele>10.71</ele>
        <time>2013-12-23T08:09:55Z</time>
      </trkpt>
      <trkpt lat="47.2343" lon="-1.54897">
        <ele>10.23</ele>
        <time>2013-12-23T08:09:57Z</time>
      </trkpt>
      <trkpt lat="47.23417" lon="-1.54895">
        <ele>9.75</ele>
        <time>2013-12-23T08:09:59Z</time>
      </trkpt>
      <trkpt lat="47.23405" lon="-1.54893">
        <ele>9.27</ele>
        <time>2013-12-23T08:10:01Z</time>
      </trkpt>
      <trkpt lat="47.23392" lon="-1.54891">
        <ele>8.79</ele>
        <time>2013-12-23T08:10:03Z</time>
      </trkpt>
      <trkpt lat="47.2338" lon="-1.54889">
        <ele>8.31</ele>
        <time>2013-12-23T08:10:05Z</time>
      </trkpt>
      <trkpt lat="47.23371" lon="-1.54888">
        <ele>7.83</ele>
        <time>2013-12-23T08:10:07Z</time>
      </trkpt>
      <trkpt lat="47.23365" lon="-1.54882">
        <ele>7.35</ele>
        <time>2013-12-23T08:10:11Z</time>
      </trkpt>
      <trkpt lat="47.23376" lon="-1.54883">
        <ele>7.35</ele>
        <time>2013-12-23T08:10:14Z</time>
      </trkpt>
      <trkpt lat="47.23388" lon="-1.54885">
        <ele>7.35</ele>
        <time>2013-12-23T08:10:17Z</time>
      </trkpt>
      <trkpt lat="47.23401" lon="-1.54887">
        <ele>7.35</ele>
        <time>2013-12-23T08:10:20Z</time>
      </trkpt>
      <trkpt lat="47.23414" lon="-1.54888">
        <ele>7.35</ele>
        <time>2013-12-23T08:10:23Z</time>
      </trkpt>
      <trkpt lat="47.23427" lon="-1.54889">
        <ele>7.35</ele>
        <time>2013-12-23T08:10:26Z</time>
      </trkpt>
      <trkpt lat="47.23437" lon="-1.5489">
        <ele>7.35</ele>
        <time>2013-12-23T08:10:28Z</time>
      </trkpt>
      <trkpt lat="47.23447" lon="-1.54891">
        <ele>7.35</ele>
        <time>2013-12-23T08:10:30Z</time>
      </trkpt>
      <trkpt lat="47.23457" lon="-1.54893">
        <ele>7.83</ele>
        <time>2013-12-23T08:10:32Z</time>
      </trkpt>
      <trkpt lat="47.23467" lon="-1.54895">
        <ele>7.83</ele>
        <time>2013-12-23T08:10:34Z</time>
      </trkpt>
      <trkpt lat="47.23477" lon="-1.54898">
        <ele>7.83</ele>
        <time>2013-12-23T08:10:36Z</time>
      </trkpt>
      <trkpt lat="47.23488" lon="-1.549">
        <ele>7.83</ele>
        <time>2013-12-23T08:10:38Z</time>
      </trkpt>
      <trkpt lat="47.23499" lon="-1.54904">
        <ele>7.83</ele>
        <time>2013-12-23T08:10:40Z</time>
      </trkpt>
      <trkpt lat="47.2351" lon="-1.54907">
        <ele>7.83</ele>
        <time>2013-12-23T08:10:42Z</time>
      </trkpt>
      <trkpt lat="47.23523" lon="-1.54912">
        <ele>8.79</ele>
        <time>2013-12-23T08:10:45Z</time>
      </trkpt>
      <trkpt lat="47.23534" lon="-1.54916">
        <ele>9.75</ele>
        <time>2013-12-23T08:10:47Z</time>
      </trkpt>
      <trkpt lat="47.23544" lon="-1.54926">
        <ele>11.19</ele>
        <time>2013-12-23T08:10:49Z</time>
      </trkpt>
      <trkpt lat="47.23553" lon="-1.54938">
        <ele>12.15</ele>
        <time>2013-12-23T08:10:51Z</time>
      </trkpt>
      <trkpt lat="47.2356" lon="-1.54949">
        <ele>11.67</ele>
        <time>2013-12-23T08:10:53Z</time>
      </trkpt>
      <trkpt lat="47.23568" lon="-1.5496">
        <ele>11.67</ele>
        <time>2013-12-23T08:10:55Z</time>
      </trkpt>
      <trkpt lat="47.23574" lon="-1.54973">
        <ele>11.67</ele>
        <time>2013-12-23T08:10:57Z</time>
      </trkpt>
      <trkpt lat="47.23579" lon="-1.54986">
        <ele>12.15</ele>
        <time>2013-12-23T08:10:59Z</time>
      </trkpt>
      <trkpt lat="47.23589" lon="-1.55">
        <ele>10.71</ele>
        <time>2013-12-23T08:11:02Z</time>
      </trkpt>
      <trkpt lat="47.23596" lon="-1.55012">
        <ele>10.23</ele>
        <time>2013-12-23T08:11:06Z</time>
      </trkpt>
      <trkpt lat="47.23603" lon="-1.55023">
        <ele>10.71</ele>
        <time>2013-12-23T08:11:09Z</time>
      </trkpt>
      <trkpt lat="47.23611" lon="-1.55033">
        <ele>10.71</ele>
        <time>2013-12-23T08:11:12Z</time>
      </trkpt>
      <trkpt lat="47.23622" lon="-1.55042">
        <ele>10.23</ele>
        <time>2013-12-23T08:11:15Z</time>
      </trkpt>
      <trkpt lat="47.23633" lon="-1.55048">
        <ele>9.75</ele>
        <time>2013-12-23T08:11:18Z</time>
      </trkpt>
      <trkpt lat="47.23646" lon="-1.55051">
        <ele>9.75</ele>
        <time>2013-12-23T08:11:21Z</time>
      </trkpt>
      <trkpt lat="47.23655" lon="-1.55054">
        <ele>9.27</ele>
        <time>2013-12-23T08:11:23Z</time>
      </trkpt>
      <trkpt lat="47.23666" lon="-1.55058">
        <ele>8.79</ele>
        <time>2013-12-23T08:11:26Z</time>
      </trkpt>
      <trkpt lat="47.23677" lon="-1.55054">
        <ele>7.83</ele>
        <time>2013-12-23T08:11:30Z</time>
      </trkpt>
      <trkpt lat="47.23689" lon="-1.55053">
        <ele>7.83</ele>
        <time>2013-12-23T08:11:33Z</time>
      </trkpt>
      <trkpt lat="47.23701" lon="-1.55056">
        <ele>8.31</ele>
        <time>2013-12-23T08:11:36Z</time>
      </trkpt>
      <trkpt lat="47.23711" lon="-1.55055">
        <ele>8.79</ele>
        <time>2013-12-23T08:11:39Z</time>
      </trkpt>
      <trkpt lat="47.23724" lon="-1.55052">
        <ele>9.75</ele>
        <time>2013-12-23T08:11:42Z</time>
      </trkpt>
      <trkpt lat="47.23737" lon="-1.55052">
        <ele>10.71</ele>
        <time>2013-12-23T08:11:45Z</time>
      </trkpt>
      <trkpt lat="47.2375" lon="-1.55055">
        <ele>11.67</ele>
        <time>2013-12-23T08:11:48Z</time>
      </trkpt>
      <trkpt lat="47.23763" lon="-1.55059">
        <ele>13.12</ele>
        <time>2013-12-23T08:11:51Z</time>
      </trkpt>
      <trkpt lat="47.23776" lon="-1.55062">
        <ele>14.08</ele>
        <time>2013-12-23T08:11:54Z</time>
      </trkpt>
      <trkpt lat="47.23788" lon="-1.55064">
        <ele>14.56</ele>
        <time>2013-12-23T08:11:57Z</time>
      </trkpt>
      <trkpt lat="47.238" lon="-1.55062">
        <ele>15.04</ele>
        <time>2013-12-23T08:12:00Z</time>
      </trkpt>
      <trkpt lat="47.2381" lon="-1.55059">
        <ele>15.52</ele>
        <time>2013-12-23T08:12:03Z</time>
      </trkpt>
      <trkpt lat="47.23822" lon="-1.55058">
        <ele>16.48</ele>
        <time>2013-12-23T08:12:07Z</time>
      </trkpt>
      <trkpt lat="47.23833" lon="-1.55048">
        <ele>18.4</ele>
        <time>2013-12-23T08:12:11Z</time>
      </trkpt>
      <trkpt lat="47.23843" lon="-1.55041">
        <ele>19.36</ele>
        <time>2013-12-23T08:12:14Z</time>
      </trkpt>
      <trkpt lat="47.23854" lon="-1.55033">
        <ele>19.84</ele>
        <time>2013-12-23T08:12:17Z</time>
      </trkpt>
      <trkpt lat="47.23864" lon="-1.55023">
        <ele>19.84</ele>
        <time>2013-12-23T08:12:20Z</time>
      </trkpt>
      <trkpt lat="47.23875" lon="-1.55012">
        <ele>19.84</ele>
        <time>2013-12-23T08:12:23Z</time>
      </trkpt>
      <trkpt lat="47.23887" lon="-1.5501">
        <ele>19.36</ele>
        <time>2013-12-23T08:12:26Z</time>
      </trkpt>
      <trkpt lat="47.23898" lon="-1.55014">
        <ele>18.88</ele>
        <time>2013-12-23T08:12:29Z</time>
      </trkpt>
      <trkpt lat="47.23908" lon="-1.55012">
        <ele>17.92</ele>
        <time>2013-12-23T08:12:32Z</time>
      </trkpt>
      <trkpt lat="47.23919" lon="-1.55011">
        <ele>16.48</ele>
        <time>2013-12-23T08:12:37Z</time>
      </trkpt>
      <trkpt lat="47.2393" lon="-1.55008">
        <ele>15.52</ele>
        <time>2013-12-23T08:12:41Z</time>
      </trkpt>
      <trkpt lat="47.2394" lon="-1.54998">
        <ele>14.08</ele>
        <time>2013-12-23T08:12:44Z</time>
      </trkpt>
      <trkpt lat="47.2395" lon="-1.54988">
        <ele>13.6</ele>
        <time>2013-12-23T08:12:47Z</time>
      </trkpt>
      <trkpt lat="47.23961" lon="-1.54977">
        <ele>13.6</ele>
        <time>2013-12-23T08:12:50Z</time>
      </trkpt>
      <trkpt lat="47.23973" lon="-1.54964">
        <ele>14.08</ele>
        <time>2013-12-23T08:12:53Z</time>
      </trkpt>
      <trkpt lat="47.23984" lon="-1.54953">
        <ele>16</ele>
        <time>2013-12-23T08:12:56Z</time>
      </trkpt>
      <trkpt lat="47.23995" lon="-1.54941">
        <ele>17.92</ele>
        <time>2013-12-23T08:12:59Z</time>
      </trkpt>
      <trkpt lat="47.24005" lon="-1.54928">
        <ele>19.84</ele>
        <time>2013-12-23T08:13:02Z</time>
      </trkpt>
      <trkpt lat="47.24016" lon="-1.54913">
        <ele>20.81</ele>
        <time>2013-12-23T08:13:05Z</time>
      </trkpt>
      <trkpt lat="47.24023" lon="-1.54902">
        <ele>21.29</ele>
        <time>2013-12-23T08:13:07Z</time>
      </trkpt>
      <trkpt lat="47.2403" lon="-1.54891">
        <ele>21.77</ele>
        <time>2013-12-23T08:13:09Z</time>
      </trkpt>
      <trkpt lat="47.24038" lon="-1.54879">
        <ele>20.81</ele>
        <time>2013-12-23T08:13:11Z</time>
      </trkpt>
      <trkpt lat="47.24046" lon="-1.54868">
        <ele>19.36</ele>
        <time>2013-12-23T08:13:13Z</time>
      </trkpt>
      <trkpt lat="47.24054" lon="-1.54858">
        <ele>18.4</ele>
        <time>2013-12-23T08:13:15Z</time>
      </trkpt>
      <trkpt lat="47.24066" lon="-1.54845">
        <ele>17.44</ele>
        <time>2013-12-23T08:13:18Z</time>
      </trkpt>
      <trkpt lat="47.24073" lon="-1.54837">
        <ele>17.44</ele>
        <time>2013-12-23T08:13:20Z</time>
      </trkpt>
      <trkpt lat="47.24085" lon="-1.54826">
        <ele>17.44</ele>
        <time>2013-12-23T08:13:23Z</time>
      </trkpt>
      <trkpt lat="47.24096" lon="-1.54813">
        <ele>16.96</ele>
        <time>2013-12-23T08:13:26Z</time>
      </trkpt>
      <trkpt lat="47.24104" lon="-1.54805">
        <ele>16</ele>
        <time>2013-12-23T08:13:28Z</time>
      </trkpt>
      <trkpt lat="47.24116" lon="-1.54803">
        <ele>15.52</ele>
        <time>2013-12-23T08:13:31Z</time>
      </trkpt>
      <trkpt lat="47.24127" lon="-1.548">
        <ele>15.52</ele>
        <time>2013-12-23T08:13:34Z</time>
      </trkpt>
      <trkpt lat="47.2414" lon="-1.54796">
        <ele>15.04</ele>
        <time>2013-12-23T08:13:37Z</time>
      </trkpt>
      <trkpt lat="47.24149" lon="-1.54794">
        <ele>14.56</ele>
        <time>2013-12-23T08:13:39Z</time>
      </trkpt>
      <trkpt lat="47.24164" lon="-1.54794">
        <ele>14.08</ele>
        <time>2013-12-23T08:13:42Z</time>
      </trkpt>
      <trkpt lat="47.24173" lon="-1.54795">
        <ele>14.08</ele>
        <time>2013-12-23T08:13:44Z</time>
      </trkpt>
      <trkpt lat="47.24187" lon="-1.54801">
        <ele>14.08</ele>
        <time>2013-12-23T08:13:47Z</time>
      </trkpt>
      <trkpt lat="47.24198" lon="-1.54807">
        <ele>14.08</ele>
        <time>2013-12-23T08:13:50Z</time>
      </trkpt>
      <trkpt lat="47.24208" lon="-1.54814">
        <ele>14.08</ele>
        <time>2013-12-23T08:13:53Z</time>
      </trkpt>
      <trkpt lat="47.2422" lon="-1.54819">
        <ele>15.04</ele>
        <time>2013-12-23T08:13:56Z</time>
      </trkpt>
      <trkpt lat="47.24232" lon="-1.54823">
        <ele>14.08</ele>
        <time>2013-12-23T08:14:02Z</time>
      </trkpt>
      <trkpt lat="47.24249" lon="-1.54821">
        <ele>11.67</ele>
        <time>2013-12-23T08:14:42Z</time>
      </trkpt>
      <trkpt lat="47.2426" lon="-1.54815">
        <ele>10.71</ele>
        <time>2013-12-23T08:14:59Z</time>
      </trkpt>
      <trkpt lat="47.2427" lon="-1.54811">
        <ele>9.27</ele>
        <time>2013-12-23T08:15:11Z</time>
      </trkpt>
      <trkpt lat="47.24283" lon="-1.54806">
        <ele>9.75</ele>
        <time>2013-12-23T08:15:15Z</time>
      </trkpt>
      <trkpt lat="47.24292" lon="-1.54801">
        <ele>10.23</ele>
        <time>2013-12-23T08:15:18Z</time>
      </trkpt>
      <trkpt lat="47.24303" lon="-1.54797">
        <ele>10.71</ele>
        <time>2013-12-23T08:15:21Z</time>
      </trkpt>
      <trkpt lat="47.24313" lon="-1.54793">
        <ele>10.71</ele>
        <time>2013-12-23T08:15:24Z</time>
      </trkpt>
      <trkpt lat="47.24325" lon="-1.54793">
        <ele>11.67</ele>
        <time>2013-12-23T08:15:29Z</time>
      </trkpt>
      <trkpt lat="47.24335" lon="-1.54794">
        <ele>12.63</ele>
        <time>2013-12-23T08:15:34Z</time>
      </trkpt>
      <trkpt lat="47.24346" lon="-1.54789">
        <ele>15.04</ele>
        <time>2013-12-23T08:15:43Z</time>
      </trkpt>
      <trkpt lat="47.24356" lon="-1.54779">
        <ele>16.96</ele>
        <time>2013-12-23T08:15:49Z</time>
      </trkpt>
      <trkpt lat="47.24368" lon="-1.54769">
        <ele>17.44</ele>
        <time>2013-12-23T08:15:54Z</time>
      </trkpt>
      <trkpt lat="47.24376" lon="-1.54756">
        <ele>17.92</ele>
        <time>2013-12-23T08:15:59Z</time>
      </trkpt>
      <trkpt lat="47.24384" lon="-1.54747">
        <ele>18.4</ele>
        <time>2013-12-23T08:16:03Z</time>
      </trkpt>
      <trkpt lat="47.24393" lon="-1.54736">
        <ele>19.36</ele>
        <time>2013-12-23T08:16:08Z</time>
      </trkpt>
      <trkpt lat="47.24403" lon="-1.54728">
        <ele>19.84</ele>
        <time>2013-12-23T08:16:12Z</time>
      </trkpt>
      <trkpt lat="47.24413" lon="-1.54721">
        <ele>19.84</ele>
        <time>2013-12-23T08:16:16Z</time>
      </trkpt>
      <trkpt lat="47.24423" lon="-1.54716">
        <ele>19.84</ele>
        <time>2013-12-23T08:16:20Z</time>
      </trkpt>
      <trkpt lat="47.24435" lon="-1.54711">
        <ele>19.84</ele>
        <time>2013-12-23T08:16:24Z</time>
      </trkpt>
      <trkpt lat="47.24447" lon="-1.54708">
        <ele>19.84</ele>
        <time>2013-12-23T08:16:28Z</time>
      </trkpt>
      <trkpt lat="47.24457" lon="-1.5471">
        <ele>19.36</ele>
        <time>2013-12-23T08:16:34Z</time>
      </trkpt>
      <trkpt lat="47.24468" lon="-1.54708">
        <ele>20.32</ele>
        <time>2013-12-23T08:16:39Z</time>
      </trkpt>
      <trkpt lat="47.24479" lon="-1.54703">
        <ele>22.25</ele>
        <time>2013-12-23T08:16:43Z</time>
      </trkpt>
      <trkpt lat="47.24492" lon="-1.54698">
        <ele>22.73</ele>
        <time>2013-12-23T08:16:47Z</time>
      </trkpt>
      <trkpt lat="47.24504" lon="-1.54695">
        <ele>22.25</ele>
        <time>2013-12-23T08:16:50Z</time>
      </trkpt>
      <trkpt lat="47.24518" lon="-1.54694">
        <ele>21.77</ele>
        <time>2013-12-23T08:16:53Z</time>
      </trkpt>
      <trkpt lat="47.24532" lon="-1.54693">
        <ele>20.81</ele>
        <time>2013-12-23T08:16:56Z</time>
      </trkpt>
      <trkpt lat="47.24544" lon="-1.54692">
        <ele>20.32</ele>
        <time>2013-12-23T08:16:59Z</time>
      </trkpt>
      <trkpt lat="47.24556" lon="-1.54692">
        <ele>18.88</ele>
        <time>2013-12-23T08:17:02Z</time>
      </trkpt>
      <trkpt lat="47.24568" lon="-1.54692">
        <ele>17.44</ele>
        <time>2013-12-23T08:17:06Z</time>
      </trkpt>
      <trkpt lat="47.24574" lon="-1.54684">
        <ele>18.4</ele>
        <time>2013-12-23T08:17:11Z</time>
      </trkpt>
      <trkpt lat="47.24577" lon="-1.54668">
        <ele>19.36</ele>
        <time>2013-12-23T08:17:16Z</time>
      </trkpt>
      <trkpt lat="47.24587" lon="-1.54657">
        <ele>20.81</ele>
        <time>2013-12-23T08:17:21Z</time>
      </trkpt>
      <trkpt lat="47.24598" lon="-1.54647">
        <ele>21.29</ele>
        <time>2013-12-23T08:17:26Z</time>
      </trkpt>
      <trkpt lat="47.24609" lon="-1.54638">
        <ele>20.81</ele>
        <time>2013-12-23T08:17:30Z</time>
      </trkpt>
      <trkpt lat="47.24619" lon="-1.54632">
        <ele>20.81</ele>
        <time>2013-12-23T08:17:33Z</time>
      </trkpt>
      <trkpt lat="47.24631" lon="-1.54624">
        <ele>19.84</ele>
        <time>2013-12-23T08:17:36Z</time>
      </trkpt>
      <trkpt lat="47.24643" lon="-1.54617">
        <ele>18.4</ele>
        <time>2013-12-23T08:17:40Z</time>
      </trkpt>
      <trkpt lat="47.24646" lon="-1.54604">
        <ele>15.52</ele>
        <time>2013-12-23T08:17:44Z</time>
      </trkpt>
      <trkpt lat="47.24638" lon="-1.54598">
        <ele>12.15</ele>
        <time>2013-12-23T08:17:49Z</time>
      </trkpt>
      <trkpt lat="47.24648" lon="-1.54587">
        <ele>9.27</ele>
        <time>2013-12-23T08:17:54Z</time>
      </trkpt>
      <trkpt lat="47.2466" lon="-1.54581">
        <ele>7.83</ele>
        <time>2013-12-23T08:17:58Z</time>
      </trkpt>
      <trkpt lat="47.24673" lon="-1.54575">
        <ele>7.35</ele>
        <time>2013-12-23T08:18:01Z</time>
      </trkpt>
      <trkpt lat="47.24686" lon="-1.54569">
        <ele>6.39</ele>
        <time>2013-12-23T08:18:04Z</time>
      </trkpt>
      <trkpt lat="47.24699" lon="-1.54563">
        <ele>5.42</ele>
        <time>2013-12-23T08:18:07Z</time>
      </trkpt>
      <trkpt lat="47.24711" lon="-1.54555">
        <ele>5.42</ele>
        <time>2013-12-23T08:18:10Z</time>
      </trkpt>
      <trkpt lat="47.24724" lon="-1.54547">
        <ele>5.42</ele>
        <time>2013-12-23T08:18:13Z</time>
      </trkpt>
      <trkpt lat="47.24735" lon="-1.54539">
        <ele>3.98</ele>
        <time>2013-12-23T08:18:16Z</time>
      </trkpt>
      <trkpt lat="47.24747" lon="-1.54528">
        <ele>3.98</ele>
        <time>2013-12-23T08:18:19Z</time>
      </trkpt>
      <trkpt lat="47.24755" lon="-1.54517">
        <ele>3.98</ele>
        <time>2013-12-23T08:18:23Z</time>
      </trkpt>
      <trkpt lat="47.24765" lon="-1.54508">
        <ele>4.94</ele>
        <time>2013-12-23T08:18:29Z</time>
      </trkpt>
      <trkpt lat="47.24773" lon="-1.54495">
        <ele>5.42</ele>
        <time>2013-12-23T08:18:33Z</time>
      </trkpt>
      <trkpt lat="47.24782" lon="-1.54485">
        <ele>5.91</ele>
        <time>2013-12-23T08:18:36Z</time>
      </trkpt>
      <trkpt lat="47.2479" lon="-1.54475">
        <ele>5.42</ele>
        <time>2013-12-23T08:18:39Z</time>
      </trkpt>
      <trkpt lat="47.248" lon="-1.54464">
        <ele>5.91</ele>
        <time>2013-12-23T08:18:42Z</time>
      </trkpt>
      <trkpt lat="47.24811" lon="-1.54452">
        <ele>6.39</ele>
        <time>2013-12-23T08:18:45Z</time>
      </trkpt>
      <trkpt lat="47.24821" lon="-1.5444">
        <ele>6.39</ele>
        <time>2013-12-23T08:18:48Z</time>
      </trkpt>
      <trkpt lat="47.24831" lon="-1.54428">
        <ele>7.35</ele>
        <time>2013-12-23T08:18:51Z</time>
      </trkpt>
      <trkpt lat="47.24842" lon="-1.54417">
        <ele>8.79</ele>
        <time>2013-12-23T08:18:54Z</time>
      </trkpt>
      <trkpt lat="47.24853" lon="-1.54404">
        <ele>8.79</ele>
        <time>2013-12-23T08:18:57Z</time>
      </trkpt>
      <trkpt lat="47.24864" lon="-1.54392">
        <ele>8.31</ele>
        <time>2013-12-23T08:19:00Z</time>
      </trkpt>
      <trkpt lat="47.24872" lon="-1.54384">
        <ele>7.83</ele>
        <time>2013-12-23T08:19:02Z</time>
      </trkpt>
      <trkpt lat="47.2488" lon="-1.54375">
        <ele>8.31</ele>
        <time>2013-12-23T08:19:04Z</time>
      </trkpt>
      <trkpt lat="47.24887" lon="-1.54366">
        <ele>8.79</ele>
        <time>2013-12-23T08:19:06Z</time>
      </trkpt>
      <trkpt lat="47.24895" lon="-1.54356">
        <ele>8.31</ele>
        <time>2013-12-23T08:19:08Z</time>
      </trkpt>
      <trkpt lat="47.24903" lon="-1.54346">
        <ele>8.79</ele>
        <time>2013-12-23T08:19:10Z</time>
      </trkpt>
      <trkpt lat="47.24911" lon="-1.54337">
        <ele>9.27</ele>
        <time>2013-12-23T08:19:12Z</time>
      </trkpt>
      <trkpt lat="47.24918" lon="-1.54328">
        <ele>8.79</ele>
        <time>2013-12-23T08:19:14Z</time>
      </trkpt>
      <trkpt lat="47.24926" lon="-1.54319">
        <ele>8.31</ele>
        <time>2013-12-23T08:19:16Z</time>
      </trkpt>
      <trkpt lat="47.24934" lon="-1.54309">
        <ele>8.31</ele>
        <time>2013-12-23T08:19:18Z</time>
      </trkpt>
      <trkpt lat="47.24942" lon="-1.54299">
        <ele>8.31</ele>
        <time>2013-12-23T08:19:20Z</time>
      </trkpt>
      <trkpt lat="47.2495" lon="-1.5429">
        <ele>8.79</ele>
        <time>2013-12-23T08:19:22Z</time>
      </trkpt>
      <trkpt lat="47.24958" lon="-1.54278">
        <ele>8.79</ele>
        <time>2013-12-23T08:19:24Z</time>
      </trkpt>
      <trkpt lat="47.24965" lon="-1.54266">
        <ele>8.31</ele>
        <time>2013-12-23T08:19:26Z</time>
      </trkpt>
      <trkpt lat="47.24975" lon="-1.54255">
        <ele>7.83</ele>
        <time>2013-12-23T08:19:28Z</time>
      </trkpt>
      <trkpt lat="47.24984" lon="-1.54244">
        <ele>7.83</ele>
        <time>2013-12-23T08:19:30Z</time>
      </trkpt>
      <trkpt lat="47.24993" lon="-1.54234">
        <ele>8.31</ele>
        <time>2013-12-23T08:19:32Z</time>
      </trkpt>
      <trkpt lat="47.25001" lon="-1.54224">
        <ele>8.31</ele>
        <time>2013-12-23T08:19:34Z</time>
      </trkpt>
      <trkpt lat="47.25009" lon="-1.54216">
        <ele>8.31</ele>
        <time>2013-12-23T08:19:36Z</time>
      </trkpt>
      <trkpt lat="47.25017" lon="-1.54207">
        <ele>8.31</ele>
        <time>2013-12-23T08:19:38Z</time>
      </trkpt>
      <trkpt lat="47.25025" lon="-1.54198">
        <ele>7.83</ele>
        <time>2013-12-23T08:19:40Z</time>
      </trkpt>
      <trkpt lat="47.25033" lon="-1.54189">
        <ele>7.35</ele>
        <time>2013-12-23T08:19:42Z</time>
      </trkpt>
      <trkpt lat="47.25041" lon="-1.54179">
        <ele>7.35</ele>
        <time>2013-12-23T08:19:44Z</time>
      </trkpt>
      <trkpt lat="47.25049" lon="-1.54169">
        <ele>6.87</ele>
        <time>2013-12-23T08:19:46Z</time>
      </trkpt>
      <trkpt lat="47.25056" lon="-1.54158">
        <ele>6.87</ele>
        <time>2013-12-23T08:19:48Z</time>
      </trkpt>
      <trkpt lat="47.25064" lon="-1.54149">
        <ele>6.87</ele>
        <time>2013-12-23T08:19:50Z</time>
      </trkpt>
      <trkpt lat="47.25071" lon="-1.54141">
        <ele>6.39</ele>
        <time>2013-12-23T08:19:52Z</time>
      </trkpt>
      <trkpt lat="47.25079" lon="-1.54134">
        <ele>6.39</ele>
        <time>2013-12-23T08:19:54Z</time>
      </trkpt>
      <trkpt lat="47.25088" lon="-1.54126">
        <ele>6.39</ele>
        <time>2013-12-23T08:19:56Z</time>
      </trkpt>
      <trkpt lat="47.25096" lon="-1.54121">
        <ele>6.39</ele>
        <time>2013-12-23T08:19:58Z</time>
      </trkpt>
      <trkpt lat="47.25105" lon="-1.54115">
        <ele>6.39</ele>
        <time>2013-12-23T08:20:00Z</time>
      </trkpt>
      <trkpt lat="47.25114" lon="-1.5411">
        <ele>6.39</ele>
        <time>2013-12-23T08:20:02Z</time>
      </trkpt>
      <trkpt lat="47.25122" lon="-1.54102">
        <ele>6.39</ele>
        <time>2013-12-23T08:20:04Z</time>
      </trkpt>
      <trkpt lat="47.25131" lon="-1.54089">
        <ele>6.39</ele>
        <time>2013-12-23T08:20:07Z</time>
      </trkpt>
      <trkpt lat="47.25141" lon="-1.54078">
        <ele>6.39</ele>
        <time>2013-12-23T08:20:10Z</time>
      </trkpt>
      <trkpt lat="47.25151" lon="-1.54069">
        <ele>5.91</ele>
        <time>2013-12-23T08:20:13Z</time>
      </trkpt>
      <trkpt lat="47.25164" lon="-1.54065">
        <ele>5.91</ele>
        <time>2013-12-23T08:20:16Z</time>
      </trkpt>
      <trkpt lat="47.25173" lon="-1.54063">
        <ele>6.39</ele>
        <time>2013-12-23T08:20:18Z</time>
      </trkpt>
      <trkpt lat="47.25182" lon="-1.54061">
        <ele>6.39</ele>
        <time>2013-12-23T08:20:20Z</time>
      </trkpt>
      <trkpt lat="47.25192" lon="-1.54058">
        <ele>6.39</ele>
        <time>2013-12-23T08:20:22Z</time>
      </trkpt>
      <trkpt lat="47.25201" lon="-1.54056">
        <ele>5.91</ele>
        <time>2013-12-23T08:20:24Z</time>
      </trkpt>
      <trkpt lat="47.25214" lon="-1.54052">
        <ele>5.91</ele>
        <time>2013-12-23T08:20:27Z</time>
      </trkpt>
      <trkpt lat="47.25227" lon="-1.54048">
        <ele>5.42</ele>
        <time>2013-12-23T08:20:30Z</time>
      </trkpt>
      <trkpt lat="47.25235" lon="-1.54046">
        <ele>5.42</ele>
        <time>2013-12-23T08:20:32Z</time>
      </trkpt>
      <trkpt lat="47.25247" lon="-1.54044">
        <ele>5.42</ele>
        <time>2013-12-23T08:20:35Z</time>
      </trkpt>
      <trkpt lat="47.2526" lon="-1.54042">
        <ele>5.42</ele>
        <time>2013-12-23T08:20:38Z</time>
      </trkpt>
      <trkpt lat="47.25273" lon="-1.54039">
        <ele>5.42</ele>
        <time>2013-12-23T08:20:41Z</time>
      </trkpt>
      <trkpt lat="47.25283" lon="-1.54037">
        <ele>5.42</ele>
        <time>2013-12-23T08:20:43Z</time>
      </trkpt>
      <trkpt lat="47.25292" lon="-1.54034">
        <ele>5.91</ele>
        <time>2013-12-23T08:20:45Z</time>
      </trkpt>
      <trkpt lat="47.25302" lon="-1.54032">
        <ele>5.42</ele>
        <time>2013-12-23T08:20:47Z</time>
      </trkpt>
      <trkpt lat="47.25311" lon="-1.5403">
        <ele>5.42</ele>
        <time>2013-12-23T08:20:49Z</time>
      </trkpt>
      <trkpt lat="47.25322" lon="-1.54027">
        <ele>5.42</ele>
        <time>2013-12-23T08:20:52Z</time>
      </trkpt>
      <trkpt lat="47.25329" lon="-1.54037">
        <ele>7.83</ele>
        <time>2013-12-23T08:20:57Z</time>
      </trkpt>
      <trkpt lat="47.25341" lon="-1.54035">
        <ele>9.27</ele>
        <time>2013-12-23T08:21:01Z</time>
      </trkpt>
      <trkpt lat="47.25353" lon="-1.54032">
        <ele>10.23</ele>
        <time>2013-12-23T08:21:04Z</time>
      </trkpt>
      <trkpt lat="47.25362" lon="-1.54031">
        <ele>10.71</ele>
        <time>2013-12-23T08:21:06Z</time>
      </trkpt>
      <trkpt lat="47.25375" lon="-1.54027">
        <ele>11.19</ele>
        <time>2013-12-23T08:21:09Z</time>
      </trkpt>
      <trkpt lat="47.25386" lon="-1.54025">
        <ele>11.67</ele>
        <time>2013-12-23T08:21:11Z</time>
      </trkpt>
      <trkpt lat="47.25396" lon="-1.54022">
        <ele>12.15</ele>
        <time>2013-12-23T08:21:13Z</time>
      </trkpt>
      <trkpt lat="47.25407" lon="-1.54019">
        <ele>12.63</ele>
        <time>2013-12-23T08:21:15Z</time>
      </trkpt>
      <trkpt lat="47.25417" lon="-1.54018">
        <ele>12.63</ele>
        <time>2013-12-23T08:21:17Z</time>
      </trkpt>
      <trkpt lat="47.25428" lon="-1.54015">
        <ele>13.6</ele>
        <time>2013-12-23T08:21:19Z</time>
      </trkpt>
      <trkpt lat="47.25438" lon="-1.54014">
        <ele>13.12</ele>
        <time>2013-12-23T08:21:21Z</time>
      </trkpt>
      <trkpt lat="47.25448" lon="-1.54013">
        <ele>13.6</ele>
        <time>2013-12-23T08:21:23Z</time>
      </trkpt>
      <trkpt lat="47.25458" lon="-1.54013">
        <ele>13.12</ele>
        <time>2013-12-23T08:21:25Z</time>
      </trkpt>
      <trkpt lat="47.25468" lon="-1.54013">
        <ele>12.63</ele>
        <time>2013-12-23T08:21:27Z</time>
      </trkpt>
      <trkpt lat="47.25482" lon="-1.54013">
        <ele>13.12</ele>
        <time>2013-12-23T08:21:30Z</time>
      </trkpt>
      <trkpt lat="47.25493" lon="-1.54012">
        <ele>14.08</ele>
        <time>2013-12-23T08:21:33Z</time>
      </trkpt>
      <trkpt lat="47.25506" lon="-1.54009">
        <ele>15.52</ele>
        <time>2013-12-23T08:21:36Z</time>
      </trkpt>
      <trkpt lat="47.25514" lon="-1.54006">
        <ele>16.48</ele>
        <time>2013-12-23T08:21:38Z</time>
      </trkpt>
      <trkpt lat="47.25527" lon="-1.54002">
        <ele>17.44</ele>
        <time>2013-12-23T08:21:41Z</time>
      </trkpt>
      <trkpt lat="47.25537" lon="-1.53998">
        <ele>17.92</ele>
        <time>2013-12-23T08:21:43Z</time>
      </trkpt>
      <trkpt lat="47.25546" lon="-1.53994">
        <ele>17.44</ele>
        <time>2013-12-23T08:21:45Z</time>
      </trkpt>
      <trkpt lat="47.25561" lon="-1.53989">
        <ele>17.44</ele>
        <time>2013-12-23T08:21:48Z</time>
      </trkpt>
      <trkpt lat="47.25571" lon="-1.53985">
        <ele>17.92</ele>
        <time>2013-12-23T08:21:50Z</time>
      </trkpt>
      <trkpt lat="47.2558" lon="-1.5398">
        <ele>17.92</ele>
        <time>2013-12-23T08:21:52Z</time>
      </trkpt>
      <trkpt lat="47.25589" lon="-1.53975">
        <ele>17.92</ele>
        <time>2013-12-23T08:21:54Z</time>
      </trkpt>
      <trkpt lat="47.25598" lon="-1.53969">
        <ele>18.4</ele>
        <time>2013-12-23T08:21:56Z</time>
      </trkpt>
      <trkpt lat="47.25608" lon="-1.53963">
        <ele>18.4</ele>
        <time>2013-12-23T08:21:58Z</time>
      </trkpt>
      <trkpt lat="47.25619" lon="-1.53956">
        <ele>18.4</ele>
        <time>2013-12-23T08:22:00Z</time>
      </trkpt>
      <trkpt lat="47.25629" lon="-1.5395">
        <ele>18.4</ele>
        <time>2013-12-23T08:22:02Z</time>
      </trkpt>
      <trkpt lat="47.25641" lon="-1.53945">
        <ele>18.4</ele>
        <time>2013-12-23T08:22:04Z</time>
      </trkpt>
      <trkpt lat="47.25652" lon="-1.53941">
        <ele>18.4</ele>
        <time>2013-12-23T08:22:06Z</time>
      </trkpt>
      <trkpt lat="47.25662" lon="-1.53937">
        <ele>17.92</ele>
        <time>2013-12-23T08:22:08Z</time>
      </trkpt>
      <trkpt lat="47.25671" lon="-1.53932">
        <ele>17.44</ele>
        <time>2013-12-23T08:22:10Z</time>
      </trkpt>
      <trkpt lat="47.25682" lon="-1.53922">
        <ele>16.48</ele>
        <time>2013-12-23T08:22:13Z</time>
      </trkpt>
      <trkpt lat="47.25697" lon="-1.53914">
        <ele>15.52</ele>
        <time>2013-12-23T08:22:16Z</time>
      </trkpt>
      <trkpt lat="47.25706" lon="-1.53911">
        <ele>15.04</ele>
        <time>2013-12-23T08:22:18Z</time>
      </trkpt>
      <trkpt lat="47.25716" lon="-1.53913">
        <ele>14.56</ele>
        <time>2013-12-23T08:22:20Z</time>
      </trkpt>
      <trkpt lat="47.25726" lon="-1.53912">
        <ele>14.08</ele>
        <time>2013-12-23T08:22:22Z</time>
      </trkpt>
      <trkpt lat="47.25735" lon="-1.53907">
        <ele>13.6</ele>
        <time>2013-12-23T08:22:24Z</time>
      </trkpt>
      <trkpt lat="47.25745" lon="-1.53902">
        <ele>13.12</ele>
        <time>2013-12-23T08:22:26Z</time>
      </trkpt>
      <trkpt lat="47.25755" lon="-1.53905">
        <ele>12.15</ele>
        <time>2013-12-23T08:22:28Z</time>
      </trkpt>
      <trkpt lat="47.25765" lon="-1.53911">
        <ele>11.67</ele>
        <time>2013-12-23T08:22:30Z</time>
      </trkpt>
      <trkpt lat="47.25775" lon="-1.53914">
        <ele>11.19</ele>
        <time>2013-12-23T08:22:32Z</time>
      </trkpt>
      <trkpt lat="47.25785" lon="-1.53915">
        <ele>10.71</ele>
        <time>2013-12-23T08:22:34Z</time>
      </trkpt>
      <trkpt lat="47.25797" lon="-1.5391">
        <ele>10.23</ele>
        <time>2013-12-23T08:22:37Z</time>
      </trkpt>
      <trkpt lat="47.25807" lon="-1.53903">
        <ele>9.75</ele>
        <time>2013-12-23T08:22:40Z</time>
      </trkpt>
      <trkpt lat="47.25816" lon="-1.53896">
        <ele>9.75</ele>
        <time>2013-12-23T08:22:43Z</time>
      </trkpt>
      <trkpt lat="47.25827" lon="-1.53892">
        <ele>10.23</ele>
        <time>2013-12-23T08:22:46Z</time>
      </trkpt>
      <trkpt lat="47.25839" lon="-1.53893">
        <ele>9.75</ele>
        <time>2013-12-23T08:22:49Z</time>
      </trkpt>
      <trkpt lat="47.25849" lon="-1.53895">
        <ele>9.75</ele>
        <time>2013-12-23T08:22:52Z</time>
      </trkpt>
      <trkpt lat="47.25859" lon="-1.53892">
        <ele>9.75</ele>
        <time>2013-12-23T08:22:55Z</time>
      </trkpt>
      <trkpt lat="47.2587" lon="-1.53886">
        <ele>9.75</ele>
        <time>2013-12-23T08:22:59Z</time>
      </trkpt>
      <trkpt lat="47.25875" lon="-1.53898">
        <ele>9.75</ele>
        <time>2013-12-23T08:23:03Z</time>
      </trkpt>
      <trkpt lat="47.25879" lon="-1.53912">
        <ele>10.23</ele>
        <time>2013-12-23T08:23:07Z</time>
      </trkpt>
      <trkpt lat="47.25889" lon="-1.53911">
        <ele>9.75</ele>
        <time>2013-12-23T08:23:11Z</time>
      </trkpt>
      <trkpt lat="47.25898" lon="-1.53905">
        <ele>9.75</ele>
        <time>2013-12-23T08:23:14Z</time>
      </trkpt>
      <trkpt lat="47.25906" lon="-1.53899">
        <ele>9.75</ele>
        <time>2013-12-23T08:23:17Z</time>
      </trkpt>
      <trkpt lat="47.25915" lon="-1.53892">
        <ele>10.23</ele>
        <time>2013-12-23T08:23:20Z</time>
      </trkpt>
      <trkpt lat="47.25926" lon="-1.53889">
        <ele>10.23</ele>
        <time>2013-12-23T08:23:23Z</time>
      </trkpt>
      <trkpt lat="47.25936" lon="-1.53881">
        <ele>10.23</ele>
        <time>2013-12-23T08:23:26Z</time>
      </trkpt>
      <trkpt lat="47.25947" lon="-1.5387">
        <ele>10.23</ele>
        <time>2013-12-23T08:23:29Z</time>
      </trkpt>
      <trkpt lat="47.25959" lon="-1.5386">
        <ele>9.75</ele>
        <time>2013-12-23T08:23:32Z</time>
      </trkpt>
      <trkpt lat="47.25971" lon="-1.53853">
        <ele>10.23</ele>
        <time>2013-12-23T08:23:35Z</time>
      </trkpt>
      <trkpt lat="47.25984" lon="-1.53848">
        <ele>10.23</ele>
        <time>2013-12-23T08:23:38Z</time>
      </trkpt>
      <trkpt lat="47.25997" lon="-1.53845">
        <ele>10.23</ele>
        <time>2013-12-23T08:23:41Z</time>
      </trkpt>
      <trkpt lat="47.26006" lon="-1.53842">
        <ele>10.23</ele>
        <time>2013-12-23T08:23:43Z</time>
      </trkpt>
      <trkpt lat="47.26015" lon="-1.5384">
        <ele>9.75</ele>
        <time>2013-12-23T08:23:45Z</time>
      </trkpt>
      <trkpt lat="47.26025" lon="-1.5384">
        <ele>9.27</ele>
        <time>2013-12-23T08:23:47Z</time>
      </trkpt>
      <trkpt lat="47.26034" lon="-1.53841">
        <ele>9.27</ele>
        <time>2013-12-23T08:23:49Z</time>
      </trkpt>
      <trkpt lat="47.26044" lon="-1.53841">
        <ele>8.79</ele>
        <time>2013-12-23T08:23:51Z</time>
      </trkpt>
      <trkpt lat="47.26057" lon="-1.53843">
        <ele>8.79</ele>
        <time>2013-12-23T08:23:54Z</time>
      </trkpt>
      <trkpt lat="47.2607" lon="-1.53844">
        <ele>9.27</ele>
        <time>2013-12-23T08:23:57Z</time>
      </trkpt>
      <trkpt lat="47.26083" lon="-1.53843">
        <ele>9.27</ele>
        <time>2013-12-23T08:24:00Z</time>
      </trkpt>
      <trkpt lat="47.26093" lon="-1.5384">
        <ele>9.75</ele>
        <time>2013-12-23T08:24:03Z</time>
      </trkpt>
      <trkpt lat="47.26103" lon="-1.53837">
        <ele>10.71</ele>
        <time>2013-12-23T08:24:05Z</time>
      </trkpt>
      <trkpt lat="47.26112" lon="-1.53835">
        <ele>11.19</ele>
        <time>2013-12-23T08:24:07Z</time>
      </trkpt>
      <trkpt lat="47.26126" lon="-1.53835">
        <ele>12.15</ele>
        <time>2013-12-23T08:24:10Z</time>
      </trkpt>
      <trkpt lat="47.26138" lon="-1.53835">
        <ele>12.63</ele>
        <time>2013-12-23T08:24:13Z</time>
      </trkpt>
      <trkpt lat="47.26151" lon="-1.53836">
        <ele>13.12</ele>
        <time>2013-12-23T08:24:16Z</time>
      </trkpt>
      <trkpt lat="47.26162" lon="-1.5384">
        <ele>13.6</ele>
        <time>2013-12-23T08:24:19Z</time>
      </trkpt>
      <trkpt lat="47.26174" lon="-1.53847">
        <ele>13.12</ele>
        <time>2013-12-23T08:24:22Z</time>
      </trkpt>
      <trkpt lat="47.26183" lon="-1.53854">
        <ele>13.12</ele>
        <time>2013-12-23T08:24:26Z</time>
      </trkpt>
      <trkpt lat="47.26196" lon="-1.53856">
        <ele>12.15</ele>
        <time>2013-12-23T08:24:29Z</time>
      </trkpt>
      <trkpt lat="47.26207" lon="-1.53865">
        <ele>12.15</ele>
        <time>2013-12-23T08:24:32Z</time>
      </trkpt>
      <trkpt lat="47.26218" lon="-1.53875">
        <ele>12.63</ele>
        <time>2013-12-23T08:24:35Z</time>
      </trkpt>
      <trkpt lat="47.26229" lon="-1.53883">
        <ele>13.12</ele>
        <time>2013-12-23T08:24:38Z</time>
      </trkpt>
      <trkpt lat="47.2624" lon="-1.53893">
        <ele>14.08</ele>
        <time>2013-12-23T08:24:41Z</time>
      </trkpt>
      <trkpt lat="47.2625" lon="-1.53902">
        <ele>14.56</ele>
        <time>2013-12-23T08:24:44Z</time>
      </trkpt>
      <trkpt lat="47.26261" lon="-1.53912">
        <ele>15.52</ele>
        <time>2013-12-23T08:24:47Z</time>
      </trkpt>
      <trkpt lat="47.26274" lon="-1.53923">
        <ele>16</ele>
        <time>2013-12-23T08:24:50Z</time>
      </trkpt>
      <trkpt lat="47.26286" lon="-1.53933">
        <ele>16.48</ele>
        <time>2013-12-23T08:24:53Z</time>
      </trkpt>
      <trkpt lat="47.26297" lon="-1.53943">
        <ele>16.96</ele>
        <time>2013-12-23T08:24:56Z</time>
      </trkpt>
      <trkpt lat="47.26305" lon="-1.53954">
        <ele>16.96</ele>
        <time>2013-12-23T08:24:59Z</time>
      </trkpt>
      <trkpt lat="47.26316" lon="-1.53963">
        <ele>16.96</ele>
        <time>2013-12-23T08:25:02Z</time>
      </trkpt>
      <trkpt lat="47.26329" lon="-1.53971">
        <ele>16</ele>
        <time>2013-12-23T08:25:05Z</time>
      </trkpt>
      <trkpt lat="47.2634" lon="-1.53976">
        <ele>15.04</ele>
        <time>2013-12-23T08:25:07Z</time>
      </trkpt>
      <trkpt lat="47.26353" lon="-1.53982">
        <ele>14.56</ele>
        <time>2013-12-23T08:25:09Z</time>
      </trkpt>
      <trkpt lat="47.26369" lon="-1.53987">
        <ele>13.6</ele>
        <time>2013-12-23T08:25:11Z</time>
      </trkpt>
      <trkpt lat="47.26384" lon="-1.5399">
        <ele>13.12</ele>
        <time>2013-12-23T08:25:13Z</time>
      </trkpt>
      <trkpt lat="47.26398" lon="-1.53993">
        <ele>13.12</ele>
        <time>2013-12-23T08:25:15Z</time>
      </trkpt>
      <trkpt lat="47.26408" lon="-1.53993">
        <ele>12.63</ele>
        <time>2013-12-23T08:25:17Z</time>
      </trkpt>
      <trkpt lat="47.26419" lon="-1.53993">
        <ele>11.67</ele>
        <time>2013-12-23T08:25:21Z</time>
      </trkpt>
      <trkpt lat="47.26429" lon="-1.53997">
        <ele>12.15</ele>
        <time>2013-12-23T08:25:24Z</time>
      </trkpt>
      <trkpt lat="47.26441" lon="-1.53999">
        <ele>11.67</ele>
        <time>2013-12-23T08:25:27Z</time>
      </trkpt>
      <trkpt lat="47.26453" lon="-1.53997">
        <ele>11.19</ele>
        <time>2013-12-23T08:25:30Z</time>
      </trkpt>
      <trkpt lat="47.26465" lon="-1.53991">
        <ele>10.23</ele>
        <time>2013-12-23T08:25:33Z</time>
      </trkpt>
      <trkpt lat="47.26477" lon="-1.53985">
        <ele>9.75</ele>
        <time>2013-12-23T08:25:36Z</time>
      </trkpt>
      <trkpt lat="47.26483" lon="-1.53976">
        <ele>9.27</ele>
        <time>2013-12-23T08:25:39Z</time>
      </trkpt>
      <trkpt lat="47.26489" lon="-1.53973">
        <ele>8.31</ele>
        <time>2013-12-23T08:25:44Z</time>
      </trkpt>
      <trkpt lat="47.26498" lon="-1.53978">
        <ele>8.31</ele>
        <time>2013-12-23T08:25:48Z</time>
      </trkpt>
      <trkpt lat="47.26508" lon="-1.53982">
        <ele>8.79</ele>
        <time>2013-12-23T08:25:51Z</time>
      </trkpt>
      <trkpt lat="47.26518" lon="-1.53986">
        <ele>9.27</ele>
        <time>2013-12-23T08:25:54Z</time>
      </trkpt>
      <trkpt lat="47.26531" lon="-1.53993">
        <ele>9.27</ele>
        <time>2013-12-23T08:25:58Z</time>
      </trkpt>
      <trkpt lat="47.2654" lon="-1.53999">
        <ele>9.27</ele>
        <time>2013-12-23T08:26:01Z</time>
      </trkpt>
      <trkpt lat="47.2655" lon="-1.54005">
        <ele>9.27</ele>
        <time>2013-12-23T08:26:04Z</time>
      </trkpt>
      <trkpt lat="47.2656" lon="-1.54005">
        <ele>9.27</ele>
        <time>2013-12-23T08:26:09Z</time>
      </trkpt>
      <trkpt lat="47.26566" lon="-1.53994">
        <ele>11.19</ele>
        <time>2013-12-23T08:26:13Z</time>
      </trkpt>
      <trkpt lat="47.26573" lon="-1.53984">
        <ele>13.6</ele>
        <time>2013-12-23T08:26:19Z</time>
      </trkpt>
      <trkpt lat="47.26585" lon="-1.53983">
        <ele>16.48</ele>
        <time>2013-12-23T08:26:35Z</time>
      </trkpt>
      <trkpt lat="47.26596" lon="-1.53984">
        <ele>17.92</ele>
        <time>2013-12-23T08:26:42Z</time>
      </trkpt>
      <trkpt lat="47.26607" lon="-1.53987">
        <ele>18.4</ele>
        <time>2013-12-23T08:26:49Z</time>
      </trkpt>
      <trkpt lat="47.26616" lon="-1.53996">
        <ele>19.36</ele>
        <time>2013-12-23T08:26:55Z</time>
      </trkpt>
      <trkpt lat="47.26629" lon="-1.54005">
        <ele>21.77</ele>
        <time>2013-12-23T08:27:08Z</time>
      </trkpt>
      <trkpt lat="47.26638" lon="-1.54016">
        <ele>22.73</ele>
        <time>2013-12-23T08:27:15Z</time>
      </trkpt>
      <trkpt lat="47.26649" lon="-1.54017">
        <ele>20.81</ele>
        <time>2013-12-23T08:27:21Z</time>
      </trkpt>
      <trkpt lat="47.26655" lon="-1.54029">
        <ele>21.29</ele>
        <time>2013-12-23T08:27:27Z</time>
      </trkpt>
      <trkpt lat="47.26659" lon="-1.54043">
        <ele>22.73</ele>
        <time>2013-12-23T08:27:34Z</time>
      </trkpt>
      <trkpt lat="47.26665" lon="-1.54057">
        <ele>22.73</ele>
        <time>2013-12-23T08:27:45Z</time>
      </trkpt>
      <trkpt lat="47.26675" lon="-1.54063">
        <ele>22.73</ele>
        <time>2013-12-23T08:27:53Z</time>
      </trkpt>
      <trkpt lat="47.26684" lon="-1.54074">
        <ele>21.77</ele>
        <time>2013-12-23T08:28:00Z</time>
      </trkpt>
      <trkpt lat="47.26694" lon="-1.54082">
        <ele>22.73</ele>
        <time>2013-12-23T08:28:08Z</time>
      </trkpt>
      <trkpt lat="47.26705" lon="-1.54092">
        <ele>24.65</ele>
        <time>2013-12-23T08:28:15Z</time>
      </trkpt>
      <trkpt lat="47.26715" lon="-1.541">
        <ele>26.09</ele>
        <time>2013-12-23T08:28:21Z</time>
      </trkpt>
      <trkpt lat="47.26723" lon="-1.54116">
        <ele>27.05</ele>
        <time>2013-12-23T08:28:27Z</time>
      </trkpt>
      <trkpt lat="47.26733" lon="-1.5413">
        <ele>28.02</ele>
        <time>2013-12-23T08:28:33Z</time>
      </trkpt>
      <trkpt lat="47.26744" lon="-1.54137">
        <ele>28.5</ele>
        <time>2013-12-23T08:28:38Z</time>
      </trkpt>
      <trkpt lat="47.26756" lon="-1.54139">
        <ele>27.05</ele>
        <time>2013-12-23T08:28:50Z</time>
      </trkpt>
      <trkpt lat="47.26768" lon="-1.54145">
        <ele>27.05</ele>
        <time>2013-12-23T08:28:55Z</time>
      </trkpt>
      <trkpt lat="47.26777" lon="-1.54152">
        <ele>26.57</ele>
        <time>2013-12-23T08:28:59Z</time>
      </trkpt>
      <trkpt lat="47.26789" lon="-1.54157">
        <ele>25.13</ele>
        <time>2013-12-23T08:29:04Z</time>
      </trkpt>
      <trkpt lat="47.26799" lon="-1.54164">
        <ele>26.09</ele>
        <time>2013-12-23T08:29:09Z</time>
      </trkpt>
      <trkpt lat="47.26811" lon="-1.54167">
        <ele>27.05</ele>
        <time>2013-12-23T08:29:15Z</time>
      </trkpt>
      <trkpt lat="47.26823" lon="-1.54173">
        <ele>28.98</ele>
        <time>2013-12-23T08:29:21Z</time>
      </trkpt>
      <trkpt lat="47.26835" lon="-1.54178">
        <ele>29.46</ele>
        <time>2013-12-23T08:29:26Z</time>
      </trkpt>
      <trkpt lat="47.26846" lon="-1.54186">
        <ele>31.38</ele>
        <time>2013-12-23T08:29:31Z</time>
      </trkpt>
      <trkpt lat="47.26857" lon="-1.5419">
        <ele>32.34</ele>
        <time>2013-12-23T08:29:35Z</time>
      </trkpt>
      <trkpt lat="47.26867" lon="-1.542">
        <ele>33.78</ele>
        <time>2013-12-23T08:29:40Z</time>
      </trkpt>
      <trkpt lat="47.2687" lon="-1.54218">
        <ele>34.74</ele>
        <time>2013-12-23T08:29:47Z</time>
      </trkpt>
      <trkpt lat="47.26873" lon="-1.54235">
        <ele>36.19</ele>
        <time>2013-12-23T08:29:57Z</time>
      </trkpt>
      <trkpt lat="47.26871" lon="-1.54252">
        <ele>36.67</ele>
        <time>2013-12-23T08:30:03Z</time>
      </trkpt>
      <trkpt lat="47.26873" lon="-1.54275">
        <ele>39.07</ele>
        <time>2013-12-23T08:30:20Z</time>
      </trkpt>
      <trkpt lat="47.26879" lon="-1.54275">
        <ele>31.38</ele>
        <time>2013-12-23T08:30:56Z</time>
      </trkpt>
      <trkpt lat="47.2689" lon="-1.5427">
        <ele>30.9</ele>
        <time>2013-12-23T08:31:01Z</time>
      </trkpt>
      <trkpt lat="47.26897" lon="-1.54256">
        <ele>30.9</ele>
        <time>2013-12-23T08:31:05Z</time>
      </trkpt>
      <trkpt lat="47.26905" lon="-1.54244">
        <ele>30.42</ele>
        <time>2013-12-23T08:31:09Z</time>
      </trkpt>
      <trkpt lat="47.26916" lon="-1.54237">
        <ele>30.42</ele>
        <time>2013-12-23T08:31:13Z</time>
      </trkpt>
      <trkpt lat="47.26927" lon="-1.54237">
        <ele>29.94</ele>
        <time>2013-12-23T08:31:16Z</time>
      </trkpt>
      <trkpt lat="47.2694" lon="-1.5424">
        <ele>28.98</ele>
        <time>2013-12-23T08:31:20Z</time>
      </trkpt>
      <trkpt lat="47.26953" lon="-1.5424">
        <ele>28.02</ele>
        <time>2013-12-23T08:31:25Z</time>
      </trkpt>
      <trkpt lat="47.26963" lon="-1.54232">
        <ele>27.05</ele>
        <time>2013-12-23T08:31:29Z</time>
      </trkpt>
      <trkpt lat="47.26976" lon="-1.54233">
        <ele>26.57</ele>
        <time>2013-12-23T08:31:33Z</time>
      </trkpt>
      <trkpt lat="47.26986" lon="-1.5423">
        <ele>26.57</ele>
        <time>2013-12-23T08:31:36Z</time>
      </trkpt>
      <trkpt lat="47.26994" lon="-1.54219">
        <ele>26.57</ele>
        <time>2013-12-23T08:31:40Z</time>
      </trkpt>
      <trkpt lat="47.27002" lon="-1.54205">
        <ele>26.09</ele>
        <time>2013-12-23T08:31:44Z</time>
      </trkpt>
      <trkpt lat="47.27011" lon="-1.54197">
        <ele>25.61</ele>
        <time>2013-12-23T08:31:48Z</time>
      </trkpt>
      <trkpt lat="47.27021" lon="-1.54195">
        <ele>25.61</ele>
        <time>2013-12-23T08:31:52Z</time>
      </trkpt>
      <trkpt lat="47.27032" lon="-1.54203">
        <ele>28.02</ele>
        <time>2013-12-23T08:31:57Z</time>
      </trkpt>
      <trkpt lat="47.27043" lon="-1.54208">
        <ele>29.94</ele>
        <time>2013-12-23T08:32:02Z</time>
      </trkpt>
      <trkpt lat="47.27053" lon="-1.5421">
        <ele>33.3</ele>
        <time>2013-12-23T08:32:13Z</time>
      </trkpt>
      <trkpt lat="47.27064" lon="-1.54212">
        <ele>33.78</ele>
        <time>2013-12-23T08:32:23Z</time>
      </trkpt>
      <trkpt lat="47.27077" lon="-1.54212">
        <ele>35.71</ele>
        <time>2013-12-23T08:32:29Z</time>
      </trkpt>
      <trkpt lat="47.27088" lon="-1.54209">
        <ele>37.15</ele>
        <time>2013-12-23T08:32:34Z</time>
      </trkpt>
      <trkpt lat="47.27099" lon="-1.54207">
        <ele>39.55</ele>
        <time>2013-12-23T08:32:39Z</time>
      </trkpt>
      <trkpt lat="47.2711" lon="-1.54204">
        <ele>40.99</ele>
        <time>2013-12-23T08:32:43Z</time>
      </trkpt>
      <trkpt lat="47.27121" lon="-1.542">
        <ele>39.55</ele>
        <time>2013-12-23T08:32:47Z</time>
      </trkpt>
      <trkpt lat="47.27128" lon="-1.54191">
        <ele>37.15</ele>
        <time>2013-12-23T08:32:52Z</time>
      </trkpt>
      <trkpt lat="47.27125" lon="-1.54176">
        <ele>32.82</ele>
        <time>2013-12-23T08:32:58Z</time>
      </trkpt>
      <trkpt lat="47.27117" lon="-1.54168">
        <ele>30.9</ele>
        <time>2013-12-23T08:33:02Z</time>
      </trkpt>
      <trkpt lat="47.27111" lon="-1.54157">
        <ele>29.46</ele>
        <time>2013-12-23T08:33:06Z</time>
      </trkpt>
      <trkpt lat="47.27104" lon="-1.54145">
        <ele>28.98</ele>
        <time>2013-12-23T08:33:10Z</time>
      </trkpt>
      <trkpt lat="47.27096" lon="-1.54132">
        <ele>27.53</ele>
        <time>2013-12-23T08:33:14Z</time>
      </trkpt>
      <trkpt lat="47.2709" lon="-1.54122">
        <ele>26.57</ele>
        <time>2013-12-23T08:33:17Z</time>
      </trkpt>
      <trkpt lat="47.27093" lon="-1.54103">
        <ele>26.09</ele>
        <time>2013-12-23T08:33:21Z</time>
      </trkpt>
      <trkpt lat="47.27088" lon="-1.54085">
        <ele>25.13</ele>
        <time>2013-12-23T08:33:25Z</time>
      </trkpt>
      <trkpt lat="47.2708" lon="-1.54071">
        <ele>24.65</ele>
        <time>2013-12-23T08:33:28Z</time>
      </trkpt>
      <trkpt lat="47.27079" lon="-1.54056">
        <ele>24.65</ele>
        <time>2013-12-23T08:33:32Z</time>
      </trkpt>
      <trkpt lat="47.27075" lon="-1.54041">
        <ele>24.17</ele>
        <time>2013-12-23T08:33:37Z</time>
      </trkpt>
      <trkpt lat="47.27066" lon="-1.54031">
        <ele>23.69</ele>
        <time>2013-12-23T08:33:41Z</time>
      </trkpt>
      <trkpt lat="47.27057" lon="-1.54023">
        <ele>23.69</ele>
        <time>2013-12-23T08:33:44Z</time>
      </trkpt>
      <trkpt lat="47.27048" lon="-1.54006">
        <ele>23.21</ele>
        <time>2013-12-23T08:33:48Z</time>
      </trkpt>
      <trkpt lat="47.27038" lon="-1.54002">
        <ele>23.69</ele>
        <time>2013-12-23T08:33:52Z</time>
      </trkpt>
      <trkpt lat="47.27031" lon="-1.54013">
        <ele>24.65</ele>
        <time>2013-12-23T08:33:57Z</time>
      </trkpt>
      <trkpt lat="47.27029" lon="-1.54029">
        <ele>25.13</ele>
        <time>2013-12-23T08:34:02Z</time>
      </trkpt>
      <trkpt lat="47.27028" lon="-1.54044">
        <ele>23.69</ele>
        <time>2013-12-23T08:34:06Z</time>
      </trkpt>
      <trkpt lat="47.27027" lon="-1.54059">
        <ele>21.77</ele>
        <time>2013-12-23T08:34:11Z</time>
      </trkpt>
      <trkpt lat="47.27025" lon="-1.54076">
        <ele>20.32</ele>
        <time>2013-12-23T08:34:16Z</time>
      </trkpt>
      <trkpt lat="47.27024" lon="-1.54094">
        <ele>18.88</ele>
        <time>2013-12-23T08:34:21Z</time>
      </trkpt>
      <trkpt lat="47.27021" lon="-1.5412">
        <ele>18.88</ele>
        <time>2013-12-23T08:34:30Z</time>
      </trkpt>
      <trkpt lat="47.27015" lon="-1.54139">
        <ele>19.84</ele>
        <time>2013-12-23T08:34:39Z</time>
      </trkpt>
      <trkpt lat="47.27001" lon="-1.54153">
        <ele>22.73</ele>
        <time>2013-12-23T08:34:46Z</time>
      </trkpt>
      <trkpt lat="47.26991" lon="-1.54146">
        <ele>23.69</ele>
        <time>2013-12-23T08:34:50Z</time>
      </trkpt>
      <trkpt lat="47.26987" lon="-1.54132">
        <ele>23.21</ele>
        <time>2013-12-23T08:34:56Z</time>
      </trkpt>
      <trkpt lat="47.26991" lon="-1.54117">
        <ele>22.25</ele>
        <time>2013-12-23T08:35:00Z</time>
      </trkpt>
      <trkpt lat="47.26992" lon="-1.54098">
        <ele>20.81</ele>
        <time>2013-12-23T08:35:04Z</time>
      </trkpt>
      <trkpt lat="47.26992" lon="-1.54082">
        <ele>19.36</ele>
        <time>2013-12-23T08:35:08Z</time>
      </trkpt>
      <trkpt lat="47.26992" lon="-1.54063">
        <ele>19.84</ele>
        <time>2013-12-23T08:35:13Z</time>
      </trkpt>
      <trkpt lat="47.26994" lon="-1.54044">
        <ele>19.36</ele>
        <time>2013-12-23T08:35:17Z</time>
      </trkpt>
      <trkpt lat="47.26997" lon="-1.5403">
        <ele>19.36</ele>
        <time>2013-12-23T08:35:20Z</time>
      </trkpt>
      <trkpt lat="47.26997" lon="-1.54012">
        <ele>20.81</ele>
        <time>2013-12-23T08:35:24Z</time>
      </trkpt>
      <trkpt lat="47.26997" lon="-1.53996">
        <ele>22.25</ele>
        <time>2013-12-23T08:35:27Z</time>
      </trkpt>
      <trkpt lat="47.26995" lon="-1.53977">
        <ele>25.13</ele>
        <time>2013-12-23T08:35:31Z</time>
      </trkpt>
      <trkpt lat="47.26999" lon="-1.53956">
        <ele>28.02</ele>
        <time>2013-12-23T08:35:35Z</time>
      </trkpt>
      <trkpt lat="47.27007" lon="-1.53933">
        <ele>28.5</ele>
        <time>2013-12-23T08:35:39Z</time>
      </trkpt>
      <trkpt lat="47.27013" lon="-1.53918">
        <ele>27.53</ele>
        <time>2013-12-23T08:35:42Z</time>
      </trkpt>
      <trkpt lat="47.2702" lon="-1.53903">
        <ele>28.02</ele>
        <time>2013-12-23T08:35:45Z</time>
      </trkpt>
      <trkpt lat="47.27029" lon="-1.53893">
        <ele>28.5</ele>
        <time>2013-12-23T08:35:48Z</time>
      </trkpt>
      <trkpt lat="47.27037" lon="-1.5388">
        <ele>29.46</ele>
        <time>2013-12-23T08:35:52Z</time>
      </trkpt>
      <trkpt lat="47.27044" lon="-1.53865">
        <ele>31.86</ele>
        <time>2013-12-23T08:35:57Z</time>
      </trkpt>
      <trkpt lat="47.27052" lon="-1.53852">
        <ele>33.78</ele>
        <time>2013-12-23T08:36:01Z</time>
      </trkpt>
      <trkpt lat="47.27063" lon="-1.5384">
        <ele>35.23</ele>
        <time>2013-12-23T08:36:06Z</time>
      </trkpt>
      <trkpt lat="47.27072" lon="-1.53831">
        <ele>35.71</ele>
        <time>2013-12-23T08:36:10Z</time>
      </trkpt>
      <trkpt lat="47.2708" lon="-1.53821">
        <ele>35.71</ele>
        <time>2013-12-23T08:36:14Z</time>
      </trkpt>
      <trkpt lat="47.2709" lon="-1.53811">
        <ele>34.26</ele>
        <time>2013-12-23T08:36:18Z</time>
      </trkpt>
      <trkpt lat="47.27102" lon="-1.53798">
        <ele>33.3</ele>
        <time>2013-12-23T08:36:22Z</time>
      </trkpt>
      <trkpt lat="47.27112" lon="-1.53788">
        <ele>32.34</ele>
        <time>2013-12-23T08:36:25Z</time>
      </trkpt>
      <trkpt lat="47.27123" lon="-1.53775">
        <ele>30.9</ele>
        <time>2013-12-23T08:36:28Z</time>
      </trkpt>
      <trkpt lat="47.27137" lon="-1.53762">
        <ele>28.5</ele>
        <time>2013-12-23T08:36:31Z</time>
      </trkpt>
      <trkpt lat="47.2715" lon="-1.53749">
        <ele>26.57</ele>
        <time>2013-12-23T08:36:34Z</time>
      </trkpt>
      <trkpt lat="47.27162" lon="-1.53737">
        <ele>25.13</ele>
        <time>2013-12-23T08:36:37Z</time>
      </trkpt>
      <trkpt lat="47.27174" lon="-1.53725">
        <ele>23.69</ele>
        <time>2013-12-23T08:36:40Z</time>
      </trkpt>
      <trkpt lat="47.27185" lon="-1.53714">
        <ele>22.25</ele>
        <time>2013-12-23T08:36:43Z</time>
      </trkpt>
      <trkpt lat="47.27194" lon="-1.53705">
        <ele>21.29</ele>
        <time>2013-12-23T08:36:46Z</time>
      </trkpt>
      <trkpt lat="47.27203" lon="-1.53698">
        <ele>20.81</ele>
        <time>2013-12-23T08:36:49Z</time>
      </trkpt>
      <trkpt lat="47.27212" lon="-1.5369">
        <ele>20.32</ele>
        <time>2013-12-23T08:36:52Z</time>
      </trkpt>
      <trkpt lat="47.27221" lon="-1.53682">
        <ele>19.84</ele>
        <time>2013-12-23T08:36:55Z</time>
      </trkpt>
      <trkpt lat="47.27232" lon="-1.53688">
        <ele>21.29</ele>
        <time>2013-12-23T08:36:59Z</time>
      </trkpt>
      <trkpt lat="47.27239" lon="-1.53701">
        <ele>22.25</ele>
        <time>2013-12-23T08:37:02Z</time>
      </trkpt>
      <trkpt lat="47.27246" lon="-1.53714">
        <ele>22.73</ele>
        <time>2013-12-23T08:37:05Z</time>
      </trkpt>
      <trkpt lat="47.27252" lon="-1.53728">
        <ele>22.73</ele>
        <time>2013-12-23T08:37:08Z</time>
      </trkpt>
      <trkpt lat="47.2726" lon="-1.53742">
        <ele>22.25</ele>
        <time>2013-12-23T08:37:11Z</time>
      </trkpt>
      <trkpt lat="47.27267" lon="-1.53754">
        <ele>22.25</ele>
        <time>2013-12-23T08:37:14Z</time>
      </trkpt>
      <trkpt lat="47.27273" lon="-1.53765">
        <ele>21.77</ele>
        <time>2013-12-23T08:37:17Z</time>
      </trkpt>
      <trkpt lat="47.2728" lon="-1.53778">
        <ele>21.77</ele>
        <time>2013-12-23T08:37:20Z</time>
      </trkpt>
      <trkpt lat="47.27288" lon="-1.53792">
        <ele>21.77</ele>
        <time>2013-12-23T08:37:23Z</time>
      </trkpt>
      <trkpt lat="47.27294" lon="-1.53806">
        <ele>21.77</ele>
        <time>2013-12-23T08:37:26Z</time>
      </trkpt>
      <trkpt lat="47.27301" lon="-1.53821">
        <ele>22.25</ele>
        <time>2013-12-23T08:37:29Z</time>
      </trkpt>
      <trkpt lat="47.27306" lon="-1.53835">
        <ele>21.77</ele>
        <time>2013-12-23T08:37:32Z</time>
      </trkpt>
      <trkpt lat="47.27311" lon="-1.53848">
        <ele>22.25</ele>
        <time>2013-12-23T08:37:35Z</time>
      </trkpt>
      <trkpt lat="47.27317" lon="-1.53864">
        <ele>22.73</ele>
        <time>2013-12-23T08:37:38Z</time>
      </trkpt>
      <trkpt lat="47.27323" lon="-1.53878">
        <ele>22.73</ele>
        <time>2013-12-23T08:37:41Z</time>
      </trkpt>
      <trkpt lat="47.27328" lon="-1.53891">
        <ele>23.21</ele>
        <time>2013-12-23T08:37:44Z</time>
      </trkpt>
      <trkpt lat="47.27333" lon="-1.53905">
        <ele>24.17</ele>
        <time>2013-12-23T08:37:47Z</time>
      </trkpt>
      <trkpt lat="47.27339" lon="-1.53919">
        <ele>24.65</ele>
        <time>2013-12-23T08:37:50Z</time>
      </trkpt>
      <trkpt lat="47.27345" lon="-1.53935">
        <ele>25.13</ele>
        <time>2013-12-23T08:37:53Z</time>
      </trkpt>
      <trkpt lat="47.27351" lon="-1.5395">
        <ele>24.65</ele>
        <time>2013-12-23T08:37:56Z</time>
      </trkpt>
      <trkpt lat="47.27357" lon="-1.53963">
        <ele>24.65</ele>
        <time>2013-12-23T08:37:59Z</time>
      </trkpt>
      <trkpt lat="47.27364" lon="-1.53976">
        <ele>25.13</ele>
        <time>2013-12-23T08:38:02Z</time>
      </trkpt>
      <trkpt lat="47.27371" lon="-1.53988">
        <ele>25.61</ele>
        <time>2013-12-23T08:38:05Z</time>
      </trkpt>
      <trkpt lat="47.27377" lon="-1.54002">
        <ele>26.09</ele>
        <time>2013-12-23T08:38:08Z</time>
      </trkpt>
      <trkpt lat="47.27383" lon="-1.54015">
        <ele>26.09</ele>
        <time>2013-12-23T08:38:11Z</time>
      </trkpt>
      <trkpt lat="47.27389" lon="-1.54027">
        <ele>27.05</ele>
        <time>2013-12-23T08:38:15Z</time>
      </trkpt>
      <trkpt lat="47.27395" lon="-1.5404">
        <ele>28.02</ele>
        <time>2013-12-23T08:38:20Z</time>
      </trkpt>
      <trkpt lat="47.27402" lon="-1.54054">
        <ele>28.02</ele>
        <time>2013-12-23T08:38:25Z</time>
      </trkpt>
      <trkpt lat="47.2741" lon="-1.54069">
        <ele>28.02</ele>
        <time>2013-12-23T08:38:30Z</time>
      </trkpt>
      <trkpt lat="47.27416" lon="-1.54083">
        <ele>29.46</ele>
        <time>2013-12-23T08:38:35Z</time>
      </trkpt>
      <trkpt lat="47.27421" lon="-1.54097">
        <ele>30.42</ele>
        <time>2013-12-23T08:38:40Z</time>
      </trkpt>
      <trkpt lat="47.27427" lon="-1.54114">
        <ele>29.94</ele>
        <time>2013-12-23T08:38:44Z</time>
      </trkpt>
      <trkpt lat="47.27433" lon="-1.54132">
        <ele>28.5</ele>
        <time>2013-12-23T08:38:47Z</time>
      </trkpt>
      <trkpt lat="47.27437" lon="-1.54147">
        <ele>27.53</ele>
        <time>2013-12-23T08:38:49Z</time>
      </trkpt>
      <trkpt lat="47.27442" lon="-1.54162">
        <ele>26.57</ele>
        <time>2013-12-23T08:38:51Z</time>
      </trkpt>
      <trkpt lat="47.27447" lon="-1.54179">
        <ele>26.09</ele>
        <time>2013-12-23T08:38:53Z</time>
      </trkpt>
      <trkpt lat="47.27451" lon="-1.54194">
        <ele>26.57</ele>
        <time>2013-12-23T08:38:55Z</time>
      </trkpt>
      <trkpt lat="47.27455" lon="-1.54208">
        <ele>27.05</ele>
        <time>2013-12-23T08:38:57Z</time>
      </trkpt>
      <trkpt lat="47.27459" lon="-1.54226">
        <ele>28.02</ele>
        <time>2013-12-23T08:39:00Z</time>
      </trkpt>
      <trkpt lat="47.27464" lon="-1.54241">
        <ele>28.98</ele>
        <time>2013-12-23T08:39:03Z</time>
      </trkpt>
      <trkpt lat="47.27469" lon="-1.54257">
        <ele>29.94</ele>
        <time>2013-12-23T08:39:06Z</time>
      </trkpt>
      <trkpt lat="47.27474" lon="-1.54273">
        <ele>30.42</ele>
        <time>2013-12-23T08:39:09Z</time>
      </trkpt>
      <trkpt lat="47.27479" lon="-1.54288">
        <ele>30.42</ele>
        <time>2013-12-23T08:39:12Z</time>
      </trkpt>
      <trkpt lat="47.27483" lon="-1.54303">
        <ele>30.9</ele>
        <time>2013-12-23T08:39:15Z</time>
      </trkpt>
      <trkpt lat="47.27487" lon="-1.54318">
        <ele>31.38</ele>
        <time>2013-12-23T08:39:18Z</time>
      </trkpt>
      <trkpt lat="47.27492" lon="-1.54331">
        <ele>31.86</ele>
        <time>2013-12-23T08:39:21Z</time>
      </trkpt>
      <trkpt lat="47.27495" lon="-1.54345">
        <ele>31.86</ele>
        <time>2013-12-23T08:39:24Z</time>
      </trkpt>
      <trkpt lat="47.275" lon="-1.54359">
        <ele>31.86</ele>
        <time>2013-12-23T08:39:27Z</time>
      </trkpt>
      <trkpt lat="47.27504" lon="-1.54373">
        <ele>32.34</ele>
        <time>2013-12-23T08:39:30Z</time>
      </trkpt>
      <trkpt lat="47.27508" lon="-1.54387">
        <ele>32.34</ele>
        <time>2013-12-23T08:39:33Z</time>
      </trkpt>
      <trkpt lat="47.27512" lon="-1.54402">
        <ele>32.34</ele>
        <time>2013-12-23T08:39:36Z</time>
      </trkpt>
      <trkpt lat="47.27517" lon="-1.54416">
        <ele>32.34</ele>
        <time>2013-12-23T08:39:39Z</time>
      </trkpt>
      <trkpt lat="47.27521" lon="-1.54431">
        <ele>32.82</ele>
        <time>2013-12-23T08:39:42Z</time>
      </trkpt>
      <trkpt lat="47.27527" lon="-1.54446">
        <ele>32.82</ele>
        <time>2013-12-23T08:39:45Z</time>
      </trkpt>
      <trkpt lat="47.27531" lon="-1.54461">
        <ele>32.34</ele>
        <time>2013-12-23T08:39:48Z</time>
      </trkpt>
      <trkpt lat="47.27535" lon="-1.54476">
        <ele>32.34</ele>
        <time>2013-12-23T08:39:51Z</time>
      </trkpt>
      <trkpt lat="47.27537" lon="-1.54491">
        <ele>32.82</ele>
        <time>2013-12-23T08:39:54Z</time>
      </trkpt>
      <trkpt lat="47.27538" lon="-1.54505">
        <ele>33.3</ele>
        <time>2013-12-23T08:39:57Z</time>
      </trkpt>
      <trkpt lat="47.27537" lon="-1.5452">
        <ele>33.78</ele>
        <time>2013-12-23T08:40:00Z</time>
      </trkpt>
      <trkpt lat="47.27534" lon="-1.54534">
        <ele>34.26</ele>
        <time>2013-12-23T08:40:03Z</time>
      </trkpt>
      <trkpt lat="47.27529" lon="-1.54547">
        <ele>34.26</ele>
        <time>2013-12-23T08:40:06Z</time>
      </trkpt>
      <trkpt lat="47.27523" lon="-1.54558">
        <ele>34.26</ele>
        <time>2013-12-23T08:40:09Z</time>
      </trkpt>
      <trkpt lat="47.27516" lon="-1.54567">
        <ele>33.78</ele>
        <time>2013-12-23T08:40:12Z</time>
      </trkpt>
      <trkpt lat="47.27508" lon="-1.54576">
        <ele>34.26</ele>
        <time>2013-12-23T08:40:15Z</time>
      </trkpt>
      <trkpt lat="47.27498" lon="-1.54583">
        <ele>34.26</ele>
        <time>2013-12-23T08:40:18Z</time>
      </trkpt>
      <trkpt lat="47.27488" lon="-1.5459">
        <ele>34.26</ele>
        <time>2013-12-23T08:40:21Z</time>
      </trkpt>
      <trkpt lat="47.27479" lon="-1.54597">
        <ele>34.74</ele>
        <time>2013-12-23T08:40:24Z</time>
      </trkpt>
      <trkpt lat="47.27469" lon="-1.54608">
        <ele>34.74</ele>
        <time>2013-12-23T08:40:27Z</time>
      </trkpt>
      <trkpt lat="47.27461" lon="-1.5462">
        <ele>35.23</ele>
        <time>2013-12-23T08:40:30Z</time>
      </trkpt>
      <trkpt lat="47.27454" lon="-1.54634">
        <ele>35.23</ele>
        <time>2013-12-23T08:40:33Z</time>
      </trkpt>
      <trkpt lat="47.27449" lon="-1.5465">
        <ele>35.23</ele>
        <time>2013-12-23T08:40:36Z</time>
      </trkpt>
      <trkpt lat="47.27446" lon="-1.54667">
        <ele>35.71</ele>
        <time>2013-12-23T08:40:39Z</time>
      </trkpt>
      <trkpt lat="47.27449" lon="-1.54685">
        <ele>36.19</ele>
        <time>2013-12-23T08:40:42Z</time>
      </trkpt>
      <trkpt lat="47.27454" lon="-1.54703">
        <ele>36.67</ele>
        <time>2013-12-23T08:40:45Z</time>
      </trkpt>
      <trkpt lat="47.27457" lon="-1.54721">
        <ele>36.67</ele>
        <time>2013-12-23T08:40:48Z</time>
      </trkpt>
      <trkpt lat="47.27455" lon="-1.54734">
        <ele>36.19</ele>
        <time>2013-12-23T08:40:50Z</time>
      </trkpt>
      <trkpt lat="47.2745" lon="-1.54746">
        <ele>36.19</ele>
        <time>2013-12-23T08:40:52Z</time>
      </trkpt>
      <trkpt lat="47.27442" lon="-1.54755">
        <ele>35.71</ele>
        <time>2013-12-23T08:40:54Z</time>
      </trkpt>
      <trkpt lat="47.27432" lon="-1.54761">
        <ele>34.74</ele>
        <time>2013-12-23T08:40:56Z</time>
      </trkpt>
      <trkpt lat="47.27423" lon="-1.54768">
        <ele>34.26</ele>
        <time>2013-12-23T08:40:58Z</time>
      </trkpt>
      <trkpt lat="47.27415" lon="-1.5478">
        <ele>33.78</ele>
        <time>2013-12-23T08:41:00Z</time>
      </trkpt>
      <trkpt lat="47.27409" lon="-1.54795">
        <ele>33.3</ele>
        <time>2013-12-23T08:41:02Z</time>
      </trkpt>
      <trkpt lat="47.27404" lon="-1.5481">
        <ele>32.82</ele>
        <time>2013-12-23T08:41:04Z</time>
      </trkpt>
      <trkpt lat="47.27405" lon="-1.54824">
        <ele>32.82</ele>
        <time>2013-12-23T08:41:06Z</time>
      </trkpt>
      <trkpt lat="47.27408" lon="-1.54838">
        <ele>32.82</ele>
        <time>2013-12-23T08:41:08Z</time>
      </trkpt>
      <trkpt lat="47.2741" lon="-1.54853">
        <ele>32.82</ele>
        <time>2013-12-23T08:41:10Z</time>
      </trkpt>
      <trkpt lat="47.27411" lon="-1.54868">
        <ele>32.82</ele>
        <time>2013-12-23T08:41:12Z</time>
      </trkpt>
      <trkpt lat="47.27413" lon="-1.54882">
        <ele>33.3</ele>
        <time>2013-12-23T08:41:14Z</time>
      </trkpt>
      <trkpt lat="47.27415" lon="-1.54901">
        <ele>33.78</ele>
        <time>2013-12-23T08:41:17Z</time>
      </trkpt>
      <trkpt lat="47.27417" lon="-1.5492">
        <ele>34.26</ele>
        <time>2013-12-23T08:41:20Z</time>
      </trkpt>
      <trkpt lat="47.27419" lon="-1.54939">
        <ele>34.26</ele>
        <time>2013-12-23T08:41:23Z</time>
      </trkpt>
      <trkpt lat="47.27422" lon="-1.54958">
        <ele>34.26</ele>
        <time>2013-12-23T08:41:26Z</time>
      </trkpt>
      <trkpt lat="47.27424" lon="-1.54977">
        <ele>33.78</ele>
        <time>2013-12-23T08:41:29Z</time>
      </trkpt>
      <trkpt lat="47.27426" lon="-1.54995">
        <ele>33.78</ele>
        <time>2013-12-23T08:41:32Z</time>
      </trkpt>
      <trkpt lat="47.27427" lon="-1.55012">
        <ele>33.78</ele>
        <time>2013-12-23T08:41:35Z</time>
      </trkpt>
      <trkpt lat="47.27427" lon="-1.55028">
        <ele>33.3</ele>
        <time>2013-12-23T08:41:38Z</time>
      </trkpt>
      <trkpt lat="47.27423" lon="-1.55042">
        <ele>33.78</ele>
        <time>2013-12-23T08:41:41Z</time>
      </trkpt>
      <trkpt lat="47.27418" lon="-1.55057">
        <ele>34.26</ele>
        <time>2013-12-23T08:41:44Z</time>
      </trkpt>
      <trkpt lat="47.27413" lon="-1.5507">
        <ele>35.71</ele>
        <time>2013-12-23T08:41:47Z</time>
      </trkpt>
      <trkpt lat="47.27405" lon="-1.55084">
        <ele>37.15</ele>
        <time>2013-12-23T08:41:50Z</time>
      </trkpt>
      <trkpt lat="47.27396" lon="-1.55095">
        <ele>38.11</ele>
        <time>2013-12-23T08:41:53Z</time>
      </trkpt>
      <trkpt lat="47.27387" lon="-1.55105">
        <ele>38.11</ele>
        <time>2013-12-23T08:41:56Z</time>
      </trkpt>
      <trkpt lat="47.27376" lon="-1.55113">
        <ele>37.63</ele>
        <time>2013-12-23T08:42:00Z</time>
      </trkpt>
      <trkpt lat="47.27364" lon="-1.55114">
        <ele>37.15</ele>
        <time>2013-12-23T08:42:03Z</time>
      </trkpt>
      <trkpt lat="47.27352" lon="-1.55114">
        <ele>37.15</ele>
        <time>2013-12-23T08:42:06Z</time>
      </trkpt>
      <trkpt lat="47.27349" lon="-1.55122">
        <ele>37.63</ele>
        <time>2013-12-23T08:42:12Z</time>
      </trkpt>
      <trkpt lat="47.27349" lon="-1.55136">
        <ele>38.59</ele>
        <time>2013-12-23T08:42:16Z</time>
      </trkpt>
      <trkpt lat="47.27349" lon="-1.55151">
        <ele>39.07</ele>
        <time>2013-12-23T08:42:19Z</time>
      </trkpt>
      <trkpt lat="47.27347" lon="-1.5517">
        <ele>39.55</ele>
        <time>2013-12-23T08:42:23Z</time>
      </trkpt>
      <trkpt lat="47.27342" lon="-1.55189">
        <ele>40.51</ele>
        <time>2013-12-23T08:42:27Z</time>
      </trkpt>
      <trkpt lat="47.27333" lon="-1.55202">
        <ele>40.51</ele>
        <time>2013-12-23T08:42:31Z</time>
      </trkpt>
      <trkpt lat="47.27324" lon="-1.55209">
        <ele>41.47</ele>
        <time>2013-12-23T08:42:34Z</time>
      </trkpt>
      <trkpt lat="47.27315" lon="-1.55217">
        <ele>42.92</ele>
        <time>2013-12-23T08:42:37Z</time>
      </trkpt>
      <trkpt lat="47.27308" lon="-1.55228">
        <ele>44.84</ele>
        <time>2013-12-23T08:42:40Z</time>
      </trkpt>
      <trkpt lat="47.27301" lon="-1.55239">
        <ele>46.76</ele>
        <time>2013-12-23T08:42:43Z</time>
      </trkpt>
      <trkpt lat="47.2729" lon="-1.5525">
        <ele>47.24</ele>
        <time>2013-12-23T08:42:46Z</time>
      </trkpt>
      <trkpt lat="47.27281" lon="-1.55262">
        <ele>47.24</ele>
        <time>2013-12-23T08:42:49Z</time>
      </trkpt>
      <trkpt lat="47.27271" lon="-1.55277">
        <ele>46.76</ele>
        <time>2013-12-23T08:42:52Z</time>
      </trkpt>
      <trkpt lat="47.27262" lon="-1.55291">
        <ele>45.8</ele>
        <time>2013-12-23T08:42:55Z</time>
      </trkpt>
      <trkpt lat="47.27253" lon="-1.55302">
        <ele>44.36</ele>
        <time>2013-12-23T08:42:58Z</time>
      </trkpt>
      <trkpt lat="47.27245" lon="-1.55313">
        <ele>43.4</ele>
        <time>2013-12-23T08:43:01Z</time>
      </trkpt>
      <trkpt lat="47.27246" lon="-1.55329">
        <ele>40.99</ele>
        <time>2013-12-23T08:43:05Z</time>
      </trkpt>
      <trkpt lat="47.2725" lon="-1.55344">
        <ele>38.11</ele>
        <time>2013-12-23T08:43:08Z</time>
      </trkpt>
      <trkpt lat="47.27251" lon="-1.55362">
        <ele>35.71</ele>
        <time>2013-12-23T08:43:12Z</time>
      </trkpt>
      <trkpt lat="47.27242" lon="-1.55375">
        <ele>35.23</ele>
        <time>2013-12-23T08:43:16Z</time>
      </trkpt>
      <trkpt lat="47.27232" lon="-1.55386">
        <ele>35.23</ele>
        <time>2013-12-23T08:43:20Z</time>
      </trkpt>
      <trkpt lat="47.27222" lon="-1.55399">
        <ele>34.74</ele>
        <time>2013-12-23T08:43:24Z</time>
      </trkpt>
      <trkpt lat="47.27216" lon="-1.55412">
        <ele>34.26</ele>
        <time>2013-12-23T08:43:27Z</time>
      </trkpt>
      <trkpt lat="47.27207" lon="-1.55424">
        <ele>33.3</ele>
        <time>2013-12-23T08:43:30Z</time>
      </trkpt>
      <trkpt lat="47.27195" lon="-1.55435">
        <ele>32.34</ele>
        <time>2013-12-23T08:43:34Z</time>
      </trkpt>
      <trkpt lat="47.27187" lon="-1.55449">
        <ele>31.86</ele>
        <time>2013-12-23T08:43:37Z</time>
      </trkpt>
      <trkpt lat="47.27178" lon="-1.55462">
        <ele>31.38</ele>
        <time>2013-12-23T08:43:40Z</time>
      </trkpt>
      <trkpt lat="47.27172" lon="-1.55473">
        <ele>30.9</ele>
        <time>2013-12-23T08:43:43Z</time>
      </trkpt>
      <trkpt lat="47.27166" lon="-1.55488">
        <ele>30.9</ele>
        <time>2013-12-23T08:43:46Z</time>
      </trkpt>
      <trkpt lat="47.27164" lon="-1.55503">
        <ele>31.38</ele>
        <time>2013-12-23T08:43:49Z</time>
      </trkpt>
      <trkpt lat="47.27163" lon="-1.5552">
        <ele>31.86</ele>
        <time>2013-12-23T08:43:53Z</time>
      </trkpt>
      <trkpt lat="47.27162" lon="-1.55534">
        <ele>31.86</ele>
        <time>2013-12-23T08:43:57Z</time>
      </trkpt>
      <trkpt lat="47.27152" lon="-1.55545">
        <ele>32.34</ele>
        <time>2013-12-23T08:44:02Z</time>
      </trkpt>
      <trkpt lat="47.27143" lon="-1.55556">
        <ele>32.34</ele>
        <time>2013-12-23T08:44:06Z</time>
      </trkpt>
      <trkpt lat="47.27131" lon="-1.55565">
        <ele>32.82</ele>
        <time>2013-12-23T08:44:11Z</time>
      </trkpt>
      <trkpt lat="47.27124" lon="-1.55579">
        <ele>32.34</ele>
        <time>2013-12-23T08:44:15Z</time>
      </trkpt>
      <trkpt lat="47.27119" lon="-1.55592">
        <ele>32.34</ele>
        <time>2013-12-23T08:44:19Z</time>
      </trkpt>
      <trkpt lat="47.27106" lon="-1.55614">
        <ele>31.38</ele>
        <time>2013-12-23T08:44:24Z</time>
      </trkpt>
      <trkpt lat="47.27096" lon="-1.55625">
        <ele>29.46</ele>
        <time>2013-12-23T08:44:28Z</time>
      </trkpt>
      <trkpt lat="47.27084" lon="-1.55637">
        <ele>28.02</ele>
        <time>2013-12-23T08:44:33Z</time>
      </trkpt>
      <trkpt lat="47.27079" lon="-1.55652">
        <ele>28.02</ele>
        <time>2013-12-23T08:44:36Z</time>
      </trkpt>
      <trkpt lat="47.27073" lon="-1.55671">
        <ele>28.02</ele>
        <time>2013-12-23T08:44:41Z</time>
      </trkpt>
      <trkpt lat="47.27068" lon="-1.55688">
        <ele>28.98</ele>
        <time>2013-12-23T08:44:45Z</time>
      </trkpt>
      <trkpt lat="47.27061" lon="-1.55716">
        <ele>27.05</ele>
        <time>2013-12-23T08:44:49Z</time>
      </trkpt>
      <trkpt lat="47.27066" lon="-1.55733">
        <ele>25.13</ele>
        <time>2013-12-23T08:44:54Z</time>
      </trkpt>
      <trkpt lat="47.27074" lon="-1.55743">
        <ele>24.65</ele>
        <time>2013-12-23T08:44:58Z</time>
      </trkpt>
      <trkpt lat="47.2707" lon="-1.55764">
        <ele>18.4</ele>
        <time>2013-12-23T08:45:16Z</time>
      </trkpt>
      <trkpt lat="47.27076" lon="-1.55776">
        <ele>20.81</ele>
        <time>2013-12-23T08:45:24Z</time>
      </trkpt>
      <trkpt lat="47.27084" lon="-1.55793">
        <ele>23.21</ele>
        <time>2013-12-23T08:45:30Z</time>
      </trkpt>
      <trkpt lat="47.27096" lon="-1.55799">
        <ele>24.17</ele>
        <time>2013-12-23T08:45:34Z</time>
      </trkpt>
      <trkpt lat="47.271" lon="-1.55814">
        <ele>25.13</ele>
        <time>2013-12-23T08:45:38Z</time>
      </trkpt>
      <trkpt lat="47.271" lon="-1.55831">
        <ele>24.65</ele>
        <time>2013-12-23T08:45:41Z</time>
      </trkpt>
      <trkpt lat="47.27104" lon="-1.55847">
        <ele>24.17</ele>
        <time>2013-12-23T08:45:44Z</time>
      </trkpt>
      <trkpt lat="47.27109" lon="-1.5586">
        <ele>23.69</ele>
        <time>2013-12-23T08:45:47Z</time>
      </trkpt>
      <trkpt lat="47.27115" lon="-1.55871">
        <ele>23.69</ele>
        <time>2013-12-23T08:45:50Z</time>
      </trkpt>
      <trkpt lat="47.27124" lon="-1.55877">
        <ele>23.69</ele>
        <time>2013-12-23T08:45:53Z</time>
      </trkpt>
      <trkpt lat="47.27134" lon="-1.55879">
        <ele>23.69</ele>
        <time>2013-12-23T08:45:56Z</time>
      </trkpt>
      <trkpt lat="47.27143" lon="-1.55886">
        <ele>23.21</ele>
        <time>2013-12-23T08:45:59Z</time>
      </trkpt>
      <trkpt lat="47.2715" lon="-1.55899">
        <ele>23.21</ele>
        <time>2013-12-23T08:46:03Z</time>
      </trkpt>
      <trkpt lat="47.27157" lon="-1.55911">
        <ele>22.73</ele>
        <time>2013-12-23T08:46:07Z</time>
      </trkpt>
      <trkpt lat="47.27162" lon="-1.55923">
        <ele>22.25</ele>
        <time>2013-12-23T08:46:10Z</time>
      </trkpt>
      <trkpt lat="47.27168" lon="-1.55935">
        <ele>21.77</ele>
        <time>2013-12-23T08:46:13Z</time>
      </trkpt>
      <trkpt lat="47.27175" lon="-1.55949">
        <ele>21.29</ele>
        <time>2013-12-23T08:46:16Z</time>
      </trkpt>
      <trkpt lat="47.27183" lon="-1.5596">
        <ele>20.81</ele>
        <time>2013-12-23T08:46:19Z</time>
      </trkpt>
      <trkpt lat="47.27191" lon="-1.55971">
        <ele>19.84</ele>
        <time>2013-12-23T08:46:22Z</time>
      </trkpt>
      <trkpt lat="47.27196" lon="-1.55987">
        <ele>19.84</ele>
        <time>2013-12-23T08:46:25Z</time>
      </trkpt>
      <trkpt lat="47.27203" lon="-1.56">
        <ele>19.84</ele>
        <time>2013-12-23T08:46:28Z</time>
      </trkpt>
      <trkpt lat="47.27213" lon="-1.56007">
        <ele>18.88</ele>
        <time>2013-12-23T08:46:31Z</time>
      </trkpt>
      <trkpt lat="47.27223" lon="-1.56011">
        <ele>18.4</ele>
        <time>2013-12-23T08:46:34Z</time>
      </trkpt>
      <trkpt lat="47.27233" lon="-1.56015">
        <ele>17.92</ele>
        <time>2013-12-23T08:46:37Z</time>
      </trkpt>
      <trkpt lat="47.27243" lon="-1.56021">
        <ele>17.92</ele>
        <time>2013-12-23T08:46:40Z</time>
      </trkpt>
      <trkpt lat="47.27252" lon="-1.56027">
        <ele>18.4</ele>
        <time>2013-12-23T08:46:43Z</time>
      </trkpt>
      <trkpt lat="47.27262" lon="-1.56032">
        <ele>18.88</ele>
        <time>2013-12-23T08:46:46Z</time>
      </trkpt>
      <trkpt lat="47.27273" lon="-1.56045">
        <ele>19.36</ele>
        <time>2013-12-23T08:46:58Z</time>
      </trkpt>
      <trkpt lat="47.27277" lon="-1.56058">
        <ele>19.36</ele>
        <time>2013-12-23T08:47:01Z</time>
      </trkpt>
      <trkpt lat="47.27283" lon="-1.56073">
        <ele>17.44</ele>
        <time>2013-12-23T08:47:04Z</time>
      </trkpt>
      <trkpt lat="47.27292" lon="-1.56084">
        <ele>16</ele>
        <time>2013-12-23T08:47:07Z</time>
      </trkpt>
      <trkpt lat="47.27301" lon="-1.56091">
        <ele>14.08</ele>
        <time>2013-12-23T08:47:10Z</time>
      </trkpt>
      <trkpt lat="47.27313" lon="-1.56099">
        <ele>12.15</ele>
        <time>2013-12-23T08:47:14Z</time>
      </trkpt>
      <trkpt lat="47.27323" lon="-1.56105">
        <ele>11.19</ele>
        <time>2013-12-23T08:47:18Z</time>
      </trkpt>
      <trkpt lat="47.27336" lon="-1.56109">
        <ele>11.67</ele>
        <time>2013-12-23T08:47:23Z</time>
      </trkpt>
      <trkpt lat="47.27348" lon="-1.56116">
        <ele>13.12</ele>
        <time>2013-12-23T08:47:27Z</time>
      </trkpt>
      <trkpt lat="47.2736" lon="-1.56122">
        <ele>15.52</ele>
        <time>2013-12-23T08:47:31Z</time>
      </trkpt>
      <trkpt lat="47.27375" lon="-1.56124">
        <ele>16.96</ele>
        <time>2013-12-23T08:47:35Z</time>
      </trkpt>
      <trkpt lat="47.27388" lon="-1.5613">
        <ele>17.44</ele>
        <time>2013-12-23T08:47:40Z</time>
      </trkpt>
      <trkpt lat="47.27399" lon="-1.56135">
        <ele>19.36</ele>
        <time>2013-12-23T08:47:45Z</time>
      </trkpt>
      <trkpt lat="47.27413" lon="-1.56137">
        <ele>22.25</ele>
        <time>2013-12-23T08:47:52Z</time>
      </trkpt>
      <trkpt lat="47.27428" lon="-1.56132">
        <ele>21.29</ele>
        <time>2013-12-23T08:47:59Z</time>
      </trkpt>
      <trkpt lat="47.27438" lon="-1.56121">
        <ele>23.69</ele>
        <time>2013-12-23T08:48:08Z</time>
      </trkpt>
      <trkpt lat="47.27447" lon="-1.56129">
        <ele>23.21</ele>
        <time>2013-12-23T08:48:16Z</time>
      </trkpt>
      <trkpt lat="47.27457" lon="-1.5613">
        <ele>22.73</ele>
        <time>2013-12-23T08:48:19Z</time>
      </trkpt>
      <trkpt lat="47.27471" lon="-1.56127">
        <ele>22.73</ele>
        <time>2013-12-23T08:48:22Z</time>
      </trkpt>
      <trkpt lat="47.27485" lon="-1.56123">
        <ele>24.17</ele>
        <time>2013-12-23T08:48:27Z</time>
      </trkpt>
      <trkpt lat="47.27493" lon="-1.56111">
        <ele>24.65</ele>
        <time>2013-12-23T08:48:33Z</time>
      </trkpt>
      <trkpt lat="47.27501" lon="-1.56096">
        <ele>25.61</ele>
        <time>2013-12-23T08:48:42Z</time>
      </trkpt>
      <trkpt lat="47.27512" lon="-1.56082">
        <ele>28.98</ele>
        <time>2013-12-23T08:48:49Z</time>
      </trkpt>
      <trkpt lat="47.27521" lon="-1.5607">
        <ele>31.38</ele>
        <time>2013-12-23T08:48:55Z</time>
      </trkpt>
      <trkpt lat="47.2753" lon="-1.56058">
        <ele>34.26</ele>
        <time>2013-12-23T08:49:02Z</time>
      </trkpt>
      <trkpt lat="47.27539" lon="-1.56049">
        <ele>37.15</ele>
        <time>2013-12-23T08:49:08Z</time>
      </trkpt>
      <trkpt lat="47.27549" lon="-1.56043">
        <ele>40.99</ele>
        <time>2013-12-23T08:49:15Z</time>
      </trkpt>
      <trkpt lat="47.2756" lon="-1.56033">
        <ele>43.88</ele>
        <time>2013-12-23T08:49:22Z</time>
      </trkpt>
      <trkpt lat="47.27569" lon="-1.56022">
        <ele>47.72</ele>
        <time>2013-12-23T08:49:30Z</time>
      </trkpt>
      <trkpt lat="47.27579" lon="-1.56021">
        <ele>47.24</ele>
        <time>2013-12-23T08:49:34Z</time>
      </trkpt>
      <trkpt lat="47.27595" lon="-1.56023">
        <ele>45.32</ele>
        <time>2013-12-23T08:49:37Z</time>
      </trkpt>
      <trkpt lat="47.27607" lon="-1.5603">
        <ele>41.47</ele>
        <time>2013-12-23T08:49:41Z</time>
      </trkpt>
      <trkpt lat="47.27614" lon="-1.56043">
        <ele>37.15</ele>
        <time>2013-12-23T08:49:47Z</time>
      </trkpt>
      <trkpt lat="47.27619" lon="-1.56057">
        <ele>38.59</ele>
        <time>2013-12-23T08:49:54Z</time>
      </trkpt>
      <trkpt lat="47.27627" lon="-1.56071">
        <ele>38.59</ele>
        <time>2013-12-23T08:49:59Z</time>
      </trkpt>
      <trkpt lat="47.27636" lon="-1.56083">
        <ele>38.11</ele>
        <time>2013-12-23T08:50:03Z</time>
      </trkpt>
      <trkpt lat="47.27645" lon="-1.56094">
        <ele>39.55</ele>
        <time>2013-12-23T08:50:07Z</time>
      </trkpt>
      <trkpt lat="47.27656" lon="-1.56102">
        <ele>40.99</ele>
        <time>2013-12-23T08:50:11Z</time>
      </trkpt>
      <trkpt lat="47.27669" lon="-1.5611">
        <ele>41.47</ele>
        <time>2013-12-23T08:50:15Z</time>
      </trkpt>
      <trkpt lat="47.2768" lon="-1.56115">
        <ele>41.47</ele>
        <time>2013-12-23T08:50:19Z</time>
      </trkpt>
      <trkpt lat="47.2769" lon="-1.56122">
        <ele>41.95</ele>
        <time>2013-12-23T08:50:23Z</time>
      </trkpt>
      <trkpt lat="47.27702" lon="-1.56126">
        <ele>42.92</ele>
        <time>2013-12-23T08:50:27Z</time>
      </trkpt>
      <trkpt lat="47.27713" lon="-1.56131">
        <ele>43.88</ele>
        <time>2013-12-23T08:50:32Z</time>
      </trkpt>
      <trkpt lat="47.27725" lon="-1.56138">
        <ele>44.84</ele>
        <time>2013-12-23T08:50:36Z</time>
      </trkpt>
      <trkpt lat="47.27734" lon="-1.56144">
        <ele>45.8</ele>
        <time>2013-12-23T08:50:39Z</time>
      </trkpt>
      <trkpt lat="47.27743" lon="-1.56153">
        <ele>45.8</ele>
        <time>2013-12-23T08:50:42Z</time>
      </trkpt>
      <trkpt lat="47.2775" lon="-1.56168">
        <ele>45.32</ele>
        <time>2013-12-23T08:50:46Z</time>
      </trkpt>
      <trkpt lat="47.27757" lon="-1.56182">
        <ele>44.84</ele>
        <time>2013-12-23T08:50:50Z</time>
      </trkpt>
      <trkpt lat="47.27766" lon="-1.56199">
        <ele>43.4</ele>
        <time>2013-12-23T08:50:55Z</time>
      </trkpt>
      <trkpt lat="47.27772" lon="-1.56215">
        <ele>40.99</ele>
        <time>2013-12-23T08:50:59Z</time>
      </trkpt>
      <trkpt lat="47.27777" lon="-1.5623">
        <ele>39.55</ele>
        <time>2013-12-23T08:51:03Z</time>
      </trkpt>
      <trkpt lat="47.27784" lon="-1.56245">
        <ele>39.55</ele>
        <time>2013-12-23T08:51:07Z</time>
      </trkpt>
      <trkpt lat="47.27791" lon="-1.56259">
        <ele>40.51</ele>
        <time>2013-12-23T08:51:12Z</time>
      </trkpt>
      <trkpt lat="47.27798" lon="-1.56274">
        <ele>41.47</ele>
        <time>2013-12-23T08:51:16Z</time>
      </trkpt>
      <trkpt lat="47.27803" lon="-1.56287">
        <ele>41.95</ele>
        <time>2013-12-23T08:51:18Z</time>
      </trkpt>
      <trkpt lat="47.27812" lon="-1.563">
        <ele>42.44</ele>
        <time>2013-12-23T08:51:20Z</time>
      </trkpt>
      <trkpt lat="47.27821" lon="-1.56312">
        <ele>42.44</ele>
        <time>2013-12-23T08:51:22Z</time>
      </trkpt>
      <trkpt lat="47.27831" lon="-1.56325">
        <ele>41.95</ele>
        <time>2013-12-23T08:51:24Z</time>
      </trkpt>
      <trkpt lat="47.27839" lon="-1.56341">
        <ele>41.95</ele>
        <time>2013-12-23T08:51:26Z</time>
      </trkpt>
      <trkpt lat="47.27846" lon="-1.56357">
        <ele>41.47</ele>
        <time>2013-12-23T08:51:28Z</time>
      </trkpt>
      <trkpt lat="47.27849" lon="-1.56376">
        <ele>40.99</ele>
        <time>2013-12-23T08:51:30Z</time>
      </trkpt>
      <trkpt lat="47.2785" lon="-1.56396">
        <ele>40.03</ele>
        <time>2013-12-23T08:51:32Z</time>
      </trkpt>
      <trkpt lat="47.27849" lon="-1.56416">
        <ele>39.07</ele>
        <time>2013-12-23T08:51:34Z</time>
      </trkpt>
      <trkpt lat="47.27849" lon="-1.56435">
        <ele>38.11</ele>
        <time>2013-12-23T08:51:36Z</time>
      </trkpt>
      <trkpt lat="47.2785" lon="-1.56453">
        <ele>36.67</ele>
        <time>2013-12-23T08:51:38Z</time>
      </trkpt>
      <trkpt lat="47.27851" lon="-1.56471">
        <ele>35.23</ele>
        <time>2013-12-23T08:51:40Z</time>
      </trkpt>
      <trkpt lat="47.27853" lon="-1.56488">
        <ele>33.78</ele>
        <time>2013-12-23T08:51:42Z</time>
      </trkpt>
      <trkpt lat="47.27855" lon="-1.56503">
        <ele>31.86</ele>
        <time>2013-12-23T08:51:44Z</time>
      </trkpt>
      <trkpt lat="47.27859" lon="-1.56515">
        <ele>30.42</ele>
        <time>2013-12-23T08:51:46Z</time>
      </trkpt>
      <trkpt lat="47.27868" lon="-1.56532">
        <ele>28.98</ele>
        <time>2013-12-23T08:51:49Z</time>
      </trkpt>
      <trkpt lat="47.27878" lon="-1.56544">
        <ele>28.5</ele>
        <time>2013-12-23T08:51:52Z</time>
      </trkpt>
      <trkpt lat="47.27887" lon="-1.56555">
        <ele>28.5</ele>
        <time>2013-12-23T08:51:55Z</time>
      </trkpt>
      <trkpt lat="47.27896" lon="-1.56567">
        <ele>27.53</ele>
        <time>2013-12-23T08:51:58Z</time>
      </trkpt>
      <trkpt lat="47.27906" lon="-1.56573">
        <ele>28.5</ele>
        <time>2013-12-23T08:52:01Z</time>
      </trkpt>
      <trkpt lat="47.27921" lon="-1.56585">
        <ele>30.42</ele>
        <time>2013-12-23T08:52:09Z</time>
      </trkpt>
      <trkpt lat="47.27935" lon="-1.56592">
        <ele>28.5</ele>
        <time>2013-12-23T08:52:12Z</time>
      </trkpt>
      <trkpt lat="47.2795" lon="-1.56596">
        <ele>28.5</ele>
        <time>2013-12-23T08:52:15Z</time>
      </trkpt>
      <trkpt lat="47.27961" lon="-1.56597">
        <ele>28.02</ele>
        <time>2013-12-23T08:52:17Z</time>
      </trkpt>
      <trkpt lat="47.27974" lon="-1.56597">
        <ele>26.57</ele>
        <time>2013-12-23T08:52:20Z</time>
      </trkpt>
      <trkpt lat="47.27984" lon="-1.56601">
        <ele>25.61</ele>
        <time>2013-12-23T08:52:23Z</time>
      </trkpt>
      <trkpt lat="47.27993" lon="-1.56606">
        <ele>23.69</ele>
        <time>2013-12-23T08:52:26Z</time>
      </trkpt>
      <trkpt lat="47.28005" lon="-1.5661">
        <ele>22.73</ele>
        <time>2013-12-23T08:52:30Z</time>
      </trkpt>
      <trkpt lat="47.28017" lon="-1.56613">
        <ele>23.21</ele>
        <time>2013-12-23T08:52:35Z</time>
      </trkpt>
      <trkpt lat="47.28029" lon="-1.56614">
        <ele>24.65</ele>
        <time>2013-12-23T08:52:39Z</time>
      </trkpt>
      <trkpt lat="47.28041" lon="-1.56612">
        <ele>26.09</ele>
        <time>2013-12-23T08:52:43Z</time>
      </trkpt>
      <trkpt lat="47.28052" lon="-1.56612">
        <ele>28.02</ele>
        <time>2013-12-23T08:52:47Z</time>
      </trkpt>
      <trkpt lat="47.28064" lon="-1.56612">
        <ele>30.42</ele>
        <time>2013-12-23T08:52:52Z</time>
      </trkpt>
      <trkpt lat="47.28077" lon="-1.56607">
        <ele>32.34</ele>
        <time>2013-12-23T08:52:56Z</time>
      </trkpt>
      <trkpt lat="47.28087" lon="-1.56604">
        <ele>33.78</ele>
        <time>2013-12-23T08:52:59Z</time>
      </trkpt>
      <trkpt lat="47.281" lon="-1.566">
        <ele>35.71</ele>
        <time>2013-12-23T08:53:03Z</time>
      </trkpt>
      <trkpt lat="47.28112" lon="-1.56596">
        <ele>36.19</ele>
        <time>2013-12-23T08:53:06Z</time>
      </trkpt>
      <trkpt lat="47.28128" lon="-1.5659">
        <ele>34.26</ele>
        <time>2013-12-23T08:53:10Z</time>
      </trkpt>
      <trkpt lat="47.28142" lon="-1.56585">
        <ele>33.78</ele>
        <time>2013-12-23T08:53:14Z</time>
      </trkpt>
      <trkpt lat="47.28153" lon="-1.56581">
        <ele>34.26</ele>
        <time>2013-12-23T08:53:17Z</time>
      </trkpt>
      <trkpt lat="47.28162" lon="-1.56576">
        <ele>36.67</ele>
        <time>2013-12-23T08:53:22Z</time>
      </trkpt>
      <trkpt lat="47.28169" lon="-1.56563">
        <ele>40.51</ele>
        <time>2013-12-23T08:53:32Z</time>
      </trkpt>
      <trkpt lat="47.28184" lon="-1.5655">
        <ele>34.74</ele>
        <time>2013-12-23T08:53:51Z</time>
      </trkpt>
      <trkpt lat="47.28195" lon="-1.56534">
        <ele>29.46</ele>
        <time>2013-12-23T08:53:57Z</time>
      </trkpt>
      <trkpt lat="47.28207" lon="-1.56515">
        <ele>23.69</ele>
        <time>2013-12-23T08:54:05Z</time>
      </trkpt>
      <trkpt lat="47.28219" lon="-1.56506">
        <ele>20.32</ele>
        <time>2013-12-23T08:54:10Z</time>
      </trkpt>
      <trkpt lat="47.2823" lon="-1.56499">
        <ele>19.36</ele>
        <time>2013-12-23T08:54:14Z</time>
      </trkpt>
      <trkpt lat="47.28243" lon="-1.56489">
        <ele>19.84</ele>
        <time>2013-12-23T08:54:19Z</time>
      </trkpt>
      <trkpt lat="47.28252" lon="-1.56488">
        <ele>20.81</ele>
        <time>2013-12-23T08:54:26Z</time>
      </trkpt>
      <trkpt lat="47.28263" lon="-1.5649">
        <ele>21.29</ele>
        <time>2013-12-23T08:54:36Z</time>
      </trkpt>
      <trkpt lat="47.28276" lon="-1.56487">
        <ele>23.69</ele>
        <time>2013-12-23T08:54:44Z</time>
      </trkpt>
      <trkpt lat="47.28292" lon="-1.56483">
        <ele>24.17</ele>
        <time>2013-12-23T08:54:51Z</time>
      </trkpt>
      <trkpt lat="47.28306" lon="-1.56481">
        <ele>22.73</ele>
        <time>2013-12-23T08:54:56Z</time>
      </trkpt>
      <trkpt lat="47.28316" lon="-1.56479">
        <ele>22.73</ele>
        <time>2013-12-23T08:55:00Z</time>
      </trkpt>
      <trkpt lat="47.28328" lon="-1.56474">
        <ele>22.25</ele>
        <time>2013-12-23T08:55:07Z</time>
      </trkpt>
      <trkpt lat="47.28345" lon="-1.56476">
        <ele>21.77</ele>
        <time>2013-12-23T08:55:20Z</time>
      </trkpt>
      <trkpt lat="47.28354" lon="-1.56481">
        <ele>22.25</ele>
        <time>2013-12-23T08:55:23Z</time>
      </trkpt>
      <trkpt lat="47.28367" lon="-1.56482">
        <ele>22.73</ele>
        <time>2013-12-23T08:55:28Z</time>
      </trkpt>
      <trkpt lat="47.28377" lon="-1.56475">
        <ele>24.17</ele>
        <time>2013-12-23T08:55:35Z</time>
      </trkpt>
      <trkpt lat="47.28388" lon="-1.56479">
        <ele>25.61</ele>
        <time>2013-12-23T08:55:43Z</time>
      </trkpt>
      <trkpt lat="47.28401" lon="-1.56491">
        <ele>28.98</ele>
        <time>2013-12-23T08:55:56Z</time>
      </trkpt>
      <trkpt lat="47.28412" lon="-1.56487">
        <ele>29.94</ele>
        <time>2013-12-23T08:56:01Z</time>
      </trkpt>
      <trkpt lat="47.28427" lon="-1.56486">
        <ele>31.86</ele>
        <time>2013-12-23T08:56:07Z</time>
      </trkpt>
      <trkpt lat="47.28437" lon="-1.56482">
        <ele>34.74</ele>
        <time>2013-12-23T08:56:12Z</time>
      </trkpt>
      <trkpt lat="47.28453" lon="-1.56485">
        <ele>37.63</ele>
        <time>2013-12-23T08:56:23Z</time>
      </trkpt>
      <trkpt lat="47.28477" lon="-1.56472">
        <ele>17.92</ele>
        <time>2013-12-23T08:59:37Z</time>
      </trkpt>
      <trkpt lat="47.28483" lon="-1.5647">
        <ele>21.77</ele>
        <time>2013-12-23T08:59:55Z</time>
      </trkpt>
      <trkpt lat="47.28492" lon="-1.56464">
        <ele>27.53</ele>
        <time>2013-12-23T09:00:16Z</time>
      </trkpt>
      <trkpt lat="47.28502" lon="-1.56468">
        <ele>28.02</ele>
        <time>2013-12-23T09:00:22Z</time>
      </trkpt>
      <trkpt lat="47.28513" lon="-1.5647">
        <ele>28.98</ele>
        <time>2013-12-23T09:00:27Z</time>
      </trkpt>
      <trkpt lat="47.28524" lon="-1.56475">
        <ele>27.05</ele>
        <time>2013-12-23T09:00:32Z</time>
      </trkpt>
      <trkpt lat="47.28532" lon="-1.56484">
        <ele>23.21</ele>
        <time>2013-12-23T09:00:37Z</time>
      </trkpt>
      <trkpt lat="47.2854" lon="-1.56496">
        <ele>20.81</ele>
        <time>2013-12-23T09:00:42Z</time>
      </trkpt>
      <trkpt lat="47.28542" lon="-1.56513">
        <ele>17.92</ele>
        <time>2013-12-23T09:00:46Z</time>
      </trkpt>
      <trkpt lat="47.28544" lon="-1.56528">
        <ele>16</ele>
        <time>2013-12-23T09:00:49Z</time>
      </trkpt>
      <trkpt lat="47.28553" lon="-1.56537">
        <ele>15.04</ele>
        <time>2013-12-23T09:00:53Z</time>
      </trkpt>
      <trkpt lat="47.2856" lon="-1.56551">
        <ele>14.56</ele>
        <time>2013-12-23T09:00:57Z</time>
      </trkpt>
      <trkpt lat="47.28558" lon="-1.56571">
        <ele>12.15</ele>
        <time>2013-12-23T09:01:02Z</time>
      </trkpt>
      <trkpt lat="47.28558" lon="-1.56587">
        <ele>11.67</ele>
        <time>2013-12-23T09:01:05Z</time>
      </trkpt>
      <trkpt lat="47.28563" lon="-1.56605">
        <ele>11.67</ele>
        <time>2013-12-23T09:01:11Z</time>
      </trkpt>
      <trkpt lat="47.28572" lon="-1.56614">
        <ele>11.67</ele>
        <time>2013-12-23T09:01:15Z</time>
      </trkpt>
      <trkpt lat="47.28577" lon="-1.56629">
        <ele>12.15</ele>
        <time>2013-12-23T09:01:20Z</time>
      </trkpt>
      <trkpt lat="47.28587" lon="-1.56642">
        <ele>13.6</ele>
        <time>2013-12-23T09:01:26Z</time>
      </trkpt>
      <trkpt lat="47.28599" lon="-1.56648">
        <ele>13.12</ele>
        <time>2013-12-23T09:01:30Z</time>
      </trkpt>
      <trkpt lat="47.28609" lon="-1.56654">
        <ele>13.6</ele>
        <time>2013-12-23T09:01:33Z</time>
      </trkpt>
      <trkpt lat="47.28618" lon="-1.5666">
        <ele>13.6</ele>
        <time>2013-12-23T09:01:36Z</time>
      </trkpt>
      <trkpt lat="47.28631" lon="-1.56665">
        <ele>13.6</ele>
        <time>2013-12-23T09:01:40Z</time>
      </trkpt>
      <trkpt lat="47.28642" lon="-1.5667">
        <ele>13.12</ele>
        <time>2013-12-23T09:01:43Z</time>
      </trkpt>
      <trkpt lat="47.28654" lon="-1.56673">
        <ele>12.15</ele>
        <time>2013-12-23T09:01:47Z</time>
      </trkpt>
      <trkpt lat="47.28665" lon="-1.56677">
        <ele>10.71</ele>
        <time>2013-12-23T09:01:51Z</time>
      </trkpt>
      <trkpt lat="47.28676" lon="-1.56678">
        <ele>9.75</ele>
        <time>2013-12-23T09:01:55Z</time>
      </trkpt>
      <trkpt lat="47.28685" lon="-1.56686">
        <ele>9.27</ele>
        <time>2013-12-23T09:02:01Z</time>
      </trkpt>
      <trkpt lat="47.28694" lon="-1.5669">
        <ele>8.79</ele>
        <time>2013-12-23T09:02:07Z</time>
      </trkpt>
      <trkpt lat="47.28702" lon="-1.56697">
        <ele>8.31</ele>
        <time>2013-12-23T09:02:11Z</time>
      </trkpt>
      <trkpt lat="47.28711" lon="-1.56709">
        <ele>8.31</ele>
        <time>2013-12-23T09:02:15Z</time>
      </trkpt>
      <trkpt lat="47.28722" lon="-1.5672">
        <ele>8.31</ele>
        <time>2013-12-23T09:02:19Z</time>
      </trkpt>
      <trkpt lat="47.28731" lon="-1.56726">
        <ele>8.31</ele>
        <time>2013-12-23T09:02:22Z</time>
      </trkpt>
      <trkpt lat="47.28741" lon="-1.56732">
        <ele>8.79</ele>
        <time>2013-12-23T09:02:25Z</time>
      </trkpt>
      <trkpt lat="47.28751" lon="-1.56737">
        <ele>9.27</ele>
        <time>2013-12-23T09:02:28Z</time>
      </trkpt>
      <trkpt lat="47.2876" lon="-1.5674">
        <ele>9.27</ele>
        <time>2013-12-23T09:02:31Z</time>
      </trkpt>
      <trkpt lat="47.28771" lon="-1.56743">
        <ele>9.75</ele>
        <time>2013-12-23T09:02:34Z</time>
      </trkpt>
      <trkpt lat="47.28781" lon="-1.56748">
        <ele>9.75</ele>
        <time>2013-12-23T09:02:37Z</time>
      </trkpt>
      <trkpt lat="47.28792" lon="-1.56753">
        <ele>10.23</ele>
        <time>2013-12-23T09:02:40Z</time>
      </trkpt>
      <trkpt lat="47.28802" lon="-1.56756">
        <ele>10.23</ele>
        <time>2013-12-23T09:02:43Z</time>
      </trkpt>
      <trkpt lat="47.28812" lon="-1.56758">
        <ele>10.23</ele>
        <time>2013-12-23T09:02:46Z</time>
      </trkpt>
      <trkpt lat="47.28822" lon="-1.56757">
        <ele>10.71</ele>
        <time>2013-12-23T09:02:49Z</time>
      </trkpt>
      <trkpt lat="47.28833" lon="-1.56751">
        <ele>11.19</ele>
        <time>2013-12-23T09:02:53Z</time>
      </trkpt>
      <trkpt lat="47.28839" lon="-1.56743">
        <ele>12.63</ele>
        <time>2013-12-23T09:03:12Z</time>
      </trkpt>
      <trkpt lat="47.28841" lon="-1.56727">
        <ele>14.08</ele>
        <time>2013-12-23T09:03:20Z</time>
      </trkpt>
      <trkpt lat="47.28843" lon="-1.56708">
        <ele>16.96</ele>
        <time>2013-12-23T09:03:27Z</time>
      </trkpt>
      <trkpt lat="47.28844" lon="-1.56691">
        <ele>18.88</ele>
        <time>2013-12-23T09:03:33Z</time>
      </trkpt>
      <trkpt lat="47.28847" lon="-1.56675">
        <ele>21.77</ele>
        <time>2013-12-23T09:03:40Z</time>
      </trkpt>
      <trkpt lat="47.28848" lon="-1.56659">
        <ele>24.17</ele>
        <time>2013-12-23T09:03:47Z</time>
      </trkpt>
      <trkpt lat="47.2885" lon="-1.56641">
        <ele>25.61</ele>
        <time>2013-12-23T09:03:53Z</time>
      </trkpt>
      <trkpt lat="47.28856" lon="-1.56619">
        <ele>28.5</ele>
        <time>2013-12-23T09:04:00Z</time>
      </trkpt>
      <trkpt lat="47.28861" lon="-1.56604">
        <ele>28.98</ele>
        <time>2013-12-23T09:04:06Z</time>
      </trkpt>
      <trkpt lat="47.28868" lon="-1.56589">
        <ele>29.94</ele>
        <time>2013-12-23T09:04:13Z</time>
      </trkpt>
      <trkpt lat="47.28871" lon="-1.56573">
        <ele>29.94</ele>
        <time>2013-12-23T09:04:19Z</time>
      </trkpt>
      <trkpt lat="47.28876" lon="-1.56557">
        <ele>30.42</ele>
        <time>2013-12-23T09:04:25Z</time>
      </trkpt>
      <trkpt lat="47.28881" lon="-1.56542">
        <ele>30.9</ele>
        <time>2013-12-23T09:04:31Z</time>
      </trkpt>
      <trkpt lat="47.28885" lon="-1.56528">
        <ele>32.34</ele>
        <time>2013-12-23T09:04:37Z</time>
      </trkpt>
      <trkpt lat="47.28892" lon="-1.56515">
        <ele>33.3</ele>
        <time>2013-12-23T09:04:43Z</time>
      </trkpt>
      <trkpt lat="47.289" lon="-1.56506">
        <ele>33.78</ele>
        <time>2013-12-23T09:04:48Z</time>
      </trkpt>
      <trkpt lat="47.28908" lon="-1.56497">
        <ele>34.26</ele>
        <time>2013-12-23T09:04:53Z</time>
      </trkpt>
      <trkpt lat="47.28916" lon="-1.56487">
        <ele>34.74</ele>
        <time>2013-12-23T09:04:58Z</time>
      </trkpt>
      <trkpt lat="47.28924" lon="-1.56479">
        <ele>35.71</ele>
        <time>2013-12-23T09:05:03Z</time>
      </trkpt>
      <trkpt lat="47.28933" lon="-1.56472">
        <ele>36.19</ele>
        <time>2013-12-23T09:05:07Z</time>
      </trkpt>
      <trkpt lat="47.28942" lon="-1.56463">
        <ele>37.63</ele>
        <time>2013-12-23T09:05:11Z</time>
      </trkpt>
      <trkpt lat="47.28954" lon="-1.5646">
        <ele>39.07</ele>
        <time>2013-12-23T09:05:17Z</time>
      </trkpt>
      <trkpt lat="47.28968" lon="-1.56456">
        <ele>39.55</ele>
        <time>2013-12-23T09:05:21Z</time>
      </trkpt>
      <trkpt lat="47.28982" lon="-1.56453">
        <ele>40.03</ele>
        <time>2013-12-23T09:05:25Z</time>
      </trkpt>
      <trkpt lat="47.28994" lon="-1.56451">
        <ele>39.55</ele>
        <time>2013-12-23T09:05:29Z</time>
      </trkpt>
      <trkpt lat="47.29006" lon="-1.56453">
        <ele>39.07</ele>
        <time>2013-12-23T09:05:33Z</time>
      </trkpt>
      <trkpt lat="47.2902" lon="-1.56453">
        <ele>39.07</ele>
        <time>2013-12-23T09:05:37Z</time>
      </trkpt>
      <trkpt lat="47.29031" lon="-1.56451">
        <ele>39.07</ele>
        <time>2013-12-23T09:05:40Z</time>
      </trkpt>
      <trkpt lat="47.29043" lon="-1.56458">
        <ele>38.59</ele>
        <time>2013-12-23T09:05:43Z</time>
      </trkpt>
      <trkpt lat="47.29052" lon="-1.56473">
        <ele>37.63</ele>
        <time>2013-12-23T09:05:46Z</time>
      </trkpt>
      <trkpt lat="47.29063" lon="-1.5648">
        <ele>38.11</ele>
        <time>2013-12-23T09:05:52Z</time>
      </trkpt>
      <trkpt lat="47.29069" lon="-1.56491">
        <ele>38.59</ele>
        <time>2013-12-23T09:05:56Z</time>
      </trkpt>
      <trkpt lat="47.29075" lon="-1.56506">
        <ele>39.07</ele>
        <time>2013-12-23T09:06:00Z</time>
      </trkpt>
      <trkpt lat="47.29081" lon="-1.56519">
        <ele>40.03</ele>
        <time>2013-12-23T09:06:04Z</time>
      </trkpt>
      <trkpt lat="47.29088" lon="-1.56532">
        <ele>40.03</ele>
        <time>2013-12-23T09:06:08Z</time>
      </trkpt>
      <trkpt lat="47.29098" lon="-1.56558">
        <ele>34.26</ele>
        <time>2013-12-23T09:06:13Z</time>
      </trkpt>
      <trkpt lat="47.29106" lon="-1.5657">
        <ele>30.9</ele>
        <time>2013-12-23T09:06:15Z</time>
      </trkpt>
      <trkpt lat="47.29112" lon="-1.5658">
        <ele>28.98</ele>
        <time>2013-12-23T09:06:17Z</time>
      </trkpt>
      <trkpt lat="47.2912" lon="-1.56594">
        <ele>27.05</ele>
        <time>2013-12-23T09:06:20Z</time>
      </trkpt>
      <trkpt lat="47.29124" lon="-1.56608">
        <ele>25.61</ele>
        <time>2013-12-23T09:06:23Z</time>
      </trkpt>
      <trkpt lat="47.29132" lon="-1.56616">
        <ele>25.13</ele>
        <time>2013-12-23T09:06:26Z</time>
      </trkpt>
      <trkpt lat="47.29144" lon="-1.56624">
        <ele>24.17</ele>
        <time>2013-12-23T09:06:32Z</time>
      </trkpt>
      <trkpt lat="47.29158" lon="-1.56628">
        <ele>24.65</ele>
        <time>2013-12-23T09:06:38Z</time>
      </trkpt>
      <trkpt lat="47.29173" lon="-1.56628">
        <ele>24.17</ele>
        <time>2013-12-23T09:06:42Z</time>
      </trkpt>
      <trkpt lat="47.29184" lon="-1.56626">
        <ele>23.69</ele>
        <time>2013-12-23T09:06:44Z</time>
      </trkpt>
      <trkpt lat="47.29194" lon="-1.56624">
        <ele>23.21</ele>
        <time>2013-12-23T09:06:46Z</time>
      </trkpt>
      <trkpt lat="47.29208" lon="-1.56625">
        <ele>22.25</ele>
        <time>2013-12-23T09:06:49Z</time>
      </trkpt>
      <trkpt lat="47.2922" lon="-1.56632">
        <ele>21.29</ele>
        <time>2013-12-23T09:06:52Z</time>
      </trkpt>
      <trkpt lat="47.29229" lon="-1.56645">
        <ele>20.32</ele>
        <time>2013-12-23T09:06:55Z</time>
      </trkpt>
      <trkpt lat="47.29235" lon="-1.56661">
        <ele>18.4</ele>
        <time>2013-12-23T09:06:58Z</time>
      </trkpt>
      <trkpt lat="47.29238" lon="-1.56675">
        <ele>17.44</ele>
        <time>2013-12-23T09:07:00Z</time>
      </trkpt>
      <trkpt lat="47.29241" lon="-1.56688">
        <ele>16.96</ele>
        <time>2013-12-23T09:07:02Z</time>
      </trkpt>
      <trkpt lat="47.29246" lon="-1.56709">
        <ele>16</ele>
        <time>2013-12-23T09:07:05Z</time>
      </trkpt>
      <trkpt lat="47.29251" lon="-1.56725">
        <ele>15.52</ele>
        <time>2013-12-23T09:07:08Z</time>
      </trkpt>
      <trkpt lat="47.29255" lon="-1.56738">
        <ele>15.52</ele>
        <time>2013-12-23T09:07:11Z</time>
      </trkpt>
      <trkpt lat="47.29259" lon="-1.56753">
        <ele>16</ele>
        <time>2013-12-23T09:07:14Z</time>
      </trkpt>
      <trkpt lat="47.29261" lon="-1.56768">
        <ele>16</ele>
        <time>2013-12-23T09:07:17Z</time>
      </trkpt>
      <trkpt lat="47.29263" lon="-1.56783">
        <ele>15.52</ele>
        <time>2013-12-23T09:07:20Z</time>
      </trkpt>
      <trkpt lat="47.29264" lon="-1.56797">
        <ele>15.52</ele>
        <time>2013-12-23T09:07:23Z</time>
      </trkpt>
      <trkpt lat="47.29266" lon="-1.56812">
        <ele>15.52</ele>
        <time>2013-12-23T09:07:27Z</time>
      </trkpt>
      <trkpt lat="47.29258" lon="-1.56821">
        <ele>16.48</ele>
        <time>2013-12-23T09:07:33Z</time>
      </trkpt>
      <trkpt lat="47.29249" lon="-1.56825">
        <ele>17.44</ele>
        <time>2013-12-23T09:07:38Z</time>
      </trkpt>
      <trkpt lat="47.2924" lon="-1.56836">
        <ele>18.88</ele>
        <time>2013-12-23T09:07:46Z</time>
      </trkpt>
      <trkpt lat="47.29234" lon="-1.56851">
        <ele>21.77</ele>
        <time>2013-12-23T09:07:54Z</time>
      </trkpt>
      <trkpt lat="47.29225" lon="-1.56865">
        <ele>25.13</ele>
        <time>2013-12-23T09:08:02Z</time>
      </trkpt>
      <trkpt lat="47.2922" lon="-1.56882">
        <ele>27.53</ele>
        <time>2013-12-23T09:08:09Z</time>
      </trkpt>
      <trkpt lat="47.29211" lon="-1.56898">
        <ele>31.38</ele>
        <time>2013-12-23T09:08:18Z</time>
      </trkpt>
      <trkpt lat="47.29195" lon="-1.56926">
        <ele>38.11</ele>
        <time>2013-12-23T09:08:34Z</time>
      </trkpt>
      <trkpt lat="47.29184" lon="-1.56936">
        <ele>40.03</ele>
        <time>2013-12-23T09:08:45Z</time>
      </trkpt>
      <trkpt lat="47.29039" lon="-1.5743">
        <ele>26.57</ele>
        <time>2013-12-23T09:14:01Z</time>
      </trkpt>
      <trkpt lat="47.29038" lon="-1.57448">
        <ele>26.09</ele>
        <time>2013-12-23T09:14:05Z</time>
      </trkpt>
      <trkpt lat="47.29037" lon="-1.57461">
        <ele>26.09</ele>
        <time>2013-12-23T09:14:08Z</time>
      </trkpt>
      <trkpt lat="47.29037" lon="-1.57477">
        <ele>25.61</ele>
        <time>2013-12-23T09:14:11Z</time>
      </trkpt>
      <trkpt lat="47.29036" lon="-1.57492">
        <ele>25.61</ele>
        <time>2013-12-23T09:14:14Z</time>
      </trkpt>
      <trkpt lat="47.29035" lon="-1.57506">
        <ele>25.13</ele>
        <time>2013-12-23T09:14:17Z</time>
      </trkpt>
      <trkpt lat="47.29033" lon="-1.57522">
        <ele>25.61</ele>
        <time>2013-12-23T09:14:21Z</time>
      </trkpt>
      <trkpt lat="47.29028" lon="-1.57539">
        <ele>26.09</ele>
        <time>2013-12-23T09:14:25Z</time>
      </trkpt>
      <trkpt lat="47.29025" lon="-1.57555">
        <ele>26.57</ele>
        <time>2013-12-23T09:14:29Z</time>
      </trkpt>
      <trkpt lat="47.29035" lon="-1.57557">
        <ele>26.57</ele>
        <time>2013-12-23T09:14:32Z</time>
      </trkpt>
      <trkpt lat="47.29047" lon="-1.57556">
        <ele>25.61</ele>
        <time>2013-12-23T09:14:35Z</time>
      </trkpt>
      <trkpt lat="47.2906" lon="-1.57556">
        <ele>24.17</ele>
        <time>2013-12-23T09:14:38Z</time>
      </trkpt>
      <trkpt lat="47.29073" lon="-1.57558">
        <ele>23.21</ele>
        <time>2013-12-23T09:14:41Z</time>
      </trkpt>
      <trkpt lat="47.29086" lon="-1.5756">
        <ele>22.25</ele>
        <time>2013-12-23T09:14:44Z</time>
      </trkpt>
      <trkpt lat="47.29098" lon="-1.57562">
        <ele>20.81</ele>
        <time>2013-12-23T09:14:47Z</time>
      </trkpt>
      <trkpt lat="47.29108" lon="-1.57564">
        <ele>19.84</ele>
        <time>2013-12-23T09:14:49Z</time>
      </trkpt>
      <trkpt lat="47.29118" lon="-1.57567">
        <ele>18.88</ele>
        <time>2013-12-23T09:14:51Z</time>
      </trkpt>
      <trkpt lat="47.29129" lon="-1.57569">
        <ele>18.4</ele>
        <time>2013-12-23T09:14:53Z</time>
      </trkpt>
      <trkpt lat="47.2914" lon="-1.57573">
        <ele>17.92</ele>
        <time>2013-12-23T09:14:55Z</time>
      </trkpt>
      <trkpt lat="47.29151" lon="-1.57576">
        <ele>16.96</ele>
        <time>2013-12-23T09:14:57Z</time>
      </trkpt>
      <trkpt lat="47.29161" lon="-1.57579">
        <ele>15.52</ele>
        <time>2013-12-23T09:14:59Z</time>
      </trkpt>
      <trkpt lat="47.2917" lon="-1.57581">
        <ele>15.04</ele>
        <time>2013-12-23T09:15:01Z</time>
      </trkpt>
      <trkpt lat="47.2918" lon="-1.57573">
        <ele>14.56</ele>
        <time>2013-12-23T09:15:04Z</time>
      </trkpt>
      <trkpt lat="47.29188" lon="-1.57558">
        <ele>13.12</ele>
        <time>2013-12-23T09:15:07Z</time>
      </trkpt>
      <trkpt lat="47.29193" lon="-1.57541">
        <ele>12.15</ele>
        <time>2013-12-23T09:15:10Z</time>
      </trkpt>
      <trkpt lat="47.29198" lon="-1.57528">
        <ele>10.23</ele>
        <time>2013-12-23T09:15:13Z</time>
      </trkpt>
      <trkpt lat="47.29207" lon="-1.57532">
        <ele>8.79</ele>
        <time>2013-12-23T09:15:16Z</time>
      </trkpt>
      <trkpt lat="47.29217" lon="-1.5754">
        <ele>7.83</ele>
        <time>2013-12-23T09:15:19Z</time>
      </trkpt>
      <trkpt lat="47.29228" lon="-1.57546">
        <ele>6.87</ele>
        <time>2013-12-23T09:15:22Z</time>
      </trkpt>
      <trkpt lat="47.29238" lon="-1.57553">
        <ele>5.91</ele>
        <time>2013-12-23T09:15:26Z</time>
      </trkpt>
      <trkpt lat="47.29241" lon="-1.57567">
        <ele>4.46</ele>
        <time>2013-12-23T09:15:30Z</time>
      </trkpt>
      <trkpt lat="47.29238" lon="-1.57581">
        <ele>3.5</ele>
        <time>2013-12-23T09:15:33Z</time>
      </trkpt>
      <trkpt lat="47.29234" lon="-1.57595">
        <ele>2.54</ele>
        <time>2013-12-23T09:15:36Z</time>
      </trkpt>
      <trkpt lat="47.29228" lon="-1.57612">
        <ele>1.58</ele>
        <time>2013-12-23T09:15:39Z</time>
      </trkpt>
      <trkpt lat="47.29225" lon="-1.57625">
        <ele>1.1</ele>
        <time>2013-12-23T09:15:41Z</time>
      </trkpt>
      <trkpt lat="47.29219" lon="-1.57645">
        <ele>0.14</ele>
        <time>2013-12-23T09:15:44Z</time>
      </trkpt>
      <trkpt lat="47.29215" lon="-1.57664">
        <ele>-0.34</ele>
        <time>2013-12-23T09:15:47Z</time>
      </trkpt>
      <trkpt lat="47.29211" lon="-1.57683">
        <ele>-0.34</ele>
        <time>2013-12-23T09:15:50Z</time>
      </trkpt>
      <trkpt lat="47.29209" lon="-1.577">
        <ele>0.14</ele>
        <time>2013-12-23T09:15:53Z</time>
      </trkpt>
      <trkpt lat="47.29217" lon="-1.5771">
        <ele>1.1</ele>
        <time>2013-12-23T09:15:57Z</time>
      </trkpt>
      <trkpt lat="47.29222" lon="-1.57726">
        <ele>1.1</ele>
        <time>2013-12-23T09:16:02Z</time>
      </trkpt>
      <trkpt lat="47.2922" lon="-1.57748">
        <ele>2.06</ele>
        <time>2013-12-23T09:16:08Z</time>
      </trkpt>
      <trkpt lat="47.29224" lon="-1.57767">
        <ele>3.02</ele>
        <time>2013-12-23T09:16:13Z</time>
      </trkpt>
      <trkpt lat="47.29228" lon="-1.57786">
        <ele>3.98</ele>
        <time>2013-12-23T09:16:19Z</time>
      </trkpt>
      <trkpt lat="47.29232" lon="-1.57804">
        <ele>5.91</ele>
        <time>2013-12-23T09:16:26Z</time>
      </trkpt>
      <trkpt lat="47.29235" lon="-1.57823">
        <ele>7.83</ele>
        <time>2013-12-23T09:16:32Z</time>
      </trkpt>
      <trkpt lat="47.2924" lon="-1.57839">
        <ele>11.19</ele>
        <time>2013-12-23T09:16:38Z</time>
      </trkpt>
      <trkpt lat="47.29249" lon="-1.57852">
        <ele>17.44</ele>
        <time>2013-12-23T09:16:50Z</time>
      </trkpt>
      <trkpt lat="47.29265" lon="-1.57869">
        <ele>24.65</ele>
        <time>2013-12-23T09:17:06Z</time>
      </trkpt>
      <trkpt lat="47.29273" lon="-1.57884">
        <ele>27.05</ele>
        <time>2013-12-23T09:17:12Z</time>
      </trkpt>
      <trkpt lat="47.29282" lon="-1.57898">
        <ele>27.53</ele>
        <time>2013-12-23T09:17:19Z</time>
      </trkpt>
      <trkpt lat="47.29289" lon="-1.5791">
        <ele>28.98</ele>
        <time>2013-12-23T09:17:25Z</time>
      </trkpt>
      <trkpt lat="47.29295" lon="-1.57922">
        <ele>30.42</ele>
        <time>2013-12-23T09:17:31Z</time>
      </trkpt>
      <trkpt lat="47.293" lon="-1.57936">
        <ele>30.9</ele>
        <time>2013-12-23T09:17:38Z</time>
      </trkpt>
      <trkpt lat="47.29305" lon="-1.57948">
        <ele>29.94</ele>
        <time>2013-12-23T09:17:43Z</time>
      </trkpt>
      <trkpt lat="47.29311" lon="-1.57962">
        <ele>29.46</ele>
        <time>2013-12-23T09:17:49Z</time>
      </trkpt>
      <trkpt lat="47.29317" lon="-1.57974">
        <ele>29.94</ele>
        <time>2013-12-23T09:17:55Z</time>
      </trkpt>
      <trkpt lat="47.29322" lon="-1.57987">
        <ele>29.94</ele>
        <time>2013-12-23T09:18:00Z</time>
      </trkpt>
      <trkpt lat="47.29328" lon="-1.57999">
        <ele>30.9</ele>
        <time>2013-12-23T09:18:05Z</time>
      </trkpt>
      <trkpt lat="47.29333" lon="-1.58013">
        <ele>31.38</ele>
        <time>2013-12-23T09:18:10Z</time>
      </trkpt>
      <trkpt lat="47.29338" lon="-1.58026">
        <ele>31.86</ele>
        <time>2013-12-23T09:18:15Z</time>
      </trkpt>
      <trkpt lat="47.29345" lon="-1.58039">
        <ele>31.86</ele>
        <time>2013-12-23T09:18:21Z</time>
      </trkpt>
      <trkpt lat="47.29356" lon="-1.5804">
        <ele>32.82</ele>
        <time>2013-12-23T09:18:26Z</time>
      </trkpt>
      <trkpt lat="47.29367" lon="-1.5804">
        <ele>33.78</ele>
        <time>2013-12-23T09:18:31Z</time>
      </trkpt>
      <trkpt lat="47.29377" lon="-1.5804">
        <ele>34.26</ele>
        <time>2013-12-23T09:18:35Z</time>
      </trkpt>
      <trkpt lat="47.29387" lon="-1.58045">
        <ele>35.23</ele>
        <time>2013-12-23T09:18:40Z</time>
      </trkpt>
      <trkpt lat="47.29391" lon="-1.58057">
        <ele>35.71</ele>
        <time>2013-12-23T09:18:44Z</time>
      </trkpt>
      <trkpt lat="47.29397" lon="-1.5807">
        <ele>36.19</ele>
        <time>2013-12-23T09:18:48Z</time>
      </trkpt>
      <trkpt lat="47.29403" lon="-1.58084">
        <ele>36.67</ele>
        <time>2013-12-23T09:18:52Z</time>
      </trkpt>
      <trkpt lat="47.29408" lon="-1.58097">
        <ele>37.15</ele>
        <time>2013-12-23T09:18:56Z</time>
      </trkpt>
      <trkpt lat="47.29413" lon="-1.58112">
        <ele>37.15</ele>
        <time>2013-12-23T09:19:00Z</time>
      </trkpt>
      <trkpt lat="47.29418" lon="-1.58127">
        <ele>37.15</ele>
        <time>2013-12-23T09:19:04Z</time>
      </trkpt>
      <trkpt lat="47.29423" lon="-1.58143">
        <ele>36.67</ele>
        <time>2013-12-23T09:19:08Z</time>
      </trkpt>
      <trkpt lat="47.29425" lon="-1.58156">
        <ele>36.67</ele>
        <time>2013-12-23T09:19:11Z</time>
      </trkpt>
      <trkpt lat="47.29426" lon="-1.58171">
        <ele>36.67</ele>
        <time>2013-12-23T09:19:14Z</time>
      </trkpt>
      <trkpt lat="47.29426" lon="-1.58187">
        <ele>36.67</ele>
        <time>2013-12-23T09:19:18Z</time>
      </trkpt>
      <trkpt lat="47.29424" lon="-1.58203">
        <ele>36.67</ele>
        <time>2013-12-23T09:19:22Z</time>
      </trkpt>
      <trkpt lat="47.29424" lon="-1.5822">
        <ele>37.15</ele>
        <time>2013-12-23T09:19:26Z</time>
      </trkpt>
      <trkpt lat="47.29427" lon="-1.58235">
        <ele>37.15</ele>
        <time>2013-12-23T09:19:29Z</time>
      </trkpt>
      <trkpt lat="47.2943" lon="-1.58251">
        <ele>37.63</ele>
        <time>2013-12-23T09:19:32Z</time>
      </trkpt>
      <trkpt lat="47.29433" lon="-1.58267">
        <ele>37.15</ele>
        <time>2013-12-23T09:19:35Z</time>
      </trkpt>
      <trkpt lat="47.29438" lon="-1.58282">
        <ele>36.19</ele>
        <time>2013-12-23T09:19:38Z</time>
      </trkpt>
      <trkpt lat="47.29443" lon="-1.583">
        <ele>34.74</ele>
        <time>2013-12-23T09:19:41Z</time>
      </trkpt>
      <trkpt lat="47.29448" lon="-1.58317">
        <ele>34.26</ele>
        <time>2013-12-23T09:19:44Z</time>
      </trkpt>
      <trkpt lat="47.29451" lon="-1.58335">
        <ele>33.3</ele>
        <time>2013-12-23T09:19:47Z</time>
      </trkpt>
      <trkpt lat="47.29455" lon="-1.58353">
        <ele>32.82</ele>
        <time>2013-12-23T09:19:50Z</time>
      </trkpt>
      <trkpt lat="47.29458" lon="-1.5837">
        <ele>32.82</ele>
        <time>2013-12-23T09:19:53Z</time>
      </trkpt>
      <trkpt lat="47.29457" lon="-1.58388">
        <ele>31.38</ele>
        <time>2013-12-23T09:19:56Z</time>
      </trkpt>
      <trkpt lat="47.29448" lon="-1.58401">
        <ele>30.9</ele>
        <time>2013-12-23T09:19:59Z</time>
      </trkpt>
      <trkpt lat="47.29442" lon="-1.58416">
        <ele>30.42</ele>
        <time>2013-12-23T09:20:02Z</time>
      </trkpt>
      <trkpt lat="47.29438" lon="-1.58433">
        <ele>30.42</ele>
        <time>2013-12-23T09:20:06Z</time>
      </trkpt>
      <trkpt lat="47.29439" lon="-1.58449">
        <ele>30.9</ele>
        <time>2013-12-23T09:20:09Z</time>
      </trkpt>
      <trkpt lat="47.29442" lon="-1.58466">
        <ele>31.38</ele>
        <time>2013-12-23T09:20:12Z</time>
      </trkpt>
      <trkpt lat="47.29445" lon="-1.58483">
        <ele>31.86</ele>
        <time>2013-12-23T09:20:15Z</time>
      </trkpt>
      <trkpt lat="47.29447" lon="-1.585">
        <ele>31.86</ele>
        <time>2013-12-23T09:20:18Z</time>
      </trkpt>
      <trkpt lat="47.29449" lon="-1.58517">
        <ele>32.34</ele>
        <time>2013-12-23T09:20:21Z</time>
      </trkpt>
      <trkpt lat="47.2945" lon="-1.58535">
        <ele>33.3</ele>
        <time>2013-12-23T09:20:24Z</time>
      </trkpt>
      <trkpt lat="47.29451" lon="-1.58552">
        <ele>33.78</ele>
        <time>2013-12-23T09:20:27Z</time>
      </trkpt>
      <trkpt lat="47.29452" lon="-1.58568">
        <ele>33.78</ele>
        <time>2013-12-23T09:20:30Z</time>
      </trkpt>
      <trkpt lat="47.29453" lon="-1.58584">
        <ele>33.3</ele>
        <time>2013-12-23T09:20:33Z</time>
      </trkpt>
      <trkpt lat="47.29454" lon="-1.58601">
        <ele>32.82</ele>
        <time>2013-12-23T09:20:36Z</time>
      </trkpt>
      <trkpt lat="47.29456" lon="-1.58618">
        <ele>32.82</ele>
        <time>2013-12-23T09:20:39Z</time>
      </trkpt>
      <trkpt lat="47.29456" lon="-1.58634">
        <ele>32.82</ele>
        <time>2013-12-23T09:20:42Z</time>
      </trkpt>
      <trkpt lat="47.29456" lon="-1.58652">
        <ele>32.34</ele>
        <time>2013-12-23T09:20:46Z</time>
      </trkpt>
      <trkpt lat="47.29456" lon="-1.58669">
        <ele>32.34</ele>
        <time>2013-12-23T09:20:50Z</time>
      </trkpt>
      <trkpt lat="47.29455" lon="-1.58687">
        <ele>31.86</ele>
        <time>2013-12-23T09:20:54Z</time>
      </trkpt>
      <trkpt lat="47.29454" lon="-1.58704">
        <ele>32.34</ele>
        <time>2013-12-23T09:20:58Z</time>
      </trkpt>
      <trkpt lat="47.29454" lon="-1.58719">
        <ele>32.34</ele>
        <time>2013-12-23T09:21:02Z</time>
      </trkpt>
      <trkpt lat="47.29455" lon="-1.58733">
        <ele>32.34</ele>
        <time>2013-12-23T09:21:06Z</time>
      </trkpt>
      <trkpt lat="47.29457" lon="-1.58748">
        <ele>32.82</ele>
        <time>2013-12-23T09:21:10Z</time>
      </trkpt>
      <trkpt lat="47.2946" lon="-1.58764">
        <ele>33.3</ele>
        <time>2013-12-23T09:21:14Z</time>
      </trkpt>
      <trkpt lat="47.29458" lon="-1.58779">
        <ele>34.26</ele>
        <time>2013-12-23T09:21:18Z</time>
      </trkpt>
      <trkpt lat="47.29454" lon="-1.58793">
        <ele>34.26</ele>
        <time>2013-12-23T09:21:22Z</time>
      </trkpt>
      <trkpt lat="47.29451" lon="-1.58807">
        <ele>34.26</ele>
        <time>2013-12-23T09:21:26Z</time>
      </trkpt>
      <trkpt lat="47.2945" lon="-1.58824">
        <ele>35.23</ele>
        <time>2013-12-23T09:21:30Z</time>
      </trkpt>
      <trkpt lat="47.29452" lon="-1.5884">
        <ele>36.19</ele>
        <time>2013-12-23T09:21:34Z</time>
      </trkpt>
      <trkpt lat="47.29453" lon="-1.58856">
        <ele>36.67</ele>
        <time>2013-12-23T09:21:38Z</time>
      </trkpt>
      <trkpt lat="47.29455" lon="-1.58873">
        <ele>37.15</ele>
        <time>2013-12-23T09:21:42Z</time>
      </trkpt>
      <trkpt lat="47.29455" lon="-1.58889">
        <ele>38.11</ele>
        <time>2013-12-23T09:21:46Z</time>
      </trkpt>
      <trkpt lat="47.29456" lon="-1.58906">
        <ele>38.59</ele>
        <time>2013-12-23T09:21:50Z</time>
      </trkpt>
      <trkpt lat="47.2946" lon="-1.58919">
        <ele>40.03</ele>
        <time>2013-12-23T09:21:54Z</time>
      </trkpt>
      <trkpt lat="47.29464" lon="-1.58936">
        <ele>40.99</ele>
        <time>2013-12-23T09:21:59Z</time>
      </trkpt>
      <trkpt lat="47.29467" lon="-1.58951">
        <ele>40.51</ele>
        <time>2013-12-23T09:22:03Z</time>
      </trkpt>
      <trkpt lat="47.29469" lon="-1.58966">
        <ele>40.51</ele>
        <time>2013-12-23T09:22:07Z</time>
      </trkpt>
      <trkpt lat="47.29468" lon="-1.58981">
        <ele>40.99</ele>
        <time>2013-12-23T09:22:11Z</time>
      </trkpt>
      <trkpt lat="47.29467" lon="-1.58994">
        <ele>41.95</ele>
        <time>2013-12-23T09:22:15Z</time>
      </trkpt>
      <trkpt lat="47.29463" lon="-1.59006">
        <ele>42.92</ele>
        <time>2013-12-23T09:22:19Z</time>
      </trkpt>
      <trkpt lat="47.29457" lon="-1.59017">
        <ele>44.36</ele>
        <time>2013-12-23T09:22:23Z</time>
      </trkpt>
      <trkpt lat="47.2945" lon="-1.59029">
        <ele>45.32</ele>
        <time>2013-12-23T09:22:27Z</time>
      </trkpt>
      <trkpt lat="47.29442" lon="-1.59042">
        <ele>46.28</ele>
        <time>2013-12-23T09:22:32Z</time>
      </trkpt>
      <trkpt lat="47.2943" lon="-1.59052">
        <ele>47.72</ele>
        <time>2013-12-23T09:22:37Z</time>
      </trkpt>
      <trkpt lat="47.29419" lon="-1.59069">
        <ele>48.2</ele>
        <time>2013-12-23T09:22:41Z</time>
      </trkpt>
      <trkpt lat="47.29411" lon="-1.59082">
        <ele>47.72</ele>
        <time>2013-12-23T09:22:44Z</time>
      </trkpt>
      <trkpt lat="47.29405" lon="-1.59099">
        <ele>48.2</ele>
        <time>2013-12-23T09:22:48Z</time>
      </trkpt>
      <trkpt lat="47.29398" lon="-1.59115">
        <ele>47.72</ele>
        <time>2013-12-23T09:22:52Z</time>
      </trkpt>
      <trkpt lat="47.29389" lon="-1.59124">
        <ele>47.72</ele>
        <time>2013-12-23T09:22:56Z</time>
      </trkpt>
      <trkpt lat="47.29383" lon="-1.59136">
        <ele>48.68</ele>
        <time>2013-12-23T09:23:00Z</time>
      </trkpt>
      <trkpt lat="47.29379" lon="-1.59151">
        <ele>48.68</ele>
        <time>2013-12-23T09:23:04Z</time>
      </trkpt>
      <trkpt lat="47.29376" lon="-1.59164">
        <ele>49.16</ele>
        <time>2013-12-23T09:23:08Z</time>
      </trkpt>
      <trkpt lat="47.29377" lon="-1.5918">
        <ele>50.13</ele>
        <time>2013-12-23T09:23:13Z</time>
      </trkpt>
      <trkpt lat="47.29383" lon="-1.59195">
        <ele>50.61</ele>
        <time>2013-12-23T09:23:18Z</time>
      </trkpt>
      <trkpt lat="47.29386" lon="-1.59208">
        <ele>51.09</ele>
        <time>2013-12-23T09:23:22Z</time>
      </trkpt>
      <trkpt lat="47.29389" lon="-1.59224">
        <ele>51.57</ele>
        <time>2013-12-23T09:23:27Z</time>
      </trkpt>
      <trkpt lat="47.29391" lon="-1.59241">
        <ele>52.53</ele>
        <time>2013-12-23T09:23:32Z</time>
      </trkpt>
      <trkpt lat="47.29394" lon="-1.59255">
        <ele>53.49</ele>
        <time>2013-12-23T09:23:36Z</time>
      </trkpt>
      <trkpt lat="47.29396" lon="-1.59268">
        <ele>53.97</ele>
        <time>2013-12-23T09:23:40Z</time>
      </trkpt>
      <trkpt lat="47.29397" lon="-1.59282">
        <ele>54.45</ele>
        <time>2013-12-23T09:23:44Z</time>
      </trkpt>
      <trkpt lat="47.29399" lon="-1.59299">
        <ele>54.93</ele>
        <time>2013-12-23T09:23:49Z</time>
      </trkpt>
      <trkpt lat="47.29401" lon="-1.59312">
        <ele>55.41</ele>
        <time>2013-12-23T09:23:53Z</time>
      </trkpt>
      <trkpt lat="47.29403" lon="-1.59325">
        <ele>55.89</ele>
        <time>2013-12-23T09:23:57Z</time>
      </trkpt>
      <trkpt lat="47.29404" lon="-1.59341">
        <ele>56.37</ele>
        <time>2013-12-23T09:24:02Z</time>
      </trkpt>
      <trkpt lat="47.29402" lon="-1.59357">
        <ele>56.86</ele>
        <time>2013-12-23T09:24:07Z</time>
      </trkpt>
      <trkpt lat="47.29402" lon="-1.59373">
        <ele>57.34</ele>
        <time>2013-12-23T09:24:12Z</time>
      </trkpt>
      <trkpt lat="47.29402" lon="-1.5939">
        <ele>56.86</ele>
        <time>2013-12-23T09:24:17Z</time>
      </trkpt>
      <trkpt lat="47.29402" lon="-1.59403">
        <ele>57.34</ele>
        <time>2013-12-23T09:24:21Z</time>
      </trkpt>
      <trkpt lat="47.29403" lon="-1.59418">
        <ele>57.82</ele>
        <time>2013-12-23T09:24:25Z</time>
      </trkpt>
      <trkpt lat="47.29403" lon="-1.59433">
        <ele>58.78</ele>
        <time>2013-12-23T09:24:29Z</time>
      </trkpt>
      <trkpt lat="47.29404" lon="-1.59449">
        <ele>59.26</ele>
        <time>2013-12-23T09:24:33Z</time>
      </trkpt>
      <trkpt lat="47.29405" lon="-1.59465">
        <ele>59.74</ele>
        <time>2013-12-23T09:24:37Z</time>
      </trkpt>
      <trkpt lat="47.29407" lon="-1.59479">
        <ele>59.74</ele>
        <time>2013-12-23T09:24:40Z</time>
      </trkpt>
      <trkpt lat="47.29408" lon="-1.59493">
        <ele>59.26</ele>
        <time>2013-12-23T09:24:43Z</time>
      </trkpt>
      <trkpt lat="47.29409" lon="-1.59508">
        <ele>59.26</ele>
        <time>2013-12-23T09:24:46Z</time>
      </trkpt>
      <trkpt lat="47.2941" lon="-1.59526">
        <ele>59.26</ele>
        <time>2013-12-23T09:24:50Z</time>
      </trkpt>
      <trkpt lat="47.29411" lon="-1.5954">
        <ele>58.78</ele>
        <time>2013-12-23T09:24:53Z</time>
      </trkpt>
      <trkpt lat="47.29412" lon="-1.59556">
        <ele>58.78</ele>
        <time>2013-12-23T09:24:56Z</time>
      </trkpt>
      <trkpt lat="47.29413" lon="-1.59574">
        <ele>58.3</ele>
        <time>2013-12-23T09:24:59Z</time>
      </trkpt>
      <trkpt lat="47.29414" lon="-1.59593">
        <ele>58.3</ele>
        <time>2013-12-23T09:25:02Z</time>
      </trkpt>
      <trkpt lat="47.29416" lon="-1.59612">
        <ele>57.82</ele>
        <time>2013-12-23T09:25:05Z</time>
      </trkpt>
      <trkpt lat="47.29416" lon="-1.59625">
        <ele>57.34</ele>
        <time>2013-12-23T09:25:07Z</time>
      </trkpt>
      <trkpt lat="47.29417" lon="-1.59639">
        <ele>56.86</ele>
        <time>2013-12-23T09:25:09Z</time>
      </trkpt>
      <trkpt lat="47.29418" lon="-1.59655">
        <ele>55.89</ele>
        <time>2013-12-23T09:25:11Z</time>
      </trkpt>
      <trkpt lat="47.29419" lon="-1.59672">
        <ele>55.41</ele>
        <time>2013-12-23T09:25:13Z</time>
      </trkpt>
      <trkpt lat="47.2942" lon="-1.5969">
        <ele>54.45</ele>
        <time>2013-12-23T09:25:15Z</time>
      </trkpt>
      <trkpt lat="47.2942" lon="-1.59707">
        <ele>53.97</ele>
        <time>2013-12-23T09:25:17Z</time>
      </trkpt>
      <trkpt lat="47.29421" lon="-1.59723">
        <ele>53.97</ele>
        <time>2013-12-23T09:25:19Z</time>
      </trkpt>
      <trkpt lat="47.29422" lon="-1.59737">
        <ele>53.49</ele>
        <time>2013-12-23T09:25:21Z</time>
      </trkpt>
      <trkpt lat="47.29423" lon="-1.59751">
        <ele>53.49</ele>
        <time>2013-12-23T09:25:23Z</time>
      </trkpt>
      <trkpt lat="47.29423" lon="-1.59765">
        <ele>53.49</ele>
        <time>2013-12-23T09:25:25Z</time>
      </trkpt>
      <trkpt lat="47.29424" lon="-1.59785">
        <ele>53.97</ele>
        <time>2013-12-23T09:25:28Z</time>
      </trkpt>
      <trkpt lat="47.29426" lon="-1.59803">
        <ele>53.97</ele>
        <time>2013-12-23T09:25:31Z</time>
      </trkpt>
      <trkpt lat="47.29427" lon="-1.59822">
        <ele>54.45</ele>
        <time>2013-12-23T09:25:34Z</time>
      </trkpt>
      <trkpt lat="47.29428" lon="-1.59841">
        <ele>53.97</ele>
        <time>2013-12-23T09:25:37Z</time>
      </trkpt>
      <trkpt lat="47.29429" lon="-1.59855">
        <ele>53.97</ele>
        <time>2013-12-23T09:25:39Z</time>
      </trkpt>
      <trkpt lat="47.2943" lon="-1.59869">
        <ele>53.97</ele>
        <time>2013-12-23T09:25:41Z</time>
      </trkpt>
      <trkpt lat="47.2943" lon="-1.59882">
        <ele>53.97</ele>
        <time>2013-12-23T09:25:43Z</time>
      </trkpt>
      <trkpt lat="47.29432" lon="-1.59901">
        <ele>53.49</ele>
        <time>2013-12-23T09:25:46Z</time>
      </trkpt>
      <trkpt lat="47.29432" lon="-1.59921">
        <ele>53.97</ele>
        <time>2013-12-23T09:25:49Z</time>
      </trkpt>
      <trkpt lat="47.29433" lon="-1.5994">
        <ele>53.49</ele>
        <time>2013-12-23T09:25:52Z</time>
      </trkpt>
      <trkpt lat="47.29434" lon="-1.59955">
        <ele>53.97</ele>
        <time>2013-12-23T09:25:55Z</time>
      </trkpt>
      <trkpt lat="47.29435" lon="-1.59969">
        <ele>54.45</ele>
        <time>2013-12-23T09:25:58Z</time>
      </trkpt>
      <trkpt lat="47.29436" lon="-1.59984">
        <ele>54.93</ele>
        <time>2013-12-23T09:26:01Z</time>
      </trkpt>
      <trkpt lat="47.29437" lon="-1.59999">
        <ele>55.89</ele>
        <time>2013-12-23T09:26:04Z</time>
      </trkpt>
      <trkpt lat="47.29438" lon="-1.60013">
        <ele>56.37</ele>
        <time>2013-12-23T09:26:07Z</time>
      </trkpt>
      <trkpt lat="47.29439" lon="-1.60027">
        <ele>56.86</ele>
        <time>2013-12-23T09:26:10Z</time>
      </trkpt>
      <trkpt lat="47.29439" lon="-1.60041">
        <ele>57.34</ele>
        <time>2013-12-23T09:26:13Z</time>
      </trkpt>
      <trkpt lat="47.29439" lon="-1.60057">
        <ele>57.34</ele>
        <time>2013-12-23T09:26:16Z</time>
      </trkpt>
      <trkpt lat="47.2944" lon="-1.60072">
        <ele>56.86</ele>
        <time>2013-12-23T09:26:19Z</time>
      </trkpt>
      <trkpt lat="47.29441" lon="-1.60086">
        <ele>57.34</ele>
        <time>2013-12-23T09:26:22Z</time>
      </trkpt>
      <trkpt lat="47.29441" lon="-1.60102">
        <ele>57.34</ele>
        <time>2013-12-23T09:26:25Z</time>
      </trkpt>
      <trkpt lat="47.29442" lon="-1.60118">
        <ele>57.34</ele>
        <time>2013-12-23T09:26:28Z</time>
      </trkpt>
      <trkpt lat="47.29443" lon="-1.60134">
        <ele>56.86</ele>
        <time>2013-12-23T09:26:31Z</time>
      </trkpt>
      <trkpt lat="47.29444" lon="-1.60151">
        <ele>56.86</ele>
        <time>2013-12-23T09:26:34Z</time>
      </trkpt>
      <trkpt lat="47.29445" lon="-1.60168">
        <ele>56.86</ele>
        <time>2013-12-23T09:26:37Z</time>
      </trkpt>
      <trkpt lat="47.29445" lon="-1.60185">
        <ele>56.86</ele>
        <time>2013-12-23T09:26:40Z</time>
      </trkpt>
      <trkpt lat="47.29446" lon="-1.60201">
        <ele>56.86</ele>
        <time>2013-12-23T09:26:43Z</time>
      </trkpt>
      <trkpt lat="47.29447" lon="-1.60216">
        <ele>57.82</ele>
        <time>2013-12-23T09:26:46Z</time>
      </trkpt>
      <trkpt lat="47.29443" lon="-1.60233">
        <ele>57.82</ele>
        <time>2013-12-23T09:26:50Z</time>
      </trkpt>
      <trkpt lat="47.29435" lon="-1.60246">
        <ele>57.82</ele>
        <time>2013-12-23T09:26:53Z</time>
      </trkpt>
      <trkpt lat="47.29426" lon="-1.60259">
        <ele>57.82</ele>
        <time>2013-12-23T09:26:56Z</time>
      </trkpt>
      <trkpt lat="47.29419" lon="-1.60268">
        <ele>57.34</ele>
        <time>2013-12-23T09:26:58Z</time>
      </trkpt>
      <trkpt lat="47.29412" lon="-1.60278">
        <ele>57.34</ele>
        <time>2013-12-23T09:27:00Z</time>
      </trkpt>
      <trkpt lat="47.29405" lon="-1.60288">
        <ele>57.34</ele>
        <time>2013-12-23T09:27:02Z</time>
      </trkpt>
      <trkpt lat="47.29399" lon="-1.60299">
        <ele>56.86</ele>
        <time>2013-12-23T09:27:04Z</time>
      </trkpt>
      <trkpt lat="47.29392" lon="-1.60309">
        <ele>56.86</ele>
        <time>2013-12-23T09:27:06Z</time>
      </trkpt>
      <trkpt lat="47.29385" lon="-1.60319">
        <ele>56.37</ele>
        <time>2013-12-23T09:27:08Z</time>
      </trkpt>
      <trkpt lat="47.29377" lon="-1.60329">
        <ele>56.37</ele>
        <time>2013-12-23T09:27:10Z</time>
      </trkpt>
      <trkpt lat="47.2937" lon="-1.6034">
        <ele>56.37</ele>
        <time>2013-12-23T09:27:12Z</time>
      </trkpt>
      <trkpt lat="47.29363" lon="-1.6035">
        <ele>56.86</ele>
        <time>2013-12-23T09:27:14Z</time>
      </trkpt>
      <trkpt lat="47.29356" lon="-1.6036">
        <ele>56.86</ele>
        <time>2013-12-23T09:27:16Z</time>
      </trkpt>
      <trkpt lat="47.2935" lon="-1.60369">
        <ele>56.86</ele>
        <time>2013-12-23T09:27:18Z</time>
      </trkpt>
      <trkpt lat="47.29341" lon="-1.60382">
        <ele>58.3</ele>
        <time>2013-12-23T09:27:21Z</time>
      </trkpt>
      <trkpt lat="47.29332" lon="-1.60394">
        <ele>58.78</ele>
        <time>2013-12-23T09:27:24Z</time>
      </trkpt>
      <trkpt lat="47.29324" lon="-1.60406">
        <ele>59.26</ele>
        <time>2013-12-23T09:27:27Z</time>
      </trkpt>
      <trkpt lat="47.29316" lon="-1.60418">
        <ele>59.74</ele>
        <time>2013-12-23T09:27:30Z</time>
      </trkpt>
      <trkpt lat="47.29307" lon="-1.60432">
        <ele>59.74</ele>
        <time>2013-12-23T09:27:33Z</time>
      </trkpt>
      <trkpt lat="47.29298" lon="-1.60444">
        <ele>59.26</ele>
        <time>2013-12-23T09:27:36Z</time>
      </trkpt>
      <trkpt lat="47.29287" lon="-1.60456">
        <ele>58.78</ele>
        <time>2013-12-23T09:27:39Z</time>
      </trkpt>
      <trkpt lat="47.29278" lon="-1.60462">
        <ele>58.78</ele>
        <time>2013-12-23T09:27:41Z</time>
      </trkpt>
      <trkpt lat="47.29269" lon="-1.60467">
        <ele>58.3</ele>
        <time>2013-12-23T09:27:43Z</time>
      </trkpt>
      <trkpt lat="47.29261" lon="-1.60472">
        <ele>58.3</ele>
        <time>2013-12-23T09:27:45Z</time>
      </trkpt>
      <trkpt lat="47.2925" lon="-1.60479">
        <ele>58.78</ele>
        <time>2013-12-23T09:27:48Z</time>
      </trkpt>
      <trkpt lat="47.2924" lon="-1.60486">
        <ele>58.78</ele>
        <time>2013-12-23T09:27:51Z</time>
      </trkpt>
      <trkpt lat="47.29231" lon="-1.60495">
        <ele>59.26</ele>
        <time>2013-12-23T09:27:54Z</time>
      </trkpt>
      <trkpt lat="47.29223" lon="-1.60508">
        <ele>59.74</ele>
        <time>2013-12-23T09:27:57Z</time>
      </trkpt>
      <trkpt lat="47.29217" lon="-1.60521">
        <ele>59.74</ele>
        <time>2013-12-23T09:28:00Z</time>
      </trkpt>
      <trkpt lat="47.29212" lon="-1.60536">
        <ele>60.22</ele>
        <time>2013-12-23T09:28:03Z</time>
      </trkpt>
      <trkpt lat="47.29206" lon="-1.60551">
        <ele>60.7</ele>
        <time>2013-12-23T09:28:06Z</time>
      </trkpt>
      <trkpt lat="47.292" lon="-1.60564">
        <ele>60.7</ele>
        <time>2013-12-23T09:28:09Z</time>
      </trkpt>
      <trkpt lat="47.29195" lon="-1.60578">
        <ele>61.18</ele>
        <time>2013-12-23T09:28:12Z</time>
      </trkpt>
      <trkpt lat="47.29189" lon="-1.60591">
        <ele>61.66</ele>
        <time>2013-12-23T09:28:15Z</time>
      </trkpt>
      <trkpt lat="47.29184" lon="-1.60605">
        <ele>62.14</ele>
        <time>2013-12-23T09:28:18Z</time>
      </trkpt>
      <trkpt lat="47.29178" lon="-1.60618">
        <ele>62.62</ele>
        <time>2013-12-23T09:28:21Z</time>
      </trkpt>
      <trkpt lat="47.29173" lon="-1.60631">
        <ele>62.62</ele>
        <time>2013-12-23T09:28:24Z</time>
      </trkpt>
      <trkpt lat="47.29167" lon="-1.60644">
        <ele>63.1</ele>
        <time>2013-12-23T09:28:27Z</time>
      </trkpt>
      <trkpt lat="47.29161" lon="-1.60657">
        <ele>63.58</ele>
        <time>2013-12-23T09:28:30Z</time>
      </trkpt>
      <trkpt lat="47.29155" lon="-1.6067">
        <ele>64.07</ele>
        <time>2013-12-23T09:28:33Z</time>
      </trkpt>
      <trkpt lat="47.29148" lon="-1.60682">
        <ele>65.03</ele>
        <time>2013-12-23T09:28:36Z</time>
      </trkpt>
      <trkpt lat="47.29142" lon="-1.60694">
        <ele>65.99</ele>
        <time>2013-12-23T09:28:39Z</time>
      </trkpt>
      <trkpt lat="47.29136" lon="-1.60706">
        <ele>65.99</ele>
        <time>2013-12-23T09:28:42Z</time>
      </trkpt>
      <trkpt lat="47.29129" lon="-1.60717">
        <ele>66.47</ele>
        <time>2013-12-23T09:28:45Z</time>
      </trkpt>
      <trkpt lat="47.29122" lon="-1.60727">
        <ele>66.47</ele>
        <time>2013-12-23T09:28:48Z</time>
      </trkpt>
      <trkpt lat="47.29116" lon="-1.60738">
        <ele>66.47</ele>
        <time>2013-12-23T09:28:51Z</time>
      </trkpt>
      <trkpt lat="47.29109" lon="-1.60747">
        <ele>66.47</ele>
        <time>2013-12-23T09:28:54Z</time>
      </trkpt>
      <trkpt lat="47.29101" lon="-1.60755">
        <ele>66.47</ele>
        <time>2013-12-23T09:28:57Z</time>
      </trkpt>
      <trkpt lat="47.29094" lon="-1.60764">
        <ele>66.47</ele>
        <time>2013-12-23T09:29:00Z</time>
      </trkpt>
      <trkpt lat="47.29086" lon="-1.60772">
        <ele>66.47</ele>
        <time>2013-12-23T09:29:03Z</time>
      </trkpt>
      <trkpt lat="47.29081" lon="-1.60785">
        <ele>66.95</ele>
        <time>2013-12-23T09:29:06Z</time>
      </trkpt>
      <trkpt lat="47.29078" lon="-1.60798">
        <ele>66.95</ele>
        <time>2013-12-23T09:29:11Z</time>
      </trkpt>
      <trkpt lat="47.29072" lon="-1.60812">
        <ele>67.43</ele>
        <time>2013-12-23T09:29:18Z</time>
      </trkpt>
      <trkpt lat="47.29062" lon="-1.60819">
        <ele>67.43</ele>
        <time>2013-12-23T09:29:21Z</time>
      </trkpt>
      <trkpt lat="47.29052" lon="-1.60828">
        <ele>67.43</ele>
        <time>2013-12-23T09:29:24Z</time>
      </trkpt>
      <trkpt lat="47.29045" lon="-1.60839">
        <ele>67.91</ele>
        <time>2013-12-23T09:29:27Z</time>
      </trkpt>
      <trkpt lat="47.29038" lon="-1.60852">
        <ele>67.91</ele>
        <time>2013-12-23T09:29:30Z</time>
      </trkpt>
      <trkpt lat="47.29031" lon="-1.60864">
        <ele>68.39</ele>
        <time>2013-12-23T09:29:33Z</time>
      </trkpt>
      <trkpt lat="47.29023" lon="-1.60876">
        <ele>68.39</ele>
        <time>2013-12-23T09:29:36Z</time>
      </trkpt>
      <trkpt lat="47.29015" lon="-1.60889">
        <ele>68.39</ele>
        <time>2013-12-23T09:29:39Z</time>
      </trkpt>
      <trkpt lat="47.29007" lon="-1.60902">
        <ele>68.39</ele>
        <time>2013-12-23T09:29:42Z</time>
      </trkpt>
      <trkpt lat="47.28999" lon="-1.60915">
        <ele>68.39</ele>
        <time>2013-12-23T09:29:45Z</time>
      </trkpt>
      <trkpt lat="47.28991" lon="-1.60928">
        <ele>68.39</ele>
        <time>2013-12-23T09:29:48Z</time>
      </trkpt>
      <trkpt lat="47.28984" lon="-1.6094">
        <ele>67.91</ele>
        <time>2013-12-23T09:29:51Z</time>
      </trkpt>
      <trkpt lat="47.28977" lon="-1.60953">
        <ele>67.91</ele>
        <time>2013-12-23T09:29:54Z</time>
      </trkpt>
      <trkpt lat="47.2897" lon="-1.60964">
        <ele>67.43</ele>
        <time>2013-12-23T09:29:57Z</time>
      </trkpt>
      <trkpt lat="47.28965" lon="-1.60976">
        <ele>66.47</ele>
        <time>2013-12-23T09:30:00Z</time>
      </trkpt>
      <trkpt lat="47.28964" lon="-1.6099">
        <ele>65.51</ele>
        <time>2013-12-23T09:30:03Z</time>
      </trkpt>
      <trkpt lat="47.28972" lon="-1.61003">
        <ele>65.03</ele>
        <time>2013-12-23T09:30:06Z</time>
      </trkpt>
      <trkpt lat="47.2898" lon="-1.61011">
        <ele>64.55</ele>
        <time>2013-12-23T09:30:08Z</time>
      </trkpt>
      <trkpt lat="47.28989" lon="-1.6102">
        <ele>64.07</ele>
        <time>2013-12-23T09:30:10Z</time>
      </trkpt>
      <trkpt lat="47.28999" lon="-1.6103">
        <ele>63.58</ele>
        <time>2013-12-23T09:30:12Z</time>
      </trkpt>
      <trkpt lat="47.29009" lon="-1.6104">
        <ele>63.1</ele>
        <time>2013-12-23T09:30:14Z</time>
      </trkpt>
      <trkpt lat="47.29019" lon="-1.6105">
        <ele>62.62</ele>
        <time>2013-12-23T09:30:16Z</time>
      </trkpt>
      <trkpt lat="47.2903" lon="-1.61059">
        <ele>62.14</ele>
        <time>2013-12-23T09:30:18Z</time>
      </trkpt>
      <trkpt lat="47.2904" lon="-1.61069">
        <ele>62.14</ele>
        <time>2013-12-23T09:30:20Z</time>
      </trkpt>
      <trkpt lat="47.2905" lon="-1.61079">
        <ele>61.66</ele>
        <time>2013-12-23T09:30:22Z</time>
      </trkpt>
      <trkpt lat="47.29059" lon="-1.6109">
        <ele>61.18</ele>
        <time>2013-12-23T09:30:24Z</time>
      </trkpt>
      <trkpt lat="47.29067" lon="-1.61102">
        <ele>60.22</ele>
        <time>2013-12-23T09:30:26Z</time>
      </trkpt>
      <trkpt lat="47.29077" lon="-1.61114">
        <ele>59.74</ele>
        <time>2013-12-23T09:30:28Z</time>
      </trkpt>
      <trkpt lat="47.29086" lon="-1.61125">
        <ele>59.74</ele>
        <time>2013-12-23T09:30:30Z</time>
      </trkpt>
      <trkpt lat="47.29096" lon="-1.61137">
        <ele>59.74</ele>
        <time>2013-12-23T09:30:32Z</time>
      </trkpt>
      <trkpt lat="47.29105" lon="-1.61149">
        <ele>59.74</ele>
        <time>2013-12-23T09:30:34Z</time>
      </trkpt>
      <trkpt lat="47.29113" lon="-1.61162">
        <ele>59.26</ele>
        <time>2013-12-23T09:30:36Z</time>
      </trkpt>
      <trkpt lat="47.29121" lon="-1.61176">
        <ele>59.74</ele>
        <time>2013-12-23T09:30:38Z</time>
      </trkpt>
      <trkpt lat="47.29127" lon="-1.6119">
        <ele>59.74</ele>
        <time>2013-12-23T09:30:40Z</time>
      </trkpt>
      <trkpt lat="47.29133" lon="-1.61204">
        <ele>59.74</ele>
        <time>2013-12-23T09:30:42Z</time>
      </trkpt>
      <trkpt lat="47.29139" lon="-1.61218">
        <ele>59.26</ele>
        <time>2013-12-23T09:30:44Z</time>
      </trkpt>
      <trkpt lat="47.29146" lon="-1.61232">
        <ele>58.78</ele>
        <time>2013-12-23T09:30:46Z</time>
      </trkpt>
      <trkpt lat="47.29152" lon="-1.61246">
        <ele>58.3</ele>
        <time>2013-12-23T09:30:48Z</time>
      </trkpt>
      <trkpt lat="47.29158" lon="-1.61261">
        <ele>57.82</ele>
        <time>2013-12-23T09:30:50Z</time>
      </trkpt>
      <trkpt lat="47.29164" lon="-1.61275">
        <ele>57.82</ele>
        <time>2013-12-23T09:30:52Z</time>
      </trkpt>
      <trkpt lat="47.29171" lon="-1.61289">
        <ele>57.34</ele>
        <time>2013-12-23T09:30:54Z</time>
      </trkpt>
      <trkpt lat="47.29177" lon="-1.61303">
        <ele>56.86</ele>
        <time>2013-12-23T09:30:56Z</time>
      </trkpt>
      <trkpt lat="47.29184" lon="-1.61318">
        <ele>56.37</ele>
        <time>2013-12-23T09:30:58Z</time>
      </trkpt>
      <trkpt lat="47.2919" lon="-1.61331">
        <ele>56.37</ele>
        <time>2013-12-23T09:31:00Z</time>
      </trkpt>
      <trkpt lat="47.29196" lon="-1.61343">
        <ele>56.37</ele>
        <time>2013-12-23T09:31:02Z</time>
      </trkpt>
      <trkpt lat="47.29203" lon="-1.61355">
        <ele>56.37</ele>
        <time>2013-12-23T09:31:04Z</time>
      </trkpt>
      <trkpt lat="47.29209" lon="-1.61366">
        <ele>56.37</ele>
        <time>2013-12-23T09:31:06Z</time>
      </trkpt>
      <trkpt lat="47.29215" lon="-1.61378">
        <ele>56.37</ele>
        <time>2013-12-23T09:31:08Z</time>
      </trkpt>
      <trkpt lat="47.29221" lon="-1.6139">
        <ele>56.86</ele>
        <time>2013-12-23T09:31:10Z</time>
      </trkpt>
      <trkpt lat="47.29227" lon="-1.61401">
        <ele>57.34</ele>
        <time>2013-12-23T09:31:12Z</time>
      </trkpt>
      <trkpt lat="47.29233" lon="-1.61412">
        <ele>57.34</ele>
        <time>2013-12-23T09:31:14Z</time>
      </trkpt>
      <trkpt lat="47.29239" lon="-1.61423">
        <ele>57.34</ele>
        <time>2013-12-23T09:31:16Z</time>
      </trkpt>
      <trkpt lat="47.29247" lon="-1.61438">
        <ele>57.82</ele>
        <time>2013-12-23T09:31:19Z</time>
      </trkpt>
      <trkpt lat="47.29254" lon="-1.61453">
        <ele>57.82</ele>
        <time>2013-12-23T09:31:22Z</time>
      </trkpt>
      <trkpt lat="47.29261" lon="-1.61468">
        <ele>57.34</ele>
        <time>2013-12-23T09:31:25Z</time>
      </trkpt>
      <trkpt lat="47.29269" lon="-1.61483">
        <ele>56.86</ele>
        <time>2013-12-23T09:31:28Z</time>
      </trkpt>
      <trkpt lat="47.29271" lon="-1.61501">
        <ele>56.37</ele>
        <time>2013-12-23T09:31:31Z</time>
      </trkpt>
      <trkpt lat="47.29265" lon="-1.61516">
        <ele>56.37</ele>
        <time>2013-12-23T09:31:34Z</time>
      </trkpt>
      <trkpt lat="47.29255" lon="-1.61529">
        <ele>56.37</ele>
        <time>2013-12-23T09:31:37Z</time>
      </trkpt>
      <trkpt lat="47.29245" lon="-1.61542">
        <ele>56.37</ele>
        <time>2013-12-23T09:31:40Z</time>
      </trkpt>
      <trkpt lat="47.29235" lon="-1.61555">
        <ele>56.86</ele>
        <time>2013-12-23T09:31:43Z</time>
      </trkpt>
      <trkpt lat="47.29229" lon="-1.61565">
        <ele>56.86</ele>
        <time>2013-12-23T09:31:45Z</time>
      </trkpt>
      <trkpt lat="47.2922" lon="-1.61579">
        <ele>56.86</ele>
        <time>2013-12-23T09:31:48Z</time>
      </trkpt>
      <trkpt lat="47.29211" lon="-1.61592">
        <ele>56.86</ele>
        <time>2013-12-23T09:31:51Z</time>
      </trkpt>
      <trkpt lat="47.29203" lon="-1.61605">
        <ele>57.34</ele>
        <time>2013-12-23T09:31:54Z</time>
      </trkpt>
      <trkpt lat="47.29196" lon="-1.61617">
        <ele>58.3</ele>
        <time>2013-12-23T09:31:57Z</time>
      </trkpt>
      <trkpt lat="47.29188" lon="-1.61626">
        <ele>59.26</ele>
        <time>2013-12-23T09:32:00Z</time>
      </trkpt>
      <trkpt lat="47.29181" lon="-1.61636">
        <ele>59.74</ele>
        <time>2013-12-23T09:32:03Z</time>
      </trkpt>
      <trkpt lat="47.29172" lon="-1.61645">
        <ele>60.22</ele>
        <time>2013-12-23T09:32:06Z</time>
      </trkpt>
      <trkpt lat="47.29165" lon="-1.61653">
        <ele>60.7</ele>
        <time>2013-12-23T09:32:09Z</time>
      </trkpt>
      <trkpt lat="47.29157" lon="-1.61663">
        <ele>61.18</ele>
        <time>2013-12-23T09:32:13Z</time>
      </trkpt>
      <trkpt lat="47.29151" lon="-1.61674">
        <ele>62.14</ele>
        <time>2013-12-23T09:32:17Z</time>
      </trkpt>
      <trkpt lat="47.29147" lon="-1.61688">
        <ele>62.62</ele>
        <time>2013-12-23T09:32:21Z</time>
      </trkpt>
      <trkpt lat="47.29142" lon="-1.61703">
        <ele>63.1</ele>
        <time>2013-12-23T09:32:25Z</time>
      </trkpt>
      <trkpt lat="47.29137" lon="-1.61719">
        <ele>64.07</ele>
        <time>2013-12-23T09:32:29Z</time>
      </trkpt>
      <trkpt lat="47.29132" lon="-1.61736">
        <ele>64.55</ele>
        <time>2013-12-23T09:32:33Z</time>
      </trkpt>
      <trkpt lat="47.29127" lon="-1.61751">
        <ele>64.55</ele>
        <time>2013-12-23T09:32:37Z</time>
      </trkpt>
      <trkpt lat="47.29119" lon="-1.61765">
        <ele>64.55</ele>
        <time>2013-12-23T09:32:41Z</time>
      </trkpt>
      <trkpt lat="47.29111" lon="-1.61778">
        <ele>64.07</ele>
        <time>2013-12-23T09:32:45Z</time>
      </trkpt>
      <trkpt lat="47.29104" lon="-1.61788">
        <ele>64.07</ele>
        <time>2013-12-23T09:32:48Z</time>
      </trkpt>
      <trkpt lat="47.29099" lon="-1.61804">
        <ele>63.58</ele>
        <time>2013-12-23T09:32:52Z</time>
      </trkpt>
      <trkpt lat="47.29097" lon="-1.61818">
        <ele>63.1</ele>
        <time>2013-12-23T09:32:55Z</time>
      </trkpt>
      <trkpt lat="47.29096" lon="-1.61832">
        <ele>62.14</ele>
        <time>2013-12-23T09:32:58Z</time>
      </trkpt>
      <trkpt lat="47.29093" lon="-1.61849">
        <ele>61.66</ele>
        <time>2013-12-23T09:33:01Z</time>
      </trkpt>
      <trkpt lat="47.2909" lon="-1.61869">
        <ele>60.7</ele>
        <time>2013-12-23T09:33:04Z</time>
      </trkpt>
      <trkpt lat="47.29088" lon="-1.6189">
        <ele>59.74</ele>
        <time>2013-12-23T09:33:07Z</time>
      </trkpt>
      <trkpt lat="47.29085" lon="-1.61904">
        <ele>59.26</ele>
        <time>2013-12-23T09:33:09Z</time>
      </trkpt>
      <trkpt lat="47.29081" lon="-1.61919">
        <ele>58.78</ele>
        <time>2013-12-23T09:33:11Z</time>
      </trkpt>
      <trkpt lat="47.29077" lon="-1.61933">
        <ele>58.3</ele>
        <time>2013-12-23T09:33:13Z</time>
      </trkpt>
      <trkpt lat="47.29068" lon="-1.61945">
        <ele>57.82</ele>
        <time>2013-12-23T09:33:15Z</time>
      </trkpt>
      <trkpt lat="47.29059" lon="-1.61955">
        <ele>57.34</ele>
        <time>2013-12-23T09:33:17Z</time>
      </trkpt>
      <trkpt lat="47.29049" lon="-1.61964">
        <ele>56.86</ele>
        <time>2013-12-23T09:33:19Z</time>
      </trkpt>
      <trkpt lat="47.29041" lon="-1.61974">
        <ele>56.37</ele>
        <time>2013-12-23T09:33:21Z</time>
      </trkpt>
      <trkpt lat="47.29032" lon="-1.61981">
        <ele>55.89</ele>
        <time>2013-12-23T09:33:23Z</time>
      </trkpt>
      <trkpt lat="47.29023" lon="-1.61988">
        <ele>55.89</ele>
        <time>2013-12-23T09:33:25Z</time>
      </trkpt>
      <trkpt lat="47.29013" lon="-1.61993">
        <ele>55.41</ele>
        <time>2013-12-23T09:33:27Z</time>
      </trkpt>
      <trkpt lat="47.29005" lon="-1.61998">
        <ele>55.41</ele>
        <time>2013-12-23T09:33:29Z</time>
      </trkpt>
      <trkpt lat="47.2899" lon="-1.62003">
        <ele>55.41</ele>
        <time>2013-12-23T09:33:32Z</time>
      </trkpt>
      <trkpt lat="47.2898" lon="-1.62005">
        <ele>55.41</ele>
        <time>2013-12-23T09:33:34Z</time>
      </trkpt>
      <trkpt lat="47.2897" lon="-1.62008">
        <ele>54.93</ele>
        <time>2013-12-23T09:33:36Z</time>
      </trkpt>
      <trkpt lat="47.2896" lon="-1.62011">
        <ele>54.45</ele>
        <time>2013-12-23T09:33:38Z</time>
      </trkpt>
      <trkpt lat="47.2895" lon="-1.62015">
        <ele>53.97</ele>
        <time>2013-12-23T09:33:40Z</time>
      </trkpt>
      <trkpt lat="47.2894" lon="-1.62018">
        <ele>53.01</ele>
        <time>2013-12-23T09:33:42Z</time>
      </trkpt>
      <trkpt lat="47.2893" lon="-1.62019">
        <ele>52.53</ele>
        <time>2013-12-23T09:33:44Z</time>
      </trkpt>
      <trkpt lat="47.2892" lon="-1.6202">
        <ele>51.57</ele>
        <time>2013-12-23T09:33:46Z</time>
      </trkpt>
      <trkpt lat="47.2891" lon="-1.62022">
        <ele>51.09</ele>
        <time>2013-12-23T09:33:48Z</time>
      </trkpt>
      <trkpt lat="47.28896" lon="-1.62027">
        <ele>50.13</ele>
        <time>2013-12-23T09:33:51Z</time>
      </trkpt>
      <trkpt lat="47.28884" lon="-1.62035">
        <ele>49.65</ele>
        <time>2013-12-23T09:33:54Z</time>
      </trkpt>
      <trkpt lat="47.28872" lon="-1.62042">
        <ele>48.68</ele>
        <time>2013-12-23T09:33:57Z</time>
      </trkpt>
      <trkpt lat="47.2886" lon="-1.62052">
        <ele>46.76</ele>
        <time>2013-12-23T09:34:00Z</time>
      </trkpt>
      <trkpt lat="47.28844" lon="-1.62058">
        <ele>45.8</ele>
        <time>2013-12-23T09:34:03Z</time>
      </trkpt>
      <trkpt lat="47.28833" lon="-1.62069">
        <ele>43.88</ele>
        <time>2013-12-23T09:34:06Z</time>
      </trkpt>
      <trkpt lat="47.28826" lon="-1.62085">
        <ele>42.44</ele>
        <time>2013-12-23T09:34:09Z</time>
      </trkpt>
      <trkpt lat="47.28821" lon="-1.62099">
        <ele>40.99</ele>
        <time>2013-12-23T09:34:12Z</time>
      </trkpt>
      <trkpt lat="47.28816" lon="-1.62115">
        <ele>38.59</ele>
        <time>2013-12-23T09:34:16Z</time>
      </trkpt>
      <trkpt lat="47.28811" lon="-1.62132">
        <ele>38.11</ele>
        <time>2013-12-23T09:34:20Z</time>
      </trkpt>
      <trkpt lat="47.28807" lon="-1.62147">
        <ele>38.11</ele>
        <time>2013-12-23T09:34:24Z</time>
      </trkpt>
      <trkpt lat="47.28801" lon="-1.62166">
        <ele>39.55</ele>
        <time>2013-12-23T09:34:29Z</time>
      </trkpt>
      <trkpt lat="47.28794" lon="-1.62184">
        <ele>42.92</ele>
        <time>2013-12-23T09:34:36Z</time>
      </trkpt>
      <trkpt lat="47.28789" lon="-1.62202">
        <ele>45.8</ele>
        <time>2013-12-23T09:34:42Z</time>
      </trkpt>
      <trkpt lat="47.28797" lon="-1.62214">
        <ele>44.84</ele>
        <time>2013-12-23T09:34:52Z</time>
      </trkpt>
      <trkpt lat="47.28808" lon="-1.62222">
        <ele>45.8</ele>
        <time>2013-12-23T09:34:57Z</time>
      </trkpt>
      <trkpt lat="47.2882" lon="-1.62229">
        <ele>46.28</ele>
        <time>2013-12-23T09:35:02Z</time>
      </trkpt>
      <trkpt lat="47.28833" lon="-1.62237">
        <ele>46.28</ele>
        <time>2013-12-23T09:35:07Z</time>
      </trkpt>
      <trkpt lat="47.28845" lon="-1.62242">
        <ele>47.24</ele>
        <time>2013-12-23T09:35:11Z</time>
      </trkpt>
      <trkpt lat="47.28858" lon="-1.62246">
        <ele>48.68</ele>
        <time>2013-12-23T09:35:15Z</time>
      </trkpt>
      <trkpt lat="47.2887" lon="-1.62253">
        <ele>48.2</ele>
        <time>2013-12-23T09:35:19Z</time>
      </trkpt>
      <trkpt lat="47.28882" lon="-1.6226">
        <ele>48.2</ele>
        <time>2013-12-23T09:35:23Z</time>
      </trkpt>
      <trkpt lat="47.28893" lon="-1.62267">
        <ele>47.24</ele>
        <time>2013-12-23T09:35:27Z</time>
      </trkpt>
      <trkpt lat="47.28904" lon="-1.62274">
        <ele>46.76</ele>
        <time>2013-12-23T09:35:31Z</time>
      </trkpt>
      <trkpt lat="47.28917" lon="-1.62281">
        <ele>47.24</ele>
        <time>2013-12-23T09:35:35Z</time>
      </trkpt>
      <trkpt lat="47.28931" lon="-1.62288">
        <ele>48.2</ele>
        <time>2013-12-23T09:35:40Z</time>
      </trkpt>
      <trkpt lat="47.28945" lon="-1.62294">
        <ele>47.72</ele>
        <time>2013-12-23T09:35:44Z</time>
      </trkpt>
      <trkpt lat="47.28959" lon="-1.62299">
        <ele>48.2</ele>
        <time>2013-12-23T09:35:48Z</time>
      </trkpt>
      <trkpt lat="47.28972" lon="-1.62305">
        <ele>49.16</ele>
        <time>2013-12-23T09:35:52Z</time>
      </trkpt>
      <trkpt lat="47.28984" lon="-1.62312">
        <ele>50.13</ele>
        <time>2013-12-23T09:35:56Z</time>
      </trkpt>
      <trkpt lat="47.28996" lon="-1.62318">
        <ele>50.61</ele>
        <time>2013-12-23T09:36:00Z</time>
      </trkpt>
      <trkpt lat="47.29009" lon="-1.62317">
        <ele>49.65</ele>
        <time>2013-12-23T09:36:04Z</time>
      </trkpt>
      <trkpt lat="47.29021" lon="-1.62318">
        <ele>49.65</ele>
        <time>2013-12-23T09:36:08Z</time>
      </trkpt>
      <trkpt lat="47.29027" lon="-1.62331">
        <ele>50.13</ele>
        <time>2013-12-23T09:36:11Z</time>
      </trkpt>
      <trkpt lat="47.29032" lon="-1.62348">
        <ele>50.13</ele>
        <time>2013-12-23T09:36:15Z</time>
      </trkpt>
      <trkpt lat="47.29034" lon="-1.62364">
        <ele>48.68</ele>
        <time>2013-12-23T09:36:19Z</time>
      </trkpt>
      <trkpt lat="47.29034" lon="-1.62381">
        <ele>47.72</ele>
        <time>2013-12-23T09:36:23Z</time>
      </trkpt>
      <trkpt lat="47.29035" lon="-1.624">
        <ele>44.84</ele>
        <time>2013-12-23T09:36:27Z</time>
      </trkpt>
      <trkpt lat="47.29036" lon="-1.62417">
        <ele>42.44</ele>
        <time>2013-12-23T09:36:31Z</time>
      </trkpt>
      <trkpt lat="47.29037" lon="-1.62432">
        <ele>41.47</ele>
        <time>2013-12-23T09:36:35Z</time>
      </trkpt>
      <trkpt lat="47.29037" lon="-1.62449">
        <ele>40.99</ele>
        <time>2013-12-23T09:36:39Z</time>
      </trkpt>
      <trkpt lat="47.29033" lon="-1.62466">
        <ele>40.03</ele>
        <time>2013-12-23T09:36:44Z</time>
      </trkpt>
      <trkpt lat="47.29019" lon="-1.62485">
        <ele>42.92</ele>
        <time>2013-12-23T09:36:49Z</time>
      </trkpt>
      <trkpt lat="47.29008" lon="-1.62496">
        <ele>46.76</ele>
        <time>2013-12-23T09:36:54Z</time>
      </trkpt>
      <trkpt lat="47.28996" lon="-1.62504">
        <ele>48.2</ele>
        <time>2013-12-23T09:36:59Z</time>
      </trkpt>
      <trkpt lat="47.28986" lon="-1.62513">
        <ele>51.57</ele>
        <time>2013-12-23T09:37:04Z</time>
      </trkpt>
      <trkpt lat="47.28975" lon="-1.62522">
        <ele>54.45</ele>
        <time>2013-12-23T09:37:10Z</time>
      </trkpt>
      <trkpt lat="47.28965" lon="-1.62528">
        <ele>59.26</ele>
        <time>2013-12-23T09:37:16Z</time>
      </trkpt>
      <trkpt lat="47.28954" lon="-1.62535">
        <ele>61.66</ele>
        <time>2013-12-23T09:37:21Z</time>
      </trkpt>
      <trkpt lat="47.28942" lon="-1.62543">
        <ele>62.14</ele>
        <time>2013-12-23T09:37:26Z</time>
      </trkpt>
      <trkpt lat="47.28929" lon="-1.6255">
        <ele>64.55</ele>
        <time>2013-12-23T09:37:32Z</time>
      </trkpt>
      <trkpt lat="47.28916" lon="-1.62557">
        <ele>65.99</ele>
        <time>2013-12-23T09:37:38Z</time>
      </trkpt>
      <trkpt lat="47.28903" lon="-1.62564">
        <ele>66.47</ele>
        <time>2013-12-23T09:37:43Z</time>
      </trkpt>
      <trkpt lat="47.28891" lon="-1.62569">
        <ele>67.43</ele>
        <time>2013-12-23T09:37:48Z</time>
      </trkpt>
      <trkpt lat="47.2888" lon="-1.62578">
        <ele>70.31</ele>
        <time>2013-12-23T09:37:55Z</time>
      </trkpt>
      <trkpt lat="47.28868" lon="-1.62585">
        <ele>72.24</ele>
        <time>2013-12-23T09:38:02Z</time>
      </trkpt>
      <trkpt lat="47.28855" lon="-1.62592">
        <ele>71.27</ele>
        <time>2013-12-23T09:38:07Z</time>
      </trkpt>
      <trkpt lat="47.28843" lon="-1.62593">
        <ele>71.27</ele>
        <time>2013-12-23T09:38:12Z</time>
      </trkpt>
      <trkpt lat="47.28831" lon="-1.62586">
        <ele>70.79</ele>
        <time>2013-12-23T09:38:16Z</time>
      </trkpt>
      <trkpt lat="47.28822" lon="-1.62576">
        <ele>70.31</ele>
        <time>2013-12-23T09:38:20Z</time>
      </trkpt>
      <trkpt lat="47.28814" lon="-1.62565">
        <ele>68.87</ele>
        <time>2013-12-23T09:38:24Z</time>
      </trkpt>
      <trkpt lat="47.28804" lon="-1.62565">
        <ele>68.39</ele>
        <time>2013-12-23T09:38:27Z</time>
      </trkpt>
      <trkpt lat="47.28794" lon="-1.62568">
        <ele>67.43</ele>
        <time>2013-12-23T09:38:30Z</time>
      </trkpt>
      <trkpt lat="47.28783" lon="-1.62573">
        <ele>65.51</ele>
        <time>2013-12-23T09:38:33Z</time>
      </trkpt>
      <trkpt lat="47.28772" lon="-1.62574">
        <ele>65.03</ele>
        <time>2013-12-23T09:38:36Z</time>
      </trkpt>
      <trkpt lat="47.28761" lon="-1.62572">
        <ele>64.07</ele>
        <time>2013-12-23T09:38:39Z</time>
      </trkpt>
      <trkpt lat="47.2875" lon="-1.62571">
        <ele>62.62</ele>
        <time>2013-12-23T09:38:42Z</time>
      </trkpt>
      <trkpt lat="47.28739" lon="-1.62567">
        <ele>62.14</ele>
        <time>2013-12-23T09:38:45Z</time>
      </trkpt>
      <trkpt lat="47.28728" lon="-1.62562">
        <ele>62.14</ele>
        <time>2013-12-23T09:38:48Z</time>
      </trkpt>
      <trkpt lat="47.28716" lon="-1.62558">
        <ele>62.14</ele>
        <time>2013-12-23T09:38:51Z</time>
      </trkpt>
      <trkpt lat="47.28704" lon="-1.62555">
        <ele>62.14</ele>
        <time>2013-12-23T09:38:54Z</time>
      </trkpt>
      <trkpt lat="47.28691" lon="-1.62551">
        <ele>63.1</ele>
        <time>2013-12-23T09:38:57Z</time>
      </trkpt>
      <trkpt lat="47.28677" lon="-1.62548">
        <ele>63.1</ele>
        <time>2013-12-23T09:39:00Z</time>
      </trkpt>
      <trkpt lat="47.28663" lon="-1.62545">
        <ele>63.1</ele>
        <time>2013-12-23T09:39:03Z</time>
      </trkpt>
      <trkpt lat="47.28653" lon="-1.62543">
        <ele>63.1</ele>
        <time>2013-12-23T09:39:05Z</time>
      </trkpt>
      <trkpt lat="47.28642" lon="-1.6254">
        <ele>62.62</ele>
        <time>2013-12-23T09:39:07Z</time>
      </trkpt>
      <trkpt lat="47.28631" lon="-1.62539">
        <ele>62.14</ele>
        <time>2013-12-23T09:39:09Z</time>
      </trkpt>
      <trkpt lat="47.28619" lon="-1.62534">
        <ele>61.66</ele>
        <time>2013-12-23T09:39:11Z</time>
      </trkpt>
      <trkpt lat="47.28608" lon="-1.6253">
        <ele>61.18</ele>
        <time>2013-12-23T09:39:13Z</time>
      </trkpt>
      <trkpt lat="47.28596" lon="-1.62527">
        <ele>61.18</ele>
        <time>2013-12-23T09:39:15Z</time>
      </trkpt>
      <trkpt lat="47.28585" lon="-1.62523">
        <ele>61.18</ele>
        <time>2013-12-23T09:39:17Z</time>
      </trkpt>
      <trkpt lat="47.28574" lon="-1.6252">
        <ele>60.7</ele>
        <time>2013-12-23T09:39:19Z</time>
      </trkpt>
      <trkpt lat="47.28561" lon="-1.62516">
        <ele>60.7</ele>
        <time>2013-12-23T09:39:21Z</time>
      </trkpt>
      <trkpt lat="47.28548" lon="-1.62513">
        <ele>60.22</ele>
        <time>2013-12-23T09:39:23Z</time>
      </trkpt>
      <trkpt lat="47.28535" lon="-1.62509">
        <ele>59.74</ele>
        <time>2013-12-23T09:39:25Z</time>
      </trkpt>
      <trkpt lat="47.28522" lon="-1.62506">
        <ele>59.26</ele>
        <time>2013-12-23T09:39:27Z</time>
      </trkpt>
      <trkpt lat="47.28508" lon="-1.62502">
        <ele>58.3</ele>
        <time>2013-12-23T09:39:29Z</time>
      </trkpt>
      <trkpt lat="47.28495" lon="-1.62498">
        <ele>57.34</ele>
        <time>2013-12-23T09:39:31Z</time>
      </trkpt>
      <trkpt lat="47.28481" lon="-1.62495">
        <ele>56.37</ele>
        <time>2013-12-23T09:39:33Z</time>
      </trkpt>
      <trkpt lat="47.28468" lon="-1.62491">
        <ele>55.89</ele>
        <time>2013-12-23T09:39:35Z</time>
      </trkpt>
      <trkpt lat="47.28456" lon="-1.62489">
        <ele>54.93</ele>
        <time>2013-12-23T09:39:37Z</time>
      </trkpt>
      <trkpt lat="47.28444" lon="-1.62487">
        <ele>53.97</ele>
        <time>2013-12-23T09:39:39Z</time>
      </trkpt>
      <trkpt lat="47.28433" lon="-1.62485">
        <ele>53.97</ele>
        <time>2013-12-23T09:39:41Z</time>
      </trkpt>
      <trkpt lat="47.28422" lon="-1.62486">
        <ele>53.97</ele>
        <time>2013-12-23T09:39:43Z</time>
      </trkpt>
      <trkpt lat="47.28411" lon="-1.62488">
        <ele>53.97</ele>
        <time>2013-12-23T09:39:45Z</time>
      </trkpt>
      <trkpt lat="47.284" lon="-1.62491">
        <ele>53.97</ele>
        <time>2013-12-23T09:39:47Z</time>
      </trkpt>
      <trkpt lat="47.28388" lon="-1.62495">
        <ele>53.49</ele>
        <time>2013-12-23T09:39:49Z</time>
      </trkpt>
      <trkpt lat="47.28377" lon="-1.62499">
        <ele>53.01</ele>
        <time>2013-12-23T09:39:51Z</time>
      </trkpt>
      <trkpt lat="47.28365" lon="-1.62503">
        <ele>52.53</ele>
        <time>2013-12-23T09:39:53Z</time>
      </trkpt>
      <trkpt lat="47.28353" lon="-1.62507">
        <ele>51.09</ele>
        <time>2013-12-23T09:39:55Z</time>
      </trkpt>
      <trkpt lat="47.28341" lon="-1.6251">
        <ele>50.13</ele>
        <time>2013-12-23T09:39:57Z</time>
      </trkpt>
      <trkpt lat="47.28329" lon="-1.62514">
        <ele>49.16</ele>
        <time>2013-12-23T09:39:59Z</time>
      </trkpt>
      <trkpt lat="47.28318" lon="-1.62518">
        <ele>48.2</ele>
        <time>2013-12-23T09:40:01Z</time>
      </trkpt>
      <trkpt lat="47.28307" lon="-1.62521">
        <ele>48.2</ele>
        <time>2013-12-23T09:40:03Z</time>
      </trkpt>
      <trkpt lat="47.28296" lon="-1.62526">
        <ele>47.72</ele>
        <time>2013-12-23T09:40:05Z</time>
      </trkpt>
      <trkpt lat="47.28286" lon="-1.62532">
        <ele>47.72</ele>
        <time>2013-12-23T09:40:07Z</time>
      </trkpt>
      <trkpt lat="47.28275" lon="-1.6254">
        <ele>47.24</ele>
        <time>2013-12-23T09:40:09Z</time>
      </trkpt>
      <trkpt lat="47.28265" lon="-1.6255">
        <ele>46.28</ele>
        <time>2013-12-23T09:40:11Z</time>
      </trkpt>
      <trkpt lat="47.28256" lon="-1.6256">
        <ele>44.84</ele>
        <time>2013-12-23T09:40:13Z</time>
      </trkpt>
      <trkpt lat="47.28247" lon="-1.62569">
        <ele>43.88</ele>
        <time>2013-12-23T09:40:15Z</time>
      </trkpt>
      <trkpt lat="47.28239" lon="-1.62579">
        <ele>43.4</ele>
        <time>2013-12-23T09:40:17Z</time>
      </trkpt>
      <trkpt lat="47.28231" lon="-1.62588">
        <ele>43.4</ele>
        <time>2013-12-23T09:40:19Z</time>
      </trkpt>
      <trkpt lat="47.2822" lon="-1.626">
        <ele>43.88</ele>
        <time>2013-12-23T09:40:22Z</time>
      </trkpt>
      <trkpt lat="47.28214" lon="-1.62611">
        <ele>44.36</ele>
        <time>2013-12-23T09:40:25Z</time>
      </trkpt>
      <trkpt lat="47.28206" lon="-1.62624">
        <ele>45.8</ele>
        <time>2013-12-23T09:40:29Z</time>
      </trkpt>
      <trkpt lat="47.28201" lon="-1.62635">
        <ele>47.24</ele>
        <time>2013-12-23T09:40:32Z</time>
      </trkpt>
      <trkpt lat="47.28195" lon="-1.6265">
        <ele>48.68</ele>
        <time>2013-12-23T09:40:36Z</time>
      </trkpt>
      <trkpt lat="47.2819" lon="-1.62662">
        <ele>49.65</ele>
        <time>2013-12-23T09:40:39Z</time>
      </trkpt>
      <trkpt lat="47.28183" lon="-1.62676">
        <ele>51.09</ele>
        <time>2013-12-23T09:40:43Z</time>
      </trkpt>
      <trkpt lat="47.2818" lon="-1.62691">
        <ele>52.53</ele>
        <time>2013-12-23T09:40:47Z</time>
      </trkpt>
      <trkpt lat="47.28176" lon="-1.62704">
        <ele>52.05</ele>
        <time>2013-12-23T09:40:51Z</time>
      </trkpt>
      <trkpt lat="47.2817" lon="-1.6272">
        <ele>52.05</ele>
        <time>2013-12-23T09:40:55Z</time>
      </trkpt>
      <trkpt lat="47.28166" lon="-1.62738">
        <ele>51.57</ele>
        <time>2013-12-23T09:40:59Z</time>
      </trkpt>
      <trkpt lat="47.28163" lon="-1.62753">
        <ele>51.57</ele>
        <time>2013-12-23T09:41:03Z</time>
      </trkpt>
      <trkpt lat="47.28159" lon="-1.62769">
        <ele>50.61</ele>
        <time>2013-12-23T09:41:07Z</time>
      </trkpt>
      <trkpt lat="47.28156" lon="-1.62785">
        <ele>49.16</ele>
        <time>2013-12-23T09:41:11Z</time>
      </trkpt>
      <trkpt lat="47.28154" lon="-1.62802">
        <ele>48.2</ele>
        <time>2013-12-23T09:41:15Z</time>
      </trkpt>
      <trkpt lat="47.28152" lon="-1.62819">
        <ele>46.76</ele>
        <time>2013-12-23T09:41:19Z</time>
      </trkpt>
      <trkpt lat="47.2815" lon="-1.62834">
        <ele>44.84</ele>
        <time>2013-12-23T09:41:23Z</time>
      </trkpt>
      <trkpt lat="47.28149" lon="-1.62852">
        <ele>41.95</ele>
        <time>2013-12-23T09:41:28Z</time>
      </trkpt>
      <trkpt lat="47.28149" lon="-1.6287">
        <ele>40.99</ele>
        <time>2013-12-23T09:41:32Z</time>
      </trkpt>
      <trkpt lat="47.28147" lon="-1.62886">
        <ele>41.47</ele>
        <time>2013-12-23T09:41:36Z</time>
      </trkpt>
      <trkpt lat="47.28148" lon="-1.62903">
        <ele>42.44</ele>
        <time>2013-12-23T09:41:40Z</time>
      </trkpt>
      <trkpt lat="47.28152" lon="-1.62916">
        <ele>42.44</ele>
        <time>2013-12-23T09:41:44Z</time>
      </trkpt>
      <trkpt lat="47.28156" lon="-1.62933">
        <ele>41.95</ele>
        <time>2013-12-23T09:41:49Z</time>
      </trkpt>
      <trkpt lat="47.28159" lon="-1.62952">
        <ele>41.95</ele>
        <time>2013-12-23T09:41:54Z</time>
      </trkpt>
      <trkpt lat="47.28165" lon="-1.62968">
        <ele>44.36</ele>
        <time>2013-12-23T09:42:00Z</time>
      </trkpt>
      <trkpt lat="47.28172" lon="-1.62982">
        <ele>47.72</ele>
        <time>2013-12-23T09:42:07Z</time>
      </trkpt>
      <trkpt lat="47.2818" lon="-1.62995">
        <ele>51.09</ele>
        <time>2013-12-23T09:42:13Z</time>
      </trkpt>
      <trkpt lat="47.2819" lon="-1.63005">
        <ele>53.49</ele>
        <time>2013-12-23T09:42:20Z</time>
      </trkpt>
      <trkpt lat="47.28197" lon="-1.63002">
        <ele>54.93</ele>
        <time>2013-12-23T09:42:38Z</time>
      </trkpt>
      <trkpt lat="47.28202" lon="-1.63014">
        <ele>53.97</ele>
        <time>2013-12-23T09:42:44Z</time>
      </trkpt>
      <trkpt lat="47.28213" lon="-1.63026">
        <ele>53.97</ele>
        <time>2013-12-23T09:42:50Z</time>
      </trkpt>
      <trkpt lat="47.28221" lon="-1.63039">
        <ele>54.45</ele>
        <time>2013-12-23T09:42:55Z</time>
      </trkpt>
      <trkpt lat="47.28229" lon="-1.63051">
        <ele>53.97</ele>
        <time>2013-12-23T09:42:59Z</time>
      </trkpt>
      <trkpt lat="47.28234" lon="-1.6306">
        <ele>54.93</ele>
        <time>2013-12-23T09:43:04Z</time>
      </trkpt>
      <trkpt lat="47.28225" lon="-1.63063">
        <ele>55.89</ele>
        <time>2013-12-23T09:43:07Z</time>
      </trkpt>
      <trkpt lat="47.28214" lon="-1.6306">
        <ele>55.89</ele>
        <time>2013-12-23T09:43:10Z</time>
      </trkpt>
      <trkpt lat="47.28203" lon="-1.6305">
        <ele>55.41</ele>
        <time>2013-12-23T09:43:13Z</time>
      </trkpt>
      <trkpt lat="47.28189" lon="-1.63048">
        <ele>55.41</ele>
        <time>2013-12-23T09:43:16Z</time>
      </trkpt>
      <trkpt lat="47.28178" lon="-1.6305">
        <ele>54.45</ele>
        <time>2013-12-23T09:43:18Z</time>
      </trkpt>
      <trkpt lat="47.28168" lon="-1.63054">
        <ele>54.45</ele>
        <time>2013-12-23T09:43:20Z</time>
      </trkpt>
      <trkpt lat="47.28159" lon="-1.63059">
        <ele>54.45</ele>
        <time>2013-12-23T09:43:23Z</time>
      </trkpt>
      <trkpt lat="47.28147" lon="-1.63065">
        <ele>54.45</ele>
        <time>2013-12-23T09:43:27Z</time>
      </trkpt>
      <trkpt lat="47.28138" lon="-1.63067">
        <ele>54.93</ele>
        <time>2013-12-23T09:43:30Z</time>
      </trkpt>
      <trkpt lat="47.28127" lon="-1.63065">
        <ele>54.45</ele>
        <time>2013-12-23T09:43:33Z</time>
      </trkpt>
      <trkpt lat="47.28117" lon="-1.63064">
        <ele>54.45</ele>
        <time>2013-12-23T09:43:36Z</time>
      </trkpt>
      <trkpt lat="47.28105" lon="-1.63063">
        <ele>54.45</ele>
        <time>2013-12-23T09:43:39Z</time>
      </trkpt>
      <trkpt lat="47.28093" lon="-1.63062">
        <ele>54.93</ele>
        <time>2013-12-23T09:43:42Z</time>
      </trkpt>
      <trkpt lat="47.28082" lon="-1.63061">
        <ele>55.41</ele>
        <time>2013-12-23T09:43:45Z</time>
      </trkpt>
      <trkpt lat="47.28072" lon="-1.63062">
        <ele>55.89</ele>
        <time>2013-12-23T09:43:48Z</time>
      </trkpt>
      <trkpt lat="47.28064" lon="-1.63063">
        <ele>56.37</ele>
        <time>2013-12-23T09:43:51Z</time>
      </trkpt>
      <trkpt lat="47.28058" lon="-1.63077">
        <ele>56.86</ele>
        <time>2013-12-23T09:43:56Z</time>
      </trkpt>
      <trkpt lat="47.28048" lon="-1.63086">
        <ele>57.34</ele>
        <time>2013-12-23T09:44:00Z</time>
      </trkpt>
      <trkpt lat="47.2804" lon="-1.63093">
        <ele>57.34</ele>
        <time>2013-12-23T09:44:04Z</time>
      </trkpt>
      <trkpt lat="47.2803" lon="-1.63094">
        <ele>56.86</ele>
        <time>2013-12-23T09:44:07Z</time>
      </trkpt>
      <trkpt lat="47.28018" lon="-1.63086">
        <ele>56.86</ele>
        <time>2013-12-23T09:44:10Z</time>
      </trkpt>
      <trkpt lat="47.28009" lon="-1.6308">
        <ele>56.37</ele>
        <time>2013-12-23T09:44:12Z</time>
      </trkpt>
      <trkpt lat="47.28001" lon="-1.63073">
        <ele>56.37</ele>
        <time>2013-12-23T09:44:14Z</time>
      </trkpt>
      <trkpt lat="47.27992" lon="-1.63065">
        <ele>55.89</ele>
        <time>2013-12-23T09:44:16Z</time>
      </trkpt>
      <trkpt lat="47.27984" lon="-1.63058">
        <ele>55.89</ele>
        <time>2013-12-23T09:44:18Z</time>
      </trkpt>
      <trkpt lat="47.27975" lon="-1.6305">
        <ele>55.41</ele>
        <time>2013-12-23T09:44:20Z</time>
      </trkpt>
      <trkpt lat="47.27966" lon="-1.63042">
        <ele>54.93</ele>
        <time>2013-12-23T09:44:22Z</time>
      </trkpt>
      <trkpt lat="47.27957" lon="-1.63033">
        <ele>53.97</ele>
        <time>2013-12-23T09:44:24Z</time>
      </trkpt>
      <trkpt lat="47.27947" lon="-1.63024">
        <ele>53.49</ele>
        <time>2013-12-23T09:44:26Z</time>
      </trkpt>
      <trkpt lat="47.27938" lon="-1.63014">
        <ele>53.01</ele>
        <time>2013-12-23T09:44:28Z</time>
      </trkpt>
      <trkpt lat="47.27929" lon="-1.63003">
        <ele>52.53</ele>
        <time>2013-12-23T09:44:30Z</time>
      </trkpt>
      <trkpt lat="47.2792" lon="-1.62992">
        <ele>52.05</ele>
        <time>2013-12-23T09:44:32Z</time>
      </trkpt>
      <trkpt lat="47.2791" lon="-1.62982">
        <ele>52.05</ele>
        <time>2013-12-23T09:44:34Z</time>
      </trkpt>
      <trkpt lat="47.27899" lon="-1.62974">
        <ele>51.57</ele>
        <time>2013-12-23T09:44:36Z</time>
      </trkpt>
      <trkpt lat="47.27888" lon="-1.62969">
        <ele>51.57</ele>
        <time>2013-12-23T09:44:38Z</time>
      </trkpt>
      <trkpt lat="47.27876" lon="-1.62965">
        <ele>51.57</ele>
        <time>2013-12-23T09:44:40Z</time>
      </trkpt>
      <trkpt lat="47.27865" lon="-1.62962">
        <ele>52.05</ele>
        <time>2013-12-23T09:44:42Z</time>
      </trkpt>
      <trkpt lat="47.27854" lon="-1.62959">
        <ele>52.05</ele>
        <time>2013-12-23T09:44:44Z</time>
      </trkpt>
      <trkpt lat="47.27843" lon="-1.62957">
        <ele>52.05</ele>
        <time>2013-12-23T09:44:46Z</time>
      </trkpt>
      <trkpt lat="47.27831" lon="-1.62954">
        <ele>52.05</ele>
        <time>2013-12-23T09:44:48Z</time>
      </trkpt>
      <trkpt lat="47.27821" lon="-1.62951">
        <ele>51.57</ele>
        <time>2013-12-23T09:44:50Z</time>
      </trkpt>
      <trkpt lat="47.27811" lon="-1.62949">
        <ele>51.57</ele>
        <time>2013-12-23T09:44:52Z</time>
      </trkpt>
      <trkpt lat="47.27802" lon="-1.62947">
        <ele>51.57</ele>
        <time>2013-12-23T09:44:54Z</time>
      </trkpt>
      <trkpt lat="47.27789" lon="-1.62944">
        <ele>51.57</ele>
        <time>2013-12-23T09:44:57Z</time>
      </trkpt>
      <trkpt lat="47.27781" lon="-1.62937">
        <ele>51.57</ele>
        <time>2013-12-23T09:44:59Z</time>
      </trkpt>
      <trkpt lat="47.27775" lon="-1.62926">
        <ele>51.09</ele>
        <time>2013-12-23T09:45:01Z</time>
      </trkpt>
      <trkpt lat="47.27772" lon="-1.62911">
        <ele>50.61</ele>
        <time>2013-12-23T09:45:03Z</time>
      </trkpt>
      <trkpt lat="47.27772" lon="-1.62896">
        <ele>50.13</ele>
        <time>2013-12-23T09:45:05Z</time>
      </trkpt>
      <trkpt lat="47.27774" lon="-1.62881">
        <ele>49.65</ele>
        <time>2013-12-23T09:45:07Z</time>
      </trkpt>
      <trkpt lat="47.27775" lon="-1.62865">
        <ele>49.16</ele>
        <time>2013-12-23T09:45:09Z</time>
      </trkpt>
      <trkpt lat="47.27776" lon="-1.62848">
        <ele>48.68</ele>
        <time>2013-12-23T09:45:11Z</time>
      </trkpt>
      <trkpt lat="47.27778" lon="-1.6283">
        <ele>48.2</ele>
        <time>2013-12-23T09:45:13Z</time>
      </trkpt>
      <trkpt lat="47.27779" lon="-1.62812">
        <ele>47.24</ele>
        <time>2013-12-23T09:45:15Z</time>
      </trkpt>
      <trkpt lat="47.27781" lon="-1.62793">
        <ele>47.24</ele>
        <time>2013-12-23T09:45:17Z</time>
      </trkpt>
      <trkpt lat="47.27782" lon="-1.62775">
        <ele>46.76</ele>
        <time>2013-12-23T09:45:19Z</time>
      </trkpt>
      <trkpt lat="47.27783" lon="-1.62756">
        <ele>46.28</ele>
        <time>2013-12-23T09:45:21Z</time>
      </trkpt>
      <trkpt lat="47.27783" lon="-1.62737">
        <ele>45.8</ele>
        <time>2013-12-23T09:45:23Z</time>
      </trkpt>
      <trkpt lat="47.27781" lon="-1.62718">
        <ele>45.8</ele>
        <time>2013-12-23T09:45:25Z</time>
      </trkpt>
      <trkpt lat="47.27778" lon="-1.62701">
        <ele>45.32</ele>
        <time>2013-12-23T09:45:27Z</time>
      </trkpt>
      <trkpt lat="47.27773" lon="-1.62685">
        <ele>44.84</ele>
        <time>2013-12-23T09:45:29Z</time>
      </trkpt>
      <trkpt lat="47.27767" lon="-1.6267">
        <ele>44.84</ele>
        <time>2013-12-23T09:45:31Z</time>
      </trkpt>
      <trkpt lat="47.27761" lon="-1.62655">
        <ele>44.36</ele>
        <time>2013-12-23T09:45:33Z</time>
      </trkpt>
      <trkpt lat="47.27754" lon="-1.62641">
        <ele>44.36</ele>
        <time>2013-12-23T09:45:35Z</time>
      </trkpt>
      <trkpt lat="47.27747" lon="-1.62626">
        <ele>44.36</ele>
        <time>2013-12-23T09:45:37Z</time>
      </trkpt>
      <trkpt lat="47.2774" lon="-1.62612">
        <ele>44.36</ele>
        <time>2013-12-23T09:45:39Z</time>
      </trkpt>
      <trkpt lat="47.27734" lon="-1.62598">
        <ele>44.36</ele>
        <time>2013-12-23T09:45:41Z</time>
      </trkpt>
      <trkpt lat="47.27727" lon="-1.62584">
        <ele>43.88</ele>
        <time>2013-12-23T09:45:43Z</time>
      </trkpt>
      <trkpt lat="47.27721" lon="-1.6257">
        <ele>43.4</ele>
        <time>2013-12-23T09:45:45Z</time>
      </trkpt>
      <trkpt lat="47.27714" lon="-1.62557">
        <ele>43.4</ele>
        <time>2013-12-23T09:45:47Z</time>
      </trkpt>
      <trkpt lat="47.27708" lon="-1.62544">
        <ele>42.92</ele>
        <time>2013-12-23T09:45:49Z</time>
      </trkpt>
      <trkpt lat="47.27702" lon="-1.62531">
        <ele>42.44</ele>
        <time>2013-12-23T09:45:51Z</time>
      </trkpt>
      <trkpt lat="47.27696" lon="-1.62518">
        <ele>41.95</ele>
        <time>2013-12-23T09:45:53Z</time>
      </trkpt>
      <trkpt lat="47.2769" lon="-1.62505">
        <ele>41.47</ele>
        <time>2013-12-23T09:45:55Z</time>
      </trkpt>
      <trkpt lat="47.27684" lon="-1.62492">
        <ele>40.99</ele>
        <time>2013-12-23T09:45:57Z</time>
      </trkpt>
      <trkpt lat="47.27678" lon="-1.62479">
        <ele>40.51</ele>
        <time>2013-12-23T09:45:59Z</time>
      </trkpt>
      <trkpt lat="47.27673" lon="-1.62468">
        <ele>40.03</ele>
        <time>2013-12-23T09:46:01Z</time>
      </trkpt>
      <trkpt lat="47.27664" lon="-1.62457">
        <ele>39.55</ele>
        <time>2013-12-23T09:46:04Z</time>
      </trkpt>
      <trkpt lat="47.27655" lon="-1.62459">
        <ele>39.07</ele>
        <time>2013-12-23T09:46:07Z</time>
      </trkpt>
      <trkpt lat="47.27643" lon="-1.62465">
        <ele>39.07</ele>
        <time>2013-12-23T09:46:10Z</time>
      </trkpt>
      <trkpt lat="47.27633" lon="-1.62471">
        <ele>39.07</ele>
        <time>2013-12-23T09:46:12Z</time>
      </trkpt>
      <trkpt lat="47.27622" lon="-1.62477">
        <ele>39.07</ele>
        <time>2013-12-23T09:46:14Z</time>
      </trkpt>
      <trkpt lat="47.2761" lon="-1.62484">
        <ele>39.07</ele>
        <time>2013-12-23T09:46:16Z</time>
      </trkpt>
      <trkpt lat="47.27598" lon="-1.6249">
        <ele>38.59</ele>
        <time>2013-12-23T09:46:18Z</time>
      </trkpt>
      <trkpt lat="47.27586" lon="-1.62497">
        <ele>38.11</ele>
        <time>2013-12-23T09:46:20Z</time>
      </trkpt>
      <trkpt lat="47.27572" lon="-1.62503">
        <ele>37.63</ele>
        <time>2013-12-23T09:46:22Z</time>
      </trkpt>
      <trkpt lat="47.2756" lon="-1.62512">
        <ele>36.67</ele>
        <time>2013-12-23T09:46:24Z</time>
      </trkpt>
      <trkpt lat="47.27548" lon="-1.62515">
        <ele>36.19</ele>
        <time>2013-12-23T09:46:26Z</time>
      </trkpt>
      <trkpt lat="47.27536" lon="-1.62514">
        <ele>35.71</ele>
        <time>2013-12-23T09:46:28Z</time>
      </trkpt>
      <trkpt lat="47.27524" lon="-1.62511">
        <ele>35.71</ele>
        <time>2013-12-23T09:46:30Z</time>
      </trkpt>
      <trkpt lat="47.27513" lon="-1.62507">
        <ele>35.23</ele>
        <time>2013-12-23T09:46:32Z</time>
      </trkpt>
      <trkpt lat="47.27501" lon="-1.62501">
        <ele>34.74</ele>
        <time>2013-12-23T09:46:34Z</time>
      </trkpt>
      <trkpt lat="47.27489" lon="-1.62495">
        <ele>34.26</ele>
        <time>2013-12-23T09:46:36Z</time>
      </trkpt>
      <trkpt lat="47.27478" lon="-1.62489">
        <ele>33.78</ele>
        <time>2013-12-23T09:46:38Z</time>
      </trkpt>
      <trkpt lat="47.27467" lon="-1.62483">
        <ele>33.78</ele>
        <time>2013-12-23T09:46:40Z</time>
      </trkpt>
      <trkpt lat="47.27456" lon="-1.62477">
        <ele>33.78</ele>
        <time>2013-12-23T09:46:42Z</time>
      </trkpt>
      <trkpt lat="47.27446" lon="-1.62471">
        <ele>33.78</ele>
        <time>2013-12-23T09:46:44Z</time>
      </trkpt>
      <trkpt lat="47.27435" lon="-1.62465">
        <ele>33.78</ele>
        <time>2013-12-23T09:46:46Z</time>
      </trkpt>
      <trkpt lat="47.27424" lon="-1.6246">
        <ele>33.78</ele>
        <time>2013-12-23T09:46:48Z</time>
      </trkpt>
      <trkpt lat="47.27414" lon="-1.62454">
        <ele>33.78</ele>
        <time>2013-12-23T09:46:50Z</time>
      </trkpt>
      <trkpt lat="47.27403" lon="-1.62448">
        <ele>33.3</ele>
        <time>2013-12-23T09:46:52Z</time>
      </trkpt>
      <trkpt lat="47.27394" lon="-1.62443">
        <ele>33.3</ele>
        <time>2013-12-23T09:46:54Z</time>
      </trkpt>
      <trkpt lat="47.27384" lon="-1.62438">
        <ele>33.3</ele>
        <time>2013-12-23T09:46:56Z</time>
      </trkpt>
      <trkpt lat="47.27375" lon="-1.62433">
        <ele>33.78</ele>
        <time>2013-12-23T09:46:58Z</time>
      </trkpt>
      <trkpt lat="47.27366" lon="-1.62428">
        <ele>33.78</ele>
        <time>2013-12-23T09:47:00Z</time>
      </trkpt>
      <trkpt lat="47.27354" lon="-1.62421">
        <ele>33.78</ele>
        <time>2013-12-23T09:47:03Z</time>
      </trkpt>
      <trkpt lat="47.27342" lon="-1.62414">
        <ele>33.78</ele>
        <time>2013-12-23T09:47:06Z</time>
      </trkpt>
      <trkpt lat="47.27332" lon="-1.62407">
        <ele>34.74</ele>
        <time>2013-12-23T09:47:09Z</time>
      </trkpt>
      <trkpt lat="47.27323" lon="-1.62401">
        <ele>34.74</ele>
        <time>2013-12-23T09:47:12Z</time>
      </trkpt>
      <trkpt lat="47.27313" lon="-1.62394">
        <ele>34.74</ele>
        <time>2013-12-23T09:47:15Z</time>
      </trkpt>
      <trkpt lat="47.27304" lon="-1.62386">
        <ele>35.23</ele>
        <time>2013-12-23T09:47:18Z</time>
      </trkpt>
      <trkpt lat="47.27295" lon="-1.62378">
        <ele>35.71</ele>
        <time>2013-12-23T09:47:21Z</time>
      </trkpt>
      <trkpt lat="47.27286" lon="-1.62371">
        <ele>35.71</ele>
        <time>2013-12-23T09:47:24Z</time>
      </trkpt>
      <trkpt lat="47.27276" lon="-1.62365">
        <ele>36.19</ele>
        <time>2013-12-23T09:47:27Z</time>
      </trkpt>
      <trkpt lat="47.27266" lon="-1.6236">
        <ele>36.67</ele>
        <time>2013-12-23T09:47:30Z</time>
      </trkpt>
      <trkpt lat="47.27256" lon="-1.62355">
        <ele>36.67</ele>
        <time>2013-12-23T09:47:33Z</time>
      </trkpt>
      <trkpt lat="47.27246" lon="-1.62351">
        <ele>37.15</ele>
        <time>2013-12-23T09:47:36Z</time>
      </trkpt>
      <trkpt lat="47.27236" lon="-1.62347">
        <ele>37.15</ele>
        <time>2013-12-23T09:47:39Z</time>
      </trkpt>
      <trkpt lat="47.27226" lon="-1.62344">
        <ele>37.15</ele>
        <time>2013-12-23T09:47:42Z</time>
      </trkpt>
      <trkpt lat="47.27216" lon="-1.6234">
        <ele>37.15</ele>
        <time>2013-12-23T09:47:45Z</time>
      </trkpt>
      <trkpt lat="47.27206" lon="-1.62336">
        <ele>37.63</ele>
        <time>2013-12-23T09:47:48Z</time>
      </trkpt>
      <trkpt lat="47.27195" lon="-1.62333">
        <ele>37.63</ele>
        <time>2013-12-23T09:47:51Z</time>
      </trkpt>
      <trkpt lat="47.27185" lon="-1.62329">
        <ele>38.59</ele>
        <time>2013-12-23T09:47:54Z</time>
      </trkpt>
      <trkpt lat="47.27175" lon="-1.62325">
        <ele>39.07</ele>
        <time>2013-12-23T09:47:57Z</time>
      </trkpt>
      <trkpt lat="47.27165" lon="-1.62321">
        <ele>39.55</ele>
        <time>2013-12-23T09:48:00Z</time>
      </trkpt>
      <trkpt lat="47.27154" lon="-1.62318">
        <ele>39.55</ele>
        <time>2013-12-23T09:48:03Z</time>
      </trkpt>
      <trkpt lat="47.27144" lon="-1.62313">
        <ele>40.03</ele>
        <time>2013-12-23T09:48:06Z</time>
      </trkpt>
      <trkpt lat="47.27135" lon="-1.62309">
        <ele>40.51</ele>
        <time>2013-12-23T09:48:09Z</time>
      </trkpt>
      <trkpt lat="47.27127" lon="-1.62315">
        <ele>40.99</ele>
        <time>2013-12-23T09:48:13Z</time>
      </trkpt>
      <trkpt lat="47.27118" lon="-1.62326">
        <ele>41.47</ele>
        <time>2013-12-23T09:48:17Z</time>
      </trkpt>
      <trkpt lat="47.27108" lon="-1.62327">
        <ele>42.44</ele>
        <time>2013-12-23T09:48:20Z</time>
      </trkpt>
      <trkpt lat="47.27096" lon="-1.62319">
        <ele>42.44</ele>
        <time>2013-12-23T09:48:23Z</time>
      </trkpt>
      <trkpt lat="47.27084" lon="-1.62317">
        <ele>41.47</ele>
        <time>2013-12-23T09:48:26Z</time>
      </trkpt>
      <trkpt lat="47.27073" lon="-1.62323">
        <ele>40.51</ele>
        <time>2013-12-23T09:48:29Z</time>
      </trkpt>
      <trkpt lat="47.2706" lon="-1.62332">
        <ele>40.03</ele>
        <time>2013-12-23T09:48:32Z</time>
      </trkpt>
      <trkpt lat="47.27047" lon="-1.6234">
        <ele>39.07</ele>
        <time>2013-12-23T09:48:35Z</time>
      </trkpt>
      <trkpt lat="47.27037" lon="-1.6235">
        <ele>38.59</ele>
        <time>2013-12-23T09:48:38Z</time>
      </trkpt>
      <trkpt lat="47.2704" lon="-1.62365">
        <ele>38.11</ele>
        <time>2013-12-23T09:48:41Z</time>
      </trkpt>
      <trkpt lat="47.2704" lon="-1.62381">
        <ele>38.59</ele>
        <time>2013-12-23T09:48:45Z</time>
      </trkpt>
      <trkpt lat="47.27033" lon="-1.62392">
        <ele>40.03</ele>
        <time>2013-12-23T09:48:49Z</time>
      </trkpt>
      <trkpt lat="47.27024" lon="-1.62402">
        <ele>40.03</ele>
        <time>2013-12-23T09:48:53Z</time>
      </trkpt>
      <trkpt lat="47.27015" lon="-1.62409">
        <ele>40.03</ele>
        <time>2013-12-23T09:48:56Z</time>
      </trkpt>
      <trkpt lat="47.27006" lon="-1.62411">
        <ele>40.03</ele>
        <time>2013-12-23T09:49:00Z</time>
      </trkpt>
      <trkpt lat="47.27001" lon="-1.62419">
        <ele>34.26</ele>
        <time>2013-12-23T09:51:17Z</time>
      </trkpt>
      <trkpt lat="47.26993" lon="-1.62425">
        <ele>34.74</ele>
        <time>2013-12-23T09:51:20Z</time>
      </trkpt>
      <trkpt lat="47.26981" lon="-1.62427">
        <ele>35.23</ele>
        <time>2013-12-23T09:51:23Z</time>
      </trkpt>
      <trkpt lat="47.26972" lon="-1.62425">
        <ele>35.23</ele>
        <time>2013-12-23T09:51:25Z</time>
      </trkpt>
      <trkpt lat="47.2696" lon="-1.62422">
        <ele>34.74</ele>
        <time>2013-12-23T09:51:28Z</time>
      </trkpt>
      <trkpt lat="47.26951" lon="-1.62423">
        <ele>33.78</ele>
        <time>2013-12-23T09:51:32Z</time>
      </trkpt>
      <trkpt lat="47.26946" lon="-1.62442">
        <ele>31.86</ele>
        <time>2013-12-23T09:52:20Z</time>
      </trkpt>
      <trkpt lat="47.26946" lon="-1.62458">
        <ele>32.82</ele>
        <time>2013-12-23T09:52:26Z</time>
      </trkpt>
      <trkpt lat="47.26952" lon="-1.62473">
        <ele>34.26</ele>
        <time>2013-12-23T09:52:33Z</time>
      </trkpt>
      <trkpt lat="47.26957" lon="-1.62485">
        <ele>35.71</ele>
        <time>2013-12-23T09:52:42Z</time>
      </trkpt>
      <trkpt lat="47.2695" lon="-1.62475">
        <ele>38.11</ele>
        <time>2013-12-23T09:52:47Z</time>
      </trkpt>
      <trkpt lat="47.26942" lon="-1.62461">
        <ele>38.59</ele>
        <time>2013-12-23T09:52:50Z</time>
      </trkpt>
      <trkpt lat="47.26934" lon="-1.6245">
        <ele>37.63</ele>
        <time>2013-12-23T09:52:52Z</time>
      </trkpt>
      <trkpt lat="47.26923" lon="-1.62435">
        <ele>36.19</ele>
        <time>2013-12-23T09:52:55Z</time>
      </trkpt>
      <trkpt lat="47.26913" lon="-1.62429">
        <ele>35.23</ele>
        <time>2013-12-23T09:52:57Z</time>
      </trkpt>
      <trkpt lat="47.26902" lon="-1.62427">
        <ele>34.74</ele>
        <time>2013-12-23T09:52:59Z</time>
      </trkpt>
      <trkpt lat="47.2689" lon="-1.62427">
        <ele>33.78</ele>
        <time>2013-12-23T09:53:01Z</time>
      </trkpt>
      <trkpt lat="47.26881" lon="-1.62426">
        <ele>32.34</ele>
        <time>2013-12-23T09:53:03Z</time>
      </trkpt>
      <trkpt lat="47.26872" lon="-1.62424">
        <ele>30.42</ele>
        <time>2013-12-23T09:53:07Z</time>
      </trkpt>
      <trkpt lat="47.26862" lon="-1.62416">
        <ele>28.98</ele>
        <time>2013-12-23T09:53:10Z</time>
      </trkpt>
      <trkpt lat="47.26853" lon="-1.6241">
        <ele>28.02</ele>
        <time>2013-12-23T09:53:12Z</time>
      </trkpt>
      <trkpt lat="47.26841" lon="-1.62399">
        <ele>26.57</ele>
        <time>2013-12-23T09:53:15Z</time>
      </trkpt>
      <trkpt lat="47.26832" lon="-1.62391">
        <ele>25.61</ele>
        <time>2013-12-23T09:53:17Z</time>
      </trkpt>
      <trkpt lat="47.26823" lon="-1.62383">
        <ele>24.17</ele>
        <time>2013-12-23T09:53:19Z</time>
      </trkpt>
      <trkpt lat="47.26814" lon="-1.62375">
        <ele>22.73</ele>
        <time>2013-12-23T09:53:21Z</time>
      </trkpt>
      <trkpt lat="47.26804" lon="-1.62368">
        <ele>21.29</ele>
        <time>2013-12-23T09:53:23Z</time>
      </trkpt>
      <trkpt lat="47.26795" lon="-1.62371">
        <ele>17.92</ele>
        <time>2013-12-23T09:53:26Z</time>
      </trkpt>
      <trkpt lat="47.26791" lon="-1.62388">
        <ele>16.48</ele>
        <time>2013-12-23T09:53:29Z</time>
      </trkpt>
      <trkpt lat="47.2679" lon="-1.62408">
        <ele>16</ele>
        <time>2013-12-23T09:53:32Z</time>
      </trkpt>
      <trkpt lat="47.26789" lon="-1.62428">
        <ele>16</ele>
        <time>2013-12-23T09:53:35Z</time>
      </trkpt>
      <trkpt lat="47.26786" lon="-1.62447">
        <ele>15.52</ele>
        <time>2013-12-23T09:53:38Z</time>
      </trkpt>
      <trkpt lat="47.26784" lon="-1.6246">
        <ele>16</ele>
        <time>2013-12-23T09:53:40Z</time>
      </trkpt>
      <trkpt lat="47.26781" lon="-1.62479">
        <ele>16</ele>
        <time>2013-12-23T09:53:43Z</time>
      </trkpt>
      <trkpt lat="47.26779" lon="-1.62493">
        <ele>16.48</ele>
        <time>2013-12-23T09:53:45Z</time>
      </trkpt>
      <trkpt lat="47.26778" lon="-1.62508">
        <ele>16.48</ele>
        <time>2013-12-23T09:53:47Z</time>
      </trkpt>
      <trkpt lat="47.26777" lon="-1.62522">
        <ele>16</ele>
        <time>2013-12-23T09:53:49Z</time>
      </trkpt>
      <trkpt lat="47.26775" lon="-1.62537">
        <ele>16</ele>
        <time>2013-12-23T09:53:51Z</time>
      </trkpt>
      <trkpt lat="47.26774" lon="-1.62551">
        <ele>15.52</ele>
        <time>2013-12-23T09:53:53Z</time>
      </trkpt>
      <trkpt lat="47.26771" lon="-1.6257">
        <ele>16</ele>
        <time>2013-12-23T09:53:56Z</time>
      </trkpt>
      <trkpt lat="47.26771" lon="-1.62591">
        <ele>16</ele>
        <time>2013-12-23T09:53:59Z</time>
      </trkpt>
      <trkpt lat="47.26771" lon="-1.62605">
        <ele>16</ele>
        <time>2013-12-23T09:54:01Z</time>
      </trkpt>
      <trkpt lat="47.26771" lon="-1.6262">
        <ele>16</ele>
        <time>2013-12-23T09:54:03Z</time>
      </trkpt>
      <trkpt lat="47.26772" lon="-1.62636">
        <ele>16</ele>
        <time>2013-12-23T09:54:05Z</time>
      </trkpt>
      <trkpt lat="47.26773" lon="-1.62651">
        <ele>16</ele>
        <time>2013-12-23T09:54:07Z</time>
      </trkpt>
      <trkpt lat="47.26773" lon="-1.62665">
        <ele>16</ele>
        <time>2013-12-23T09:54:09Z</time>
      </trkpt>
      <trkpt lat="47.26774" lon="-1.62686">
        <ele>16.96</ele>
        <time>2013-12-23T09:54:12Z</time>
      </trkpt>
      <trkpt lat="47.26774" lon="-1.627">
        <ele>17.92</ele>
        <time>2013-12-23T09:54:14Z</time>
      </trkpt>
      <trkpt lat="47.26775" lon="-1.62715">
        <ele>18.4</ele>
        <time>2013-12-23T09:54:16Z</time>
      </trkpt>
      <trkpt lat="47.26775" lon="-1.6273">
        <ele>18.88</ele>
        <time>2013-12-23T09:54:18Z</time>
      </trkpt>
      <trkpt lat="47.26775" lon="-1.62745">
        <ele>18.4</ele>
        <time>2013-12-23T09:54:20Z</time>
      </trkpt>
      <trkpt lat="47.26776" lon="-1.6276">
        <ele>17.92</ele>
        <time>2013-12-23T09:54:22Z</time>
      </trkpt>
      <trkpt lat="47.26777" lon="-1.62774">
        <ele>16.96</ele>
        <time>2013-12-23T09:54:24Z</time>
      </trkpt>
      <trkpt lat="47.26779" lon="-1.62795">
        <ele>16.48</ele>
        <time>2013-12-23T09:54:27Z</time>
      </trkpt>
      <trkpt lat="47.26781" lon="-1.62816">
        <ele>16.48</ele>
        <time>2013-12-23T09:54:30Z</time>
      </trkpt>
      <trkpt lat="47.26783" lon="-1.62837">
        <ele>16</ele>
        <time>2013-12-23T09:54:33Z</time>
      </trkpt>
      <trkpt lat="47.26784" lon="-1.62852">
        <ele>16.48</ele>
        <time>2013-12-23T09:54:35Z</time>
      </trkpt>
      <trkpt lat="47.26786" lon="-1.62871">
        <ele>16.48</ele>
        <time>2013-12-23T09:54:38Z</time>
      </trkpt>
      <trkpt lat="47.26782" lon="-1.62887">
        <ele>16</ele>
        <time>2013-12-23T09:54:41Z</time>
      </trkpt>
      <trkpt lat="47.26776" lon="-1.62903">
        <ele>16</ele>
        <time>2013-12-23T09:54:44Z</time>
      </trkpt>
      <trkpt lat="47.26773" lon="-1.62921">
        <ele>16.48</ele>
        <time>2013-12-23T09:54:47Z</time>
      </trkpt>
      <trkpt lat="47.2677" lon="-1.62939">
        <ele>16.48</ele>
        <time>2013-12-23T09:54:50Z</time>
      </trkpt>
      <trkpt lat="47.26765" lon="-1.62959">
        <ele>16.48</ele>
        <time>2013-12-23T09:54:53Z</time>
      </trkpt>
      <trkpt lat="47.26763" lon="-1.62972">
        <ele>16.96</ele>
        <time>2013-12-23T09:54:55Z</time>
      </trkpt>
      <trkpt lat="47.26764" lon="-1.62987">
        <ele>16.96</ele>
        <time>2013-12-23T09:54:57Z</time>
      </trkpt>
      <trkpt lat="47.26767" lon="-1.63">
        <ele>17.44</ele>
        <time>2013-12-23T09:54:59Z</time>
      </trkpt>
      <trkpt lat="47.26771" lon="-1.63012">
        <ele>17.92</ele>
        <time>2013-12-23T09:55:01Z</time>
      </trkpt>
      <trkpt lat="47.26782" lon="-1.63023">
        <ele>18.4</ele>
        <time>2013-12-23T09:55:04Z</time>
      </trkpt>
      <trkpt lat="47.26795" lon="-1.63024">
        <ele>18.4</ele>
        <time>2013-12-23T09:55:07Z</time>
      </trkpt>
      <trkpt lat="47.26808" lon="-1.63027">
        <ele>18.88</ele>
        <time>2013-12-23T09:55:10Z</time>
      </trkpt>
      <trkpt lat="47.26819" lon="-1.63029">
        <ele>18.88</ele>
        <time>2013-12-23T09:55:13Z</time>
      </trkpt>
      <trkpt lat="47.26831" lon="-1.63035">
        <ele>19.36</ele>
        <time>2013-12-23T09:55:17Z</time>
      </trkpt>
      <trkpt lat="47.2684" lon="-1.63045">
        <ele>19.36</ele>
        <time>2013-12-23T09:55:20Z</time>
      </trkpt>
      <trkpt lat="47.26849" lon="-1.63056">
        <ele>18.88</ele>
        <time>2013-12-23T09:55:23Z</time>
      </trkpt>
      <trkpt lat="47.26856" lon="-1.6307">
        <ele>18.4</ele>
        <time>2013-12-23T09:55:26Z</time>
      </trkpt>
      <trkpt lat="47.26864" lon="-1.63083">
        <ele>18.4</ele>
        <time>2013-12-23T09:55:29Z</time>
      </trkpt>
      <trkpt lat="47.26871" lon="-1.63098">
        <ele>18.4</ele>
        <time>2013-12-23T09:55:32Z</time>
      </trkpt>
      <trkpt lat="47.26876" lon="-1.63114">
        <ele>18.4</ele>
        <time>2013-12-23T09:55:35Z</time>
      </trkpt>
      <trkpt lat="47.26881" lon="-1.6313">
        <ele>18.4</ele>
        <time>2013-12-23T09:55:38Z</time>
      </trkpt>
      <trkpt lat="47.26886" lon="-1.63147">
        <ele>18.4</ele>
        <time>2013-12-23T09:55:41Z</time>
      </trkpt>
      <trkpt lat="47.26892" lon="-1.63162">
        <ele>18.88</ele>
        <time>2013-12-23T09:55:44Z</time>
      </trkpt>
      <trkpt lat="47.26898" lon="-1.63177">
        <ele>19.84</ele>
        <time>2013-12-23T09:55:47Z</time>
      </trkpt>
      <trkpt lat="47.26898" lon="-1.63191">
        <ele>20.81</ele>
        <time>2013-12-23T09:55:50Z</time>
      </trkpt>
      <trkpt lat="47.26895" lon="-1.63209">
        <ele>21.29</ele>
        <time>2013-12-23T09:55:54Z</time>
      </trkpt>
      <trkpt lat="47.26895" lon="-1.63225">
        <ele>21.77</ele>
        <time>2013-12-23T09:55:59Z</time>
      </trkpt>
      <trkpt lat="47.26902" lon="-1.63235">
        <ele>21.77</ele>
        <time>2013-12-23T09:56:04Z</time>
      </trkpt>
      <trkpt lat="47.26911" lon="-1.63243">
        <ele>21.29</ele>
        <time>2013-12-23T09:56:10Z</time>
      </trkpt>
      <trkpt lat="47.26921" lon="-1.63249">
        <ele>21.77</ele>
        <time>2013-12-23T09:56:16Z</time>
      </trkpt>
      <trkpt lat="47.26932" lon="-1.63257">
        <ele>23.21</ele>
        <time>2013-12-23T09:56:23Z</time>
      </trkpt>
      <trkpt lat="47.26945" lon="-1.63262">
        <ele>26.09</ele>
        <time>2013-12-23T09:56:30Z</time>
      </trkpt>
      <trkpt lat="47.26956" lon="-1.63268">
        <ele>28.02</ele>
        <time>2013-12-23T09:56:37Z</time>
      </trkpt>
      <trkpt lat="47.26968" lon="-1.63274">
        <ele>30.42</ele>
        <time>2013-12-23T09:56:44Z</time>
      </trkpt>
      <trkpt lat="47.26982" lon="-1.63277">
        <ele>34.26</ele>
        <time>2013-12-23T09:56:52Z</time>
      </trkpt>
      <trkpt lat="47.26994" lon="-1.63279">
        <ele>37.15</ele>
        <time>2013-12-23T09:57:01Z</time>
      </trkpt>
      <trkpt lat="47.27005" lon="-1.63281">
        <ele>39.55</ele>
        <time>2013-12-23T09:57:10Z</time>
      </trkpt>
      <trkpt lat="47.27016" lon="-1.63281">
        <ele>40.03</ele>
        <time>2013-12-23T09:57:18Z</time>
      </trkpt>
      <trkpt lat="47.27025" lon="-1.63279">
        <ele>40.99</ele>
        <time>2013-12-23T09:57:25Z</time>
      </trkpt>
      <trkpt lat="47.27036" lon="-1.63281">
        <ele>41.47</ele>
        <time>2013-12-23T09:57:31Z</time>
      </trkpt>
      <trkpt lat="47.27041" lon="-1.63294">
        <ele>41.95</ele>
        <time>2013-12-23T09:57:36Z</time>
      </trkpt>
      <trkpt lat="47.27042" lon="-1.63309">
        <ele>42.44</ele>
        <time>2013-12-23T09:57:41Z</time>
      </trkpt>
      <trkpt lat="47.27041" lon="-1.63324">
        <ele>42.92</ele>
        <time>2013-12-23T09:57:46Z</time>
      </trkpt>
      <trkpt lat="47.27043" lon="-1.63339">
        <ele>42.92</ele>
        <time>2013-12-23T09:57:51Z</time>
      </trkpt>
      <trkpt lat="47.27042" lon="-1.63355">
        <ele>42.92</ele>
        <time>2013-12-23T09:57:56Z</time>
      </trkpt>
      <trkpt lat="47.27043" lon="-1.6337">
        <ele>42.44</ele>
        <time>2013-12-23T09:57:59Z</time>
      </trkpt>
      <trkpt lat="47.27046" lon="-1.63385">
        <ele>42.44</ele>
        <time>2013-12-23T09:58:02Z</time>
      </trkpt>
      <trkpt lat="47.27047" lon="-1.634">
        <ele>42.44</ele>
        <time>2013-12-23T09:58:05Z</time>
      </trkpt>
      <trkpt lat="47.27051" lon="-1.63414">
        <ele>42.44</ele>
        <time>2013-12-23T09:58:08Z</time>
      </trkpt>
      <trkpt lat="47.2706" lon="-1.63422">
        <ele>42.44</ele>
        <time>2013-12-23T09:58:11Z</time>
      </trkpt>
      <trkpt lat="47.27069" lon="-1.63426">
        <ele>42.92</ele>
        <time>2013-12-23T09:58:14Z</time>
      </trkpt>
      <trkpt lat="47.27078" lon="-1.6343">
        <ele>43.4</ele>
        <time>2013-12-23T09:58:17Z</time>
      </trkpt>
      <trkpt lat="47.27085" lon="-1.63443">
        <ele>43.88</ele>
        <time>2013-12-23T09:58:21Z</time>
      </trkpt>
      <trkpt lat="47.2709" lon="-1.63459">
        <ele>45.32</ele>
        <time>2013-12-23T09:58:25Z</time>
      </trkpt>
      <trkpt lat="47.27092" lon="-1.63475">
        <ele>47.24</ele>
        <time>2013-12-23T09:58:30Z</time>
      </trkpt>
      <trkpt lat="47.27092" lon="-1.63491">
        <ele>48.68</ele>
        <time>2013-12-23T09:58:35Z</time>
      </trkpt>
      <trkpt lat="47.27094" lon="-1.63507">
        <ele>49.65</ele>
        <time>2013-12-23T09:58:40Z</time>
      </trkpt>
      <trkpt lat="47.27094" lon="-1.63525">
        <ele>50.61</ele>
        <time>2013-12-23T09:58:45Z</time>
      </trkpt>
      <trkpt lat="47.27095" lon="-1.6354">
        <ele>52.05</ele>
        <time>2013-12-23T09:58:50Z</time>
      </trkpt>
      <trkpt lat="47.27095" lon="-1.63555">
        <ele>52.53</ele>
        <time>2013-12-23T09:58:55Z</time>
      </trkpt>
      <trkpt lat="47.27094" lon="-1.63572">
        <ele>52.53</ele>
        <time>2013-12-23T09:59:00Z</time>
      </trkpt>
      <trkpt lat="47.2709" lon="-1.63588">
        <ele>52.05</ele>
        <time>2013-12-23T09:59:04Z</time>
      </trkpt>
      <trkpt lat="47.27086" lon="-1.63604">
        <ele>53.01</ele>
        <time>2013-12-23T09:59:08Z</time>
      </trkpt>
      <trkpt lat="47.27082" lon="-1.63622">
        <ele>53.01</ele>
        <time>2013-12-23T09:59:12Z</time>
      </trkpt>
      <trkpt lat="47.2708" lon="-1.63637">
        <ele>53.01</ele>
        <time>2013-12-23T09:59:15Z</time>
      </trkpt>
      <trkpt lat="47.27077" lon="-1.63654">
        <ele>53.01</ele>
        <time>2013-12-23T09:59:18Z</time>
      </trkpt>
      <trkpt lat="47.27073" lon="-1.63671">
        <ele>53.49</ele>
        <time>2013-12-23T09:59:21Z</time>
      </trkpt>
      <trkpt lat="47.27071" lon="-1.63685">
        <ele>53.49</ele>
        <time>2013-12-23T09:59:24Z</time>
      </trkpt>
      <trkpt lat="47.27068" lon="-1.637">
        <ele>53.01</ele>
        <time>2013-12-23T09:59:27Z</time>
      </trkpt>
      <trkpt lat="47.27066" lon="-1.63717">
        <ele>52.53</ele>
        <time>2013-12-23T09:59:30Z</time>
      </trkpt>
      <trkpt lat="47.27063" lon="-1.63736">
        <ele>52.05</ele>
        <time>2013-12-23T09:59:33Z</time>
      </trkpt>
      <trkpt lat="47.27062" lon="-1.63757">
        <ele>51.57</ele>
        <time>2013-12-23T09:59:36Z</time>
      </trkpt>
      <trkpt lat="47.27062" lon="-1.63772">
        <ele>51.57</ele>
        <time>2013-12-23T09:59:38Z</time>
      </trkpt>
      <trkpt lat="47.27061" lon="-1.63786">
        <ele>51.09</ele>
        <time>2013-12-23T09:59:40Z</time>
      </trkpt>
      <trkpt lat="47.27062" lon="-1.63806">
        <ele>51.09</ele>
        <time>2013-12-23T09:59:43Z</time>
      </trkpt>
      <trkpt lat="47.27063" lon="-1.63825">
        <ele>51.09</ele>
        <time>2013-12-23T09:59:46Z</time>
      </trkpt>
      <trkpt lat="47.27065" lon="-1.63844">
        <ele>51.09</ele>
        <time>2013-12-23T09:59:49Z</time>
      </trkpt>
      <trkpt lat="47.27067" lon="-1.63861">
        <ele>51.09</ele>
        <time>2013-12-23T09:59:52Z</time>
      </trkpt>
      <trkpt lat="47.27069" lon="-1.63879">
        <ele>51.57</ele>
        <time>2013-12-23T09:59:55Z</time>
      </trkpt>
      <trkpt lat="47.27072" lon="-1.63896">
        <ele>51.09</ele>
        <time>2013-12-23T09:59:58Z</time>
      </trkpt>
      <trkpt lat="47.27082" lon="-1.63907">
        <ele>51.09</ele>
        <time>2013-12-23T10:00:01Z</time>
      </trkpt>
      <trkpt lat="47.2709" lon="-1.6392">
        <ele>50.61</ele>
        <time>2013-12-23T10:00:04Z</time>
      </trkpt>
      <trkpt lat="47.27097" lon="-1.63938">
        <ele>50.61</ele>
        <time>2013-12-23T10:00:07Z</time>
      </trkpt>
      <trkpt lat="47.27105" lon="-1.63956">
        <ele>50.13</ele>
        <time>2013-12-23T10:00:10Z</time>
      </trkpt>
      <trkpt lat="47.27111" lon="-1.63967">
        <ele>50.13</ele>
        <time>2013-12-23T10:00:12Z</time>
      </trkpt>
      <trkpt lat="47.27117" lon="-1.63979">
        <ele>50.61</ele>
        <time>2013-12-23T10:00:14Z</time>
      </trkpt>
      <trkpt lat="47.27124" lon="-1.63994">
        <ele>50.61</ele>
        <time>2013-12-23T10:00:17Z</time>
      </trkpt>
      <trkpt lat="47.27132" lon="-1.64002">
        <ele>50.61</ele>
        <time>2013-12-23T10:00:20Z</time>
      </trkpt>
      <trkpt lat="47.2714" lon="-1.64014">
        <ele>51.09</ele>
        <time>2013-12-23T10:00:24Z</time>
      </trkpt>
      <trkpt lat="47.27147" lon="-1.64027">
        <ele>51.57</ele>
        <time>2013-12-23T10:00:28Z</time>
      </trkpt>
      <trkpt lat="47.27155" lon="-1.64043">
        <ele>51.57</ele>
        <time>2013-12-23T10:00:32Z</time>
      </trkpt>
      <trkpt lat="47.2716" lon="-1.64055">
        <ele>51.09</ele>
        <time>2013-12-23T10:00:35Z</time>
      </trkpt>
      <trkpt lat="47.27166" lon="-1.64067">
        <ele>51.57</ele>
        <time>2013-12-23T10:00:38Z</time>
      </trkpt>
      <trkpt lat="47.27173" lon="-1.64081">
        <ele>50.61</ele>
        <time>2013-12-23T10:00:41Z</time>
      </trkpt>
      <trkpt lat="47.2718" lon="-1.64097">
        <ele>49.65</ele>
        <time>2013-12-23T10:00:44Z</time>
      </trkpt>
      <trkpt lat="47.27187" lon="-1.64112">
        <ele>49.16</ele>
        <time>2013-12-23T10:00:47Z</time>
      </trkpt>
      <trkpt lat="47.27191" lon="-1.64126">
        <ele>48.2</ele>
        <time>2013-12-23T10:00:50Z</time>
      </trkpt>
      <trkpt lat="47.27196" lon="-1.64139">
        <ele>47.72</ele>
        <time>2013-12-23T10:00:53Z</time>
      </trkpt>
      <trkpt lat="47.27201" lon="-1.6415">
        <ele>46.76</ele>
        <time>2013-12-23T10:00:56Z</time>
      </trkpt>
      <trkpt lat="47.27208" lon="-1.64164">
        <ele>45.8</ele>
        <time>2013-12-23T10:00:59Z</time>
      </trkpt>
      <trkpt lat="47.27213" lon="-1.64181">
        <ele>44.36</ele>
        <time>2013-12-23T10:01:02Z</time>
      </trkpt>
      <trkpt lat="47.27219" lon="-1.64197">
        <ele>43.4</ele>
        <time>2013-12-23T10:01:05Z</time>
      </trkpt>
      <trkpt lat="47.27225" lon="-1.64215">
        <ele>42.44</ele>
        <time>2013-12-23T10:01:08Z</time>
      </trkpt>
      <trkpt lat="47.2723" lon="-1.64227">
        <ele>41.95</ele>
        <time>2013-12-23T10:01:10Z</time>
      </trkpt>
      <trkpt lat="47.27237" lon="-1.64241">
        <ele>41.95</ele>
        <time>2013-12-23T10:01:13Z</time>
      </trkpt>
      <trkpt lat="47.27245" lon="-1.64254">
        <ele>42.44</ele>
        <time>2013-12-23T10:01:17Z</time>
      </trkpt>
      <trkpt lat="47.27253" lon="-1.64266">
        <ele>43.4</ele>
        <time>2013-12-23T10:01:22Z</time>
      </trkpt>
      <trkpt lat="47.2726" lon="-1.64276">
        <ele>43.4</ele>
        <time>2013-12-23T10:01:27Z</time>
      </trkpt>
      <trkpt lat="47.27267" lon="-1.64288">
        <ele>43.4</ele>
        <time>2013-12-23T10:01:32Z</time>
      </trkpt>
      <trkpt lat="47.27274" lon="-1.64302">
        <ele>42.44</ele>
        <time>2013-12-23T10:01:37Z</time>
      </trkpt>
      <trkpt lat="47.27281" lon="-1.64313">
        <ele>41.47</ele>
        <time>2013-12-23T10:01:42Z</time>
      </trkpt>
      <trkpt lat="47.27288" lon="-1.64329">
        <ele>42.44</ele>
        <time>2013-12-23T10:01:47Z</time>
      </trkpt>
      <trkpt lat="47.27296" lon="-1.64343">
        <ele>41.95</ele>
        <time>2013-12-23T10:01:52Z</time>
      </trkpt>
      <trkpt lat="47.27303" lon="-1.64357">
        <ele>42.44</ele>
        <time>2013-12-23T10:01:57Z</time>
      </trkpt>
      <trkpt lat="47.2731" lon="-1.64369">
        <ele>43.88</ele>
        <time>2013-12-23T10:02:02Z</time>
      </trkpt>
      <trkpt lat="47.27318" lon="-1.64382">
        <ele>45.32</ele>
        <time>2013-12-23T10:02:07Z</time>
      </trkpt>
      <trkpt lat="47.27326" lon="-1.64392">
        <ele>45.8</ele>
        <time>2013-12-23T10:02:12Z</time>
      </trkpt>
      <trkpt lat="47.27337" lon="-1.64403">
        <ele>47.72</ele>
        <time>2013-12-23T10:02:20Z</time>
      </trkpt>
      <trkpt lat="47.27347" lon="-1.64418">
        <ele>50.61</ele>
        <time>2013-12-23T10:02:29Z</time>
      </trkpt>
      <trkpt lat="47.27358" lon="-1.64432">
        <ele>53.49</ele>
        <time>2013-12-23T10:02:35Z</time>
      </trkpt>
      <trkpt lat="47.27369" lon="-1.64445">
        <ele>54.93</ele>
        <time>2013-12-23T10:02:43Z</time>
      </trkpt>
      <trkpt lat="47.27379" lon="-1.64456">
        <ele>56.86</ele>
        <time>2013-12-23T10:02:51Z</time>
      </trkpt>
      <trkpt lat="47.27389" lon="-1.64467">
        <ele>57.82</ele>
        <time>2013-12-23T10:02:57Z</time>
      </trkpt>
      <trkpt lat="47.274" lon="-1.64477">
        <ele>58.3</ele>
        <time>2013-12-23T10:03:03Z</time>
      </trkpt>
      <trkpt lat="47.2741" lon="-1.64485">
        <ele>59.26</ele>
        <time>2013-12-23T10:03:09Z</time>
      </trkpt>
      <trkpt lat="47.27424" lon="-1.64489">
        <ele>58.3</ele>
        <time>2013-12-23T10:03:16Z</time>
      </trkpt>
      <trkpt lat="47.27437" lon="-1.6449">
        <ele>57.34</ele>
        <time>2013-12-23T10:03:20Z</time>
      </trkpt>
      <trkpt lat="47.27449" lon="-1.64489">
        <ele>56.86</ele>
        <time>2013-12-23T10:03:24Z</time>
      </trkpt>
      <trkpt lat="47.27459" lon="-1.64488">
        <ele>55.89</ele>
        <time>2013-12-23T10:03:27Z</time>
      </trkpt>
      <trkpt lat="47.27468" lon="-1.64487">
        <ele>55.41</ele>
        <time>2013-12-23T10:03:30Z</time>
      </trkpt>
      <trkpt lat="47.2748" lon="-1.64485">
        <ele>54.93</ele>
        <time>2013-12-23T10:03:34Z</time>
      </trkpt>
      <trkpt lat="47.27492" lon="-1.64481">
        <ele>54.93</ele>
        <time>2013-12-23T10:03:38Z</time>
      </trkpt>
      <trkpt lat="47.27501" lon="-1.64475">
        <ele>55.89</ele>
        <time>2013-12-23T10:03:41Z</time>
      </trkpt>
      <trkpt lat="47.2751" lon="-1.64469">
        <ele>55.89</ele>
        <time>2013-12-23T10:03:44Z</time>
      </trkpt>
      <trkpt lat="47.27519" lon="-1.64464">
        <ele>55.89</ele>
        <time>2013-12-23T10:03:47Z</time>
      </trkpt>
      <trkpt lat="47.27529" lon="-1.64458">
        <ele>55.89</ele>
        <time>2013-12-23T10:03:50Z</time>
      </trkpt>
      <trkpt lat="47.27538" lon="-1.64454">
        <ele>56.86</ele>
        <time>2013-12-23T10:03:53Z</time>
      </trkpt>
      <trkpt lat="47.27548" lon="-1.64452">
        <ele>58.78</ele>
        <time>2013-12-23T10:03:57Z</time>
      </trkpt>
      <trkpt lat="47.27556" lon="-1.64463">
        <ele>60.22</ele>
        <time>2013-12-23T10:04:02Z</time>
      </trkpt>
      <trkpt lat="47.27559" lon="-1.64479">
        <ele>59.74</ele>
        <time>2013-12-23T10:04:05Z</time>
      </trkpt>
      <trkpt lat="47.27561" lon="-1.64496">
        <ele>58.78</ele>
        <time>2013-12-23T10:04:08Z</time>
      </trkpt>
      <trkpt lat="47.27562" lon="-1.6451">
        <ele>58.3</ele>
        <time>2013-12-23T10:04:10Z</time>
      </trkpt>
      <trkpt lat="47.27564" lon="-1.64525">
        <ele>57.82</ele>
        <time>2013-12-23T10:04:12Z</time>
      </trkpt>
      <trkpt lat="47.27565" lon="-1.6454">
        <ele>57.34</ele>
        <time>2013-12-23T10:04:14Z</time>
      </trkpt>
      <trkpt lat="47.27564" lon="-1.64556">
        <ele>56.37</ele>
        <time>2013-12-23T10:04:16Z</time>
      </trkpt>
      <trkpt lat="47.27563" lon="-1.64572">
        <ele>55.89</ele>
        <time>2013-12-23T10:04:18Z</time>
      </trkpt>
      <trkpt lat="47.27563" lon="-1.64585">
        <ele>55.41</ele>
        <time>2013-12-23T10:04:20Z</time>
      </trkpt>
      <trkpt lat="47.2756" lon="-1.64604">
        <ele>55.41</ele>
        <time>2013-12-23T10:04:23Z</time>
      </trkpt>
      <trkpt lat="47.27557" lon="-1.64623">
        <ele>55.41</ele>
        <time>2013-12-23T10:04:26Z</time>
      </trkpt>
      <trkpt lat="47.27554" lon="-1.64641">
        <ele>55.41</ele>
        <time>2013-12-23T10:04:29Z</time>
      </trkpt>
      <trkpt lat="47.27551" lon="-1.64658">
        <ele>56.37</ele>
        <time>2013-12-23T10:04:32Z</time>
      </trkpt>
      <trkpt lat="47.2755" lon="-1.64674">
        <ele>56.86</ele>
        <time>2013-12-23T10:04:35Z</time>
      </trkpt>
      <trkpt lat="47.27549" lon="-1.64689">
        <ele>57.34</ele>
        <time>2013-12-23T10:04:38Z</time>
      </trkpt>
      <trkpt lat="47.27548" lon="-1.64705">
        <ele>57.34</ele>
        <time>2013-12-23T10:04:41Z</time>
      </trkpt>
      <trkpt lat="47.27547" lon="-1.6472">
        <ele>57.82</ele>
        <time>2013-12-23T10:04:44Z</time>
      </trkpt>
      <trkpt lat="47.27546" lon="-1.64735">
        <ele>57.82</ele>
        <time>2013-12-23T10:04:47Z</time>
      </trkpt>
      <trkpt lat="47.27544" lon="-1.6475">
        <ele>58.3</ele>
        <time>2013-12-23T10:04:50Z</time>
      </trkpt>
      <trkpt lat="47.2754" lon="-1.64764">
        <ele>58.3</ele>
        <time>2013-12-23T10:04:53Z</time>
      </trkpt>
      <trkpt lat="47.27537" lon="-1.64779">
        <ele>58.78</ele>
        <time>2013-12-23T10:04:56Z</time>
      </trkpt>
      <trkpt lat="47.27533" lon="-1.64793">
        <ele>58.78</ele>
        <time>2013-12-23T10:04:59Z</time>
      </trkpt>
      <trkpt lat="47.27529" lon="-1.64808">
        <ele>58.78</ele>
        <time>2013-12-23T10:05:02Z</time>
      </trkpt>
      <trkpt lat="47.27526" lon="-1.64823">
        <ele>58.78</ele>
        <time>2013-12-23T10:05:05Z</time>
      </trkpt>
      <trkpt lat="47.27525" lon="-1.64838">
        <ele>58.78</ele>
        <time>2013-12-23T10:05:08Z</time>
      </trkpt>
      <trkpt lat="47.27526" lon="-1.64854">
        <ele>58.3</ele>
        <time>2013-12-23T10:05:11Z</time>
      </trkpt>
      <trkpt lat="47.27527" lon="-1.64871">
        <ele>58.78</ele>
        <time>2013-12-23T10:05:14Z</time>
      </trkpt>
      <trkpt lat="47.27529" lon="-1.64887">
        <ele>59.26</ele>
        <time>2013-12-23T10:05:17Z</time>
      </trkpt>
      <trkpt lat="47.27531" lon="-1.64904">
        <ele>59.26</ele>
        <time>2013-12-23T10:05:20Z</time>
      </trkpt>
      <trkpt lat="47.27532" lon="-1.64921">
        <ele>59.26</ele>
        <time>2013-12-23T10:05:23Z</time>
      </trkpt>
      <trkpt lat="47.27532" lon="-1.64935">
        <ele>59.26</ele>
        <time>2013-12-23T10:05:26Z</time>
      </trkpt>
      <trkpt lat="47.27532" lon="-1.6495">
        <ele>59.26</ele>
        <time>2013-12-23T10:05:29Z</time>
      </trkpt>
      <trkpt lat="47.27532" lon="-1.64968">
        <ele>59.26</ele>
        <time>2013-12-23T10:05:32Z</time>
      </trkpt>
      <trkpt lat="47.27533" lon="-1.64986">
        <ele>59.26</ele>
        <time>2013-12-23T10:05:35Z</time>
      </trkpt>
      <trkpt lat="47.27536" lon="-1.65004">
        <ele>58.78</ele>
        <time>2013-12-23T10:05:38Z</time>
      </trkpt>
      <trkpt lat="47.2754" lon="-1.65023">
        <ele>58.3</ele>
        <time>2013-12-23T10:05:41Z</time>
      </trkpt>
      <trkpt lat="47.27543" lon="-1.65036">
        <ele>58.3</ele>
        <time>2013-12-23T10:05:43Z</time>
      </trkpt>
      <trkpt lat="47.27546" lon="-1.6505">
        <ele>57.82</ele>
        <time>2013-12-23T10:05:45Z</time>
      </trkpt>
      <trkpt lat="47.27548" lon="-1.65064">
        <ele>57.34</ele>
        <time>2013-12-23T10:05:47Z</time>
      </trkpt>
      <trkpt lat="47.27551" lon="-1.65078">
        <ele>56.86</ele>
        <time>2013-12-23T10:05:49Z</time>
      </trkpt>
      <trkpt lat="47.27553" lon="-1.65092">
        <ele>56.86</ele>
        <time>2013-12-23T10:05:51Z</time>
      </trkpt>
      <trkpt lat="47.27556" lon="-1.65106">
        <ele>56.37</ele>
        <time>2013-12-23T10:05:53Z</time>
      </trkpt>
      <trkpt lat="47.27562" lon="-1.6512">
        <ele>56.86</ele>
        <time>2013-12-23T10:05:56Z</time>
      </trkpt>
      <trkpt lat="47.27566" lon="-1.65133">
        <ele>57.82</ele>
        <time>2013-12-23T10:06:23Z</time>
      </trkpt>
      <trkpt lat="47.27572" lon="-1.65149">
        <ele>58.78</ele>
        <time>2013-12-23T10:06:27Z</time>
      </trkpt>
      <trkpt lat="47.27577" lon="-1.65162">
        <ele>58.3</ele>
        <time>2013-12-23T10:06:30Z</time>
      </trkpt>
      <trkpt lat="47.27585" lon="-1.65177">
        <ele>57.34</ele>
        <time>2013-12-23T10:06:34Z</time>
      </trkpt>
      <trkpt lat="47.27591" lon="-1.6519">
        <ele>56.37</ele>
        <time>2013-12-23T10:06:37Z</time>
      </trkpt>
      <trkpt lat="47.27597" lon="-1.65205">
        <ele>56.37</ele>
        <time>2013-12-23T10:06:40Z</time>
      </trkpt>
      <trkpt lat="47.27603" lon="-1.65218">
        <ele>56.37</ele>
        <time>2013-12-23T10:06:43Z</time>
      </trkpt>
      <trkpt lat="47.2761" lon="-1.65231">
        <ele>57.34</ele>
        <time>2013-12-23T10:06:46Z</time>
      </trkpt>
      <trkpt lat="47.27619" lon="-1.65243">
        <ele>57.82</ele>
        <time>2013-12-23T10:06:49Z</time>
      </trkpt>
      <trkpt lat="47.27627" lon="-1.65254">
        <ele>57.82</ele>
        <time>2013-12-23T10:06:52Z</time>
      </trkpt>
      <trkpt lat="47.27633" lon="-1.65269">
        <ele>57.34</ele>
        <time>2013-12-23T10:06:55Z</time>
      </trkpt>
      <trkpt lat="47.27636" lon="-1.65289">
        <ele>56.37</ele>
        <time>2013-12-23T10:06:58Z</time>
      </trkpt>
      <trkpt lat="47.27638" lon="-1.65308">
        <ele>55.41</ele>
        <time>2013-12-23T10:07:01Z</time>
      </trkpt>
      <trkpt lat="47.27644" lon="-1.65322">
        <ele>54.45</ele>
        <time>2013-12-23T10:07:04Z</time>
      </trkpt>
      <trkpt lat="47.27651" lon="-1.65331">
        <ele>53.01</ele>
        <time>2013-12-23T10:07:07Z</time>
      </trkpt>
      <trkpt lat="47.2766" lon="-1.6534">
        <ele>52.05</ele>
        <time>2013-12-23T10:07:10Z</time>
      </trkpt>
      <trkpt lat="47.2767" lon="-1.65344">
        <ele>51.57</ele>
        <time>2013-12-23T10:07:13Z</time>
      </trkpt>
      <trkpt lat="47.27681" lon="-1.65346">
        <ele>51.09</ele>
        <time>2013-12-23T10:07:18Z</time>
      </trkpt>
      <trkpt lat="47.2769" lon="-1.6536">
        <ele>51.09</ele>
        <time>2013-12-23T10:07:24Z</time>
      </trkpt>
      <trkpt lat="47.27695" lon="-1.65379">
        <ele>52.05</ele>
        <time>2013-12-23T10:07:29Z</time>
      </trkpt>
      <trkpt lat="47.277" lon="-1.65394">
        <ele>53.01</ele>
        <time>2013-12-23T10:07:34Z</time>
      </trkpt>
      <trkpt lat="47.27703" lon="-1.6541">
        <ele>54.93</ele>
        <time>2013-12-23T10:07:39Z</time>
      </trkpt>
      <trkpt lat="47.27707" lon="-1.65424">
        <ele>56.37</ele>
        <time>2013-12-23T10:07:44Z</time>
      </trkpt>
      <trkpt lat="47.27715" lon="-1.65432">
        <ele>57.34</ele>
        <time>2013-12-23T10:07:48Z</time>
      </trkpt>
      <trkpt lat="47.27725" lon="-1.6544">
        <ele>57.82</ele>
        <time>2013-12-23T10:07:52Z</time>
      </trkpt>
      <trkpt lat="47.27737" lon="-1.65444">
        <ele>58.3</ele>
        <time>2013-12-23T10:07:56Z</time>
      </trkpt>
      <trkpt lat="47.27747" lon="-1.65443">
        <ele>58.3</ele>
        <time>2013-12-23T10:07:59Z</time>
      </trkpt>
      <trkpt lat="47.27757" lon="-1.65442">
        <ele>58.3</ele>
        <time>2013-12-23T10:08:02Z</time>
      </trkpt>
      <trkpt lat="47.27767" lon="-1.65444">
        <ele>57.82</ele>
        <time>2013-12-23T10:08:05Z</time>
      </trkpt>
      <trkpt lat="47.27777" lon="-1.65448">
        <ele>57.82</ele>
        <time>2013-12-23T10:08:08Z</time>
      </trkpt>
      <trkpt lat="47.27787" lon="-1.6545">
        <ele>57.82</ele>
        <time>2013-12-23T10:08:11Z</time>
      </trkpt>
      <trkpt lat="47.27797" lon="-1.6545">
        <ele>57.82</ele>
        <time>2013-12-23T10:08:14Z</time>
      </trkpt>
      <trkpt lat="47.27808" lon="-1.65452">
        <ele>58.3</ele>
        <time>2013-12-23T10:08:17Z</time>
      </trkpt>
      <trkpt lat="47.27819" lon="-1.65456">
        <ele>58.78</ele>
        <time>2013-12-23T10:08:20Z</time>
      </trkpt>
      <trkpt lat="47.27829" lon="-1.6546">
        <ele>58.78</ele>
        <time>2013-12-23T10:08:23Z</time>
      </trkpt>
      <trkpt lat="47.2784" lon="-1.65461">
        <ele>58.3</ele>
        <time>2013-12-23T10:08:26Z</time>
      </trkpt>
      <trkpt lat="47.27851" lon="-1.65461">
        <ele>58.3</ele>
        <time>2013-12-23T10:08:29Z</time>
      </trkpt>
      <trkpt lat="47.27862" lon="-1.65466">
        <ele>58.3</ele>
        <time>2013-12-23T10:08:33Z</time>
      </trkpt>
      <trkpt lat="47.27874" lon="-1.65472">
        <ele>58.3</ele>
        <time>2013-12-23T10:08:38Z</time>
      </trkpt>
      <trkpt lat="47.27883" lon="-1.65482">
        <ele>58.78</ele>
        <time>2013-12-23T10:08:42Z</time>
      </trkpt>
      <trkpt lat="47.2789" lon="-1.65493">
        <ele>58.78</ele>
        <time>2013-12-23T10:08:46Z</time>
      </trkpt>
      <trkpt lat="47.27899" lon="-1.65509">
        <ele>58.78</ele>
        <time>2013-12-23T10:08:50Z</time>
      </trkpt>
      <trkpt lat="47.27904" lon="-1.65527">
        <ele>59.74</ele>
        <time>2013-12-23T10:08:54Z</time>
      </trkpt>
      <trkpt lat="47.27906" lon="-1.65545">
        <ele>61.18</ele>
        <time>2013-12-23T10:08:58Z</time>
      </trkpt>
      <trkpt lat="47.27908" lon="-1.65563">
        <ele>61.66</ele>
        <time>2013-12-23T10:09:02Z</time>
      </trkpt>
      <trkpt lat="47.2791" lon="-1.65577">
        <ele>61.66</ele>
        <time>2013-12-23T10:09:05Z</time>
      </trkpt>
      <trkpt lat="47.27913" lon="-1.65592">
        <ele>61.18</ele>
        <time>2013-12-23T10:09:08Z</time>
      </trkpt>
      <trkpt lat="47.27914" lon="-1.65607">
        <ele>60.7</ele>
        <time>2013-12-23T10:09:11Z</time>
      </trkpt>
      <trkpt lat="47.27916" lon="-1.65621">
        <ele>60.22</ele>
        <time>2013-12-23T10:09:14Z</time>
      </trkpt>
      <trkpt lat="47.27917" lon="-1.6564">
        <ele>60.22</ele>
        <time>2013-12-23T10:09:18Z</time>
      </trkpt>
      <trkpt lat="47.27919" lon="-1.65658">
        <ele>60.22</ele>
        <time>2013-12-23T10:09:22Z</time>
      </trkpt>
      <trkpt lat="47.27919" lon="-1.65676">
        <ele>59.74</ele>
        <time>2013-12-23T10:09:26Z</time>
      </trkpt>
      <trkpt lat="47.27918" lon="-1.65691">
        <ele>59.26</ele>
        <time>2013-12-23T10:09:29Z</time>
      </trkpt>
      <trkpt lat="47.27917" lon="-1.65706">
        <ele>59.26</ele>
        <time>2013-12-23T10:09:32Z</time>
      </trkpt>
      <trkpt lat="47.27916" lon="-1.6572">
        <ele>59.26</ele>
        <time>2013-12-23T10:09:35Z</time>
      </trkpt>
      <trkpt lat="47.27916" lon="-1.65737">
        <ele>59.74</ele>
        <time>2013-12-23T10:09:39Z</time>
      </trkpt>
      <trkpt lat="47.27917" lon="-1.65756">
        <ele>59.74</ele>
        <time>2013-12-23T10:09:43Z</time>
      </trkpt>
      <trkpt lat="47.27918" lon="-1.65771">
        <ele>60.22</ele>
        <time>2013-12-23T10:09:46Z</time>
      </trkpt>
      <trkpt lat="47.27918" lon="-1.65786">
        <ele>60.22</ele>
        <time>2013-12-23T10:09:49Z</time>
      </trkpt>
      <trkpt lat="47.27918" lon="-1.658">
        <ele>60.7</ele>
        <time>2013-12-23T10:09:52Z</time>
      </trkpt>
      <trkpt lat="47.27918" lon="-1.65815">
        <ele>60.7</ele>
        <time>2013-12-23T10:09:55Z</time>
      </trkpt>
      <trkpt lat="47.27918" lon="-1.65832">
        <ele>61.66</ele>
        <time>2013-12-23T10:09:59Z</time>
      </trkpt>
      <trkpt lat="47.27917" lon="-1.65846">
        <ele>61.66</ele>
        <time>2013-12-23T10:10:02Z</time>
      </trkpt>
      <trkpt lat="47.27916" lon="-1.65863">
        <ele>61.18</ele>
        <time>2013-12-23T10:10:05Z</time>
      </trkpt>
      <trkpt lat="47.27917" lon="-1.65877">
        <ele>61.18</ele>
        <time>2013-12-23T10:10:08Z</time>
      </trkpt>
      <trkpt lat="47.27919" lon="-1.65891">
        <ele>61.18</ele>
        <time>2013-12-23T10:10:11Z</time>
      </trkpt>
      <trkpt lat="47.27921" lon="-1.65905">
        <ele>61.66</ele>
        <time>2013-12-23T10:10:14Z</time>
      </trkpt>
      <trkpt lat="47.27923" lon="-1.65919">
        <ele>61.66</ele>
        <time>2013-12-23T10:10:17Z</time>
      </trkpt>
      <trkpt lat="47.27925" lon="-1.65933">
        <ele>62.14</ele>
        <time>2013-12-23T10:10:20Z</time>
      </trkpt>
      <trkpt lat="47.27927" lon="-1.6595">
        <ele>62.62</ele>
        <time>2013-12-23T10:10:24Z</time>
      </trkpt>
      <trkpt lat="47.27928" lon="-1.65967">
        <ele>63.1</ele>
        <time>2013-12-23T10:10:28Z</time>
      </trkpt>
      <trkpt lat="47.27928" lon="-1.65981">
        <ele>63.58</ele>
        <time>2013-12-23T10:10:31Z</time>
      </trkpt>
      <trkpt lat="47.27926" lon="-1.65997">
        <ele>64.07</ele>
        <time>2013-12-23T10:10:35Z</time>
      </trkpt>
      <trkpt lat="47.27928" lon="-1.66012">
        <ele>64.07</ele>
        <time>2013-12-23T10:10:38Z</time>
      </trkpt>
      <trkpt lat="47.27933" lon="-1.66024">
        <ele>64.07</ele>
        <time>2013-12-23T10:10:41Z</time>
      </trkpt>
      <trkpt lat="47.27938" lon="-1.66039">
        <ele>64.55</ele>
        <time>2013-12-23T10:10:44Z</time>
      </trkpt>
      <trkpt lat="47.27941" lon="-1.66055">
        <ele>65.51</ele>
        <time>2013-12-23T10:10:47Z</time>
      </trkpt>
      <trkpt lat="47.27945" lon="-1.66071">
        <ele>64.55</ele>
        <time>2013-12-23T10:10:50Z</time>
      </trkpt>
      <trkpt lat="47.27952" lon="-1.66084">
        <ele>63.58</ele>
        <time>2013-12-23T10:10:53Z</time>
      </trkpt>
      <trkpt lat="47.27963" lon="-1.6609">
        <ele>62.62</ele>
        <time>2013-12-23T10:10:56Z</time>
      </trkpt>
      <trkpt lat="47.27977" lon="-1.66089">
        <ele>62.62</ele>
        <time>2013-12-23T10:10:59Z</time>
      </trkpt>
      <trkpt lat="47.27991" lon="-1.66088">
        <ele>62.62</ele>
        <time>2013-12-23T10:11:02Z</time>
      </trkpt>
      <trkpt lat="47.28" lon="-1.66087">
        <ele>62.14</ele>
        <time>2013-12-23T10:11:04Z</time>
      </trkpt>
      <trkpt lat="47.2801" lon="-1.66087">
        <ele>61.66</ele>
        <time>2013-12-23T10:11:06Z</time>
      </trkpt>
      <trkpt lat="47.28019" lon="-1.66086">
        <ele>61.18</ele>
        <time>2013-12-23T10:11:08Z</time>
      </trkpt>
      <trkpt lat="47.28029" lon="-1.66086">
        <ele>61.18</ele>
        <time>2013-12-23T10:11:10Z</time>
      </trkpt>
      <trkpt lat="47.28039" lon="-1.66086">
        <ele>60.22</ele>
        <time>2013-12-23T10:11:12Z</time>
      </trkpt>
      <trkpt lat="47.2805" lon="-1.66086">
        <ele>59.74</ele>
        <time>2013-12-23T10:11:14Z</time>
      </trkpt>
      <trkpt lat="47.28059" lon="-1.66087">
        <ele>59.74</ele>
        <time>2013-12-23T10:11:16Z</time>
      </trkpt>
      <trkpt lat="47.28069" lon="-1.66086">
        <ele>59.74</ele>
        <time>2013-12-23T10:11:18Z</time>
      </trkpt>
      <trkpt lat="47.28079" lon="-1.66086">
        <ele>59.74</ele>
        <time>2013-12-23T10:11:20Z</time>
      </trkpt>
      <trkpt lat="47.28089" lon="-1.66085">
        <ele>60.22</ele>
        <time>2013-12-23T10:11:22Z</time>
      </trkpt>
      <trkpt lat="47.28099" lon="-1.66085">
        <ele>59.74</ele>
        <time>2013-12-23T10:11:24Z</time>
      </trkpt>
      <trkpt lat="47.28112" lon="-1.66085">
        <ele>59.74</ele>
        <time>2013-12-23T10:11:27Z</time>
      </trkpt>
      <trkpt lat="47.28123" lon="-1.66092">
        <ele>58.78</ele>
        <time>2013-12-23T10:11:30Z</time>
      </trkpt>
      <trkpt lat="47.28127" lon="-1.66109">
        <ele>58.78</ele>
        <time>2013-12-23T10:11:33Z</time>
      </trkpt>
      <trkpt lat="47.2813" lon="-1.66123">
        <ele>58.78</ele>
        <time>2013-12-23T10:11:35Z</time>
      </trkpt>
      <trkpt lat="47.28133" lon="-1.66137">
        <ele>58.78</ele>
        <time>2013-12-23T10:11:37Z</time>
      </trkpt>
      <trkpt lat="47.28136" lon="-1.6615">
        <ele>58.78</ele>
        <time>2013-12-23T10:11:39Z</time>
      </trkpt>
      <trkpt lat="47.28138" lon="-1.66163">
        <ele>58.78</ele>
        <time>2013-12-23T10:11:41Z</time>
      </trkpt>
      <trkpt lat="47.2814" lon="-1.66176">
        <ele>58.3</ele>
        <time>2013-12-23T10:11:43Z</time>
      </trkpt>
      <trkpt lat="47.28144" lon="-1.66195">
        <ele>58.3</ele>
        <time>2013-12-23T10:11:46Z</time>
      </trkpt>
      <trkpt lat="47.28147" lon="-1.66208">
        <ele>58.3</ele>
        <time>2013-12-23T10:11:48Z</time>
      </trkpt>
      <trkpt lat="47.2815" lon="-1.66221">
        <ele>58.3</ele>
        <time>2013-12-23T10:11:50Z</time>
      </trkpt>
      <trkpt lat="47.28153" lon="-1.6624">
        <ele>58.3</ele>
        <time>2013-12-23T10:11:53Z</time>
      </trkpt>
      <trkpt lat="47.28156" lon="-1.66253">
        <ele>58.3</ele>
        <time>2013-12-23T10:11:55Z</time>
      </trkpt>
      <trkpt lat="47.28159" lon="-1.66266">
        <ele>58.78</ele>
        <time>2013-12-23T10:11:57Z</time>
      </trkpt>
      <trkpt lat="47.28163" lon="-1.66283">
        <ele>58.78</ele>
        <time>2013-12-23T10:12:00Z</time>
      </trkpt>
      <trkpt lat="47.28166" lon="-1.66297">
        <ele>59.26</ele>
        <time>2013-12-23T10:12:03Z</time>
      </trkpt>
      <trkpt lat="47.28168" lon="-1.66311">
        <ele>59.26</ele>
        <time>2013-12-23T10:12:06Z</time>
      </trkpt>
      <trkpt lat="47.28171" lon="-1.66326">
        <ele>59.26</ele>
        <time>2013-12-23T10:12:09Z</time>
      </trkpt>
      <trkpt lat="47.28175" lon="-1.66342">
        <ele>59.74</ele>
        <time>2013-12-23T10:12:12Z</time>
      </trkpt>
      <trkpt lat="47.28179" lon="-1.66356">
        <ele>59.74</ele>
        <time>2013-12-23T10:12:15Z</time>
      </trkpt>
      <trkpt lat="47.28181" lon="-1.6637">
        <ele>60.22</ele>
        <time>2013-12-23T10:12:20Z</time>
      </trkpt>
      <trkpt lat="47.28173" lon="-1.66379">
        <ele>60.7</ele>
        <time>2013-12-23T10:12:23Z</time>
      </trkpt>
      <trkpt lat="47.28162" lon="-1.66388">
        <ele>61.66</ele>
        <time>2013-12-23T10:12:26Z</time>
      </trkpt>
      <trkpt lat="47.28154" lon="-1.66395">
        <ele>61.66</ele>
        <time>2013-12-23T10:12:28Z</time>
      </trkpt>
      <trkpt lat="47.28145" lon="-1.66402">
        <ele>61.18</ele>
        <time>2013-12-23T10:12:30Z</time>
      </trkpt>
      <trkpt lat="47.28136" lon="-1.66409">
        <ele>61.66</ele>
        <time>2013-12-23T10:12:32Z</time>
      </trkpt>
      <trkpt lat="47.28128" lon="-1.66416">
        <ele>62.14</ele>
        <time>2013-12-23T10:12:34Z</time>
      </trkpt>
      <trkpt lat="47.28118" lon="-1.66423">
        <ele>62.62</ele>
        <time>2013-12-23T10:12:36Z</time>
      </trkpt>
      <trkpt lat="47.2811" lon="-1.6643">
        <ele>62.62</ele>
        <time>2013-12-23T10:12:38Z</time>
      </trkpt>
      <trkpt lat="47.28101" lon="-1.66437">
        <ele>62.62</ele>
        <time>2013-12-23T10:12:40Z</time>
      </trkpt>
      <trkpt lat="47.28092" lon="-1.66444">
        <ele>62.14</ele>
        <time>2013-12-23T10:12:42Z</time>
      </trkpt>
      <trkpt lat="47.28083" lon="-1.66451">
        <ele>62.14</ele>
        <time>2013-12-23T10:12:44Z</time>
      </trkpt>
      <trkpt lat="47.28073" lon="-1.66458">
        <ele>62.14</ele>
        <time>2013-12-23T10:12:46Z</time>
      </trkpt>
      <trkpt lat="47.28064" lon="-1.66463">
        <ele>62.14</ele>
        <time>2013-12-23T10:12:48Z</time>
      </trkpt>
      <trkpt lat="47.28055" lon="-1.66468">
        <ele>61.66</ele>
        <time>2013-12-23T10:12:50Z</time>
      </trkpt>
      <trkpt lat="47.28045" lon="-1.66472">
        <ele>62.14</ele>
        <time>2013-12-23T10:12:52Z</time>
      </trkpt>
      <trkpt lat="47.28037" lon="-1.66476">
        <ele>62.62</ele>
        <time>2013-12-23T10:12:54Z</time>
      </trkpt>
      <trkpt lat="47.28026" lon="-1.66481">
        <ele>62.62</ele>
        <time>2013-12-23T10:12:57Z</time>
      </trkpt>
      <trkpt lat="47.28016" lon="-1.66486">
        <ele>63.1</ele>
        <time>2013-12-23T10:13:00Z</time>
      </trkpt>
      <trkpt lat="47.28005" lon="-1.6649">
        <ele>64.07</ele>
        <time>2013-12-23T10:13:03Z</time>
      </trkpt>
      <trkpt lat="47.27996" lon="-1.66495">
        <ele>64.55</ele>
        <time>2013-12-23T10:13:06Z</time>
      </trkpt>
      <trkpt lat="47.27994" lon="-1.66506">
        <ele>63.58</ele>
        <time>2013-12-23T10:13:09Z</time>
      </trkpt>
      <trkpt lat="47.28" lon="-1.66516">
        <ele>63.58</ele>
        <time>2013-12-23T10:13:12Z</time>
      </trkpt>
      <trkpt lat="47.28009" lon="-1.66526">
        <ele>63.1</ele>
        <time>2013-12-23T10:13:15Z</time>
      </trkpt>
      <trkpt lat="47.28016" lon="-1.66536">
        <ele>62.62</ele>
        <time>2013-12-23T10:13:18Z</time>
      </trkpt>
      <trkpt lat="47.28025" lon="-1.66548">
        <ele>63.1</ele>
        <time>2013-12-23T10:13:21Z</time>
      </trkpt>
      <trkpt lat="47.28034" lon="-1.6656">
        <ele>64.07</ele>
        <time>2013-12-23T10:13:24Z</time>
      </trkpt>
      <trkpt lat="47.28044" lon="-1.66572">
        <ele>64.55</ele>
        <time>2013-12-23T10:13:27Z</time>
      </trkpt>
      <trkpt lat="47.28052" lon="-1.66583">
        <ele>65.03</ele>
        <time>2013-12-23T10:13:30Z</time>
      </trkpt>
      <trkpt lat="47.28062" lon="-1.66593">
        <ele>65.51</ele>
        <time>2013-12-23T10:13:33Z</time>
      </trkpt>
      <trkpt lat="47.28071" lon="-1.66605">
        <ele>65.99</ele>
        <time>2013-12-23T10:13:36Z</time>
      </trkpt>
      <trkpt lat="47.2808" lon="-1.66618">
        <ele>66.95</ele>
        <time>2013-12-23T10:13:39Z</time>
      </trkpt>
      <trkpt lat="47.28088" lon="-1.66629">
        <ele>66.95</ele>
        <time>2013-12-23T10:13:42Z</time>
      </trkpt>
      <trkpt lat="47.2809" lon="-1.66642">
        <ele>66.47</ele>
        <time>2013-12-23T10:13:45Z</time>
      </trkpt>
      <trkpt lat="47.28088" lon="-1.66655">
        <ele>67.43</ele>
        <time>2013-12-23T10:13:48Z</time>
      </trkpt>
      <trkpt lat="47.28086" lon="-1.66672">
        <ele>67.91</ele>
        <time>2013-12-23T10:13:52Z</time>
      </trkpt>
      <trkpt lat="47.28084" lon="-1.66693">
        <ele>66.95</ele>
        <time>2013-12-23T10:13:56Z</time>
      </trkpt>
      <trkpt lat="47.28082" lon="-1.6671">
        <ele>65.99</ele>
        <time>2013-12-23T10:13:59Z</time>
      </trkpt>
      <trkpt lat="47.2808" lon="-1.66729">
        <ele>65.03</ele>
        <time>2013-12-23T10:14:02Z</time>
      </trkpt>
      <trkpt lat="47.28077" lon="-1.66746">
        <ele>64.55</ele>
        <time>2013-12-23T10:14:05Z</time>
      </trkpt>
      <trkpt lat="47.28073" lon="-1.66763">
        <ele>63.58</ele>
        <time>2013-12-23T10:14:08Z</time>
      </trkpt>
      <trkpt lat="47.28071" lon="-1.66779">
        <ele>63.1</ele>
        <time>2013-12-23T10:14:11Z</time>
      </trkpt>
      <trkpt lat="47.2807" lon="-1.66797">
        <ele>62.14</ele>
        <time>2013-12-23T10:14:14Z</time>
      </trkpt>
      <trkpt lat="47.28067" lon="-1.66814">
        <ele>62.14</ele>
        <time>2013-12-23T10:14:17Z</time>
      </trkpt>
      <trkpt lat="47.28065" lon="-1.66833">
        <ele>60.7</ele>
        <time>2013-12-23T10:14:20Z</time>
      </trkpt>
      <trkpt lat="47.28062" lon="-1.66851">
        <ele>60.22</ele>
        <time>2013-12-23T10:14:23Z</time>
      </trkpt>
      <trkpt lat="47.28059" lon="-1.66867">
        <ele>59.74</ele>
        <time>2013-12-23T10:14:26Z</time>
      </trkpt>
      <trkpt lat="47.28057" lon="-1.66885">
        <ele>59.26</ele>
        <time>2013-12-23T10:14:29Z</time>
      </trkpt>
      <trkpt lat="47.28055" lon="-1.669">
        <ele>59.74</ele>
        <time>2013-12-23T10:14:32Z</time>
      </trkpt>
      <trkpt lat="47.28052" lon="-1.66917">
        <ele>60.22</ele>
        <time>2013-12-23T10:14:35Z</time>
      </trkpt>
      <trkpt lat="47.28049" lon="-1.66936">
        <ele>60.7</ele>
        <time>2013-12-23T10:14:38Z</time>
      </trkpt>
      <trkpt lat="47.28045" lon="-1.66953">
        <ele>61.18</ele>
        <time>2013-12-23T10:14:41Z</time>
      </trkpt>
      <trkpt lat="47.28041" lon="-1.66971">
        <ele>61.18</ele>
        <time>2013-12-23T10:14:44Z</time>
      </trkpt>
      <trkpt lat="47.28037" lon="-1.66989">
        <ele>60.7</ele>
        <time>2013-12-23T10:14:47Z</time>
      </trkpt>
      <trkpt lat="47.28033" lon="-1.67005">
        <ele>61.18</ele>
        <time>2013-12-23T10:14:50Z</time>
      </trkpt>
      <trkpt lat="47.2803" lon="-1.67021">
        <ele>61.18</ele>
        <time>2013-12-23T10:14:53Z</time>
      </trkpt>
      <trkpt lat="47.28025" lon="-1.67038">
        <ele>61.66</ele>
        <time>2013-12-23T10:14:56Z</time>
      </trkpt>
      <trkpt lat="47.2802" lon="-1.67052">
        <ele>61.18</ele>
        <time>2013-12-23T10:14:59Z</time>
      </trkpt>
      <trkpt lat="47.28016" lon="-1.67067">
        <ele>61.18</ele>
        <time>2013-12-23T10:15:02Z</time>
      </trkpt>
      <trkpt lat="47.28013" lon="-1.67082">
        <ele>61.66</ele>
        <time>2013-12-23T10:15:05Z</time>
      </trkpt>
      <trkpt lat="47.2801" lon="-1.67096">
        <ele>62.62</ele>
        <time>2013-12-23T10:15:08Z</time>
      </trkpt>
      <trkpt lat="47.28007" lon="-1.67112">
        <ele>62.62</ele>
        <time>2013-12-23T10:15:11Z</time>
      </trkpt>
      <trkpt lat="47.28003" lon="-1.67128">
        <ele>63.1</ele>
        <time>2013-12-23T10:15:14Z</time>
      </trkpt>
      <trkpt lat="47.27998" lon="-1.67144">
        <ele>63.58</ele>
        <time>2013-12-23T10:15:17Z</time>
      </trkpt>
      <trkpt lat="47.27993" lon="-1.6716">
        <ele>63.58</ele>
        <time>2013-12-23T10:15:20Z</time>
      </trkpt>
      <trkpt lat="47.27989" lon="-1.67175">
        <ele>64.55</ele>
        <time>2013-12-23T10:15:23Z</time>
      </trkpt>
      <trkpt lat="47.27984" lon="-1.67191">
        <ele>64.55</ele>
        <time>2013-12-23T10:15:26Z</time>
      </trkpt>
      <trkpt lat="47.2798" lon="-1.67208">
        <ele>65.03</ele>
        <time>2013-12-23T10:15:29Z</time>
      </trkpt>
      <trkpt lat="47.27975" lon="-1.67223">
        <ele>64.55</ele>
        <time>2013-12-23T10:15:32Z</time>
      </trkpt>
      <trkpt lat="47.2797" lon="-1.67239">
        <ele>64.55</ele>
        <time>2013-12-23T10:15:35Z</time>
      </trkpt>
      <trkpt lat="47.27965" lon="-1.67256">
        <ele>64.55</ele>
        <time>2013-12-23T10:15:38Z</time>
      </trkpt>
      <trkpt lat="47.27959" lon="-1.67275">
        <ele>64.55</ele>
        <time>2013-12-23T10:15:41Z</time>
      </trkpt>
      <trkpt lat="47.27954" lon="-1.67293">
        <ele>64.07</ele>
        <time>2013-12-23T10:15:44Z</time>
      </trkpt>
      <trkpt lat="47.27949" lon="-1.67311">
        <ele>64.07</ele>
        <time>2013-12-23T10:15:47Z</time>
      </trkpt>
      <trkpt lat="47.27944" lon="-1.6733">
        <ele>63.58</ele>
        <time>2013-12-23T10:15:50Z</time>
      </trkpt>
      <trkpt lat="47.2794" lon="-1.67343">
        <ele>62.62</ele>
        <time>2013-12-23T10:15:52Z</time>
      </trkpt>
      <trkpt lat="47.27936" lon="-1.67356">
        <ele>62.14</ele>
        <time>2013-12-23T10:15:54Z</time>
      </trkpt>
      <trkpt lat="47.27929" lon="-1.67375">
        <ele>61.66</ele>
        <time>2013-12-23T10:15:57Z</time>
      </trkpt>
      <trkpt lat="47.27924" lon="-1.67392">
        <ele>61.66</ele>
        <time>2013-12-23T10:16:00Z</time>
      </trkpt>
      <trkpt lat="47.27919" lon="-1.67407">
        <ele>61.66</ele>
        <time>2013-12-23T10:16:03Z</time>
      </trkpt>
      <trkpt lat="47.27915" lon="-1.67419">
        <ele>62.14</ele>
        <time>2013-12-23T10:16:06Z</time>
      </trkpt>
      <trkpt lat="47.27917" lon="-1.6743">
        <ele>62.14</ele>
        <time>2013-12-23T10:16:12Z</time>
      </trkpt>
      <trkpt lat="47.2793" lon="-1.67433">
        <ele>61.18</ele>
        <time>2013-12-23T10:16:16Z</time>
      </trkpt>
      <trkpt lat="47.27943" lon="-1.67437">
        <ele>60.7</ele>
        <time>2013-12-23T10:16:19Z</time>
      </trkpt>
      <trkpt lat="47.27952" lon="-1.6744">
        <ele>60.22</ele>
        <time>2013-12-23T10:16:21Z</time>
      </trkpt>
      <trkpt lat="47.27962" lon="-1.67444">
        <ele>59.74</ele>
        <time>2013-12-23T10:16:23Z</time>
      </trkpt>
      <trkpt lat="47.27971" lon="-1.67449">
        <ele>59.26</ele>
        <time>2013-12-23T10:16:25Z</time>
      </trkpt>
      <trkpt lat="47.2798" lon="-1.67453">
        <ele>59.74</ele>
        <time>2013-12-23T10:16:27Z</time>
      </trkpt>
      <trkpt lat="47.27993" lon="-1.6746">
        <ele>59.74</ele>
        <time>2013-12-23T10:16:30Z</time>
      </trkpt>
      <trkpt lat="47.28001" lon="-1.67466">
        <ele>59.74</ele>
        <time>2013-12-23T10:16:32Z</time>
      </trkpt>
      <trkpt lat="47.28008" lon="-1.67474">
        <ele>59.74</ele>
        <time>2013-12-23T10:16:34Z</time>
      </trkpt>
      <trkpt lat="47.28011" lon="-1.67487">
        <ele>59.74</ele>
        <time>2013-12-23T10:16:36Z</time>
      </trkpt>
      <trkpt lat="47.2801" lon="-1.67508">
        <ele>58.78</ele>
        <time>2013-12-23T10:16:39Z</time>
      </trkpt>
      <trkpt lat="47.28009" lon="-1.67522">
        <ele>58.3</ele>
        <time>2013-12-23T10:16:41Z</time>
      </trkpt>
      <trkpt lat="47.28007" lon="-1.67536">
        <ele>58.3</ele>
        <time>2013-12-23T10:16:43Z</time>
      </trkpt>
      <trkpt lat="47.28006" lon="-1.6755">
        <ele>58.3</ele>
        <time>2013-12-23T10:16:45Z</time>
      </trkpt>
      <trkpt lat="47.28005" lon="-1.67564">
        <ele>57.82</ele>
        <time>2013-12-23T10:16:47Z</time>
      </trkpt>
      <trkpt lat="47.28004" lon="-1.67579">
        <ele>57.34</ele>
        <time>2013-12-23T10:16:49Z</time>
      </trkpt>
      <trkpt lat="47.28003" lon="-1.67594">
        <ele>57.34</ele>
        <time>2013-12-23T10:16:51Z</time>
      </trkpt>
      <trkpt lat="47.28002" lon="-1.67609">
        <ele>56.86</ele>
        <time>2013-12-23T10:16:53Z</time>
      </trkpt>
      <trkpt lat="47.28001" lon="-1.67624">
        <ele>56.86</ele>
        <time>2013-12-23T10:16:55Z</time>
      </trkpt>
      <trkpt lat="47.27999" lon="-1.6764">
        <ele>55.89</ele>
        <time>2013-12-23T10:16:57Z</time>
      </trkpt>
      <trkpt lat="47.27998" lon="-1.67655">
        <ele>55.89</ele>
        <time>2013-12-23T10:16:59Z</time>
      </trkpt>
      <trkpt lat="47.27997" lon="-1.67672">
        <ele>55.41</ele>
        <time>2013-12-23T10:17:01Z</time>
      </trkpt>
      <trkpt lat="47.27996" lon="-1.67688">
        <ele>54.93</ele>
        <time>2013-12-23T10:17:03Z</time>
      </trkpt>
      <trkpt lat="47.27995" lon="-1.67703">
        <ele>54.45</ele>
        <time>2013-12-23T10:17:05Z</time>
      </trkpt>
      <trkpt lat="47.27993" lon="-1.67718">
        <ele>54.45</ele>
        <time>2013-12-23T10:17:07Z</time>
      </trkpt>
      <trkpt lat="47.27988" lon="-1.67732">
        <ele>53.97</ele>
        <time>2013-12-23T10:17:09Z</time>
      </trkpt>
      <trkpt lat="47.2798" lon="-1.67741">
        <ele>53.49</ele>
        <time>2013-12-23T10:17:11Z</time>
      </trkpt>
      <trkpt lat="47.27969" lon="-1.67746">
        <ele>53.49</ele>
        <time>2013-12-23T10:17:13Z</time>
      </trkpt>
      <trkpt lat="47.27959" lon="-1.67747">
        <ele>53.49</ele>
        <time>2013-12-23T10:17:15Z</time>
      </trkpt>
      <trkpt lat="47.2795" lon="-1.67747">
        <ele>53.01</ele>
        <time>2013-12-23T10:17:17Z</time>
      </trkpt>
      <trkpt lat="47.27936" lon="-1.67748">
        <ele>53.49</ele>
        <time>2013-12-23T10:17:20Z</time>
      </trkpt>
      <trkpt lat="47.27925" lon="-1.6775">
        <ele>53.97</ele>
        <time>2013-12-23T10:17:23Z</time>
      </trkpt>
      <trkpt lat="47.27915" lon="-1.67755">
        <ele>54.93</ele>
        <time>2013-12-23T10:17:26Z</time>
      </trkpt>
      <trkpt lat="47.27905" lon="-1.6776">
        <ele>55.41</ele>
        <time>2013-12-23T10:17:29Z</time>
      </trkpt>
      <trkpt lat="47.27896" lon="-1.67765">
        <ele>55.89</ele>
        <time>2013-12-23T10:17:32Z</time>
      </trkpt>
      <trkpt lat="47.27886" lon="-1.67769">
        <ele>56.86</ele>
        <time>2013-12-23T10:17:35Z</time>
      </trkpt>
      <trkpt lat="47.27876" lon="-1.67775">
        <ele>56.86</ele>
        <time>2013-12-23T10:17:38Z</time>
      </trkpt>
      <trkpt lat="47.27866" lon="-1.67778">
        <ele>57.34</ele>
        <time>2013-12-23T10:17:41Z</time>
      </trkpt>
      <trkpt lat="47.27856" lon="-1.67775">
        <ele>58.3</ele>
        <time>2013-12-23T10:17:44Z</time>
      </trkpt>
      <trkpt lat="47.27847" lon="-1.6777">
        <ele>58.78</ele>
        <time>2013-12-23T10:17:47Z</time>
      </trkpt>
      <trkpt lat="47.27837" lon="-1.67771">
        <ele>59.26</ele>
        <time>2013-12-23T10:17:50Z</time>
      </trkpt>
      <trkpt lat="47.27827" lon="-1.67774">
        <ele>59.26</ele>
        <time>2013-12-23T10:17:53Z</time>
      </trkpt>
      <trkpt lat="47.27818" lon="-1.6778">
        <ele>59.74</ele>
        <time>2013-12-23T10:17:56Z</time>
      </trkpt>
      <trkpt lat="47.27807" lon="-1.67787">
        <ele>59.26</ele>
        <time>2013-12-23T10:17:59Z</time>
      </trkpt>
      <trkpt lat="47.27797" lon="-1.67796">
        <ele>58.78</ele>
        <time>2013-12-23T10:18:02Z</time>
      </trkpt>
      <trkpt lat="47.27787" lon="-1.67807">
        <ele>58.3</ele>
        <time>2013-12-23T10:18:05Z</time>
      </trkpt>
      <trkpt lat="47.27779" lon="-1.67816">
        <ele>57.82</ele>
        <time>2013-12-23T10:18:07Z</time>
      </trkpt>
      <trkpt lat="47.27772" lon="-1.67824">
        <ele>57.34</ele>
        <time>2013-12-23T10:18:09Z</time>
      </trkpt>
      <trkpt lat="47.27764" lon="-1.67833">
        <ele>57.34</ele>
        <time>2013-12-23T10:18:11Z</time>
      </trkpt>
      <trkpt lat="47.27754" lon="-1.67844">
        <ele>56.86</ele>
        <time>2013-12-23T10:18:14Z</time>
      </trkpt>
      <trkpt lat="47.27745" lon="-1.67855">
        <ele>56.86</ele>
        <time>2013-12-23T10:18:17Z</time>
      </trkpt>
      <trkpt lat="47.27736" lon="-1.67867">
        <ele>56.86</ele>
        <time>2013-12-23T10:18:20Z</time>
      </trkpt>
      <trkpt lat="47.27727" lon="-1.67877">
        <ele>57.34</ele>
        <time>2013-12-23T10:18:23Z</time>
      </trkpt>
      <trkpt lat="47.27718" lon="-1.6789">
        <ele>57.82</ele>
        <time>2013-12-23T10:18:26Z</time>
      </trkpt>
      <trkpt lat="47.27709" lon="-1.67904">
        <ele>58.3</ele>
        <time>2013-12-23T10:18:29Z</time>
      </trkpt>
      <trkpt lat="47.277" lon="-1.67918">
        <ele>58.78</ele>
        <time>2013-12-23T10:18:32Z</time>
      </trkpt>
      <trkpt lat="47.27691" lon="-1.67931">
        <ele>59.26</ele>
        <time>2013-12-23T10:18:35Z</time>
      </trkpt>
      <trkpt lat="47.27683" lon="-1.67944">
        <ele>60.22</ele>
        <time>2013-12-23T10:18:38Z</time>
      </trkpt>
      <trkpt lat="47.27675" lon="-1.67956">
        <ele>60.7</ele>
        <time>2013-12-23T10:18:41Z</time>
      </trkpt>
      <trkpt lat="47.27666" lon="-1.67968">
        <ele>60.7</ele>
        <time>2013-12-23T10:18:44Z</time>
      </trkpt>
      <trkpt lat="47.27658" lon="-1.6798">
        <ele>61.18</ele>
        <time>2013-12-23T10:18:47Z</time>
      </trkpt>
      <trkpt lat="47.2765" lon="-1.67992">
        <ele>61.66</ele>
        <time>2013-12-23T10:18:50Z</time>
      </trkpt>
      <trkpt lat="47.27642" lon="-1.68003">
        <ele>62.62</ele>
        <time>2013-12-23T10:18:53Z</time>
      </trkpt>
      <trkpt lat="47.27632" lon="-1.68012">
        <ele>63.1</ele>
        <time>2013-12-23T10:18:56Z</time>
      </trkpt>
      <trkpt lat="47.27621" lon="-1.68017">
        <ele>63.1</ele>
        <time>2013-12-23T10:18:59Z</time>
      </trkpt>
      <trkpt lat="47.2761" lon="-1.6802">
        <ele>63.1</ele>
        <time>2013-12-23T10:19:02Z</time>
      </trkpt>
      <trkpt lat="47.27598" lon="-1.6802">
        <ele>62.62</ele>
        <time>2013-12-23T10:19:05Z</time>
      </trkpt>
      <trkpt lat="47.27587" lon="-1.68018">
        <ele>62.62</ele>
        <time>2013-12-23T10:19:08Z</time>
      </trkpt>
      <trkpt lat="47.27575" lon="-1.68016">
        <ele>62.14</ele>
        <time>2013-12-23T10:19:11Z</time>
      </trkpt>
      <trkpt lat="47.27566" lon="-1.68017">
        <ele>62.14</ele>
        <time>2013-12-23T10:19:14Z</time>
      </trkpt>
      <trkpt lat="47.27558" lon="-1.68031">
        <ele>62.14</ele>
        <time>2013-12-23T10:19:18Z</time>
      </trkpt>
      <trkpt lat="47.27549" lon="-1.68041">
        <ele>63.1</ele>
        <time>2013-12-23T10:19:22Z</time>
      </trkpt>
      <trkpt lat="47.27538" lon="-1.68047">
        <ele>63.1</ele>
        <time>2013-12-23T10:19:25Z</time>
      </trkpt>
      <trkpt lat="47.27532" lon="-1.68061">
        <ele>62.62</ele>
        <time>2013-12-23T10:19:28Z</time>
      </trkpt>
      <trkpt lat="47.27529" lon="-1.68077">
        <ele>62.14</ele>
        <time>2013-12-23T10:19:31Z</time>
      </trkpt>
      <trkpt lat="47.27526" lon="-1.68096">
        <ele>61.66</ele>
        <time>2013-12-23T10:19:34Z</time>
      </trkpt>
      <trkpt lat="47.27523" lon="-1.68114">
        <ele>60.7</ele>
        <time>2013-12-23T10:19:37Z</time>
      </trkpt>
      <trkpt lat="47.27519" lon="-1.68133">
        <ele>60.22</ele>
        <time>2013-12-23T10:19:40Z</time>
      </trkpt>
      <trkpt lat="47.27516" lon="-1.68153">
        <ele>60.22</ele>
        <time>2013-12-23T10:19:43Z</time>
      </trkpt>
      <trkpt lat="47.27513" lon="-1.68172">
        <ele>60.22</ele>
        <time>2013-12-23T10:19:46Z</time>
      </trkpt>
      <trkpt lat="47.27511" lon="-1.6819">
        <ele>59.74</ele>
        <time>2013-12-23T10:19:49Z</time>
      </trkpt>
      <trkpt lat="47.27509" lon="-1.6821">
        <ele>58.78</ele>
        <time>2013-12-23T10:19:52Z</time>
      </trkpt>
      <trkpt lat="47.27508" lon="-1.68228">
        <ele>58.3</ele>
        <time>2013-12-23T10:19:55Z</time>
      </trkpt>
      <trkpt lat="47.27507" lon="-1.68247">
        <ele>57.82</ele>
        <time>2013-12-23T10:19:58Z</time>
      </trkpt>
      <trkpt lat="47.27506" lon="-1.68265">
        <ele>57.34</ele>
        <time>2013-12-23T10:20:01Z</time>
      </trkpt>
      <trkpt lat="47.27506" lon="-1.68281">
        <ele>56.86</ele>
        <time>2013-12-23T10:20:04Z</time>
      </trkpt>
      <trkpt lat="47.27506" lon="-1.68299">
        <ele>56.37</ele>
        <time>2013-12-23T10:20:07Z</time>
      </trkpt>
      <trkpt lat="47.27506" lon="-1.68317">
        <ele>55.41</ele>
        <time>2013-12-23T10:20:10Z</time>
      </trkpt>
      <trkpt lat="47.27506" lon="-1.68335">
        <ele>54.93</ele>
        <time>2013-12-23T10:20:13Z</time>
      </trkpt>
      <trkpt lat="47.27502" lon="-1.68349">
        <ele>54.45</ele>
        <time>2013-12-23T10:20:16Z</time>
      </trkpt>
      <trkpt lat="47.27496" lon="-1.68361">
        <ele>53.97</ele>
        <time>2013-12-23T10:20:20Z</time>
      </trkpt>
      <trkpt lat="47.27495" lon="-1.68361">
        <ele>52.05</ele>
        <time>2013-12-23T10:20:36Z</time>
      </trkpt>
      <trkpt lat="47.27495" lon="-1.68363">
        <ele>51.57</ele>
        <time>2013-12-23T10:23:07Z</time>
      </trkpt>
      <trkpt lat="47.27488" lon="-1.68373">
        <ele>52.05</ele>
        <time>2013-12-23T10:23:21Z</time>
      </trkpt>
      <trkpt lat="47.2748" lon="-1.68389">
        <ele>52.53</ele>
        <time>2013-12-23T10:23:39Z</time>
      </trkpt>
      <trkpt lat="47.27469" lon="-1.68405">
        <ele>50.61</ele>
        <time>2013-12-23T10:23:53Z</time>
      </trkpt>
      <trkpt lat="47.27463" lon="-1.68415">
        <ele>50.13</ele>
        <time>2013-12-23T10:23:57Z</time>
      </trkpt>
      <trkpt lat="47.27469" lon="-1.68428">
        <ele>46.76</ele>
        <time>2013-12-23T10:24:03Z</time>
      </trkpt>
      <trkpt lat="47.27474" lon="-1.68442">
        <ele>43.88</ele>
        <time>2013-12-23T10:24:08Z</time>
      </trkpt>
      <trkpt lat="47.27475" lon="-1.6846">
        <ele>42.44</ele>
        <time>2013-12-23T10:24:13Z</time>
      </trkpt>
      <trkpt lat="47.27473" lon="-1.68478">
        <ele>41.47</ele>
        <time>2013-12-23T10:24:17Z</time>
      </trkpt>
      <trkpt lat="47.27464" lon="-1.68494">
        <ele>42.44</ele>
        <time>2013-12-23T10:24:21Z</time>
      </trkpt>
      <trkpt lat="47.27455" lon="-1.68505">
        <ele>43.4</ele>
        <time>2013-12-23T10:24:26Z</time>
      </trkpt>
      <trkpt lat="47.27443" lon="-1.68518">
        <ele>44.84</ele>
        <time>2013-12-23T10:24:49Z</time>
      </trkpt>
      <trkpt lat="47.27441" lon="-1.68544">
        <ele>50.61</ele>
        <time>2013-12-23T10:25:34Z</time>
      </trkpt>
      <trkpt lat="47.27434" lon="-1.68552">
        <ele>53.49</ele>
        <time>2013-12-23T10:25:41Z</time>
      </trkpt>
      <trkpt lat="47.27426" lon="-1.68564">
        <ele>53.97</ele>
        <time>2013-12-23T10:25:48Z</time>
      </trkpt>
      <trkpt lat="47.27411" lon="-1.68568">
        <ele>55.41</ele>
        <time>2013-12-23T10:26:01Z</time>
      </trkpt>
      <trkpt lat="47.27401" lon="-1.68584">
        <ele>56.37</ele>
        <time>2013-12-23T10:26:14Z</time>
      </trkpt>
      <trkpt lat="47.27392" lon="-1.686">
        <ele>57.82</ele>
        <time>2013-12-23T10:26:22Z</time>
      </trkpt>
      <trkpt lat="47.27383" lon="-1.68615">
        <ele>58.3</ele>
        <time>2013-12-23T10:26:28Z</time>
      </trkpt>
      <trkpt lat="47.27373" lon="-1.68626">
        <ele>57.82</ele>
        <time>2013-12-23T10:26:34Z</time>
      </trkpt>
      <trkpt lat="47.27365" lon="-1.68637">
        <ele>57.34</ele>
        <time>2013-12-23T10:26:40Z</time>
      </trkpt>
      <trkpt lat="47.27358" lon="-1.68647">
        <ele>56.86</ele>
        <time>2013-12-23T10:26:46Z</time>
      </trkpt>
      <trkpt lat="47.27351" lon="-1.68657">
        <ele>56.86</ele>
        <time>2013-12-23T10:26:51Z</time>
      </trkpt>
      <trkpt lat="47.27344" lon="-1.68667">
        <ele>56.86</ele>
        <time>2013-12-23T10:26:56Z</time>
      </trkpt>
      <trkpt lat="47.27337" lon="-1.68676">
        <ele>56.86</ele>
        <time>2013-12-23T10:27:00Z</time>
      </trkpt>
      <trkpt lat="47.2733" lon="-1.68685">
        <ele>56.86</ele>
        <time>2013-12-23T10:27:04Z</time>
      </trkpt>
      <trkpt lat="47.27322" lon="-1.68694">
        <ele>56.86</ele>
        <time>2013-12-23T10:27:08Z</time>
      </trkpt>
      <trkpt lat="47.27314" lon="-1.68702">
        <ele>57.34</ele>
        <time>2013-12-23T10:27:12Z</time>
      </trkpt>
      <trkpt lat="47.27305" lon="-1.68706">
        <ele>57.82</ele>
        <time>2013-12-23T10:27:16Z</time>
      </trkpt>
      <trkpt lat="47.27295" lon="-1.6871">
        <ele>57.82</ele>
        <time>2013-12-23T10:27:20Z</time>
      </trkpt>
      <trkpt lat="47.27287" lon="-1.68715">
        <ele>58.3</ele>
        <time>2013-12-23T10:27:24Z</time>
      </trkpt>
      <trkpt lat="47.27278" lon="-1.68723">
        <ele>59.26</ele>
        <time>2013-12-23T10:27:29Z</time>
      </trkpt>
      <trkpt lat="47.27269" lon="-1.68729">
        <ele>59.26</ele>
        <time>2013-12-23T10:27:34Z</time>
      </trkpt>
      <trkpt lat="47.2726" lon="-1.68737">
        <ele>60.22</ele>
        <time>2013-12-23T10:27:39Z</time>
      </trkpt>
      <trkpt lat="47.27251" lon="-1.68747">
        <ele>61.18</ele>
        <time>2013-12-23T10:27:44Z</time>
      </trkpt>
      <trkpt lat="47.27243" lon="-1.68758">
        <ele>62.62</ele>
        <time>2013-12-23T10:27:49Z</time>
      </trkpt>
      <trkpt lat="47.27235" lon="-1.68769">
        <ele>64.07</ele>
        <time>2013-12-23T10:27:54Z</time>
      </trkpt>
      <trkpt lat="47.27228" lon="-1.68779">
        <ele>65.51</ele>
        <time>2013-12-23T10:27:59Z</time>
      </trkpt>
      <trkpt lat="47.2722" lon="-1.6879">
        <ele>66.47</ele>
        <time>2013-12-23T10:28:04Z</time>
      </trkpt>
      <trkpt lat="47.27213" lon="-1.68801">
        <ele>68.39</ele>
        <time>2013-12-23T10:28:09Z</time>
      </trkpt>
      <trkpt lat="47.27207" lon="-1.68814">
        <ele>69.83</ele>
        <time>2013-12-23T10:28:14Z</time>
      </trkpt>
      <trkpt lat="47.27198" lon="-1.68822">
        <ele>68.87</ele>
        <time>2013-12-23T10:28:19Z</time>
      </trkpt>
      <trkpt lat="47.27191" lon="-1.68833">
        <ele>68.39</ele>
        <time>2013-12-23T10:28:23Z</time>
      </trkpt>
      <trkpt lat="47.27185" lon="-1.68846">
        <ele>67.91</ele>
        <time>2013-12-23T10:28:27Z</time>
      </trkpt>
      <trkpt lat="47.2718" lon="-1.68857">
        <ele>67.91</ele>
        <time>2013-12-23T10:28:31Z</time>
      </trkpt>
      <trkpt lat="47.27181" lon="-1.68871">
        <ele>67.91</ele>
        <time>2013-12-23T10:28:36Z</time>
      </trkpt>
      <trkpt lat="47.27192" lon="-1.68879">
        <ele>66.95</ele>
        <time>2013-12-23T10:28:40Z</time>
      </trkpt>
      <trkpt lat="47.27202" lon="-1.68885">
        <ele>66.95</ele>
        <time>2013-12-23T10:28:43Z</time>
      </trkpt>
      <trkpt lat="47.27212" lon="-1.6889">
        <ele>65.99</ele>
        <time>2013-12-23T10:28:46Z</time>
      </trkpt>
      <trkpt lat="47.27222" lon="-1.68896">
        <ele>65.99</ele>
        <time>2013-12-23T10:28:49Z</time>
      </trkpt>
      <trkpt lat="47.27231" lon="-1.68902">
        <ele>65.99</ele>
        <time>2013-12-23T10:28:52Z</time>
      </trkpt>
      <trkpt lat="47.27242" lon="-1.68909">
        <ele>66.47</ele>
        <time>2013-12-23T10:28:55Z</time>
      </trkpt>
      <trkpt lat="47.27252" lon="-1.68916">
        <ele>66.47</ele>
        <time>2013-12-23T10:28:58Z</time>
      </trkpt>
      <trkpt lat="47.27263" lon="-1.68922">
        <ele>65.99</ele>
        <time>2013-12-23T10:29:01Z</time>
      </trkpt>
      <trkpt lat="47.27275" lon="-1.68929">
        <ele>65.51</ele>
        <time>2013-12-23T10:29:04Z</time>
      </trkpt>
      <trkpt lat="47.27287" lon="-1.68935">
        <ele>65.03</ele>
        <time>2013-12-23T10:29:07Z</time>
      </trkpt>
      <trkpt lat="47.27298" lon="-1.6894">
        <ele>64.55</ele>
        <time>2013-12-23T10:29:10Z</time>
      </trkpt>
      <trkpt lat="47.2731" lon="-1.68947">
        <ele>64.07</ele>
        <time>2013-12-23T10:29:13Z</time>
      </trkpt>
      <trkpt lat="47.27321" lon="-1.68954">
        <ele>63.58</ele>
        <time>2013-12-23T10:29:16Z</time>
      </trkpt>
      <trkpt lat="47.27333" lon="-1.68959">
        <ele>63.1</ele>
        <time>2013-12-23T10:29:19Z</time>
      </trkpt>
      <trkpt lat="47.27342" lon="-1.68964">
        <ele>63.1</ele>
        <time>2013-12-23T10:29:21Z</time>
      </trkpt>
      <trkpt lat="47.27354" lon="-1.68971">
        <ele>62.62</ele>
        <time>2013-12-23T10:29:24Z</time>
      </trkpt>
      <trkpt lat="47.27367" lon="-1.68979">
        <ele>62.62</ele>
        <time>2013-12-23T10:29:27Z</time>
      </trkpt>
      <trkpt lat="47.27375" lon="-1.68984">
        <ele>62.14</ele>
        <time>2013-12-23T10:29:29Z</time>
      </trkpt>
      <trkpt lat="47.27387" lon="-1.68992">
        <ele>61.66</ele>
        <time>2013-12-23T10:29:32Z</time>
      </trkpt>
      <trkpt lat="47.27396" lon="-1.68997">
        <ele>61.18</ele>
        <time>2013-12-23T10:29:34Z</time>
      </trkpt>
      <trkpt lat="47.27404" lon="-1.69003">
        <ele>60.7</ele>
        <time>2013-12-23T10:29:36Z</time>
      </trkpt>
      <trkpt lat="47.27413" lon="-1.69009">
        <ele>60.7</ele>
        <time>2013-12-23T10:29:39Z</time>
      </trkpt>
      <trkpt lat="47.27419" lon="-1.69016">
        <ele>60.22</ele>
        <time>2013-12-23T10:29:43Z</time>
      </trkpt>
      <trkpt lat="47.2741" lon="-1.69025">
        <ele>60.22</ele>
        <time>2013-12-23T10:29:47Z</time>
      </trkpt>
      <trkpt lat="47.27401" lon="-1.69029">
        <ele>60.7</ele>
        <time>2013-12-23T10:29:50Z</time>
      </trkpt>
      <trkpt lat="47.27391" lon="-1.69033">
        <ele>60.7</ele>
        <time>2013-12-23T10:29:53Z</time>
      </trkpt>
      <trkpt lat="47.27381" lon="-1.69037">
        <ele>61.18</ele>
        <time>2013-12-23T10:29:56Z</time>
      </trkpt>
      <trkpt lat="47.27372" lon="-1.69041">
        <ele>61.66</ele>
        <time>2013-12-23T10:29:59Z</time>
      </trkpt>
      <trkpt lat="47.27362" lon="-1.69045">
        <ele>62.62</ele>
        <time>2013-12-23T10:30:02Z</time>
      </trkpt>
      <trkpt lat="47.27353" lon="-1.6905">
        <ele>63.1</ele>
        <time>2013-12-23T10:30:05Z</time>
      </trkpt>
      <trkpt lat="47.27344" lon="-1.69055">
        <ele>64.07</ele>
        <time>2013-12-23T10:30:08Z</time>
      </trkpt>
      <trkpt lat="47.27332" lon="-1.69062">
        <ele>65.03</ele>
        <time>2013-12-23T10:30:12Z</time>
      </trkpt>
      <trkpt lat="47.27323" lon="-1.69072">
        <ele>65.51</ele>
        <time>2013-12-23T10:30:16Z</time>
      </trkpt>
      <trkpt lat="47.27315" lon="-1.69086">
        <ele>65.51</ele>
        <time>2013-12-23T10:30:20Z</time>
      </trkpt>
      <trkpt lat="47.27309" lon="-1.69101">
        <ele>65.99</ele>
        <time>2013-12-23T10:30:24Z</time>
      </trkpt>
      <trkpt lat="47.27305" lon="-1.69115">
        <ele>64.07</ele>
        <time>2013-12-23T10:31:06Z</time>
      </trkpt>
      <trkpt lat="47.27298" lon="-1.69129">
        <ele>65.03</ele>
        <time>2013-12-23T10:31:10Z</time>
      </trkpt>
      <trkpt lat="47.27294" lon="-1.69142">
        <ele>65.99</ele>
        <time>2013-12-23T10:31:14Z</time>
      </trkpt>
      <trkpt lat="47.27288" lon="-1.69156">
        <ele>66.95</ele>
        <time>2013-12-23T10:31:18Z</time>
      </trkpt>
      <trkpt lat="47.27282" lon="-1.69167">
        <ele>67.43</ele>
        <time>2013-12-23T10:31:21Z</time>
      </trkpt>
      <trkpt lat="47.27277" lon="-1.69179">
        <ele>67.91</ele>
        <time>2013-12-23T10:31:24Z</time>
      </trkpt>
      <trkpt lat="47.27271" lon="-1.69192">
        <ele>67.91</ele>
        <time>2013-12-23T10:31:27Z</time>
      </trkpt>
      <trkpt lat="47.27266" lon="-1.69204">
        <ele>68.39</ele>
        <time>2013-12-23T10:31:30Z</time>
      </trkpt>
      <trkpt lat="47.27261" lon="-1.69218">
        <ele>68.39</ele>
        <time>2013-12-23T10:31:33Z</time>
      </trkpt>
      <trkpt lat="47.27258" lon="-1.69232">
        <ele>68.39</ele>
        <time>2013-12-23T10:31:36Z</time>
      </trkpt>
      <trkpt lat="47.27256" lon="-1.69246">
        <ele>68.87</ele>
        <time>2013-12-23T10:31:39Z</time>
      </trkpt>
      <trkpt lat="47.27254" lon="-1.69262">
        <ele>67.91</ele>
        <time>2013-12-23T10:31:43Z</time>
      </trkpt>
      <trkpt lat="47.27252" lon="-1.69276">
        <ele>66.95</ele>
        <time>2013-12-23T10:31:46Z</time>
      </trkpt>
      <trkpt lat="47.2725" lon="-1.69292">
        <ele>67.43</ele>
        <time>2013-12-23T10:31:50Z</time>
      </trkpt>
      <trkpt lat="47.27248" lon="-1.69306">
        <ele>67.43</ele>
        <time>2013-12-23T10:31:54Z</time>
      </trkpt>
      <trkpt lat="47.27247" lon="-1.69322">
        <ele>66.95</ele>
        <time>2013-12-23T10:31:59Z</time>
      </trkpt>
      <trkpt lat="47.27238" lon="-1.69331">
        <ele>67.43</ele>
        <time>2013-12-23T10:32:04Z</time>
      </trkpt>
      <trkpt lat="47.2723" lon="-1.69335">
        <ele>67.43</ele>
        <time>2013-12-23T10:32:08Z</time>
      </trkpt>
      <trkpt lat="47.27223" lon="-1.69346">
        <ele>66.95</ele>
        <time>2013-12-23T10:32:13Z</time>
      </trkpt>
      <trkpt lat="47.27226" lon="-1.69359">
        <ele>66.95</ele>
        <time>2013-12-23T10:32:18Z</time>
      </trkpt>
      <trkpt lat="47.27231" lon="-1.69376">
        <ele>66.47</ele>
        <time>2013-12-23T10:32:23Z</time>
      </trkpt>
      <trkpt lat="47.27235" lon="-1.69391">
        <ele>66.47</ele>
        <time>2013-12-23T10:32:26Z</time>
      </trkpt>
      <trkpt lat="47.27241" lon="-1.69408">
        <ele>65.99</ele>
        <time>2013-12-23T10:32:29Z</time>
      </trkpt>
      <trkpt lat="47.27245" lon="-1.69421">
        <ele>65.99</ele>
        <time>2013-12-23T10:32:31Z</time>
      </trkpt>
      <trkpt lat="47.27249" lon="-1.69434">
        <ele>65.99</ele>
        <time>2013-12-23T10:32:33Z</time>
      </trkpt>
      <trkpt lat="47.27254" lon="-1.69447">
        <ele>65.99</ele>
        <time>2013-12-23T10:32:35Z</time>
      </trkpt>
      <trkpt lat="47.27258" lon="-1.69459">
        <ele>65.99</ele>
        <time>2013-12-23T10:32:37Z</time>
      </trkpt>
      <trkpt lat="47.27264" lon="-1.69476">
        <ele>65.99</ele>
        <time>2013-12-23T10:32:40Z</time>
      </trkpt>
      <trkpt lat="47.2727" lon="-1.69494">
        <ele>66.47</ele>
        <time>2013-12-23T10:32:43Z</time>
      </trkpt>
      <trkpt lat="47.27275" lon="-1.69507">
        <ele>66.47</ele>
        <time>2013-12-23T10:32:45Z</time>
      </trkpt>
      <trkpt lat="47.27281" lon="-1.69526">
        <ele>66.47</ele>
        <time>2013-12-23T10:32:48Z</time>
      </trkpt>
      <trkpt lat="47.27287" lon="-1.69543">
        <ele>65.99</ele>
        <time>2013-12-23T10:32:51Z</time>
      </trkpt>
      <trkpt lat="47.27293" lon="-1.6956">
        <ele>65.99</ele>
        <time>2013-12-23T10:32:54Z</time>
      </trkpt>
      <trkpt lat="47.273" lon="-1.69578">
        <ele>65.51</ele>
        <time>2013-12-23T10:32:57Z</time>
      </trkpt>
      <trkpt lat="47.27305" lon="-1.6959">
        <ele>65.03</ele>
        <time>2013-12-23T10:32:59Z</time>
      </trkpt>
      <trkpt lat="47.27311" lon="-1.69602">
        <ele>64.55</ele>
        <time>2013-12-23T10:33:01Z</time>
      </trkpt>
      <trkpt lat="47.27319" lon="-1.69611">
        <ele>64.07</ele>
        <time>2013-12-23T10:33:03Z</time>
      </trkpt>
      <trkpt lat="47.27328" lon="-1.69623">
        <ele>63.58</ele>
        <time>2013-12-23T10:33:06Z</time>
      </trkpt>
      <trkpt lat="47.27324" lon="-1.69634">
        <ele>63.58</ele>
        <time>2013-12-23T10:33:09Z</time>
      </trkpt>
      <trkpt lat="47.27314" lon="-1.69641">
        <ele>64.07</ele>
        <time>2013-12-23T10:33:12Z</time>
      </trkpt>
      <trkpt lat="47.27305" lon="-1.69646">
        <ele>64.55</ele>
        <time>2013-12-23T10:33:15Z</time>
      </trkpt>
      <trkpt lat="47.27295" lon="-1.69651">
        <ele>65.03</ele>
        <time>2013-12-23T10:33:18Z</time>
      </trkpt>
      <trkpt lat="47.27286" lon="-1.69656">
        <ele>65.51</ele>
        <time>2013-12-23T10:33:21Z</time>
      </trkpt>
      <trkpt lat="47.27276" lon="-1.69661">
        <ele>65.99</ele>
        <time>2013-12-23T10:33:24Z</time>
      </trkpt>
      <trkpt lat="47.27267" lon="-1.69665">
        <ele>66.47</ele>
        <time>2013-12-23T10:33:27Z</time>
      </trkpt>
      <trkpt lat="47.27257" lon="-1.6967">
        <ele>66.47</ele>
        <time>2013-12-23T10:33:30Z</time>
      </trkpt>
      <trkpt lat="47.27248" lon="-1.69675">
        <ele>66.95</ele>
        <time>2013-12-23T10:33:33Z</time>
      </trkpt>
      <trkpt lat="47.27239" lon="-1.6968">
        <ele>66.95</ele>
        <time>2013-12-23T10:33:36Z</time>
      </trkpt>
      <trkpt lat="47.27229" lon="-1.69685">
        <ele>66.95</ele>
        <time>2013-12-23T10:33:39Z</time>
      </trkpt>
      <trkpt lat="47.2722" lon="-1.69689">
        <ele>66.95</ele>
        <time>2013-12-23T10:33:42Z</time>
      </trkpt>
      <trkpt lat="47.2721" lon="-1.69695">
        <ele>66.95</ele>
        <time>2013-12-23T10:33:45Z</time>
      </trkpt>
      <trkpt lat="47.27201" lon="-1.697">
        <ele>67.43</ele>
        <time>2013-12-23T10:33:48Z</time>
      </trkpt>
      <trkpt lat="47.27191" lon="-1.69705">
        <ele>67.43</ele>
        <time>2013-12-23T10:33:51Z</time>
      </trkpt>
      <trkpt lat="47.27182" lon="-1.6971">
        <ele>67.91</ele>
        <time>2013-12-23T10:33:54Z</time>
      </trkpt>
      <trkpt lat="47.27172" lon="-1.69715">
        <ele>68.39</ele>
        <time>2013-12-23T10:33:57Z</time>
      </trkpt>
      <trkpt lat="47.27162" lon="-1.6972">
        <ele>68.39</ele>
        <time>2013-12-23T10:34:00Z</time>
      </trkpt>
      <trkpt lat="47.27152" lon="-1.69725">
        <ele>68.39</ele>
        <time>2013-12-23T10:34:03Z</time>
      </trkpt>
      <trkpt lat="47.27142" lon="-1.69731">
        <ele>68.39</ele>
        <time>2013-12-23T10:34:06Z</time>
      </trkpt>
      <trkpt lat="47.2713" lon="-1.69736">
        <ele>67.91</ele>
        <time>2013-12-23T10:34:09Z</time>
      </trkpt>
      <trkpt lat="47.2712" lon="-1.69741">
        <ele>67.91</ele>
        <time>2013-12-23T10:34:12Z</time>
      </trkpt>
      <trkpt lat="47.27108" lon="-1.69748">
        <ele>67.43</ele>
        <time>2013-12-23T10:34:15Z</time>
      </trkpt>
      <trkpt lat="47.271" lon="-1.69752">
        <ele>66.95</ele>
        <time>2013-12-23T10:34:17Z</time>
      </trkpt>
      <trkpt lat="47.27088" lon="-1.69758">
        <ele>66.47</ele>
        <time>2013-12-23T10:34:20Z</time>
      </trkpt>
      <trkpt lat="47.27076" lon="-1.69764">
        <ele>65.99</ele>
        <time>2013-12-23T10:34:23Z</time>
      </trkpt>
      <trkpt lat="47.27065" lon="-1.6977">
        <ele>65.51</ele>
        <time>2013-12-23T10:34:26Z</time>
      </trkpt>
      <trkpt lat="47.27054" lon="-1.69776">
        <ele>65.51</ele>
        <time>2013-12-23T10:34:29Z</time>
      </trkpt>
      <trkpt lat="47.27043" lon="-1.69783">
        <ele>65.03</ele>
        <time>2013-12-23T10:34:32Z</time>
      </trkpt>
      <trkpt lat="47.27032" lon="-1.69789">
        <ele>65.03</ele>
        <time>2013-12-23T10:34:35Z</time>
      </trkpt>
      <trkpt lat="47.27021" lon="-1.69794">
        <ele>65.03</ele>
        <time>2013-12-23T10:34:38Z</time>
      </trkpt>
      <trkpt lat="47.27012" lon="-1.69797">
        <ele>65.03</ele>
        <time>2013-12-23T10:34:41Z</time>
      </trkpt>
      <trkpt lat="47.27004" lon="-1.69786">
        <ele>65.99</ele>
        <time>2013-12-23T10:34:45Z</time>
      </trkpt>
      <trkpt lat="47.26999" lon="-1.69773">
        <ele>65.99</ele>
        <time>2013-12-23T10:34:48Z</time>
      </trkpt>
      <trkpt lat="47.26993" lon="-1.69759">
        <ele>65.99</ele>
        <time>2013-12-23T10:34:52Z</time>
      </trkpt>
      <trkpt lat="47.26984" lon="-1.6975">
        <ele>65.03</ele>
        <time>2013-12-23T10:34:57Z</time>
      </trkpt>
      <trkpt lat="47.26975" lon="-1.69744">
        <ele>64.55</ele>
        <time>2013-12-23T10:35:00Z</time>
      </trkpt>
      <trkpt lat="47.26966" lon="-1.6975">
        <ele>64.55</ele>
        <time>2013-12-23T10:35:03Z</time>
      </trkpt>
      <trkpt lat="47.26964" lon="-1.69766">
        <ele>64.07</ele>
        <time>2013-12-23T10:35:06Z</time>
      </trkpt>
      <trkpt lat="47.26962" lon="-1.69784">
        <ele>64.07</ele>
        <time>2013-12-23T10:35:09Z</time>
      </trkpt>
      <trkpt lat="47.2696" lon="-1.69802">
        <ele>64.07</ele>
        <time>2013-12-23T10:35:12Z</time>
      </trkpt>
      <trkpt lat="47.26958" lon="-1.69817">
        <ele>63.58</ele>
        <time>2013-12-23T10:35:15Z</time>
      </trkpt>
      <trkpt lat="47.26956" lon="-1.69832">
        <ele>64.07</ele>
        <time>2013-12-23T10:35:18Z</time>
      </trkpt>
      <trkpt lat="47.26954" lon="-1.69848">
        <ele>65.03</ele>
        <time>2013-12-23T10:35:21Z</time>
      </trkpt>
      <trkpt lat="47.26952" lon="-1.69863">
        <ele>65.51</ele>
        <time>2013-12-23T10:35:24Z</time>
      </trkpt>
      <trkpt lat="47.2695" lon="-1.69878">
        <ele>65.51</ele>
        <time>2013-12-23T10:35:27Z</time>
      </trkpt>
      <trkpt lat="47.26948" lon="-1.69892">
        <ele>66.47</ele>
        <time>2013-12-23T10:35:30Z</time>
      </trkpt>
      <trkpt lat="47.26946" lon="-1.69907">
        <ele>67.91</ele>
        <time>2013-12-23T10:35:33Z</time>
      </trkpt>
      <trkpt lat="47.26944" lon="-1.6992">
        <ele>68.39</ele>
        <time>2013-12-23T10:35:36Z</time>
      </trkpt>
      <trkpt lat="47.26942" lon="-1.69937">
        <ele>69.83</ele>
        <time>2013-12-23T10:35:40Z</time>
      </trkpt>
      <trkpt lat="47.26939" lon="-1.69955">
        <ele>71.76</ele>
        <time>2013-12-23T10:35:44Z</time>
      </trkpt>
      <trkpt lat="47.26937" lon="-1.69973">
        <ele>73.68</ele>
        <time>2013-12-23T10:35:48Z</time>
      </trkpt>
      <trkpt lat="47.26934" lon="-1.69992">
        <ele>74.64</ele>
        <time>2013-12-23T10:35:52Z</time>
      </trkpt>
      <trkpt lat="47.26931" lon="-1.70009">
        <ele>75.6</ele>
        <time>2013-12-23T10:35:55Z</time>
      </trkpt>
      <trkpt lat="47.26927" lon="-1.70026">
        <ele>76.56</ele>
        <time>2013-12-23T10:35:58Z</time>
      </trkpt>
      <trkpt lat="47.26924" lon="-1.70043">
        <ele>77.52</ele>
        <time>2013-12-23T10:36:01Z</time>
      </trkpt>
      <trkpt lat="47.26921" lon="-1.70058">
        <ele>78.48</ele>
        <time>2013-12-23T10:36:04Z</time>
      </trkpt>
      <trkpt lat="47.26918" lon="-1.70075">
        <ele>78.97</ele>
        <time>2013-12-23T10:36:07Z</time>
      </trkpt>
      <trkpt lat="47.26916" lon="-1.70091">
        <ele>79.93</ele>
        <time>2013-12-23T10:36:10Z</time>
      </trkpt>
      <trkpt lat="47.26914" lon="-1.70106">
        <ele>80.41</ele>
        <time>2013-12-23T10:36:13Z</time>
      </trkpt>
      <trkpt lat="47.26913" lon="-1.70122">
        <ele>80.89</ele>
        <time>2013-12-23T10:36:16Z</time>
      </trkpt>
      <trkpt lat="47.26912" lon="-1.70139">
        <ele>80.89</ele>
        <time>2013-12-23T10:36:19Z</time>
      </trkpt>
      <trkpt lat="47.26911" lon="-1.70157">
        <ele>81.37</ele>
        <time>2013-12-23T10:36:22Z</time>
      </trkpt>
      <trkpt lat="47.26909" lon="-1.70175">
        <ele>81.37</ele>
        <time>2013-12-23T10:36:25Z</time>
      </trkpt>
      <trkpt lat="47.26908" lon="-1.70193">
        <ele>81.37</ele>
        <time>2013-12-23T10:36:28Z</time>
      </trkpt>
      <trkpt lat="47.26907" lon="-1.7021">
        <ele>81.37</ele>
        <time>2013-12-23T10:36:31Z</time>
      </trkpt>
      <trkpt lat="47.26906" lon="-1.70227">
        <ele>80.89</ele>
        <time>2013-12-23T10:36:34Z</time>
      </trkpt>
      <trkpt lat="47.26905" lon="-1.70246">
        <ele>79.93</ele>
        <time>2013-12-23T10:36:37Z</time>
      </trkpt>
      <trkpt lat="47.26905" lon="-1.70261">
        <ele>78.97</ele>
        <time>2013-12-23T10:36:40Z</time>
      </trkpt>
      <trkpt lat="47.26903" lon="-1.70278">
        <ele>78.48</ele>
        <time>2013-12-23T10:36:43Z</time>
      </trkpt>
      <trkpt lat="47.26901" lon="-1.70297">
        <ele>76.56</ele>
        <time>2013-12-23T10:36:46Z</time>
      </trkpt>
      <trkpt lat="47.26892" lon="-1.70305">
        <ele>76.56</ele>
        <time>2013-12-23T10:36:49Z</time>
      </trkpt>
      <trkpt lat="47.2688" lon="-1.70309">
        <ele>76.56</ele>
        <time>2013-12-23T10:36:52Z</time>
      </trkpt>
      <trkpt lat="47.26868" lon="-1.70313">
        <ele>76.08</ele>
        <time>2013-12-23T10:36:55Z</time>
      </trkpt>
      <trkpt lat="47.26857" lon="-1.70316">
        <ele>75.12</ele>
        <time>2013-12-23T10:36:58Z</time>
      </trkpt>
      <trkpt lat="47.26845" lon="-1.70319">
        <ele>74.64</ele>
        <time>2013-12-23T10:37:01Z</time>
      </trkpt>
      <trkpt lat="47.26833" lon="-1.70321">
        <ele>74.16</ele>
        <time>2013-12-23T10:37:04Z</time>
      </trkpt>
      <trkpt lat="47.2682" lon="-1.70325">
        <ele>73.68</ele>
        <time>2013-12-23T10:37:07Z</time>
      </trkpt>
      <trkpt lat="47.2681" lon="-1.70327">
        <ele>73.2</ele>
        <time>2013-12-23T10:37:09Z</time>
      </trkpt>
      <trkpt lat="47.268" lon="-1.70329">
        <ele>72.72</ele>
        <time>2013-12-23T10:37:11Z</time>
      </trkpt>
      <trkpt lat="47.26787" lon="-1.70332">
        <ele>71.76</ele>
        <time>2013-12-23T10:37:14Z</time>
      </trkpt>
      <trkpt lat="47.26775" lon="-1.70335">
        <ele>71.76</ele>
        <time>2013-12-23T10:37:17Z</time>
      </trkpt>
      <trkpt lat="47.26761" lon="-1.70338">
        <ele>70.79</ele>
        <time>2013-12-23T10:37:20Z</time>
      </trkpt>
      <trkpt lat="47.26751" lon="-1.70341">
        <ele>70.31</ele>
        <time>2013-12-23T10:37:22Z</time>
      </trkpt>
      <trkpt lat="47.26737" lon="-1.70345">
        <ele>69.83</ele>
        <time>2013-12-23T10:37:25Z</time>
      </trkpt>
      <trkpt lat="47.26728" lon="-1.70347">
        <ele>69.83</ele>
        <time>2013-12-23T10:37:27Z</time>
      </trkpt>
      <trkpt lat="47.26715" lon="-1.7035">
        <ele>69.35</ele>
        <time>2013-12-23T10:37:30Z</time>
      </trkpt>
      <trkpt lat="47.26705" lon="-1.70352">
        <ele>69.35</ele>
        <time>2013-12-23T10:37:32Z</time>
      </trkpt>
      <trkpt lat="47.26696" lon="-1.70355">
        <ele>68.87</ele>
        <time>2013-12-23T10:37:34Z</time>
      </trkpt>
      <trkpt lat="47.26686" lon="-1.70357">
        <ele>68.39</ele>
        <time>2013-12-23T10:37:36Z</time>
      </trkpt>
      <trkpt lat="47.26677" lon="-1.7036">
        <ele>68.39</ele>
        <time>2013-12-23T10:37:38Z</time>
      </trkpt>
      <trkpt lat="47.26664" lon="-1.70363">
        <ele>67.43</ele>
        <time>2013-12-23T10:37:41Z</time>
      </trkpt>
      <trkpt lat="47.26651" lon="-1.70366">
        <ele>66.95</ele>
        <time>2013-12-23T10:37:44Z</time>
      </trkpt>
      <trkpt lat="47.26637" lon="-1.70369">
        <ele>66.47</ele>
        <time>2013-12-23T10:37:47Z</time>
      </trkpt>
      <trkpt lat="47.26623" lon="-1.70372">
        <ele>65.51</ele>
        <time>2013-12-23T10:37:50Z</time>
      </trkpt>
      <trkpt lat="47.26613" lon="-1.70376">
        <ele>65.03</ele>
        <time>2013-12-23T10:37:53Z</time>
      </trkpt>
      <trkpt lat="47.26601" lon="-1.70378">
        <ele>65.03</ele>
        <time>2013-12-23T10:37:57Z</time>
      </trkpt>
      <trkpt lat="47.26592" lon="-1.70382">
        <ele>65.03</ele>
        <time>2013-12-23T10:38:00Z</time>
      </trkpt>
      <trkpt lat="47.2658" lon="-1.70388">
        <ele>65.51</ele>
        <time>2013-12-23T10:38:03Z</time>
      </trkpt>
      <trkpt lat="47.26568" lon="-1.70394">
        <ele>65.03</ele>
        <time>2013-12-23T10:38:06Z</time>
      </trkpt>
      <trkpt lat="47.26556" lon="-1.704">
        <ele>64.55</ele>
        <time>2013-12-23T10:38:09Z</time>
      </trkpt>
      <trkpt lat="47.26543" lon="-1.70408">
        <ele>64.55</ele>
        <time>2013-12-23T10:38:12Z</time>
      </trkpt>
      <trkpt lat="47.26535" lon="-1.70412">
        <ele>64.55</ele>
        <time>2013-12-23T10:38:14Z</time>
      </trkpt>
      <trkpt lat="47.26522" lon="-1.70419">
        <ele>64.07</ele>
        <time>2013-12-23T10:38:17Z</time>
      </trkpt>
      <trkpt lat="47.26511" lon="-1.70425">
        <ele>63.58</ele>
        <time>2013-12-23T10:38:20Z</time>
      </trkpt>
      <trkpt lat="47.26499" lon="-1.70432">
        <ele>63.1</ele>
        <time>2013-12-23T10:38:23Z</time>
      </trkpt>
      <trkpt lat="47.26486" lon="-1.70439">
        <ele>62.62</ele>
        <time>2013-12-23T10:38:26Z</time>
      </trkpt>
      <trkpt lat="47.26474" lon="-1.70446">
        <ele>62.62</ele>
        <time>2013-12-23T10:38:29Z</time>
      </trkpt>
      <trkpt lat="47.26461" lon="-1.70451">
        <ele>62.14</ele>
        <time>2013-12-23T10:38:32Z</time>
      </trkpt>
      <trkpt lat="47.26451" lon="-1.7046">
        <ele>62.14</ele>
        <time>2013-12-23T10:38:35Z</time>
      </trkpt>
      <trkpt lat="47.26439" lon="-1.70465">
        <ele>62.14</ele>
        <time>2013-12-23T10:38:38Z</time>
      </trkpt>
      <trkpt lat="47.26426" lon="-1.70468">
        <ele>61.66</ele>
        <time>2013-12-23T10:38:41Z</time>
      </trkpt>
      <trkpt lat="47.26413" lon="-1.7047">
        <ele>61.18</ele>
        <time>2013-12-23T10:38:44Z</time>
      </trkpt>
      <trkpt lat="47.26401" lon="-1.70472">
        <ele>61.18</ele>
        <time>2013-12-23T10:38:47Z</time>
      </trkpt>
      <trkpt lat="47.26388" lon="-1.70475">
        <ele>61.18</ele>
        <time>2013-12-23T10:38:50Z</time>
      </trkpt>
      <trkpt lat="47.26376" lon="-1.70478">
        <ele>61.66</ele>
        <time>2013-12-23T10:38:53Z</time>
      </trkpt>
      <trkpt lat="47.26363" lon="-1.70478">
        <ele>62.14</ele>
        <time>2013-12-23T10:38:56Z</time>
      </trkpt>
      <trkpt lat="47.26354" lon="-1.70465">
        <ele>61.66</ele>
        <time>2013-12-23T10:38:59Z</time>
      </trkpt>
      <trkpt lat="47.26346" lon="-1.70452">
        <ele>61.18</ele>
        <time>2013-12-23T10:39:02Z</time>
      </trkpt>
      <trkpt lat="47.26338" lon="-1.70438">
        <ele>60.7</ele>
        <time>2013-12-23T10:39:05Z</time>
      </trkpt>
      <trkpt lat="47.2633" lon="-1.70424">
        <ele>59.74</ele>
        <time>2013-12-23T10:39:08Z</time>
      </trkpt>
      <trkpt lat="47.26322" lon="-1.70408">
        <ele>59.26</ele>
        <time>2013-12-23T10:39:11Z</time>
      </trkpt>
      <trkpt lat="47.26316" lon="-1.70398">
        <ele>59.26</ele>
        <time>2013-12-23T10:39:13Z</time>
      </trkpt>
      <trkpt lat="47.2631" lon="-1.70389">
        <ele>58.78</ele>
        <time>2013-12-23T10:39:15Z</time>
      </trkpt>
      <trkpt lat="47.26302" lon="-1.70375">
        <ele>58.78</ele>
        <time>2013-12-23T10:39:18Z</time>
      </trkpt>
      <trkpt lat="47.26294" lon="-1.70361">
        <ele>58.3</ele>
        <time>2013-12-23T10:39:21Z</time>
      </trkpt>
      <trkpt lat="47.26286" lon="-1.70347">
        <ele>57.82</ele>
        <time>2013-12-23T10:39:24Z</time>
      </trkpt>
      <trkpt lat="47.26283" lon="-1.70331">
        <ele>58.3</ele>
        <time>2013-12-23T10:39:27Z</time>
      </trkpt>
      <trkpt lat="47.26291" lon="-1.70319">
        <ele>58.3</ele>
        <time>2013-12-23T10:39:30Z</time>
      </trkpt>
      <trkpt lat="47.26302" lon="-1.7031">
        <ele>58.78</ele>
        <time>2013-12-23T10:39:33Z</time>
      </trkpt>
      <trkpt lat="47.26313" lon="-1.70301">
        <ele>58.78</ele>
        <time>2013-12-23T10:39:36Z</time>
      </trkpt>
      <trkpt lat="47.26322" lon="-1.70292">
        <ele>59.26</ele>
        <time>2013-12-23T10:39:39Z</time>
      </trkpt>
      <trkpt lat="47.2633" lon="-1.70285">
        <ele>59.26</ele>
        <time>2013-12-23T10:39:42Z</time>
      </trkpt>
      <trkpt lat="47.26339" lon="-1.70279">
        <ele>59.26</ele>
        <time>2013-12-23T10:39:45Z</time>
      </trkpt>
      <trkpt lat="47.26348" lon="-1.70271">
        <ele>59.26</ele>
        <time>2013-12-23T10:39:49Z</time>
      </trkpt>
      <trkpt lat="47.26345" lon="-1.70262">
        <ele>60.22</ele>
        <time>2013-12-23T10:39:54Z</time>
      </trkpt>
      <trkpt lat="47.26335" lon="-1.7027">
        <ele>60.7</ele>
        <time>2013-12-23T10:39:58Z</time>
      </trkpt>
      <trkpt lat="47.26326" lon="-1.70276">
        <ele>61.18</ele>
        <time>2013-12-23T10:40:01Z</time>
      </trkpt>
      <trkpt lat="47.26318" lon="-1.70283">
        <ele>61.18</ele>
        <time>2013-12-23T10:40:04Z</time>
      </trkpt>
      <trkpt lat="47.2631" lon="-1.7029">
        <ele>61.18</ele>
        <time>2013-12-23T10:40:07Z</time>
      </trkpt>
      <trkpt lat="47.26302" lon="-1.70297">
        <ele>61.66</ele>
        <time>2013-12-23T10:40:10Z</time>
      </trkpt>
      <trkpt lat="47.26291" lon="-1.70306">
        <ele>61.66</ele>
        <time>2013-12-23T10:40:14Z</time>
      </trkpt>
      <trkpt lat="47.26281" lon="-1.70313">
        <ele>62.14</ele>
        <time>2013-12-23T10:40:18Z</time>
      </trkpt>
      <trkpt lat="47.26271" lon="-1.70321">
        <ele>62.62</ele>
        <time>2013-12-23T10:40:22Z</time>
      </trkpt>
      <trkpt lat="47.26261" lon="-1.70329">
        <ele>62.62</ele>
        <time>2013-12-23T10:40:26Z</time>
      </trkpt>
      <trkpt lat="47.26251" lon="-1.70337">
        <ele>62.62</ele>
        <time>2013-12-23T10:40:30Z</time>
      </trkpt>
      <trkpt lat="47.26243" lon="-1.70344">
        <ele>62.62</ele>
        <time>2013-12-23T10:40:33Z</time>
      </trkpt>
      <trkpt lat="47.26234" lon="-1.70351">
        <ele>62.62</ele>
        <time>2013-12-23T10:40:36Z</time>
      </trkpt>
      <trkpt lat="47.26226" lon="-1.70358">
        <ele>62.62</ele>
        <time>2013-12-23T10:40:39Z</time>
      </trkpt>
      <trkpt lat="47.2622" lon="-1.70368">
        <ele>62.14</ele>
        <time>2013-12-23T10:40:42Z</time>
      </trkpt>
      <trkpt lat="47.26222" lon="-1.70384">
        <ele>61.66</ele>
        <time>2013-12-23T10:40:45Z</time>
      </trkpt>
      <trkpt lat="47.26228" lon="-1.70396">
        <ele>61.18</ele>
        <time>2013-12-23T10:40:47Z</time>
      </trkpt>
      <trkpt lat="47.26234" lon="-1.70408">
        <ele>60.7</ele>
        <time>2013-12-23T10:40:49Z</time>
      </trkpt>
      <trkpt lat="47.26241" lon="-1.70421">
        <ele>60.22</ele>
        <time>2013-12-23T10:40:51Z</time>
      </trkpt>
      <trkpt lat="47.26248" lon="-1.70434">
        <ele>59.74</ele>
        <time>2013-12-23T10:40:53Z</time>
      </trkpt>
      <trkpt lat="47.26254" lon="-1.70447">
        <ele>59.26</ele>
        <time>2013-12-23T10:40:55Z</time>
      </trkpt>
      <trkpt lat="47.26261" lon="-1.7046">
        <ele>58.78</ele>
        <time>2013-12-23T10:40:57Z</time>
      </trkpt>
      <trkpt lat="47.26267" lon="-1.70473">
        <ele>58.78</ele>
        <time>2013-12-23T10:40:59Z</time>
      </trkpt>
      <trkpt lat="47.26273" lon="-1.70486">
        <ele>58.78</ele>
        <time>2013-12-23T10:41:01Z</time>
      </trkpt>
      <trkpt lat="47.26279" lon="-1.705">
        <ele>58.78</ele>
        <time>2013-12-23T10:41:03Z</time>
      </trkpt>
      <trkpt lat="47.26284" lon="-1.70513">
        <ele>58.78</ele>
        <time>2013-12-23T10:41:05Z</time>
      </trkpt>
      <trkpt lat="47.26288" lon="-1.70526">
        <ele>58.78</ele>
        <time>2013-12-23T10:41:07Z</time>
      </trkpt>
      <trkpt lat="47.26293" lon="-1.70544">
        <ele>58.78</ele>
        <time>2013-12-23T10:41:10Z</time>
      </trkpt>
      <trkpt lat="47.26297" lon="-1.70563">
        <ele>58.3</ele>
        <time>2013-12-23T10:41:13Z</time>
      </trkpt>
      <trkpt lat="47.26299" lon="-1.70576">
        <ele>58.3</ele>
        <time>2013-12-23T10:41:15Z</time>
      </trkpt>
      <trkpt lat="47.26302" lon="-1.70589">
        <ele>57.82</ele>
        <time>2013-12-23T10:41:17Z</time>
      </trkpt>
      <trkpt lat="47.26305" lon="-1.70602">
        <ele>57.82</ele>
        <time>2013-12-23T10:41:19Z</time>
      </trkpt>
      <trkpt lat="47.26308" lon="-1.70616">
        <ele>57.34</ele>
        <time>2013-12-23T10:41:21Z</time>
      </trkpt>
      <trkpt lat="47.26311" lon="-1.70629">
        <ele>57.34</ele>
        <time>2013-12-23T10:41:23Z</time>
      </trkpt>
      <trkpt lat="47.26314" lon="-1.70642">
        <ele>57.34</ele>
        <time>2013-12-23T10:41:25Z</time>
      </trkpt>
      <trkpt lat="47.26317" lon="-1.70656">
        <ele>56.86</ele>
        <time>2013-12-23T10:41:27Z</time>
      </trkpt>
      <trkpt lat="47.2632" lon="-1.70671">
        <ele>56.37</ele>
        <time>2013-12-23T10:41:29Z</time>
      </trkpt>
      <trkpt lat="47.26323" lon="-1.70686">
        <ele>55.41</ele>
        <time>2013-12-23T10:41:31Z</time>
      </trkpt>
      <trkpt lat="47.26326" lon="-1.70703">
        <ele>54.45</ele>
        <time>2013-12-23T10:41:33Z</time>
      </trkpt>
      <trkpt lat="47.26328" lon="-1.70721">
        <ele>53.97</ele>
        <time>2013-12-23T10:41:35Z</time>
      </trkpt>
      <trkpt lat="47.26329" lon="-1.70739">
        <ele>53.49</ele>
        <time>2013-12-23T10:41:37Z</time>
      </trkpt>
      <trkpt lat="47.2633" lon="-1.70756">
        <ele>53.01</ele>
        <time>2013-12-23T10:41:39Z</time>
      </trkpt>
      <trkpt lat="47.26329" lon="-1.70772">
        <ele>53.01</ele>
        <time>2013-12-23T10:41:41Z</time>
      </trkpt>
      <trkpt lat="47.26328" lon="-1.70786">
        <ele>53.49</ele>
        <time>2013-12-23T10:41:43Z</time>
      </trkpt>
      <trkpt lat="47.26326" lon="-1.70799">
        <ele>53.97</ele>
        <time>2013-12-23T10:41:45Z</time>
      </trkpt>
      <trkpt lat="47.26323" lon="-1.70818">
        <ele>54.45</ele>
        <time>2013-12-23T10:41:48Z</time>
      </trkpt>
      <trkpt lat="47.2632" lon="-1.70835">
        <ele>54.45</ele>
        <time>2013-12-23T10:41:51Z</time>
      </trkpt>
      <trkpt lat="47.26317" lon="-1.70853">
        <ele>54.93</ele>
        <time>2013-12-23T10:41:54Z</time>
      </trkpt>
      <trkpt lat="47.26314" lon="-1.70869">
        <ele>54.93</ele>
        <time>2013-12-23T10:41:57Z</time>
      </trkpt>
      <trkpt lat="47.26311" lon="-1.70885">
        <ele>54.93</ele>
        <time>2013-12-23T10:42:00Z</time>
      </trkpt>
      <trkpt lat="47.26308" lon="-1.70902">
        <ele>54.93</ele>
        <time>2013-12-23T10:42:03Z</time>
      </trkpt>
      <trkpt lat="47.26305" lon="-1.70921">
        <ele>54.45</ele>
        <time>2013-12-23T10:42:06Z</time>
      </trkpt>
      <trkpt lat="47.26301" lon="-1.70941">
        <ele>54.45</ele>
        <time>2013-12-23T10:42:09Z</time>
      </trkpt>
      <trkpt lat="47.26298" lon="-1.70958">
        <ele>54.45</ele>
        <time>2013-12-23T10:42:12Z</time>
      </trkpt>
      <trkpt lat="47.26295" lon="-1.70976">
        <ele>54.45</ele>
        <time>2013-12-23T10:42:15Z</time>
      </trkpt>
      <trkpt lat="47.26293" lon="-1.70989">
        <ele>54.45</ele>
        <time>2013-12-23T10:42:17Z</time>
      </trkpt>
      <trkpt lat="47.2629" lon="-1.71006">
        <ele>54.45</ele>
        <time>2013-12-23T10:42:20Z</time>
      </trkpt>
      <trkpt lat="47.26287" lon="-1.71023">
        <ele>54.93</ele>
        <time>2013-12-23T10:42:23Z</time>
      </trkpt>
      <trkpt lat="47.26284" lon="-1.7104">
        <ele>55.41</ele>
        <time>2013-12-23T10:42:26Z</time>
      </trkpt>
      <trkpt lat="47.26282" lon="-1.71056">
        <ele>55.41</ele>
        <time>2013-12-23T10:42:29Z</time>
      </trkpt>
      <trkpt lat="47.26279" lon="-1.71071">
        <ele>55.89</ele>
        <time>2013-12-23T10:42:32Z</time>
      </trkpt>
      <trkpt lat="47.26276" lon="-1.71086">
        <ele>56.37</ele>
        <time>2013-12-23T10:42:35Z</time>
      </trkpt>
      <trkpt lat="47.26274" lon="-1.711">
        <ele>56.86</ele>
        <time>2013-12-23T10:42:38Z</time>
      </trkpt>
      <trkpt lat="47.26272" lon="-1.71114">
        <ele>57.34</ele>
        <time>2013-12-23T10:42:41Z</time>
      </trkpt>
      <trkpt lat="47.26269" lon="-1.71127">
        <ele>57.34</ele>
        <time>2013-12-23T10:42:44Z</time>
      </trkpt>
      <trkpt lat="47.26267" lon="-1.7114">
        <ele>57.82</ele>
        <time>2013-12-23T10:42:47Z</time>
      </trkpt>
      <trkpt lat="47.26265" lon="-1.71154">
        <ele>57.82</ele>
        <time>2013-12-23T10:42:50Z</time>
      </trkpt>
      <trkpt lat="47.26262" lon="-1.71168">
        <ele>58.3</ele>
        <time>2013-12-23T10:42:53Z</time>
      </trkpt>
      <trkpt lat="47.2626" lon="-1.71183">
        <ele>58.3</ele>
        <time>2013-12-23T10:42:56Z</time>
      </trkpt>
      <trkpt lat="47.26257" lon="-1.71198">
        <ele>58.78</ele>
        <time>2013-12-23T10:42:59Z</time>
      </trkpt>
      <trkpt lat="47.26255" lon="-1.71211">
        <ele>59.26</ele>
        <time>2013-12-23T10:43:02Z</time>
      </trkpt>
      <trkpt lat="47.26252" lon="-1.71226">
        <ele>59.74</ele>
        <time>2013-12-23T10:43:05Z</time>
      </trkpt>
      <trkpt lat="47.2625" lon="-1.71241">
        <ele>60.22</ele>
        <time>2013-12-23T10:43:08Z</time>
      </trkpt>
      <trkpt lat="47.26247" lon="-1.71256">
        <ele>60.7</ele>
        <time>2013-12-23T10:43:11Z</time>
      </trkpt>
      <trkpt lat="47.26244" lon="-1.7127">
        <ele>60.7</ele>
        <time>2013-12-23T10:43:14Z</time>
      </trkpt>
      <trkpt lat="47.26242" lon="-1.71284">
        <ele>61.18</ele>
        <time>2013-12-23T10:43:17Z</time>
      </trkpt>
      <trkpt lat="47.2624" lon="-1.71298">
        <ele>61.66</ele>
        <time>2013-12-23T10:43:20Z</time>
      </trkpt>
      <trkpt lat="47.26238" lon="-1.71311">
        <ele>62.14</ele>
        <time>2013-12-23T10:43:23Z</time>
      </trkpt>
      <trkpt lat="47.26235" lon="-1.71327">
        <ele>62.14</ele>
        <time>2013-12-23T10:43:27Z</time>
      </trkpt>
      <trkpt lat="47.26232" lon="-1.71344">
        <ele>63.1</ele>
        <time>2013-12-23T10:43:31Z</time>
      </trkpt>
      <trkpt lat="47.2623" lon="-1.7136">
        <ele>64.07</ele>
        <time>2013-12-23T10:43:35Z</time>
      </trkpt>
      <trkpt lat="47.26228" lon="-1.71374">
        <ele>65.03</ele>
        <time>2013-12-23T10:43:39Z</time>
      </trkpt>
      <trkpt lat="47.26226" lon="-1.71388">
        <ele>66.47</ele>
        <time>2013-12-23T10:43:43Z</time>
      </trkpt>
      <trkpt lat="47.26223" lon="-1.71401">
        <ele>66.95</ele>
        <time>2013-12-23T10:43:47Z</time>
      </trkpt>
      <trkpt lat="47.2622" lon="-1.71417">
        <ele>68.39</ele>
        <time>2013-12-23T10:43:52Z</time>
      </trkpt>
      <trkpt lat="47.26217" lon="-1.71433">
        <ele>69.35</ele>
        <time>2013-12-23T10:43:57Z</time>
      </trkpt>
      <trkpt lat="47.26213" lon="-1.71449">
        <ele>70.31</ele>
        <time>2013-12-23T10:44:02Z</time>
      </trkpt>
      <trkpt lat="47.26208" lon="-1.71465">
        <ele>71.76</ele>
        <time>2013-12-23T10:44:07Z</time>
      </trkpt>
      <trkpt lat="47.26202" lon="-1.71478">
        <ele>72.72</ele>
        <time>2013-12-23T10:44:11Z</time>
      </trkpt>
      <trkpt lat="47.26195" lon="-1.71489">
        <ele>72.72</ele>
        <time>2013-12-23T10:44:15Z</time>
      </trkpt>
      <trkpt lat="47.26188" lon="-1.71499">
        <ele>72.72</ele>
        <time>2013-12-23T10:44:19Z</time>
      </trkpt>
      <trkpt lat="47.26181" lon="-1.71508">
        <ele>72.24</ele>
        <time>2013-12-23T10:44:23Z</time>
      </trkpt>
      <trkpt lat="47.26174" lon="-1.71517">
        <ele>72.72</ele>
        <time>2013-12-23T10:44:27Z</time>
      </trkpt>
      <trkpt lat="47.26167" lon="-1.71525">
        <ele>72.72</ele>
        <time>2013-12-23T10:44:31Z</time>
      </trkpt>
      <trkpt lat="47.26158" lon="-1.71534">
        <ele>73.2</ele>
        <time>2013-12-23T10:44:35Z</time>
      </trkpt>
      <trkpt lat="47.26149" lon="-1.71546">
        <ele>73.2</ele>
        <time>2013-12-23T10:44:39Z</time>
      </trkpt>
      <trkpt lat="47.26142" lon="-1.71555">
        <ele>73.2</ele>
        <time>2013-12-23T10:44:42Z</time>
      </trkpt>
      <trkpt lat="47.26135" lon="-1.71566">
        <ele>73.2</ele>
        <time>2013-12-23T10:44:45Z</time>
      </trkpt>
      <trkpt lat="47.26129" lon="-1.71576">
        <ele>73.2</ele>
        <time>2013-12-23T10:44:48Z</time>
      </trkpt>
      <trkpt lat="47.26126" lon="-1.71589">
        <ele>73.68</ele>
        <time>2013-12-23T10:44:51Z</time>
      </trkpt>
      <trkpt lat="47.26126" lon="-1.71607">
        <ele>73.68</ele>
        <time>2013-12-23T10:44:54Z</time>
      </trkpt>
      <trkpt lat="47.26129" lon="-1.71626">
        <ele>73.2</ele>
        <time>2013-12-23T10:44:57Z</time>
      </trkpt>
      <trkpt lat="47.26135" lon="-1.71644">
        <ele>73.2</ele>
        <time>2013-12-23T10:45:00Z</time>
      </trkpt>
      <trkpt lat="47.26141" lon="-1.7166">
        <ele>72.72</ele>
        <time>2013-12-23T10:45:03Z</time>
      </trkpt>
      <trkpt lat="47.26147" lon="-1.71675">
        <ele>72.72</ele>
        <time>2013-12-23T10:45:06Z</time>
      </trkpt>
      <trkpt lat="47.26151" lon="-1.71686">
        <ele>72.72</ele>
        <time>2013-12-23T10:45:09Z</time>
      </trkpt>
      <trkpt lat="47.26156" lon="-1.71699">
        <ele>72.72</ele>
        <time>2013-12-23T10:45:12Z</time>
      </trkpt>
      <trkpt lat="47.26161" lon="-1.71714">
        <ele>72.72</ele>
        <time>2013-12-23T10:45:15Z</time>
      </trkpt>
      <trkpt lat="47.26167" lon="-1.71729">
        <ele>72.72</ele>
        <time>2013-12-23T10:45:18Z</time>
      </trkpt>
      <trkpt lat="47.26172" lon="-1.71742">
        <ele>72.24</ele>
        <time>2013-12-23T10:45:21Z</time>
      </trkpt>
      <trkpt lat="47.26176" lon="-1.71754">
        <ele>72.72</ele>
        <time>2013-12-23T10:45:24Z</time>
      </trkpt>
      <trkpt lat="47.2618" lon="-1.71768">
        <ele>72.72</ele>
        <time>2013-12-23T10:45:28Z</time>
      </trkpt>
      <trkpt lat="47.26172" lon="-1.71778">
        <ele>72.72</ele>
        <time>2013-12-23T10:45:32Z</time>
      </trkpt>
      <trkpt lat="47.26162" lon="-1.71782">
        <ele>72.72</ele>
        <time>2013-12-23T10:45:35Z</time>
      </trkpt>
      <trkpt lat="47.26153" lon="-1.71787">
        <ele>72.72</ele>
        <time>2013-12-23T10:45:38Z</time>
      </trkpt>
      <trkpt lat="47.26148" lon="-1.71797">
        <ele>72.72</ele>
        <time>2013-12-23T10:45:41Z</time>
      </trkpt>
      <trkpt lat="47.26154" lon="-1.71813">
        <ele>72.24</ele>
        <time>2013-12-23T10:45:45Z</time>
      </trkpt>
      <trkpt lat="47.26158" lon="-1.71825">
        <ele>72.24</ele>
        <time>2013-12-23T10:45:48Z</time>
      </trkpt>
      <trkpt lat="47.26161" lon="-1.71839">
        <ele>72.72</ele>
        <time>2013-12-23T10:45:51Z</time>
      </trkpt>
      <trkpt lat="47.26164" lon="-1.71852">
        <ele>73.2</ele>
        <time>2013-12-23T10:45:54Z</time>
      </trkpt>
      <trkpt lat="47.26168" lon="-1.71866">
        <ele>73.68</ele>
        <time>2013-12-23T10:45:57Z</time>
      </trkpt>
      <trkpt lat="47.26171" lon="-1.7188">
        <ele>73.68</ele>
        <time>2013-12-23T10:46:00Z</time>
      </trkpt>
      <trkpt lat="47.26175" lon="-1.71893">
        <ele>73.68</ele>
        <time>2013-12-23T10:46:03Z</time>
      </trkpt>
      <trkpt lat="47.26181" lon="-1.71903">
        <ele>73.68</ele>
        <time>2013-12-23T10:46:06Z</time>
      </trkpt>
      <trkpt lat="47.26189" lon="-1.71912">
        <ele>74.16</ele>
        <time>2013-12-23T10:46:09Z</time>
      </trkpt>
      <trkpt lat="47.26198" lon="-1.71922">
        <ele>73.68</ele>
        <time>2013-12-23T10:46:12Z</time>
      </trkpt>
      <trkpt lat="47.26205" lon="-1.71933">
        <ele>73.68</ele>
        <time>2013-12-23T10:46:15Z</time>
      </trkpt>
      <trkpt lat="47.26213" lon="-1.71947">
        <ele>73.68</ele>
        <time>2013-12-23T10:46:18Z</time>
      </trkpt>
      <trkpt lat="47.2622" lon="-1.71961">
        <ele>73.68</ele>
        <time>2013-12-23T10:46:21Z</time>
      </trkpt>
      <trkpt lat="47.26226" lon="-1.71976">
        <ele>73.68</ele>
        <time>2013-12-23T10:46:24Z</time>
      </trkpt>
      <trkpt lat="47.26232" lon="-1.71992">
        <ele>73.2</ele>
        <time>2013-12-23T10:46:27Z</time>
      </trkpt>
      <trkpt lat="47.26237" lon="-1.72009">
        <ele>73.68</ele>
        <time>2013-12-23T10:46:30Z</time>
      </trkpt>
      <trkpt lat="47.26241" lon="-1.72025">
        <ele>74.16</ele>
        <time>2013-12-23T10:46:33Z</time>
      </trkpt>
      <trkpt lat="47.26246" lon="-1.7204">
        <ele>74.64</ele>
        <time>2013-12-23T10:46:36Z</time>
      </trkpt>
      <trkpt lat="47.26252" lon="-1.72056">
        <ele>74.64</ele>
        <time>2013-12-23T10:46:39Z</time>
      </trkpt>
      <trkpt lat="47.26258" lon="-1.72072">
        <ele>75.12</ele>
        <time>2013-12-23T10:46:42Z</time>
      </trkpt>
      <trkpt lat="47.26264" lon="-1.72088">
        <ele>75.12</ele>
        <time>2013-12-23T10:46:45Z</time>
      </trkpt>
      <trkpt lat="47.26272" lon="-1.72104">
        <ele>75.12</ele>
        <time>2013-12-23T10:46:48Z</time>
      </trkpt>
      <trkpt lat="47.26281" lon="-1.72116">
        <ele>75.12</ele>
        <time>2013-12-23T10:46:51Z</time>
      </trkpt>
      <trkpt lat="47.2629" lon="-1.72127">
        <ele>74.64</ele>
        <time>2013-12-23T10:46:54Z</time>
      </trkpt>
      <trkpt lat="47.26298" lon="-1.72136">
        <ele>74.64</ele>
        <time>2013-12-23T10:46:57Z</time>
      </trkpt>
      <trkpt lat="47.26306" lon="-1.72146">
        <ele>74.16</ele>
        <time>2013-12-23T10:47:00Z</time>
      </trkpt>
      <trkpt lat="47.26316" lon="-1.72157">
        <ele>74.64</ele>
        <time>2013-12-23T10:47:03Z</time>
      </trkpt>
      <trkpt lat="47.26327" lon="-1.72163">
        <ele>74.64</ele>
        <time>2013-12-23T10:47:06Z</time>
      </trkpt>
      <trkpt lat="47.26337" lon="-1.72169">
        <ele>74.16</ele>
        <time>2013-12-23T10:47:09Z</time>
      </trkpt>
      <trkpt lat="47.26347" lon="-1.72177">
        <ele>74.16</ele>
        <time>2013-12-23T10:47:12Z</time>
      </trkpt>
      <trkpt lat="47.26357" lon="-1.72188">
        <ele>73.2</ele>
        <time>2013-12-23T10:47:15Z</time>
      </trkpt>
      <trkpt lat="47.26366" lon="-1.72194">
        <ele>72.72</ele>
        <time>2013-12-23T10:47:17Z</time>
      </trkpt>
      <trkpt lat="47.26376" lon="-1.722">
        <ele>72.24</ele>
        <time>2013-12-23T10:47:19Z</time>
      </trkpt>
      <trkpt lat="47.26386" lon="-1.72204">
        <ele>71.27</ele>
        <time>2013-12-23T10:47:21Z</time>
      </trkpt>
      <trkpt lat="47.26398" lon="-1.7221">
        <ele>70.31</ele>
        <time>2013-12-23T10:47:24Z</time>
      </trkpt>
      <trkpt lat="47.26407" lon="-1.72223">
        <ele>69.35</ele>
        <time>2013-12-23T10:47:27Z</time>
      </trkpt>
      <trkpt lat="47.26414" lon="-1.72236">
        <ele>69.35</ele>
        <time>2013-12-23T10:47:30Z</time>
      </trkpt>
      <trkpt lat="47.26421" lon="-1.72249">
        <ele>69.83</ele>
        <time>2013-12-23T10:47:33Z</time>
      </trkpt>
      <trkpt lat="47.26428" lon="-1.72263">
        <ele>70.31</ele>
        <time>2013-12-23T10:47:36Z</time>
      </trkpt>
      <trkpt lat="47.26431" lon="-1.72276">
        <ele>70.79</ele>
        <time>2013-12-23T10:47:39Z</time>
      </trkpt>
      <trkpt lat="47.26434" lon="-1.72289">
        <ele>70.79</ele>
        <time>2013-12-23T10:47:43Z</time>
      </trkpt>
      <trkpt lat="47.26435" lon="-1.72307">
        <ele>70.79</ele>
        <time>2013-12-23T10:47:47Z</time>
      </trkpt>
      <trkpt lat="47.26436" lon="-1.7232">
        <ele>71.27</ele>
        <time>2013-12-23T10:47:50Z</time>
      </trkpt>
      <trkpt lat="47.26437" lon="-1.72335">
        <ele>71.76</ele>
        <time>2013-12-23T10:47:53Z</time>
      </trkpt>
      <trkpt lat="47.26438" lon="-1.72349">
        <ele>72.24</ele>
        <time>2013-12-23T10:47:56Z</time>
      </trkpt>
      <trkpt lat="47.2644" lon="-1.72362">
        <ele>72.24</ele>
        <time>2013-12-23T10:47:59Z</time>
      </trkpt>
      <trkpt lat="47.26444" lon="-1.7238">
        <ele>72.24</ele>
        <time>2013-12-23T10:48:03Z</time>
      </trkpt>
      <trkpt lat="47.26446" lon="-1.72395">
        <ele>72.24</ele>
        <time>2013-12-23T10:48:06Z</time>
      </trkpt>
      <trkpt lat="47.26449" lon="-1.72408">
        <ele>72.24</ele>
        <time>2013-12-23T10:48:09Z</time>
      </trkpt>
      <trkpt lat="47.26452" lon="-1.72422">
        <ele>72.24</ele>
        <time>2013-12-23T10:48:12Z</time>
      </trkpt>
      <trkpt lat="47.26455" lon="-1.72436">
        <ele>72.72</ele>
        <time>2013-12-23T10:48:16Z</time>
      </trkpt>
      <trkpt lat="47.26452" lon="-1.72448">
        <ele>72.24</ele>
        <time>2013-12-23T10:48:20Z</time>
      </trkpt>
      <trkpt lat="47.26444" lon="-1.72457">
        <ele>72.72</ele>
        <time>2013-12-23T10:48:23Z</time>
      </trkpt>
      <trkpt lat="47.26441" lon="-1.72469">
        <ele>73.2</ele>
        <time>2013-12-23T10:48:26Z</time>
      </trkpt>
      <trkpt lat="47.26445" lon="-1.72481">
        <ele>72.72</ele>
        <time>2013-12-23T10:48:29Z</time>
      </trkpt>
      <trkpt lat="47.26451" lon="-1.72494">
        <ele>72.24</ele>
        <time>2013-12-23T10:48:32Z</time>
      </trkpt>
      <trkpt lat="47.26458" lon="-1.72507">
        <ele>73.2</ele>
        <time>2013-12-23T10:48:57Z</time>
      </trkpt>
      <trkpt lat="47.26464" lon="-1.7252">
        <ele>73.68</ele>
        <time>2013-12-23T10:49:00Z</time>
      </trkpt>
      <trkpt lat="47.2647" lon="-1.72535">
        <ele>73.68</ele>
        <time>2013-12-23T10:49:03Z</time>
      </trkpt>
      <trkpt lat="47.26477" lon="-1.72549">
        <ele>73.68</ele>
        <time>2013-12-23T10:49:06Z</time>
      </trkpt>
      <trkpt lat="47.26484" lon="-1.72564">
        <ele>73.68</ele>
        <time>2013-12-23T10:49:09Z</time>
      </trkpt>
      <trkpt lat="47.26491" lon="-1.7258">
        <ele>73.2</ele>
        <time>2013-12-23T10:49:12Z</time>
      </trkpt>
      <trkpt lat="47.26496" lon="-1.72591">
        <ele>73.68</ele>
        <time>2013-12-23T10:49:14Z</time>
      </trkpt>
      <trkpt lat="47.26505" lon="-1.72606">
        <ele>73.68</ele>
        <time>2013-12-23T10:49:17Z</time>
      </trkpt>
      <trkpt lat="47.26514" lon="-1.7262">
        <ele>74.16</ele>
        <time>2013-12-23T10:49:20Z</time>
      </trkpt>
      <trkpt lat="47.26519" lon="-1.7263">
        <ele>74.16</ele>
        <time>2013-12-23T10:49:22Z</time>
      </trkpt>
      <trkpt lat="47.26527" lon="-1.72646">
        <ele>74.16</ele>
        <time>2013-12-23T10:49:25Z</time>
      </trkpt>
      <trkpt lat="47.26533" lon="-1.72664">
        <ele>74.16</ele>
        <time>2013-12-23T10:49:28Z</time>
      </trkpt>
      <trkpt lat="47.26537" lon="-1.72682">
        <ele>74.16</ele>
        <time>2013-12-23T10:49:31Z</time>
      </trkpt>
      <trkpt lat="47.26541" lon="-1.72699">
        <ele>74.16</ele>
        <time>2013-12-23T10:49:34Z</time>
      </trkpt>
      <trkpt lat="47.26545" lon="-1.72717">
        <ele>74.64</ele>
        <time>2013-12-23T10:49:37Z</time>
      </trkpt>
      <trkpt lat="47.26549" lon="-1.72735">
        <ele>74.64</ele>
        <time>2013-12-23T10:49:40Z</time>
      </trkpt>
      <trkpt lat="47.26553" lon="-1.72752">
        <ele>74.64</ele>
        <time>2013-12-23T10:49:43Z</time>
      </trkpt>
      <trkpt lat="47.26558" lon="-1.72769">
        <ele>75.12</ele>
        <time>2013-12-23T10:49:46Z</time>
      </trkpt>
      <trkpt lat="47.26561" lon="-1.72784">
        <ele>75.12</ele>
        <time>2013-12-23T10:49:49Z</time>
      </trkpt>
      <trkpt lat="47.26556" lon="-1.72796">
        <ele>75.12</ele>
        <time>2013-12-23T10:49:52Z</time>
      </trkpt>
      <trkpt lat="47.26546" lon="-1.72808">
        <ele>75.12</ele>
        <time>2013-12-23T10:49:55Z</time>
      </trkpt>
      <trkpt lat="47.26535" lon="-1.7282">
        <ele>74.64</ele>
        <time>2013-12-23T10:49:58Z</time>
      </trkpt>
      <trkpt lat="47.26528" lon="-1.7283">
        <ele>74.64</ele>
        <time>2013-12-23T10:50:00Z</time>
      </trkpt>
      <trkpt lat="47.2652" lon="-1.72838">
        <ele>74.64</ele>
        <time>2013-12-23T10:50:02Z</time>
      </trkpt>
      <trkpt lat="47.2651" lon="-1.7285">
        <ele>74.16</ele>
        <time>2013-12-23T10:50:05Z</time>
      </trkpt>
      <trkpt lat="47.26499" lon="-1.72863">
        <ele>73.68</ele>
        <time>2013-12-23T10:50:08Z</time>
      </trkpt>
      <trkpt lat="47.26492" lon="-1.72872">
        <ele>73.68</ele>
        <time>2013-12-23T10:50:10Z</time>
      </trkpt>
      <trkpt lat="47.26484" lon="-1.7288">
        <ele>73.68</ele>
        <time>2013-12-23T10:50:12Z</time>
      </trkpt>
      <trkpt lat="47.26476" lon="-1.72889">
        <ele>73.68</ele>
        <time>2013-12-23T10:50:14Z</time>
      </trkpt>
      <trkpt lat="47.26469" lon="-1.72898">
        <ele>73.68</ele>
        <time>2013-12-23T10:50:16Z</time>
      </trkpt>
      <trkpt lat="47.26458" lon="-1.72911">
        <ele>73.2</ele>
        <time>2013-12-23T10:50:19Z</time>
      </trkpt>
      <trkpt lat="47.26451" lon="-1.72919">
        <ele>72.72</ele>
        <time>2013-12-23T10:50:21Z</time>
      </trkpt>
      <trkpt lat="47.26443" lon="-1.72928">
        <ele>72.24</ele>
        <time>2013-12-23T10:50:23Z</time>
      </trkpt>
      <trkpt lat="47.26435" lon="-1.72937">
        <ele>72.24</ele>
        <time>2013-12-23T10:50:25Z</time>
      </trkpt>
      <trkpt lat="47.26428" lon="-1.72946">
        <ele>71.76</ele>
        <time>2013-12-23T10:50:27Z</time>
      </trkpt>
      <trkpt lat="47.26421" lon="-1.72955">
        <ele>71.27</ele>
        <time>2013-12-23T10:50:29Z</time>
      </trkpt>
      <trkpt lat="47.26416" lon="-1.72967">
        <ele>70.79</ele>
        <time>2013-12-23T10:50:31Z</time>
      </trkpt>
      <trkpt lat="47.26418" lon="-1.72981">
        <ele>69.83</ele>
        <time>2013-12-23T10:50:33Z</time>
      </trkpt>
      <trkpt lat="47.26421" lon="-1.72996">
        <ele>69.83</ele>
        <time>2013-12-23T10:50:35Z</time>
      </trkpt>
      <trkpt lat="47.26426" lon="-1.7301">
        <ele>69.35</ele>
        <time>2013-12-23T10:50:37Z</time>
      </trkpt>
      <trkpt lat="47.26431" lon="-1.73024">
        <ele>69.35</ele>
        <time>2013-12-23T10:50:39Z</time>
      </trkpt>
      <trkpt lat="47.26435" lon="-1.73036">
        <ele>69.35</ele>
        <time>2013-12-23T10:50:41Z</time>
      </trkpt>
      <trkpt lat="47.26441" lon="-1.73047">
        <ele>69.35</ele>
        <time>2013-12-23T10:50:43Z</time>
      </trkpt>
      <trkpt lat="47.26447" lon="-1.73063">
        <ele>69.35</ele>
        <time>2013-12-23T10:50:46Z</time>
      </trkpt>
      <trkpt lat="47.26452" lon="-1.73076">
        <ele>69.35</ele>
        <time>2013-12-23T10:50:49Z</time>
      </trkpt>
      <trkpt lat="47.26455" lon="-1.73089">
        <ele>69.83</ele>
        <time>2013-12-23T10:50:52Z</time>
      </trkpt>
      <trkpt lat="47.26459" lon="-1.73102">
        <ele>69.35</ele>
        <time>2013-12-23T10:50:55Z</time>
      </trkpt>
      <trkpt lat="47.26461" lon="-1.73116">
        <ele>69.35</ele>
        <time>2013-12-23T10:50:58Z</time>
      </trkpt>
      <trkpt lat="47.26464" lon="-1.73129">
        <ele>69.35</ele>
        <time>2013-12-23T10:51:01Z</time>
      </trkpt>
      <trkpt lat="47.26467" lon="-1.73145">
        <ele>69.35</ele>
        <time>2013-12-23T10:51:05Z</time>
      </trkpt>
      <trkpt lat="47.2647" lon="-1.73162">
        <ele>69.83</ele>
        <time>2013-12-23T10:51:09Z</time>
      </trkpt>
      <trkpt lat="47.26473" lon="-1.73178">
        <ele>70.79</ele>
        <time>2013-12-23T10:51:13Z</time>
      </trkpt>
      <trkpt lat="47.26475" lon="-1.73194">
        <ele>70.79</ele>
        <time>2013-12-23T10:51:17Z</time>
      </trkpt>
      <trkpt lat="47.26484" lon="-1.73203">
        <ele>71.27</ele>
        <time>2013-12-23T10:51:22Z</time>
      </trkpt>
      <trkpt lat="47.26495" lon="-1.73203">
        <ele>72.24</ele>
        <time>2013-12-23T10:51:26Z</time>
      </trkpt>
      <trkpt lat="47.26507" lon="-1.73203">
        <ele>73.68</ele>
        <time>2013-12-23T10:51:31Z</time>
      </trkpt>
      <trkpt lat="47.26519" lon="-1.73204">
        <ele>75.12</ele>
        <time>2013-12-23T10:51:35Z</time>
      </trkpt>
      <trkpt lat="47.26529" lon="-1.73216">
        <ele>75.12</ele>
        <time>2013-12-23T10:51:39Z</time>
      </trkpt>
      <trkpt lat="47.26539" lon="-1.73228">
        <ele>73.68</ele>
        <time>2013-12-23T10:51:43Z</time>
      </trkpt>
      <trkpt lat="47.26551" lon="-1.73233">
        <ele>72.72</ele>
        <time>2013-12-23T10:51:47Z</time>
      </trkpt>
      <trkpt lat="47.26562" lon="-1.73232">
        <ele>73.2</ele>
        <time>2013-12-23T10:51:51Z</time>
      </trkpt>
      <trkpt lat="47.26572" lon="-1.73242">
        <ele>73.68</ele>
        <time>2013-12-23T10:51:55Z</time>
      </trkpt>
      <trkpt lat="47.26579" lon="-1.73255">
        <ele>73.2</ele>
        <time>2013-12-23T10:51:58Z</time>
      </trkpt>
      <trkpt lat="47.26587" lon="-1.73269">
        <ele>72.72</ele>
        <time>2013-12-23T10:52:01Z</time>
      </trkpt>
      <trkpt lat="47.26595" lon="-1.73281">
        <ele>72.24</ele>
        <time>2013-12-23T10:52:04Z</time>
      </trkpt>
      <trkpt lat="47.26605" lon="-1.73294">
        <ele>71.76</ele>
        <time>2013-12-23T10:52:07Z</time>
      </trkpt>
      <trkpt lat="47.2661" lon="-1.73305">
        <ele>71.27</ele>
        <time>2013-12-23T10:52:09Z</time>
      </trkpt>
      <trkpt lat="47.26616" lon="-1.73317">
        <ele>70.79</ele>
        <time>2013-12-23T10:52:11Z</time>
      </trkpt>
      <trkpt lat="47.26621" lon="-1.73331">
        <ele>69.83</ele>
        <time>2013-12-23T10:52:13Z</time>
      </trkpt>
      <trkpt lat="47.26626" lon="-1.73346">
        <ele>69.35</ele>
        <time>2013-12-23T10:52:15Z</time>
      </trkpt>
      <trkpt lat="47.26631" lon="-1.73361">
        <ele>68.87</ele>
        <time>2013-12-23T10:52:17Z</time>
      </trkpt>
      <trkpt lat="47.26636" lon="-1.73376">
        <ele>68.39</ele>
        <time>2013-12-23T10:52:19Z</time>
      </trkpt>
      <trkpt lat="47.2664" lon="-1.7339">
        <ele>68.87</ele>
        <time>2013-12-23T10:52:21Z</time>
      </trkpt>
      <trkpt lat="47.26644" lon="-1.73405">
        <ele>68.39</ele>
        <time>2013-12-23T10:52:23Z</time>
      </trkpt>
      <trkpt lat="47.26648" lon="-1.73419">
        <ele>68.39</ele>
        <time>2013-12-23T10:52:25Z</time>
      </trkpt>
      <trkpt lat="47.26651" lon="-1.73434">
        <ele>68.39</ele>
        <time>2013-12-23T10:52:27Z</time>
      </trkpt>
      <trkpt lat="47.26654" lon="-1.73449">
        <ele>67.91</ele>
        <time>2013-12-23T10:52:29Z</time>
      </trkpt>
      <trkpt lat="47.26655" lon="-1.73464">
        <ele>67.91</ele>
        <time>2013-12-23T10:52:31Z</time>
      </trkpt>
      <trkpt lat="47.26654" lon="-1.73477">
        <ele>67.43</ele>
        <time>2013-12-23T10:52:33Z</time>
      </trkpt>
      <trkpt lat="47.26652" lon="-1.73492">
        <ele>66.95</ele>
        <time>2013-12-23T10:52:35Z</time>
      </trkpt>
      <trkpt lat="47.26648" lon="-1.73506">
        <ele>66.47</ele>
        <time>2013-12-23T10:52:37Z</time>
      </trkpt>
      <trkpt lat="47.26645" lon="-1.7352">
        <ele>66.47</ele>
        <time>2013-12-23T10:52:39Z</time>
      </trkpt>
      <trkpt lat="47.26642" lon="-1.73535">
        <ele>66.47</ele>
        <time>2013-12-23T10:52:41Z</time>
      </trkpt>
      <trkpt lat="47.26639" lon="-1.73548">
        <ele>66.47</ele>
        <time>2013-12-23T10:52:43Z</time>
      </trkpt>
      <trkpt lat="47.26636" lon="-1.73561">
        <ele>66.47</ele>
        <time>2013-12-23T10:52:45Z</time>
      </trkpt>
      <trkpt lat="47.26636" lon="-1.73576">
        <ele>66.47</ele>
        <time>2013-12-23T10:52:48Z</time>
      </trkpt>
      <trkpt lat="47.26647" lon="-1.73573">
        <ele>66.95</ele>
        <time>2013-12-23T10:52:52Z</time>
      </trkpt>
      <trkpt lat="47.26656" lon="-1.7357">
        <ele>67.43</ele>
        <time>2013-12-23T10:52:55Z</time>
      </trkpt>
      <trkpt lat="47.26666" lon="-1.73573">
        <ele>67.91</ele>
        <time>2013-12-23T10:52:58Z</time>
      </trkpt>
      <trkpt lat="47.26675" lon="-1.73577">
        <ele>68.39</ele>
        <time>2013-12-23T10:53:01Z</time>
      </trkpt>
      <trkpt lat="47.26684" lon="-1.73585">
        <ele>68.87</ele>
        <time>2013-12-23T10:53:04Z</time>
      </trkpt>
      <trkpt lat="47.26691" lon="-1.73596">
        <ele>69.35</ele>
        <time>2013-12-23T10:53:07Z</time>
      </trkpt>
      <trkpt lat="47.26698" lon="-1.73607">
        <ele>68.87</ele>
        <time>2013-12-23T10:53:10Z</time>
      </trkpt>
      <trkpt lat="47.26705" lon="-1.73618">
        <ele>67.91</ele>
        <time>2013-12-23T10:53:13Z</time>
      </trkpt>
      <trkpt lat="47.26713" lon="-1.73629">
        <ele>67.91</ele>
        <time>2013-12-23T10:53:16Z</time>
      </trkpt>
      <trkpt lat="47.26719" lon="-1.73642">
        <ele>67.43</ele>
        <time>2013-12-23T10:53:19Z</time>
      </trkpt>
      <trkpt lat="47.26725" lon="-1.73655">
        <ele>67.43</ele>
        <time>2013-12-23T10:53:22Z</time>
      </trkpt>
      <trkpt lat="47.26732" lon="-1.73666">
        <ele>67.43</ele>
        <time>2013-12-23T10:53:25Z</time>
      </trkpt>
      <trkpt lat="47.2674" lon="-1.73675">
        <ele>66.95</ele>
        <time>2013-12-23T10:53:28Z</time>
      </trkpt>
      <trkpt lat="47.26748" lon="-1.73686">
        <ele>66.47</ele>
        <time>2013-12-23T10:53:31Z</time>
      </trkpt>
      <trkpt lat="47.26756" lon="-1.73695">
        <ele>66.47</ele>
        <time>2013-12-23T10:53:34Z</time>
      </trkpt>
      <trkpt lat="47.26763" lon="-1.73705">
        <ele>65.51</ele>
        <time>2013-12-23T10:53:37Z</time>
      </trkpt>
      <trkpt lat="47.26772" lon="-1.73716">
        <ele>65.03</ele>
        <time>2013-12-23T10:53:41Z</time>
      </trkpt>
      <trkpt lat="47.26781" lon="-1.73721">
        <ele>65.99</ele>
        <time>2013-12-23T10:53:44Z</time>
      </trkpt>
      <trkpt lat="47.26789" lon="-1.73728">
        <ele>66.47</ele>
        <time>2013-12-23T10:53:47Z</time>
      </trkpt>
      <trkpt lat="47.26795" lon="-1.7374">
        <ele>66.47</ele>
        <time>2013-12-23T10:53:50Z</time>
      </trkpt>
      <trkpt lat="47.268" lon="-1.73753">
        <ele>66.95</ele>
        <time>2013-12-23T10:53:53Z</time>
      </trkpt>
      <trkpt lat="47.26805" lon="-1.73765">
        <ele>67.43</ele>
        <time>2013-12-23T10:53:56Z</time>
      </trkpt>
      <trkpt lat="47.26809" lon="-1.73778">
        <ele>68.39</ele>
        <time>2013-12-23T10:53:59Z</time>
      </trkpt>
      <trkpt lat="47.26812" lon="-1.73792">
        <ele>68.39</ele>
        <time>2013-12-23T10:54:02Z</time>
      </trkpt>
      <trkpt lat="47.26814" lon="-1.73806">
        <ele>68.39</ele>
        <time>2013-12-23T10:54:05Z</time>
      </trkpt>
      <trkpt lat="47.26817" lon="-1.7382">
        <ele>68.87</ele>
        <time>2013-12-23T10:54:08Z</time>
      </trkpt>
      <trkpt lat="47.26819" lon="-1.73834">
        <ele>69.35</ele>
        <time>2013-12-23T10:54:11Z</time>
      </trkpt>
      <trkpt lat="47.26823" lon="-1.73847">
        <ele>69.35</ele>
        <time>2013-12-23T10:54:14Z</time>
      </trkpt>
      <trkpt lat="47.26829" lon="-1.7386">
        <ele>69.83</ele>
        <time>2013-12-23T10:54:18Z</time>
      </trkpt>
      <trkpt lat="47.2683" lon="-1.73873">
        <ele>69.83</ele>
        <time>2013-12-23T10:54:22Z</time>
      </trkpt>
      <trkpt lat="47.26833" lon="-1.73888">
        <ele>69.35</ele>
        <time>2013-12-23T10:54:25Z</time>
      </trkpt>
      <trkpt lat="47.26836" lon="-1.73904">
        <ele>69.35</ele>
        <time>2013-12-23T10:54:28Z</time>
      </trkpt>
      <trkpt lat="47.2684" lon="-1.73917">
        <ele>68.87</ele>
        <time>2013-12-23T10:54:31Z</time>
      </trkpt>
      <trkpt lat="47.26842" lon="-1.73933">
        <ele>68.87</ele>
        <time>2013-12-23T10:54:34Z</time>
      </trkpt>
      <trkpt lat="47.26844" lon="-1.73951">
        <ele>68.39</ele>
        <time>2013-12-23T10:54:37Z</time>
      </trkpt>
      <trkpt lat="47.26847" lon="-1.73969">
        <ele>68.39</ele>
        <time>2013-12-23T10:54:40Z</time>
      </trkpt>
      <trkpt lat="47.26849" lon="-1.73985">
        <ele>67.91</ele>
        <time>2013-12-23T10:54:43Z</time>
      </trkpt>
      <trkpt lat="47.26852" lon="-1.74002">
        <ele>67.43</ele>
        <time>2013-12-23T10:54:46Z</time>
      </trkpt>
      <trkpt lat="47.26854" lon="-1.74021">
        <ele>66.95</ele>
        <time>2013-12-23T10:54:49Z</time>
      </trkpt>
      <trkpt lat="47.26857" lon="-1.74039">
        <ele>66.47</ele>
        <time>2013-12-23T10:54:52Z</time>
      </trkpt>
      <trkpt lat="47.26858" lon="-1.74054">
        <ele>66.47</ele>
        <time>2013-12-23T10:54:55Z</time>
      </trkpt>
      <trkpt lat="47.26859" lon="-1.74071">
        <ele>66.47</ele>
        <time>2013-12-23T10:54:58Z</time>
      </trkpt>
      <trkpt lat="47.26858" lon="-1.74086">
        <ele>66.47</ele>
        <time>2013-12-23T10:55:01Z</time>
      </trkpt>
      <trkpt lat="47.26858" lon="-1.74102">
        <ele>66.47</ele>
        <time>2013-12-23T10:55:04Z</time>
      </trkpt>
      <trkpt lat="47.26859" lon="-1.74117">
        <ele>66.95</ele>
        <time>2013-12-23T10:55:07Z</time>
      </trkpt>
      <trkpt lat="47.26861" lon="-1.74132">
        <ele>67.43</ele>
        <time>2013-12-23T10:55:10Z</time>
      </trkpt>
      <trkpt lat="47.26865" lon="-1.74147">
        <ele>67.91</ele>
        <time>2013-12-23T10:55:13Z</time>
      </trkpt>
      <trkpt lat="47.26869" lon="-1.74163">
        <ele>67.43</ele>
        <time>2013-12-23T10:55:16Z</time>
      </trkpt>
      <trkpt lat="47.26873" lon="-1.74179">
        <ele>67.43</ele>
        <time>2013-12-23T10:55:19Z</time>
      </trkpt>
      <trkpt lat="47.26877" lon="-1.74196">
        <ele>67.43</ele>
        <time>2013-12-23T10:55:22Z</time>
      </trkpt>
      <trkpt lat="47.26883" lon="-1.74213">
        <ele>67.43</ele>
        <time>2013-12-23T10:55:25Z</time>
      </trkpt>
      <trkpt lat="47.26889" lon="-1.74228">
        <ele>66.95</ele>
        <time>2013-12-23T10:55:28Z</time>
      </trkpt>
      <trkpt lat="47.26894" lon="-1.74245">
        <ele>66.95</ele>
        <time>2013-12-23T10:55:31Z</time>
      </trkpt>
      <trkpt lat="47.26901" lon="-1.7426">
        <ele>66.95</ele>
        <time>2013-12-23T10:55:34Z</time>
      </trkpt>
      <trkpt lat="47.26908" lon="-1.74276">
        <ele>66.95</ele>
        <time>2013-12-23T10:55:37Z</time>
      </trkpt>
      <trkpt lat="47.2691" lon="-1.74289">
        <ele>66.95</ele>
        <time>2013-12-23T10:55:40Z</time>
      </trkpt>
      <trkpt lat="47.26904" lon="-1.74302">
        <ele>66.95</ele>
        <time>2013-12-23T10:55:43Z</time>
      </trkpt>
      <trkpt lat="47.26895" lon="-1.74317">
        <ele>66.47</ele>
        <time>2013-12-23T10:55:46Z</time>
      </trkpt>
      <trkpt lat="47.2689" lon="-1.74329">
        <ele>66.47</ele>
        <time>2013-12-23T10:55:48Z</time>
      </trkpt>
      <trkpt lat="47.26886" lon="-1.74344">
        <ele>65.99</ele>
        <time>2013-12-23T10:55:50Z</time>
      </trkpt>
      <trkpt lat="47.26884" lon="-1.7436">
        <ele>65.51</ele>
        <time>2013-12-23T10:55:52Z</time>
      </trkpt>
      <trkpt lat="47.26882" lon="-1.74375">
        <ele>65.51</ele>
        <time>2013-12-23T10:55:54Z</time>
      </trkpt>
      <trkpt lat="47.26882" lon="-1.7439">
        <ele>65.51</ele>
        <time>2013-12-23T10:55:56Z</time>
      </trkpt>
      <trkpt lat="47.26882" lon="-1.74404">
        <ele>65.03</ele>
        <time>2013-12-23T10:55:58Z</time>
      </trkpt>
      <trkpt lat="47.26881" lon="-1.74418">
        <ele>65.03</ele>
        <time>2013-12-23T10:56:00Z</time>
      </trkpt>
      <trkpt lat="47.2688" lon="-1.74432">
        <ele>65.03</ele>
        <time>2013-12-23T10:56:02Z</time>
      </trkpt>
      <trkpt lat="47.26878" lon="-1.74445">
        <ele>65.03</ele>
        <time>2013-12-23T10:56:04Z</time>
      </trkpt>
      <trkpt lat="47.26876" lon="-1.74459">
        <ele>64.55</ele>
        <time>2013-12-23T10:56:06Z</time>
      </trkpt>
      <trkpt lat="47.26875" lon="-1.74473">
        <ele>64.55</ele>
        <time>2013-12-23T10:56:08Z</time>
      </trkpt>
      <trkpt lat="47.26875" lon="-1.74487">
        <ele>65.03</ele>
        <time>2013-12-23T10:56:10Z</time>
      </trkpt>
      <trkpt lat="47.26877" lon="-1.74501">
        <ele>65.03</ele>
        <time>2013-12-23T10:56:12Z</time>
      </trkpt>
      <trkpt lat="47.26881" lon="-1.74513">
        <ele>65.03</ele>
        <time>2013-12-23T10:56:14Z</time>
      </trkpt>
      <trkpt lat="47.26886" lon="-1.74525">
        <ele>64.55</ele>
        <time>2013-12-23T10:56:16Z</time>
      </trkpt>
      <trkpt lat="47.26892" lon="-1.74537">
        <ele>64.55</ele>
        <time>2013-12-23T10:56:18Z</time>
      </trkpt>
      <trkpt lat="47.269" lon="-1.74554">
        <ele>64.55</ele>
        <time>2013-12-23T10:56:21Z</time>
      </trkpt>
      <trkpt lat="47.26906" lon="-1.74572">
        <ele>64.07</ele>
        <time>2013-12-23T10:56:24Z</time>
      </trkpt>
      <trkpt lat="47.26911" lon="-1.7459">
        <ele>63.58</ele>
        <time>2013-12-23T10:56:27Z</time>
      </trkpt>
      <trkpt lat="47.26914" lon="-1.74603">
        <ele>63.1</ele>
        <time>2013-12-23T10:56:29Z</time>
      </trkpt>
      <trkpt lat="47.26917" lon="-1.74616">
        <ele>63.1</ele>
        <time>2013-12-23T10:56:31Z</time>
      </trkpt>
      <trkpt lat="47.2692" lon="-1.74631">
        <ele>63.1</ele>
        <time>2013-12-23T10:56:33Z</time>
      </trkpt>
      <trkpt lat="47.26923" lon="-1.74645">
        <ele>62.62</ele>
        <time>2013-12-23T10:56:35Z</time>
      </trkpt>
      <trkpt lat="47.26924" lon="-1.7466">
        <ele>62.14</ele>
        <time>2013-12-23T10:56:37Z</time>
      </trkpt>
      <trkpt lat="47.26925" lon="-1.74677">
        <ele>61.18</ele>
        <time>2013-12-23T10:56:39Z</time>
      </trkpt>
      <trkpt lat="47.26925" lon="-1.74695">
        <ele>60.22</ele>
        <time>2013-12-23T10:56:41Z</time>
      </trkpt>
      <trkpt lat="47.26924" lon="-1.74713">
        <ele>59.74</ele>
        <time>2013-12-23T10:56:43Z</time>
      </trkpt>
      <trkpt lat="47.26922" lon="-1.7473">
        <ele>59.26</ele>
        <time>2013-12-23T10:56:45Z</time>
      </trkpt>
      <trkpt lat="47.26914" lon="-1.74743">
        <ele>58.3</ele>
        <time>2013-12-23T10:56:47Z</time>
      </trkpt>
      <trkpt lat="47.26904" lon="-1.74751">
        <ele>57.34</ele>
        <time>2013-12-23T10:56:49Z</time>
      </trkpt>
      <trkpt lat="47.26891" lon="-1.74754">
        <ele>56.86</ele>
        <time>2013-12-23T10:56:51Z</time>
      </trkpt>
      <trkpt lat="47.26878" lon="-1.74755">
        <ele>55.89</ele>
        <time>2013-12-23T10:56:53Z</time>
      </trkpt>
      <trkpt lat="47.26865" lon="-1.74756">
        <ele>55.41</ele>
        <time>2013-12-23T10:56:55Z</time>
      </trkpt>
      <trkpt lat="47.26852" lon="-1.74756">
        <ele>54.93</ele>
        <time>2013-12-23T10:56:57Z</time>
      </trkpt>
      <trkpt lat="47.26838" lon="-1.74756">
        <ele>53.97</ele>
        <time>2013-12-23T10:56:59Z</time>
      </trkpt>
      <trkpt lat="47.26826" lon="-1.74756">
        <ele>53.49</ele>
        <time>2013-12-23T10:57:01Z</time>
      </trkpt>
      <trkpt lat="47.26813" lon="-1.74756">
        <ele>53.01</ele>
        <time>2013-12-23T10:57:03Z</time>
      </trkpt>
      <trkpt lat="47.26799" lon="-1.74756">
        <ele>53.01</ele>
        <time>2013-12-23T10:57:05Z</time>
      </trkpt>
      <trkpt lat="47.26785" lon="-1.74755">
        <ele>53.01</ele>
        <time>2013-12-23T10:57:07Z</time>
      </trkpt>
      <trkpt lat="47.26773" lon="-1.74758">
        <ele>53.01</ele>
        <time>2013-12-23T10:57:09Z</time>
      </trkpt>
      <trkpt lat="47.26761" lon="-1.74763">
        <ele>53.01</ele>
        <time>2013-12-23T10:57:11Z</time>
      </trkpt>
      <trkpt lat="47.26751" lon="-1.74769">
        <ele>53.01</ele>
        <time>2013-12-23T10:57:13Z</time>
      </trkpt>
      <trkpt lat="47.26743" lon="-1.74778">
        <ele>52.53</ele>
        <time>2013-12-23T10:57:15Z</time>
      </trkpt>
      <trkpt lat="47.26735" lon="-1.74788">
        <ele>52.05</ele>
        <time>2013-12-23T10:57:17Z</time>
      </trkpt>
      <trkpt lat="47.26725" lon="-1.74797">
        <ele>51.57</ele>
        <time>2013-12-23T10:57:19Z</time>
      </trkpt>
      <trkpt lat="47.26716" lon="-1.74807">
        <ele>50.61</ele>
        <time>2013-12-23T10:57:21Z</time>
      </trkpt>
      <trkpt lat="47.26706" lon="-1.74817">
        <ele>49.16</ele>
        <time>2013-12-23T10:57:23Z</time>
      </trkpt>
      <trkpt lat="47.26695" lon="-1.74827">
        <ele>48.2</ele>
        <time>2013-12-23T10:57:25Z</time>
      </trkpt>
      <trkpt lat="47.26684" lon="-1.74837">
        <ele>46.76</ele>
        <time>2013-12-23T10:57:27Z</time>
      </trkpt>
      <trkpt lat="47.26674" lon="-1.74846">
        <ele>45.8</ele>
        <time>2013-12-23T10:57:29Z</time>
      </trkpt>
      <trkpt lat="47.26665" lon="-1.74854">
        <ele>44.84</ele>
        <time>2013-12-23T10:57:31Z</time>
      </trkpt>
      <trkpt lat="47.26656" lon="-1.74862">
        <ele>43.88</ele>
        <time>2013-12-23T10:57:33Z</time>
      </trkpt>
      <trkpt lat="47.26648" lon="-1.74869">
        <ele>42.92</ele>
        <time>2013-12-23T10:57:35Z</time>
      </trkpt>
      <trkpt lat="47.2664" lon="-1.74876">
        <ele>41.95</ele>
        <time>2013-12-23T10:57:37Z</time>
      </trkpt>
      <trkpt lat="47.26631" lon="-1.74882">
        <ele>40.99</ele>
        <time>2013-12-23T10:57:39Z</time>
      </trkpt>
      <trkpt lat="47.26623" lon="-1.74889">
        <ele>40.03</ele>
        <time>2013-12-23T10:57:41Z</time>
      </trkpt>
      <trkpt lat="47.26611" lon="-1.749">
        <ele>38.59</ele>
        <time>2013-12-23T10:57:44Z</time>
      </trkpt>
      <trkpt lat="47.26603" lon="-1.74909">
        <ele>37.63</ele>
        <time>2013-12-23T10:57:46Z</time>
      </trkpt>
      <trkpt lat="47.26595" lon="-1.74921">
        <ele>36.67</ele>
        <time>2013-12-23T10:57:48Z</time>
      </trkpt>
      <trkpt lat="47.26591" lon="-1.74936">
        <ele>35.71</ele>
        <time>2013-12-23T10:57:50Z</time>
      </trkpt>
      <trkpt lat="47.26593" lon="-1.74952">
        <ele>35.23</ele>
        <time>2013-12-23T10:57:52Z</time>
      </trkpt>
      <trkpt lat="47.26597" lon="-1.74965">
        <ele>35.23</ele>
        <time>2013-12-23T10:57:54Z</time>
      </trkpt>
      <trkpt lat="47.26601" lon="-1.74978">
        <ele>35.23</ele>
        <time>2013-12-23T10:57:56Z</time>
      </trkpt>
      <trkpt lat="47.26606" lon="-1.74995">
        <ele>34.74</ele>
        <time>2013-12-23T10:57:59Z</time>
      </trkpt>
      <trkpt lat="47.26612" lon="-1.75013">
        <ele>34.74</ele>
        <time>2013-12-23T10:58:02Z</time>
      </trkpt>
      <trkpt lat="47.26616" lon="-1.75026">
        <ele>34.26</ele>
        <time>2013-12-23T10:58:04Z</time>
      </trkpt>
      <trkpt lat="47.2662" lon="-1.75039">
        <ele>34.26</ele>
        <time>2013-12-23T10:58:06Z</time>
      </trkpt>
      <trkpt lat="47.26624" lon="-1.75054">
        <ele>33.78</ele>
        <time>2013-12-23T10:58:08Z</time>
      </trkpt>
      <trkpt lat="47.26628" lon="-1.75069">
        <ele>33.3</ele>
        <time>2013-12-23T10:58:10Z</time>
      </trkpt>
      <trkpt lat="47.26633" lon="-1.75085">
        <ele>32.82</ele>
        <time>2013-12-23T10:58:12Z</time>
      </trkpt>
      <trkpt lat="47.26638" lon="-1.75102">
        <ele>32.34</ele>
        <time>2013-12-23T10:58:14Z</time>
      </trkpt>
      <trkpt lat="47.26643" lon="-1.75121">
        <ele>31.38</ele>
        <time>2013-12-23T10:58:16Z</time>
      </trkpt>
      <trkpt lat="47.26648" lon="-1.7514">
        <ele>30.9</ele>
        <time>2013-12-23T10:58:18Z</time>
      </trkpt>
      <trkpt lat="47.26653" lon="-1.7516">
        <ele>29.94</ele>
        <time>2013-12-23T10:58:20Z</time>
      </trkpt>
      <trkpt lat="47.26657" lon="-1.75181">
        <ele>29.46</ele>
        <time>2013-12-23T10:58:22Z</time>
      </trkpt>
      <trkpt lat="47.2666" lon="-1.75201">
        <ele>28.5</ele>
        <time>2013-12-23T10:58:24Z</time>
      </trkpt>
      <trkpt lat="47.26662" lon="-1.75222">
        <ele>27.53</ele>
        <time>2013-12-23T10:58:26Z</time>
      </trkpt>
      <trkpt lat="47.26664" lon="-1.75241">
        <ele>26.57</ele>
        <time>2013-12-23T10:58:28Z</time>
      </trkpt>
      <trkpt lat="47.26665" lon="-1.75256">
        <ele>25.61</ele>
        <time>2013-12-23T10:58:30Z</time>
      </trkpt>
      <trkpt lat="47.26667" lon="-1.75269">
        <ele>25.13</ele>
        <time>2013-12-23T10:58:33Z</time>
      </trkpt>
      <trkpt lat="47.26676" lon="-1.75265">
        <ele>25.13</ele>
        <time>2013-12-23T10:58:38Z</time>
      </trkpt>
      <trkpt lat="47.26684" lon="-1.75253">
        <ele>26.09</ele>
        <time>2013-12-23T10:58:43Z</time>
      </trkpt>
      <trkpt lat="47.26692" lon="-1.75246">
        <ele>26.57</ele>
        <time>2013-12-23T10:58:47Z</time>
      </trkpt>
      <trkpt lat="47.26701" lon="-1.75241">
        <ele>28.02</ele>
        <time>2013-12-23T10:58:52Z</time>
      </trkpt>
      <trkpt lat="47.26711" lon="-1.75236">
        <ele>29.94</ele>
        <time>2013-12-23T10:58:58Z</time>
      </trkpt>
      <trkpt lat="47.26721" lon="-1.75231">
        <ele>32.34</ele>
        <time>2013-12-23T10:59:03Z</time>
      </trkpt>
      <trkpt lat="47.2673" lon="-1.75226">
        <ele>32.82</ele>
        <time>2013-12-23T10:59:07Z</time>
      </trkpt>
      <trkpt lat="47.26741" lon="-1.7522">
        <ele>33.78</ele>
        <time>2013-12-23T10:59:12Z</time>
      </trkpt>
      <trkpt lat="47.26752" lon="-1.75219">
        <ele>34.26</ele>
        <time>2013-12-23T10:59:17Z</time>
      </trkpt>
      <trkpt lat="47.26763" lon="-1.7522">
        <ele>35.71</ele>
        <time>2013-12-23T10:59:47Z</time>
      </trkpt>
      <trkpt lat="47.26773" lon="-1.75225">
        <ele>35.71</ele>
        <time>2013-12-23T10:59:52Z</time>
      </trkpt>
      <trkpt lat="47.26782" lon="-1.75232">
        <ele>36.19</ele>
        <time>2013-12-23T10:59:57Z</time>
      </trkpt>
      <trkpt lat="47.2679" lon="-1.75243">
        <ele>36.19</ele>
        <time>2013-12-23T11:00:01Z</time>
      </trkpt>
      <trkpt lat="47.26797" lon="-1.75258">
        <ele>35.71</ele>
        <time>2013-12-23T11:00:04Z</time>
      </trkpt>
      <trkpt lat="47.26804" lon="-1.75277">
        <ele>35.71</ele>
        <time>2013-12-23T11:00:07Z</time>
      </trkpt>
      <trkpt lat="47.26814" lon="-1.75287">
        <ele>35.23</ele>
        <time>2013-12-23T11:00:10Z</time>
      </trkpt>
      <trkpt lat="47.26826" lon="-1.75291">
        <ele>33.78</ele>
        <time>2013-12-23T11:00:13Z</time>
      </trkpt>
      <trkpt lat="47.26839" lon="-1.75292">
        <ele>33.3</ele>
        <time>2013-12-23T11:00:16Z</time>
      </trkpt>
      <trkpt lat="47.2685" lon="-1.75293">
        <ele>31.86</ele>
        <time>2013-12-23T11:00:21Z</time>
      </trkpt>
      <trkpt lat="47.26861" lon="-1.75291">
        <ele>29.94</ele>
        <time>2013-12-23T11:00:25Z</time>
      </trkpt>
      <trkpt lat="47.26878" lon="-1.75283">
        <ele>28.02</ele>
        <time>2013-12-23T11:00:55Z</time>
      </trkpt>
      <trkpt lat="47.26892" lon="-1.75288">
        <ele>39.07</ele>
        <time>2013-12-23T11:01:48Z</time>
      </trkpt>
      <trkpt lat="47.26901" lon="-1.7529">
        <ele>38.59</ele>
        <time>2013-12-23T11:02:06Z</time>
      </trkpt>
      <trkpt lat="47.26912" lon="-1.75291">
        <ele>35.71</ele>
        <time>2013-12-23T11:02:14Z</time>
      </trkpt>
      <trkpt lat="47.26922" lon="-1.75291">
        <ele>34.74</ele>
        <time>2013-12-23T11:02:21Z</time>
      </trkpt>
      <trkpt lat="47.26934" lon="-1.75295">
        <ele>34.26</ele>
        <time>2013-12-23T11:02:34Z</time>
      </trkpt>
      <trkpt lat="47.26946" lon="-1.75305">
        <ele>41.95</ele>
        <time>2013-12-23T11:02:57Z</time>
      </trkpt>
      <trkpt lat="47.2696" lon="-1.75311">
        <ele>46.76</ele>
        <time>2013-12-23T11:03:21Z</time>
      </trkpt>
      <trkpt lat="47.26971" lon="-1.75321">
        <ele>52.53</ele>
        <time>2013-12-23T11:03:38Z</time>
      </trkpt>
      <trkpt lat="47.26985" lon="-1.75335">
        <ele>56.37</ele>
        <time>2013-12-23T11:04:02Z</time>
      </trkpt>
      <trkpt lat="47.26997" lon="-1.75344">
        <ele>55.89</ele>
        <time>2013-12-23T11:04:12Z</time>
      </trkpt>
      <trkpt lat="47.27012" lon="-1.7536">
        <ele>57.34</ele>
        <time>2013-12-23T11:04:38Z</time>
      </trkpt>
      <trkpt lat="47.27022" lon="-1.7537">
        <ele>60.7</ele>
        <time>2013-12-23T11:04:54Z</time>
      </trkpt>
      <trkpt lat="47.27036" lon="-1.75378">
        <ele>63.1</ele>
        <time>2013-12-23T11:05:17Z</time>
      </trkpt>
      <trkpt lat="47.27047" lon="-1.7539">
        <ele>68.39</ele>
        <time>2013-12-23T11:05:35Z</time>
      </trkpt>
      <trkpt lat="47.27046" lon="-1.75405">
        <ele>67.91</ele>
        <time>2013-12-23T11:05:47Z</time>
      </trkpt>
      <trkpt lat="47.27041" lon="-1.75418">
        <ele>66.95</ele>
        <time>2013-12-23T11:05:53Z</time>
      </trkpt>
      <trkpt lat="47.2704" lon="-1.75436">
        <ele>64.55</ele>
        <time>2013-12-23T11:06:02Z</time>
      </trkpt>
      <trkpt lat="47.27038" lon="-1.75453">
        <ele>64.07</ele>
        <time>2013-12-23T11:06:10Z</time>
      </trkpt>
      <trkpt lat="47.27038" lon="-1.75473">
        <ele>62.14</ele>
        <time>2013-12-23T11:06:17Z</time>
      </trkpt>
      <trkpt lat="47.27037" lon="-1.75491">
        <ele>59.74</ele>
        <time>2013-12-23T11:06:23Z</time>
      </trkpt>
      <trkpt lat="47.27037" lon="-1.75508">
        <ele>57.82</ele>
        <time>2013-12-23T11:06:29Z</time>
      </trkpt>
      <trkpt lat="47.27038" lon="-1.75515">
        <ele>53.97</ele>
        <time>2013-12-23T11:16:36Z</time>
      </trkpt>
      <trkpt lat="47.27037" lon="-1.7553">
        <ele>53.49</ele>
        <time>2013-12-23T11:17:07Z</time>
      </trkpt>
      <trkpt lat="47.27039" lon="-1.75544">
        <ele>53.49</ele>
        <time>2013-12-23T11:17:11Z</time>
      </trkpt>
      <trkpt lat="47.27048" lon="-1.75547">
        <ele>53.97</ele>
        <time>2013-12-23T11:17:15Z</time>
      </trkpt>
      <trkpt lat="47.27059" lon="-1.75546">
        <ele>55.41</ele>
        <time>2013-12-23T11:17:19Z</time>
      </trkpt>
      <trkpt lat="47.27069" lon="-1.75543">
        <ele>56.37</ele>
        <time>2013-12-23T11:17:23Z</time>
      </trkpt>
      <trkpt lat="47.27079" lon="-1.7554">
        <ele>57.82</ele>
        <time>2013-12-23T11:17:27Z</time>
      </trkpt>
      <trkpt lat="47.27089" lon="-1.75538">
        <ele>58.78</ele>
        <time>2013-12-23T11:17:31Z</time>
      </trkpt>
      <trkpt lat="47.27099" lon="-1.75538">
        <ele>59.74</ele>
        <time>2013-12-23T11:17:35Z</time>
      </trkpt>
      <trkpt lat="47.27108" lon="-1.75536">
        <ele>61.18</ele>
        <time>2013-12-23T11:17:39Z</time>
      </trkpt>
      <trkpt lat="47.27118" lon="-1.75533">
        <ele>61.18</ele>
        <time>2013-12-23T11:17:43Z</time>
      </trkpt>
      <trkpt lat="47.27129" lon="-1.75528">
        <ele>61.66</ele>
        <time>2013-12-23T11:17:47Z</time>
      </trkpt>
      <trkpt lat="47.27139" lon="-1.75522">
        <ele>61.66</ele>
        <time>2013-12-23T11:17:51Z</time>
      </trkpt>
      <trkpt lat="47.2715" lon="-1.75517">
        <ele>61.66</ele>
        <time>2013-12-23T11:17:55Z</time>
      </trkpt>
      <trkpt lat="47.2716" lon="-1.75511">
        <ele>62.14</ele>
        <time>2013-12-23T11:17:59Z</time>
      </trkpt>
      <trkpt lat="47.27168" lon="-1.75504">
        <ele>62.62</ele>
        <time>2013-12-23T11:18:03Z</time>
      </trkpt>
      <trkpt lat="47.27179" lon="-1.75498">
        <ele>62.62</ele>
        <time>2013-12-23T11:18:08Z</time>
      </trkpt>
      <trkpt lat="47.27191" lon="-1.75491">
        <ele>62.62</ele>
        <time>2013-12-23T11:18:12Z</time>
      </trkpt>
      <trkpt lat="47.27201" lon="-1.75486">
        <ele>62.62</ele>
        <time>2013-12-23T11:18:15Z</time>
      </trkpt>
      <trkpt lat="47.27211" lon="-1.7548">
        <ele>63.1</ele>
        <time>2013-12-23T11:18:18Z</time>
      </trkpt>
      <trkpt lat="47.2722" lon="-1.75474">
        <ele>63.1</ele>
        <time>2013-12-23T11:18:21Z</time>
      </trkpt>
      <trkpt lat="47.2723" lon="-1.75468">
        <ele>63.1</ele>
        <time>2013-12-23T11:18:24Z</time>
      </trkpt>
      <trkpt lat="47.27241" lon="-1.75463">
        <ele>63.58</ele>
        <time>2013-12-23T11:18:27Z</time>
      </trkpt>
      <trkpt lat="47.27252" lon="-1.75458">
        <ele>63.58</ele>
        <time>2013-12-23T11:18:30Z</time>
      </trkpt>
      <trkpt lat="47.27264" lon="-1.75453">
        <ele>63.1</ele>
        <time>2013-12-23T11:18:33Z</time>
      </trkpt>
      <trkpt lat="47.27275" lon="-1.75449">
        <ele>63.58</ele>
        <time>2013-12-23T11:18:36Z</time>
      </trkpt>
      <trkpt lat="47.27287" lon="-1.75446">
        <ele>63.58</ele>
        <time>2013-12-23T11:18:39Z</time>
      </trkpt>
      <trkpt lat="47.27299" lon="-1.75442">
        <ele>64.07</ele>
        <time>2013-12-23T11:18:42Z</time>
      </trkpt>
      <trkpt lat="47.27311" lon="-1.7544">
        <ele>64.55</ele>
        <time>2013-12-23T11:18:45Z</time>
      </trkpt>
      <trkpt lat="47.27323" lon="-1.75437">
        <ele>64.55</ele>
        <time>2013-12-23T11:18:48Z</time>
      </trkpt>
      <trkpt lat="47.27335" lon="-1.75435">
        <ele>65.03</ele>
        <time>2013-12-23T11:18:51Z</time>
      </trkpt>
      <trkpt lat="47.27347" lon="-1.75432">
        <ele>65.51</ele>
        <time>2013-12-23T11:18:54Z</time>
      </trkpt>
      <trkpt lat="47.2736" lon="-1.75429">
        <ele>65.51</ele>
        <time>2013-12-23T11:18:57Z</time>
      </trkpt>
      <trkpt lat="47.27371" lon="-1.75426">
        <ele>65.51</ele>
        <time>2013-12-23T11:19:00Z</time>
      </trkpt>
      <trkpt lat="47.27382" lon="-1.75424">
        <ele>65.51</ele>
        <time>2013-12-23T11:19:03Z</time>
      </trkpt>
      <trkpt lat="47.27393" lon="-1.75422">
        <ele>65.99</ele>
        <time>2013-12-23T11:19:06Z</time>
      </trkpt>
      <trkpt lat="47.27404" lon="-1.7542">
        <ele>65.99</ele>
        <time>2013-12-23T11:19:09Z</time>
      </trkpt>
      <trkpt lat="47.27415" lon="-1.75417">
        <ele>66.47</ele>
        <time>2013-12-23T11:19:12Z</time>
      </trkpt>
      <trkpt lat="47.27426" lon="-1.75414">
        <ele>67.43</ele>
        <time>2013-12-23T11:19:15Z</time>
      </trkpt>
      <trkpt lat="47.27437" lon="-1.75411">
        <ele>67.43</ele>
        <time>2013-12-23T11:19:18Z</time>
      </trkpt>
      <trkpt lat="47.27447" lon="-1.75408">
        <ele>67.91</ele>
        <time>2013-12-23T11:19:21Z</time>
      </trkpt>
      <trkpt lat="47.27459" lon="-1.75406">
        <ele>67.91</ele>
        <time>2013-12-23T11:19:25Z</time>
      </trkpt>
      <trkpt lat="47.27464" lon="-1.75415">
        <ele>68.39</ele>
        <time>2013-12-23T11:19:29Z</time>
      </trkpt>
      <trkpt lat="47.27463" lon="-1.75432">
        <ele>68.39</ele>
        <time>2013-12-23T11:19:32Z</time>
      </trkpt>
      <trkpt lat="47.27461" lon="-1.75449">
        <ele>67.91</ele>
        <time>2013-12-23T11:19:35Z</time>
      </trkpt>
      <trkpt lat="47.27458" lon="-1.75467">
        <ele>67.43</ele>
        <time>2013-12-23T11:19:38Z</time>
      </trkpt>
      <trkpt lat="47.27455" lon="-1.7548">
        <ele>67.43</ele>
        <time>2013-12-23T11:19:40Z</time>
      </trkpt>
      <trkpt lat="47.2745" lon="-1.75493">
        <ele>66.95</ele>
        <time>2013-12-23T11:19:42Z</time>
      </trkpt>
      <trkpt lat="47.27446" lon="-1.75507">
        <ele>66.95</ele>
        <time>2013-12-23T11:19:44Z</time>
      </trkpt>
      <trkpt lat="47.27441" lon="-1.7552">
        <ele>66.47</ele>
        <time>2013-12-23T11:19:46Z</time>
      </trkpt>
      <trkpt lat="47.27438" lon="-1.75534">
        <ele>66.47</ele>
        <time>2013-12-23T11:19:48Z</time>
      </trkpt>
      <trkpt lat="47.27434" lon="-1.75549">
        <ele>66.47</ele>
        <time>2013-12-23T11:19:50Z</time>
      </trkpt>
      <trkpt lat="47.27432" lon="-1.75564">
        <ele>65.99</ele>
        <time>2013-12-23T11:19:52Z</time>
      </trkpt>
      <trkpt lat="47.2743" lon="-1.75579">
        <ele>65.51</ele>
        <time>2013-12-23T11:19:54Z</time>
      </trkpt>
      <trkpt lat="47.27429" lon="-1.75595">
        <ele>65.51</ele>
        <time>2013-12-23T11:19:56Z</time>
      </trkpt>
      <trkpt lat="47.27427" lon="-1.75609">
        <ele>65.51</ele>
        <time>2013-12-23T11:19:58Z</time>
      </trkpt>
      <trkpt lat="47.27426" lon="-1.75625">
        <ele>65.03</ele>
        <time>2013-12-23T11:20:00Z</time>
      </trkpt>
      <trkpt lat="47.27424" lon="-1.7564">
        <ele>65.03</ele>
        <time>2013-12-23T11:20:02Z</time>
      </trkpt>
      <trkpt lat="47.27423" lon="-1.75657">
        <ele>64.55</ele>
        <time>2013-12-23T11:20:04Z</time>
      </trkpt>
      <trkpt lat="47.27421" lon="-1.75673">
        <ele>64.55</ele>
        <time>2013-12-23T11:20:06Z</time>
      </trkpt>
      <trkpt lat="47.2742" lon="-1.75689">
        <ele>64.07</ele>
        <time>2013-12-23T11:20:08Z</time>
      </trkpt>
      <trkpt lat="47.27418" lon="-1.75705">
        <ele>64.07</ele>
        <time>2013-12-23T11:20:10Z</time>
      </trkpt>
      <trkpt lat="47.27415" lon="-1.75719">
        <ele>63.58</ele>
        <time>2013-12-23T11:20:12Z</time>
      </trkpt>
      <trkpt lat="47.27412" lon="-1.75734">
        <ele>63.58</ele>
        <time>2013-12-23T11:20:14Z</time>
      </trkpt>
      <trkpt lat="47.27407" lon="-1.75748">
        <ele>63.58</ele>
        <time>2013-12-23T11:20:16Z</time>
      </trkpt>
      <trkpt lat="47.27402" lon="-1.75763">
        <ele>63.1</ele>
        <time>2013-12-23T11:20:18Z</time>
      </trkpt>
      <trkpt lat="47.27398" lon="-1.75777">
        <ele>63.1</ele>
        <time>2013-12-23T11:20:20Z</time>
      </trkpt>
      <trkpt lat="47.27393" lon="-1.75791">
        <ele>62.62</ele>
        <time>2013-12-23T11:20:22Z</time>
      </trkpt>
      <trkpt lat="47.27389" lon="-1.75804">
        <ele>62.14</ele>
        <time>2013-12-23T11:20:24Z</time>
      </trkpt>
      <trkpt lat="47.27386" lon="-1.75817">
        <ele>62.14</ele>
        <time>2013-12-23T11:20:26Z</time>
      </trkpt>
      <trkpt lat="47.27389" lon="-1.7583">
        <ele>62.14</ele>
        <time>2013-12-23T11:20:28Z</time>
      </trkpt>
      <trkpt lat="47.27396" lon="-1.75848">
        <ele>62.62</ele>
        <time>2013-12-23T11:20:31Z</time>
      </trkpt>
      <trkpt lat="47.27402" lon="-1.75863">
        <ele>62.62</ele>
        <time>2013-12-23T11:20:34Z</time>
      </trkpt>
      <trkpt lat="47.2741" lon="-1.75875">
        <ele>62.14</ele>
        <time>2013-12-23T11:20:37Z</time>
      </trkpt>
      <trkpt lat="47.27423" lon="-1.75873">
        <ele>62.62</ele>
        <time>2013-12-23T11:20:40Z</time>
      </trkpt>
      <trkpt lat="47.27431" lon="-1.75869">
        <ele>62.14</ele>
        <time>2013-12-23T11:20:42Z</time>
      </trkpt>
      <trkpt lat="47.2744" lon="-1.75865">
        <ele>62.14</ele>
        <time>2013-12-23T11:20:44Z</time>
      </trkpt>
      <trkpt lat="47.27449" lon="-1.75862">
        <ele>62.14</ele>
        <time>2013-12-23T11:20:46Z</time>
      </trkpt>
      <trkpt lat="47.27458" lon="-1.75859">
        <ele>61.66</ele>
        <time>2013-12-23T11:20:48Z</time>
      </trkpt>
      <trkpt lat="47.27468" lon="-1.75857">
        <ele>61.66</ele>
        <time>2013-12-23T11:20:50Z</time>
      </trkpt>
      <trkpt lat="47.27477" lon="-1.75855">
        <ele>61.66</ele>
        <time>2013-12-23T11:20:52Z</time>
      </trkpt>
      <trkpt lat="47.27486" lon="-1.75851">
        <ele>61.18</ele>
        <time>2013-12-23T11:20:54Z</time>
      </trkpt>
      <trkpt lat="47.27495" lon="-1.75847">
        <ele>61.18</ele>
        <time>2013-12-23T11:20:56Z</time>
      </trkpt>
      <trkpt lat="47.27503" lon="-1.75843">
        <ele>61.18</ele>
        <time>2013-12-23T11:20:58Z</time>
      </trkpt>
      <trkpt lat="47.27515" lon="-1.75844">
        <ele>60.7</ele>
        <time>2013-12-23T11:21:01Z</time>
      </trkpt>
      <trkpt lat="47.27519" lon="-1.75861">
        <ele>60.22</ele>
        <time>2013-12-23T11:21:04Z</time>
      </trkpt>
      <trkpt lat="47.27517" lon="-1.75879">
        <ele>60.22</ele>
        <time>2013-12-23T11:21:07Z</time>
      </trkpt>
      <trkpt lat="47.27515" lon="-1.75898">
        <ele>60.22</ele>
        <time>2013-12-23T11:21:10Z</time>
      </trkpt>
      <trkpt lat="47.27512" lon="-1.75916">
        <ele>60.22</ele>
        <time>2013-12-23T11:21:13Z</time>
      </trkpt>
      <trkpt lat="47.27509" lon="-1.75934">
        <ele>60.7</ele>
        <time>2013-12-23T11:21:16Z</time>
      </trkpt>
      <trkpt lat="47.27505" lon="-1.75952">
        <ele>60.7</ele>
        <time>2013-12-23T11:21:19Z</time>
      </trkpt>
      <trkpt lat="47.27502" lon="-1.75968">
        <ele>60.7</ele>
        <time>2013-12-23T11:21:22Z</time>
      </trkpt>
      <trkpt lat="47.27499" lon="-1.75981">
        <ele>60.7</ele>
        <time>2013-12-23T11:21:25Z</time>
      </trkpt>
      <trkpt lat="47.27497" lon="-1.75996">
        <ele>60.7</ele>
        <time>2013-12-23T11:21:28Z</time>
      </trkpt>
      <trkpt lat="47.27494" lon="-1.76011">
        <ele>60.7</ele>
        <time>2013-12-23T11:21:31Z</time>
      </trkpt>
      <trkpt lat="47.27493" lon="-1.76024">
        <ele>61.18</ele>
        <time>2013-12-23T11:21:34Z</time>
      </trkpt>
      <trkpt lat="47.27489" lon="-1.76037">
        <ele>61.66</ele>
        <time>2013-12-23T11:21:37Z</time>
      </trkpt>
      <trkpt lat="47.27486" lon="-1.76051">
        <ele>62.14</ele>
        <time>2013-12-23T11:21:40Z</time>
      </trkpt>
      <trkpt lat="47.27484" lon="-1.76067">
        <ele>62.14</ele>
        <time>2013-12-23T11:21:43Z</time>
      </trkpt>
      <trkpt lat="47.27484" lon="-1.76082">
        <ele>62.62</ele>
        <time>2013-12-23T11:21:46Z</time>
      </trkpt>
      <trkpt lat="47.27485" lon="-1.76097">
        <ele>63.1</ele>
        <time>2013-12-23T11:21:49Z</time>
      </trkpt>
      <trkpt lat="47.27486" lon="-1.76115">
        <ele>63.1</ele>
        <time>2013-12-23T11:21:52Z</time>
      </trkpt>
      <trkpt lat="47.27484" lon="-1.76132">
        <ele>63.1</ele>
        <time>2013-12-23T11:21:55Z</time>
      </trkpt>
      <trkpt lat="47.2748" lon="-1.76147">
        <ele>63.1</ele>
        <time>2013-12-23T11:21:58Z</time>
      </trkpt>
      <trkpt lat="47.27479" lon="-1.76163">
        <ele>62.62</ele>
        <time>2013-12-23T11:22:01Z</time>
      </trkpt>
      <trkpt lat="47.27483" lon="-1.76178">
        <ele>62.62</ele>
        <time>2013-12-23T11:22:04Z</time>
      </trkpt>
      <trkpt lat="47.2749" lon="-1.76192">
        <ele>62.14</ele>
        <time>2013-12-23T11:22:08Z</time>
      </trkpt>
      <trkpt lat="47.27496" lon="-1.76207">
        <ele>62.14</ele>
        <time>2013-12-23T11:22:12Z</time>
      </trkpt>
      <trkpt lat="47.27502" lon="-1.76219">
        <ele>62.62</ele>
        <time>2013-12-23T11:22:16Z</time>
      </trkpt>
      <trkpt lat="47.27511" lon="-1.76221">
        <ele>63.58</ele>
        <time>2013-12-23T11:22:20Z</time>
      </trkpt>
      <trkpt lat="47.27521" lon="-1.76219">
        <ele>65.51</ele>
        <time>2013-12-23T11:22:25Z</time>
      </trkpt>
      <trkpt lat="47.27523" lon="-1.76235">
        <ele>67.43</ele>
        <time>2013-12-23T11:22:32Z</time>
      </trkpt>
      <trkpt lat="47.27519" lon="-1.7625">
        <ele>69.35</ele>
        <time>2013-12-23T11:22:37Z</time>
      </trkpt>
      <trkpt lat="47.2752" lon="-1.76265">
        <ele>71.27</ele>
        <time>2013-12-23T11:22:42Z</time>
      </trkpt>
      <trkpt lat="47.27524" lon="-1.76281">
        <ele>72.24</ele>
        <time>2013-12-23T11:22:48Z</time>
      </trkpt>
      <trkpt lat="47.27529" lon="-1.76297">
        <ele>72.24</ele>
        <time>2013-12-23T11:22:53Z</time>
      </trkpt>
      <trkpt lat="47.27535" lon="-1.7631">
        <ele>70.79</ele>
        <time>2013-12-23T11:22:57Z</time>
      </trkpt>
      <trkpt lat="47.2754" lon="-1.76325">
        <ele>70.31</ele>
        <time>2013-12-23T11:23:01Z</time>
      </trkpt>
      <trkpt lat="47.27545" lon="-1.76339">
        <ele>70.79</ele>
        <time>2013-12-23T11:23:05Z</time>
      </trkpt>
      <trkpt lat="47.27548" lon="-1.76355">
        <ele>70.79</ele>
        <time>2013-12-23T11:23:09Z</time>
      </trkpt>
      <trkpt lat="47.27552" lon="-1.76371">
        <ele>71.76</ele>
        <time>2013-12-23T11:23:13Z</time>
      </trkpt>
      <trkpt lat="47.27553" lon="-1.76385">
        <ele>72.24</ele>
        <time>2013-12-23T11:23:17Z</time>
      </trkpt>
      <trkpt lat="47.27555" lon="-1.76404">
        <ele>73.68</ele>
        <time>2013-12-23T11:23:22Z</time>
      </trkpt>
      <trkpt lat="47.27553" lon="-1.76423">
        <ele>74.16</ele>
        <time>2013-12-23T11:23:26Z</time>
      </trkpt>
      <trkpt lat="47.27549" lon="-1.76439">
        <ele>74.64</ele>
        <time>2013-12-23T11:23:29Z</time>
      </trkpt>
      <trkpt lat="47.27546" lon="-1.76456">
        <ele>75.12</ele>
        <time>2013-12-23T11:23:32Z</time>
      </trkpt>
      <trkpt lat="47.27546" lon="-1.76475">
        <ele>74.16</ele>
        <time>2013-12-23T11:23:35Z</time>
      </trkpt>
      <trkpt lat="47.27544" lon="-1.76492">
        <ele>73.68</ele>
        <time>2013-12-23T11:23:38Z</time>
      </trkpt>
      <trkpt lat="47.27541" lon="-1.76506">
        <ele>73.2</ele>
        <time>2013-12-23T11:23:41Z</time>
      </trkpt>
      <trkpt lat="47.27538" lon="-1.76519">
        <ele>72.24</ele>
        <time>2013-12-23T11:23:44Z</time>
      </trkpt>
      <trkpt lat="47.27537" lon="-1.76535">
        <ele>71.27</ele>
        <time>2013-12-23T11:23:47Z</time>
      </trkpt>
      <trkpt lat="47.27541" lon="-1.76551">
        <ele>71.27</ele>
        <time>2013-12-23T11:23:50Z</time>
      </trkpt>
      <trkpt lat="47.27545" lon="-1.76566">
        <ele>71.27</ele>
        <time>2013-12-23T11:23:53Z</time>
      </trkpt>
      <trkpt lat="47.27551" lon="-1.76579">
        <ele>71.76</ele>
        <time>2013-12-23T11:23:56Z</time>
      </trkpt>
      <trkpt lat="47.27556" lon="-1.76593">
        <ele>72.24</ele>
        <time>2013-12-23T11:23:59Z</time>
      </trkpt>
      <trkpt lat="47.27559" lon="-1.76607">
        <ele>73.2</ele>
        <time>2013-12-23T11:24:02Z</time>
      </trkpt>
      <trkpt lat="47.27562" lon="-1.76623">
        <ele>75.12</ele>
        <time>2013-12-23T11:24:05Z</time>
      </trkpt>
      <trkpt lat="47.27565" lon="-1.76641">
        <ele>75.12</ele>
        <time>2013-12-23T11:24:08Z</time>
      </trkpt>
      <trkpt lat="47.27567" lon="-1.76657">
        <ele>74.64</ele>
        <time>2013-12-23T11:24:11Z</time>
      </trkpt>
      <trkpt lat="47.27566" lon="-1.76674">
        <ele>74.64</ele>
        <time>2013-12-23T11:24:15Z</time>
      </trkpt>
      <trkpt lat="47.27567" lon="-1.7669">
        <ele>72.24</ele>
        <time>2013-12-23T11:24:19Z</time>
      </trkpt>
      <trkpt lat="47.27566" lon="-1.76706">
        <ele>67.91</ele>
        <time>2013-12-23T11:24:23Z</time>
      </trkpt>
      <trkpt lat="47.27567" lon="-1.76729">
        <ele>61.18</ele>
        <time>2013-12-23T11:24:29Z</time>
      </trkpt>
      <trkpt lat="47.27557" lon="-1.7674">
        <ele>57.82</ele>
        <time>2013-12-23T11:24:34Z</time>
      </trkpt>
      <trkpt lat="47.27547" lon="-1.76747">
        <ele>55.89</ele>
        <time>2013-12-23T11:24:38Z</time>
      </trkpt>
      <trkpt lat="47.27536" lon="-1.76754">
        <ele>54.45</ele>
        <time>2013-12-23T11:24:42Z</time>
      </trkpt>
      <trkpt lat="47.27528" lon="-1.76763">
        <ele>53.97</ele>
        <time>2013-12-23T11:24:46Z</time>
      </trkpt>
      <trkpt lat="47.27519" lon="-1.76775">
        <ele>52.05</ele>
        <time>2013-12-23T11:24:50Z</time>
      </trkpt>
      <trkpt lat="47.27516" lon="-1.76791">
        <ele>49.16</ele>
        <time>2013-12-23T11:24:54Z</time>
      </trkpt>
      <trkpt lat="47.27512" lon="-1.7681">
        <ele>46.28</ele>
        <time>2013-12-23T11:24:58Z</time>
      </trkpt>
      <trkpt lat="47.27509" lon="-1.76826">
        <ele>45.32</ele>
        <time>2013-12-23T11:25:01Z</time>
      </trkpt>
      <trkpt lat="47.27511" lon="-1.76842">
        <ele>45.32</ele>
        <time>2013-12-23T11:25:04Z</time>
      </trkpt>
      <trkpt lat="47.27514" lon="-1.76859">
        <ele>46.28</ele>
        <time>2013-12-23T11:25:07Z</time>
      </trkpt>
      <trkpt lat="47.27519" lon="-1.76874">
        <ele>45.8</ele>
        <time>2013-12-23T11:25:10Z</time>
      </trkpt>
      <trkpt lat="47.27523" lon="-1.76888">
        <ele>44.84</ele>
        <time>2013-12-23T11:25:13Z</time>
      </trkpt>
      <trkpt lat="47.27527" lon="-1.76901">
        <ele>44.84</ele>
        <time>2013-12-23T11:25:16Z</time>
      </trkpt>
      <trkpt lat="47.27531" lon="-1.76916">
        <ele>43.88</ele>
        <time>2013-12-23T11:25:19Z</time>
      </trkpt>
      <trkpt lat="47.27537" lon="-1.76932">
        <ele>42.92</ele>
        <time>2013-12-23T11:25:22Z</time>
      </trkpt>
      <trkpt lat="47.27541" lon="-1.76946">
        <ele>41.95</ele>
        <time>2013-12-23T11:25:24Z</time>
      </trkpt>
      <trkpt lat="47.27545" lon="-1.76961">
        <ele>41.95</ele>
        <time>2013-12-23T11:25:26Z</time>
      </trkpt>
      <trkpt lat="47.2755" lon="-1.76975">
        <ele>41.47</ele>
        <time>2013-12-23T11:25:28Z</time>
      </trkpt>
      <trkpt lat="47.27553" lon="-1.76988">
        <ele>41.47</ele>
        <time>2013-12-23T11:25:30Z</time>
      </trkpt>
      <trkpt lat="47.27558" lon="-1.77003">
        <ele>40.99</ele>
        <time>2013-12-23T11:25:33Z</time>
      </trkpt>
      <trkpt lat="47.27557" lon="-1.77019">
        <ele>40.51</ele>
        <time>2013-12-23T11:25:48Z</time>
      </trkpt>
      <trkpt lat="47.27555" lon="-1.77034">
        <ele>40.51</ele>
        <time>2013-12-23T11:25:51Z</time>
      </trkpt>
      <trkpt lat="47.27557" lon="-1.77052">
        <ele>39.07</ele>
        <time>2013-12-23T11:25:54Z</time>
      </trkpt>
      <trkpt lat="47.27563" lon="-1.77064">
        <ele>38.11</ele>
        <time>2013-12-23T11:25:56Z</time>
      </trkpt>
      <trkpt lat="47.27569" lon="-1.77079">
        <ele>37.15</ele>
        <time>2013-12-23T11:25:58Z</time>
      </trkpt>
      <trkpt lat="47.27577" lon="-1.77092">
        <ele>36.19</ele>
        <time>2013-12-23T11:26:00Z</time>
      </trkpt>
      <trkpt lat="47.27585" lon="-1.77103">
        <ele>35.23</ele>
        <time>2013-12-23T11:26:02Z</time>
      </trkpt>
      <trkpt lat="47.27592" lon="-1.77115">
        <ele>34.26</ele>
        <time>2013-12-23T11:26:04Z</time>
      </trkpt>
      <trkpt lat="47.27596" lon="-1.77131">
        <ele>33.78</ele>
        <time>2013-12-23T11:26:07Z</time>
      </trkpt>
      <trkpt lat="47.27598" lon="-1.77147">
        <ele>33.3</ele>
        <time>2013-12-23T11:26:11Z</time>
      </trkpt>
      <trkpt lat="47.27602" lon="-1.77164">
        <ele>33.78</ele>
        <time>2013-12-23T11:26:17Z</time>
      </trkpt>
      <trkpt lat="47.27605" lon="-1.7718">
        <ele>33.78</ele>
        <time>2013-12-23T11:26:23Z</time>
      </trkpt>
      <trkpt lat="47.27607" lon="-1.77197">
        <ele>33.78</ele>
        <time>2013-12-23T11:26:30Z</time>
      </trkpt>
      <trkpt lat="47.27611" lon="-1.77214">
        <ele>34.26</ele>
        <time>2013-12-23T11:26:36Z</time>
      </trkpt>
      <trkpt lat="47.27613" lon="-1.7723">
        <ele>34.26</ele>
        <time>2013-12-23T11:26:40Z</time>
      </trkpt>
      <trkpt lat="47.27615" lon="-1.77249">
        <ele>33.78</ele>
        <time>2013-12-23T11:26:44Z</time>
      </trkpt>
      <trkpt lat="47.27619" lon="-1.77264">
        <ele>33.3</ele>
        <time>2013-12-23T11:26:47Z</time>
      </trkpt>
      <trkpt lat="47.27627" lon="-1.77278">
        <ele>31.86</ele>
        <time>2013-12-23T11:26:51Z</time>
      </trkpt>
      <trkpt lat="47.27636" lon="-1.77288">
        <ele>31.38</ele>
        <time>2013-12-23T11:26:55Z</time>
      </trkpt>
      <trkpt lat="47.27645" lon="-1.77299">
        <ele>31.38</ele>
        <time>2013-12-23T11:26:59Z</time>
      </trkpt>
      <trkpt lat="47.27654" lon="-1.7731">
        <ele>32.34</ele>
        <time>2013-12-23T11:27:03Z</time>
      </trkpt>
      <trkpt lat="47.27662" lon="-1.77322">
        <ele>33.3</ele>
        <time>2013-12-23T11:27:08Z</time>
      </trkpt>
      <trkpt lat="47.2767" lon="-1.77333">
        <ele>34.26</ele>
        <time>2013-12-23T11:27:13Z</time>
      </trkpt>
      <trkpt lat="47.27677" lon="-1.77343">
        <ele>33.78</ele>
        <time>2013-12-23T11:27:18Z</time>
      </trkpt>
      <trkpt lat="47.27685" lon="-1.77353">
        <ele>34.26</ele>
        <time>2013-12-23T11:27:23Z</time>
      </trkpt>
      <trkpt lat="47.27691" lon="-1.77368">
        <ele>35.71</ele>
        <time>2013-12-23T11:27:28Z</time>
      </trkpt>
      <trkpt lat="47.27695" lon="-1.77383">
        <ele>36.19</ele>
        <time>2013-12-23T11:27:32Z</time>
      </trkpt>
      <trkpt lat="47.27699" lon="-1.77395">
        <ele>35.23</ele>
        <time>2013-12-23T11:27:35Z</time>
      </trkpt>
      <trkpt lat="47.27707" lon="-1.77408">
        <ele>34.74</ele>
        <time>2013-12-23T11:27:39Z</time>
      </trkpt>
      <trkpt lat="47.27714" lon="-1.77424">
        <ele>34.26</ele>
        <time>2013-12-23T11:27:42Z</time>
      </trkpt>
      <trkpt lat="47.27719" lon="-1.77439">
        <ele>34.26</ele>
        <time>2013-12-23T11:27:45Z</time>
      </trkpt>
      <trkpt lat="47.27723" lon="-1.77455">
        <ele>34.26</ele>
        <time>2013-12-23T11:27:48Z</time>
      </trkpt>
      <trkpt lat="47.27728" lon="-1.77472">
        <ele>34.26</ele>
        <time>2013-12-23T11:27:51Z</time>
      </trkpt>
      <trkpt lat="47.27734" lon="-1.77489">
        <ele>34.74</ele>
        <time>2013-12-23T11:27:54Z</time>
      </trkpt>
      <trkpt lat="47.27738" lon="-1.77502">
        <ele>34.26</ele>
        <time>2013-12-23T11:27:56Z</time>
      </trkpt>
      <trkpt lat="47.27743" lon="-1.77519">
        <ele>34.26</ele>
        <time>2013-12-23T11:27:59Z</time>
      </trkpt>
      <trkpt lat="47.27748" lon="-1.77536">
        <ele>34.74</ele>
        <time>2013-12-23T11:28:02Z</time>
      </trkpt>
      <trkpt lat="47.27753" lon="-1.77555">
        <ele>34.74</ele>
        <time>2013-12-23T11:28:05Z</time>
      </trkpt>
      <trkpt lat="47.27755" lon="-1.77568">
        <ele>34.74</ele>
        <time>2013-12-23T11:28:07Z</time>
      </trkpt>
      <trkpt lat="47.27759" lon="-1.77589">
        <ele>34.74</ele>
        <time>2013-12-23T11:28:10Z</time>
      </trkpt>
      <trkpt lat="47.27762" lon="-1.77605">
        <ele>34.26</ele>
        <time>2013-12-23T11:28:12Z</time>
      </trkpt>
      <trkpt lat="47.27765" lon="-1.77621">
        <ele>33.78</ele>
        <time>2013-12-23T11:28:14Z</time>
      </trkpt>
      <trkpt lat="47.27768" lon="-1.77637">
        <ele>33.78</ele>
        <time>2013-12-23T11:28:16Z</time>
      </trkpt>
      <trkpt lat="47.27771" lon="-1.77654">
        <ele>33.3</ele>
        <time>2013-12-23T11:28:18Z</time>
      </trkpt>
      <trkpt lat="47.27774" lon="-1.77671">
        <ele>32.82</ele>
        <time>2013-12-23T11:28:20Z</time>
      </trkpt>
      <trkpt lat="47.27778" lon="-1.77688">
        <ele>32.34</ele>
        <time>2013-12-23T11:28:22Z</time>
      </trkpt>
      <trkpt lat="47.27783" lon="-1.77706">
        <ele>31.86</ele>
        <time>2013-12-23T11:28:24Z</time>
      </trkpt>
      <trkpt lat="47.27788" lon="-1.77725">
        <ele>31.86</ele>
        <time>2013-12-23T11:28:26Z</time>
      </trkpt>
      <trkpt lat="47.27792" lon="-1.77743">
        <ele>31.86</ele>
        <time>2013-12-23T11:28:28Z</time>
      </trkpt>
      <trkpt lat="47.27797" lon="-1.77762">
        <ele>31.86</ele>
        <time>2013-12-23T11:28:30Z</time>
      </trkpt>
      <trkpt lat="47.27802" lon="-1.7778">
        <ele>32.34</ele>
        <time>2013-12-23T11:28:32Z</time>
      </trkpt>
      <trkpt lat="47.2781" lon="-1.77795">
        <ele>32.82</ele>
        <time>2013-12-23T11:28:34Z</time>
      </trkpt>
      <trkpt lat="47.27821" lon="-1.77801">
        <ele>32.34</ele>
        <time>2013-12-23T11:28:36Z</time>
      </trkpt>
      <trkpt lat="47.27835" lon="-1.77802">
        <ele>31.38</ele>
        <time>2013-12-23T11:28:39Z</time>
      </trkpt>
      <trkpt lat="47.27845" lon="-1.77804">
        <ele>32.34</ele>
        <time>2013-12-23T11:28:42Z</time>
      </trkpt>
      <trkpt lat="47.27854" lon="-1.77809">
        <ele>32.82</ele>
        <time>2013-12-23T11:28:45Z</time>
      </trkpt>
      <trkpt lat="47.27863" lon="-1.77816">
        <ele>33.78</ele>
        <time>2013-12-23T11:28:49Z</time>
      </trkpt>
      <trkpt lat="47.27871" lon="-1.77827">
        <ele>34.74</ele>
        <time>2013-12-23T11:28:53Z</time>
      </trkpt>
      <trkpt lat="47.27872" lon="-1.77843">
        <ele>35.71</ele>
        <time>2013-12-23T11:28:57Z</time>
      </trkpt>
      <trkpt lat="47.27873" lon="-1.77858">
        <ele>35.71</ele>
        <time>2013-12-23T11:29:00Z</time>
      </trkpt>
      <trkpt lat="47.27872" lon="-1.77877">
        <ele>35.71</ele>
        <time>2013-12-23T11:29:03Z</time>
      </trkpt>
      <trkpt lat="47.2787" lon="-1.77893">
        <ele>35.71</ele>
        <time>2013-12-23T11:29:05Z</time>
      </trkpt>
      <trkpt lat="47.27866" lon="-1.77909">
        <ele>35.23</ele>
        <time>2013-12-23T11:29:07Z</time>
      </trkpt>
      <trkpt lat="47.27857" lon="-1.77919">
        <ele>34.26</ele>
        <time>2013-12-23T11:29:09Z</time>
      </trkpt>
      <trkpt lat="47.27846" lon="-1.77927">
        <ele>33.78</ele>
        <time>2013-12-23T11:29:11Z</time>
      </trkpt>
      <trkpt lat="47.27835" lon="-1.77935">
        <ele>32.82</ele>
        <time>2013-12-23T11:29:13Z</time>
      </trkpt>
      <trkpt lat="47.27823" lon="-1.77943">
        <ele>31.86</ele>
        <time>2013-12-23T11:29:15Z</time>
      </trkpt>
      <trkpt lat="47.2781" lon="-1.77949">
        <ele>30.42</ele>
        <time>2013-12-23T11:29:17Z</time>
      </trkpt>
      <trkpt lat="47.27796" lon="-1.77953">
        <ele>28.5</ele>
        <time>2013-12-23T11:29:19Z</time>
      </trkpt>
      <trkpt lat="47.27782" lon="-1.77956">
        <ele>27.53</ele>
        <time>2013-12-23T11:29:21Z</time>
      </trkpt>
      <trkpt lat="47.27769" lon="-1.77958">
        <ele>26.09</ele>
        <time>2013-12-23T11:29:23Z</time>
      </trkpt>
      <trkpt lat="47.27756" lon="-1.77959">
        <ele>25.61</ele>
        <time>2013-12-23T11:29:25Z</time>
      </trkpt>
      <trkpt lat="47.27743" lon="-1.77962">
        <ele>24.65</ele>
        <time>2013-12-23T11:29:27Z</time>
      </trkpt>
      <trkpt lat="47.27731" lon="-1.77968">
        <ele>24.17</ele>
        <time>2013-12-23T11:29:29Z</time>
      </trkpt>
      <trkpt lat="47.2772" lon="-1.77975">
        <ele>23.69</ele>
        <time>2013-12-23T11:29:31Z</time>
      </trkpt>
      <trkpt lat="47.2771" lon="-1.77983">
        <ele>22.73</ele>
        <time>2013-12-23T11:29:33Z</time>
      </trkpt>
      <trkpt lat="47.27701" lon="-1.77992">
        <ele>21.77</ele>
        <time>2013-12-23T11:29:36Z</time>
      </trkpt>
      <trkpt lat="47.27692" lon="-1.77984">
        <ele>21.77</ele>
        <time>2013-12-23T11:29:40Z</time>
      </trkpt>
      <trkpt lat="47.27684" lon="-1.77972">
        <ele>21.77</ele>
        <time>2013-12-23T11:29:43Z</time>
      </trkpt>
      <trkpt lat="47.27676" lon="-1.77972">
        <ele>22.73</ele>
        <time>2013-12-23T11:29:47Z</time>
      </trkpt>
      <trkpt lat="47.27667" lon="-1.77983">
        <ele>24.17</ele>
        <time>2013-12-23T11:29:50Z</time>
      </trkpt>
      <trkpt lat="47.27659" lon="-1.77995">
        <ele>26.09</ele>
        <time>2013-12-23T11:29:53Z</time>
      </trkpt>
      <trkpt lat="47.27651" lon="-1.78005">
        <ele>27.05</ele>
        <time>2013-12-23T11:29:56Z</time>
      </trkpt>
      <trkpt lat="47.27649" lon="-1.78017">
        <ele>28.02</ele>
        <time>2013-12-23T11:30:00Z</time>
      </trkpt>
      <trkpt lat="47.27654" lon="-1.78031">
        <ele>28.5</ele>
        <time>2013-12-23T11:30:03Z</time>
      </trkpt>
      <trkpt lat="47.27657" lon="-1.78047">
        <ele>29.46</ele>
        <time>2013-12-23T11:30:06Z</time>
      </trkpt>
      <trkpt lat="47.27661" lon="-1.78061">
        <ele>29.46</ele>
        <time>2013-12-23T11:30:09Z</time>
      </trkpt>
      <trkpt lat="47.27672" lon="-1.78068">
        <ele>29.94</ele>
        <time>2013-12-23T11:30:13Z</time>
      </trkpt>
      <trkpt lat="47.27682" lon="-1.78073">
        <ele>31.38</ele>
        <time>2013-12-23T11:30:16Z</time>
      </trkpt>
      <trkpt lat="47.27693" lon="-1.78078">
        <ele>32.34</ele>
        <time>2013-12-23T11:30:19Z</time>
      </trkpt>
      <trkpt lat="47.27706" lon="-1.78082">
        <ele>32.34</ele>
        <time>2013-12-23T11:30:22Z</time>
      </trkpt>
      <trkpt lat="47.2772" lon="-1.78088">
        <ele>30.42</ele>
        <time>2013-12-23T11:30:25Z</time>
      </trkpt>
      <trkpt lat="47.2773" lon="-1.78101">
        <ele>27.53</ele>
        <time>2013-12-23T11:30:28Z</time>
      </trkpt>
      <trkpt lat="47.27738" lon="-1.78117">
        <ele>25.61</ele>
        <time>2013-12-23T11:30:31Z</time>
      </trkpt>
      <trkpt lat="47.27744" lon="-1.78133">
        <ele>25.13</ele>
        <time>2013-12-23T11:30:34Z</time>
      </trkpt>
      <trkpt lat="47.2775" lon="-1.78145">
        <ele>24.17</ele>
        <time>2013-12-23T11:30:37Z</time>
      </trkpt>
      <trkpt lat="47.27755" lon="-1.78157">
        <ele>22.73</ele>
        <time>2013-12-23T11:30:41Z</time>
      </trkpt>
      <trkpt lat="47.2776" lon="-1.78173">
        <ele>21.77</ele>
        <time>2013-12-23T11:30:45Z</time>
      </trkpt>
      <trkpt lat="47.27768" lon="-1.78187">
        <ele>21.29</ele>
        <time>2013-12-23T11:30:48Z</time>
      </trkpt>
      <trkpt lat="47.27777" lon="-1.78202">
        <ele>20.81</ele>
        <time>2013-12-23T11:30:51Z</time>
      </trkpt>
      <trkpt lat="47.27785" lon="-1.78216">
        <ele>20.32</ele>
        <time>2013-12-23T11:30:54Z</time>
      </trkpt>
      <trkpt lat="47.27792" lon="-1.78228">
        <ele>20.32</ele>
        <time>2013-12-23T11:30:57Z</time>
      </trkpt>
      <trkpt lat="47.27799" lon="-1.78241">
        <ele>20.32</ele>
        <time>2013-12-23T11:31:00Z</time>
      </trkpt>
      <trkpt lat="47.27806" lon="-1.78252">
        <ele>19.36</ele>
        <time>2013-12-23T11:31:03Z</time>
      </trkpt>
      <trkpt lat="47.27815" lon="-1.78264">
        <ele>18.88</ele>
        <time>2013-12-23T11:31:06Z</time>
      </trkpt>
      <trkpt lat="47.27823" lon="-1.78277">
        <ele>18.4</ele>
        <time>2013-12-23T11:31:09Z</time>
      </trkpt>
      <trkpt lat="47.27831" lon="-1.78289">
        <ele>17.92</ele>
        <time>2013-12-23T11:31:12Z</time>
      </trkpt>
      <trkpt lat="47.27837" lon="-1.783">
        <ele>17.92</ele>
        <time>2013-12-23T11:31:17Z</time>
      </trkpt>
      <trkpt lat="47.27842" lon="-1.78312">
        <ele>17.92</ele>
        <time>2013-12-23T11:31:20Z</time>
      </trkpt>
      <trkpt lat="47.27849" lon="-1.78327">
        <ele>17.44</ele>
        <time>2013-12-23T11:31:23Z</time>
      </trkpt>
      <trkpt lat="47.27858" lon="-1.78343">
        <ele>16.96</ele>
        <time>2013-12-23T11:31:26Z</time>
      </trkpt>
      <trkpt lat="47.27863" lon="-1.78355">
        <ele>16.96</ele>
        <time>2013-12-23T11:31:28Z</time>
      </trkpt>
      <trkpt lat="47.27869" lon="-1.78366">
        <ele>16.96</ele>
        <time>2013-12-23T11:31:30Z</time>
      </trkpt>
      <trkpt lat="47.27873" lon="-1.78378">
        <ele>17.44</ele>
        <time>2013-12-23T11:31:32Z</time>
      </trkpt>
      <trkpt lat="47.2788" lon="-1.78396">
        <ele>18.4</ele>
        <time>2013-12-23T11:31:35Z</time>
      </trkpt>
      <trkpt lat="47.27887" lon="-1.78413">
        <ele>18.4</ele>
        <time>2013-12-23T11:31:38Z</time>
      </trkpt>
      <trkpt lat="47.27892" lon="-1.78425">
        <ele>18.4</ele>
        <time>2013-12-23T11:31:40Z</time>
      </trkpt>
      <trkpt lat="47.27897" lon="-1.78437">
        <ele>18.4</ele>
        <time>2013-12-23T11:31:42Z</time>
      </trkpt>
      <trkpt lat="47.27902" lon="-1.78449">
        <ele>18.4</ele>
        <time>2013-12-23T11:31:44Z</time>
      </trkpt>
      <trkpt lat="47.27907" lon="-1.7846">
        <ele>18.4</ele>
        <time>2013-12-23T11:31:46Z</time>
      </trkpt>
      <trkpt lat="47.27912" lon="-1.78472">
        <ele>17.92</ele>
        <time>2013-12-23T11:31:48Z</time>
      </trkpt>
      <trkpt lat="47.27917" lon="-1.78483">
        <ele>17.92</ele>
        <time>2013-12-23T11:31:50Z</time>
      </trkpt>
      <trkpt lat="47.27923" lon="-1.785">
        <ele>18.4</ele>
        <time>2013-12-23T11:31:53Z</time>
      </trkpt>
      <trkpt lat="47.27928" lon="-1.78515">
        <ele>18.4</ele>
        <time>2013-12-23T11:31:56Z</time>
      </trkpt>
      <trkpt lat="47.27934" lon="-1.78531">
        <ele>17.92</ele>
        <time>2013-12-23T11:31:59Z</time>
      </trkpt>
      <trkpt lat="47.2794" lon="-1.78541">
        <ele>17.92</ele>
        <time>2013-12-23T11:32:01Z</time>
      </trkpt>
      <trkpt lat="47.27952" lon="-1.7855">
        <ele>17.92</ele>
        <time>2013-12-23T11:32:04Z</time>
      </trkpt>
      <trkpt lat="47.27965" lon="-1.78559">
        <ele>17.92</ele>
        <time>2013-12-23T11:32:07Z</time>
      </trkpt>
      <trkpt lat="47.27973" lon="-1.78565">
        <ele>17.92</ele>
        <time>2013-12-23T11:32:09Z</time>
      </trkpt>
      <trkpt lat="47.27981" lon="-1.78572">
        <ele>18.4</ele>
        <time>2013-12-23T11:32:11Z</time>
      </trkpt>
      <trkpt lat="47.27993" lon="-1.78582">
        <ele>18.4</ele>
        <time>2013-12-23T11:32:14Z</time>
      </trkpt>
      <trkpt lat="47.28002" lon="-1.78589">
        <ele>18.4</ele>
        <time>2013-12-23T11:32:16Z</time>
      </trkpt>
      <trkpt lat="47.28009" lon="-1.78596">
        <ele>18.4</ele>
        <time>2013-12-23T11:32:18Z</time>
      </trkpt>
      <trkpt lat="47.28017" lon="-1.78603">
        <ele>18.4</ele>
        <time>2013-12-23T11:32:20Z</time>
      </trkpt>
      <trkpt lat="47.28028" lon="-1.78614">
        <ele>18.4</ele>
        <time>2013-12-23T11:32:23Z</time>
      </trkpt>
      <trkpt lat="47.28037" lon="-1.78624">
        <ele>18.4</ele>
        <time>2013-12-23T11:32:26Z</time>
      </trkpt>
      <trkpt lat="47.28047" lon="-1.7863">
        <ele>18.88</ele>
        <time>2013-12-23T11:32:29Z</time>
      </trkpt>
      <trkpt lat="47.28055" lon="-1.78639">
        <ele>18.88</ele>
        <time>2013-12-23T11:32:32Z</time>
      </trkpt>
      <trkpt lat="47.28064" lon="-1.78649">
        <ele>18.88</ele>
        <time>2013-12-23T11:32:35Z</time>
      </trkpt>
      <trkpt lat="47.28073" lon="-1.7866">
        <ele>18.88</ele>
        <time>2013-12-23T11:32:38Z</time>
      </trkpt>
      <trkpt lat="47.28083" lon="-1.78671">
        <ele>18.88</ele>
        <time>2013-12-23T11:32:41Z</time>
      </trkpt>
      <trkpt lat="47.28091" lon="-1.7868">
        <ele>18.88</ele>
        <time>2013-12-23T11:32:44Z</time>
      </trkpt>
      <trkpt lat="47.28099" lon="-1.78688">
        <ele>19.36</ele>
        <time>2013-12-23T11:32:47Z</time>
      </trkpt>
      <trkpt lat="47.28108" lon="-1.78698">
        <ele>19.36</ele>
        <time>2013-12-23T11:32:50Z</time>
      </trkpt>
      <trkpt lat="47.28117" lon="-1.78708">
        <ele>19.84</ele>
        <time>2013-12-23T11:32:54Z</time>
      </trkpt>
      <trkpt lat="47.28127" lon="-1.78717">
        <ele>19.36</ele>
        <time>2013-12-23T11:32:58Z</time>
      </trkpt>
      <trkpt lat="47.28136" lon="-1.78725">
        <ele>19.84</ele>
        <time>2013-12-23T11:33:02Z</time>
      </trkpt>
      <trkpt lat="47.28147" lon="-1.78733">
        <ele>20.32</ele>
        <time>2013-12-23T11:33:08Z</time>
      </trkpt>
      <trkpt lat="47.28157" lon="-1.78738">
        <ele>21.29</ele>
        <time>2013-12-23T11:33:13Z</time>
      </trkpt>
      <trkpt lat="47.28168" lon="-1.78741">
        <ele>21.29</ele>
        <time>2013-12-23T11:33:18Z</time>
      </trkpt>
      <trkpt lat="47.2818" lon="-1.78745">
        <ele>22.25</ele>
        <time>2013-12-23T11:33:23Z</time>
      </trkpt>
      <trkpt lat="47.28191" lon="-1.78751">
        <ele>21.77</ele>
        <time>2013-12-23T11:33:28Z</time>
      </trkpt>
      <trkpt lat="47.28202" lon="-1.78759">
        <ele>21.77</ele>
        <time>2013-12-23T11:33:33Z</time>
      </trkpt>
      <trkpt lat="47.28214" lon="-1.7877">
        <ele>24.17</ele>
        <time>2013-12-23T11:33:38Z</time>
      </trkpt>
      <trkpt lat="47.28221" lon="-1.78782">
        <ele>24.65</ele>
        <time>2013-12-23T11:33:42Z</time>
      </trkpt>
      <trkpt lat="47.28229" lon="-1.78796">
        <ele>26.09</ele>
        <time>2013-12-23T11:33:47Z</time>
      </trkpt>
      <trkpt lat="47.28236" lon="-1.78811">
        <ele>26.09</ele>
        <time>2013-12-23T11:33:52Z</time>
      </trkpt>
      <trkpt lat="47.28243" lon="-1.78826">
        <ele>26.09</ele>
        <time>2013-12-23T11:33:57Z</time>
      </trkpt>
      <trkpt lat="47.28248" lon="-1.78842">
        <ele>26.09</ele>
        <time>2013-12-23T11:34:02Z</time>
      </trkpt>
      <trkpt lat="47.28254" lon="-1.78858">
        <ele>25.61</ele>
        <time>2013-12-23T11:34:08Z</time>
      </trkpt>
      <trkpt lat="47.28263" lon="-1.7887">
        <ele>27.53</ele>
        <time>2013-12-23T11:34:13Z</time>
      </trkpt>
      <trkpt lat="47.28271" lon="-1.78882">
        <ele>28.5</ele>
        <time>2013-12-23T11:34:17Z</time>
      </trkpt>
      <trkpt lat="47.2828" lon="-1.78892">
        <ele>29.46</ele>
        <time>2013-12-23T11:34:22Z</time>
      </trkpt>
      <trkpt lat="47.2829" lon="-1.789">
        <ele>28.98</ele>
        <time>2013-12-23T11:34:27Z</time>
      </trkpt>
      <trkpt lat="47.28299" lon="-1.78908">
        <ele>29.94</ele>
        <time>2013-12-23T11:34:32Z</time>
      </trkpt>
      <trkpt lat="47.2831" lon="-1.78918">
        <ele>29.46</ele>
        <time>2013-12-23T11:34:37Z</time>
      </trkpt>
      <trkpt lat="47.2832" lon="-1.78927">
        <ele>29.46</ele>
        <time>2013-12-23T11:34:42Z</time>
      </trkpt>
      <trkpt lat="47.2833" lon="-1.78932">
        <ele>29.94</ele>
        <time>2013-12-23T11:34:47Z</time>
      </trkpt>
      <trkpt lat="47.28339" lon="-1.78943">
        <ele>31.38</ele>
        <time>2013-12-23T11:34:52Z</time>
      </trkpt>
      <trkpt lat="47.28348" lon="-1.78955">
        <ele>30.42</ele>
        <time>2013-12-23T11:34:57Z</time>
      </trkpt>
      <trkpt lat="47.28355" lon="-1.78968">
        <ele>30.9</ele>
        <time>2013-12-23T11:35:02Z</time>
      </trkpt>
      <trkpt lat="47.28363" lon="-1.78976">
        <ele>30.9</ele>
        <time>2013-12-23T11:35:07Z</time>
      </trkpt>
      <trkpt lat="47.28368" lon="-1.78962">
        <ele>32.34</ele>
        <time>2013-12-23T11:35:13Z</time>
      </trkpt>
      <trkpt lat="47.28369" lon="-1.78947">
        <ele>33.78</ele>
        <time>2013-12-23T11:35:18Z</time>
      </trkpt>
      <trkpt lat="47.2837" lon="-1.78931">
        <ele>34.26</ele>
        <time>2013-12-23T11:35:23Z</time>
      </trkpt>
      <trkpt lat="47.28371" lon="-1.78916">
        <ele>35.23</ele>
        <time>2013-12-23T11:35:28Z</time>
      </trkpt>
      <trkpt lat="47.28373" lon="-1.789">
        <ele>36.19</ele>
        <time>2013-12-23T11:35:34Z</time>
      </trkpt>
      <trkpt lat="47.28377" lon="-1.78887">
        <ele>37.15</ele>
        <time>2013-12-23T11:35:39Z</time>
      </trkpt>
      <trkpt lat="47.28381" lon="-1.78871">
        <ele>38.11</ele>
        <time>2013-12-23T11:35:44Z</time>
      </trkpt>
      <trkpt lat="47.28385" lon="-1.78858">
        <ele>39.07</ele>
        <time>2013-12-23T11:35:49Z</time>
      </trkpt>
      <trkpt lat="47.2839" lon="-1.78846">
        <ele>39.55</ele>
        <time>2013-12-23T11:35:55Z</time>
      </trkpt>
      <trkpt lat="47.284" lon="-1.78852">
        <ele>40.03</ele>
        <time>2013-12-23T11:36:02Z</time>
      </trkpt>
      <trkpt lat="47.28406" lon="-1.78862">
        <ele>39.55</ele>
        <time>2013-12-23T11:36:06Z</time>
      </trkpt>
      <trkpt lat="47.28413" lon="-1.78875">
        <ele>38.11</ele>
        <time>2013-12-23T11:36:10Z</time>
      </trkpt>
      <trkpt lat="47.28418" lon="-1.78886">
        <ele>37.15</ele>
        <time>2013-12-23T11:36:13Z</time>
      </trkpt>
      <trkpt lat="47.28423" lon="-1.789">
        <ele>36.19</ele>
        <time>2013-12-23T11:36:16Z</time>
      </trkpt>
      <trkpt lat="47.28429" lon="-1.78913">
        <ele>35.23</ele>
        <time>2013-12-23T11:36:19Z</time>
      </trkpt>
      <trkpt lat="47.28434" lon="-1.78927">
        <ele>35.23</ele>
        <time>2013-12-23T11:36:22Z</time>
      </trkpt>
      <trkpt lat="47.2844" lon="-1.78941">
        <ele>35.23</ele>
        <time>2013-12-23T11:36:25Z</time>
      </trkpt>
      <trkpt lat="47.28446" lon="-1.78957">
        <ele>35.23</ele>
        <time>2013-12-23T11:36:28Z</time>
      </trkpt>
      <trkpt lat="47.28452" lon="-1.78974">
        <ele>35.23</ele>
        <time>2013-12-23T11:36:31Z</time>
      </trkpt>
      <trkpt lat="47.28458" lon="-1.78988">
        <ele>35.23</ele>
        <time>2013-12-23T11:36:34Z</time>
      </trkpt>
      <trkpt lat="47.28465" lon="-1.78998">
        <ele>34.26</ele>
        <time>2013-12-23T11:36:37Z</time>
      </trkpt>
      <trkpt lat="47.28474" lon="-1.78998">
        <ele>33.78</ele>
        <time>2013-12-23T11:36:40Z</time>
      </trkpt>
      <trkpt lat="47.28486" lon="-1.78995">
        <ele>32.34</ele>
        <time>2013-12-23T11:36:43Z</time>
      </trkpt>
      <trkpt lat="47.28498" lon="-1.78989">
        <ele>32.34</ele>
        <time>2013-12-23T11:36:46Z</time>
      </trkpt>
      <trkpt lat="47.2851" lon="-1.78981">
        <ele>32.34</ele>
        <time>2013-12-23T11:36:49Z</time>
      </trkpt>
      <trkpt lat="47.28521" lon="-1.78979">
        <ele>31.86</ele>
        <time>2013-12-23T11:36:52Z</time>
      </trkpt>
      <trkpt lat="47.28528" lon="-1.78991">
        <ele>31.86</ele>
        <time>2013-12-23T11:36:55Z</time>
      </trkpt>
      <trkpt lat="47.28533" lon="-1.79004">
        <ele>32.34</ele>
        <time>2013-12-23T11:36:59Z</time>
      </trkpt>
      <trkpt lat="47.28533" lon="-1.79017">
        <ele>33.78</ele>
        <time>2013-12-23T11:37:03Z</time>
      </trkpt>
      <trkpt lat="47.28534" lon="-1.79035">
        <ele>34.74</ele>
        <time>2013-12-23T11:37:07Z</time>
      </trkpt>
      <trkpt lat="47.28535" lon="-1.7905">
        <ele>34.74</ele>
        <time>2013-12-23T11:37:10Z</time>
      </trkpt>
      <trkpt lat="47.28536" lon="-1.79064">
        <ele>35.23</ele>
        <time>2013-12-23T11:37:13Z</time>
      </trkpt>
      <trkpt lat="47.28536" lon="-1.79079">
        <ele>35.23</ele>
        <time>2013-12-23T11:37:16Z</time>
      </trkpt>
      <trkpt lat="47.28536" lon="-1.79095">
        <ele>35.23</ele>
        <time>2013-12-23T11:37:19Z</time>
      </trkpt>
      <trkpt lat="47.28536" lon="-1.79111">
        <ele>35.71</ele>
        <time>2013-12-23T11:37:22Z</time>
      </trkpt>
      <trkpt lat="47.28536" lon="-1.79128">
        <ele>36.19</ele>
        <time>2013-12-23T11:37:25Z</time>
      </trkpt>
      <trkpt lat="47.2854" lon="-1.79146">
        <ele>35.71</ele>
        <time>2013-12-23T11:37:28Z</time>
      </trkpt>
      <trkpt lat="47.28547" lon="-1.79159">
        <ele>35.23</ele>
        <time>2013-12-23T11:37:31Z</time>
      </trkpt>
      <trkpt lat="47.28555" lon="-1.79172">
        <ele>35.23</ele>
        <time>2013-12-23T11:37:34Z</time>
      </trkpt>
      <trkpt lat="47.28563" lon="-1.79185">
        <ele>34.74</ele>
        <time>2013-12-23T11:37:37Z</time>
      </trkpt>
      <trkpt lat="47.28572" lon="-1.79195">
        <ele>34.74</ele>
        <time>2013-12-23T11:37:40Z</time>
      </trkpt>
      <trkpt lat="47.28578" lon="-1.79206">
        <ele>34.26</ele>
        <time>2013-12-23T11:37:43Z</time>
      </trkpt>
      <trkpt lat="47.28585" lon="-1.79217">
        <ele>34.26</ele>
        <time>2013-12-23T11:37:47Z</time>
      </trkpt>
      <trkpt lat="47.28591" lon="-1.7923">
        <ele>34.74</ele>
        <time>2013-12-23T11:37:51Z</time>
      </trkpt>
      <trkpt lat="47.28598" lon="-1.79242">
        <ele>34.74</ele>
        <time>2013-12-23T11:37:55Z</time>
      </trkpt>
      <trkpt lat="47.28604" lon="-1.79256">
        <ele>35.23</ele>
        <time>2013-12-23T11:38:00Z</time>
      </trkpt>
      <trkpt lat="47.28612" lon="-1.79269">
        <ele>35.71</ele>
        <time>2013-12-23T11:38:05Z</time>
      </trkpt>
      <trkpt lat="47.28619" lon="-1.7928">
        <ele>36.19</ele>
        <time>2013-12-23T11:38:10Z</time>
      </trkpt>
      <trkpt lat="47.28629" lon="-1.79284">
        <ele>36.67</ele>
        <time>2013-12-23T11:38:16Z</time>
      </trkpt>
      <trkpt lat="47.28639" lon="-1.79285">
        <ele>38.11</ele>
        <time>2013-12-23T11:38:22Z</time>
      </trkpt>
      <trkpt lat="47.2865" lon="-1.79283">
        <ele>39.55</ele>
        <time>2013-12-23T11:38:29Z</time>
      </trkpt>
      <trkpt lat="47.28662" lon="-1.7928">
        <ele>43.4</ele>
        <time>2013-12-23T11:38:38Z</time>
      </trkpt>
      <trkpt lat="47.28675" lon="-1.79274">
        <ele>46.28</ele>
        <time>2013-12-23T11:38:48Z</time>
      </trkpt>
      <trkpt lat="47.28687" lon="-1.79267">
        <ele>48.2</ele>
        <time>2013-12-23T11:38:56Z</time>
      </trkpt>
      <trkpt lat="47.28696" lon="-1.79259">
        <ele>49.16</ele>
        <time>2013-12-23T11:39:03Z</time>
      </trkpt>
      <trkpt lat="47.28706" lon="-1.79252">
        <ele>49.65</ele>
        <time>2013-12-23T11:39:11Z</time>
      </trkpt>
      <trkpt lat="47.28712" lon="-1.79265">
        <ele>49.65</ele>
        <time>2013-12-23T11:39:15Z</time>
      </trkpt>
      <trkpt lat="47.28715" lon="-1.79283">
        <ele>49.16</ele>
        <time>2013-12-23T11:39:18Z</time>
      </trkpt>
      <trkpt lat="47.28717" lon="-1.79297">
        <ele>48.68</ele>
        <time>2013-12-23T11:39:20Z</time>
      </trkpt>
      <trkpt lat="47.2872" lon="-1.79312">
        <ele>48.2</ele>
        <time>2013-12-23T11:39:22Z</time>
      </trkpt>
      <trkpt lat="47.28723" lon="-1.79328">
        <ele>47.72</ele>
        <time>2013-12-23T11:39:24Z</time>
      </trkpt>
      <trkpt lat="47.28726" lon="-1.79343">
        <ele>47.24</ele>
        <time>2013-12-23T11:39:26Z</time>
      </trkpt>
      <trkpt lat="47.28729" lon="-1.79359">
        <ele>46.76</ele>
        <time>2013-12-23T11:39:28Z</time>
      </trkpt>
      <trkpt lat="47.28732" lon="-1.79376">
        <ele>45.8</ele>
        <time>2013-12-23T11:39:30Z</time>
      </trkpt>
      <trkpt lat="47.28735" lon="-1.79392">
        <ele>45.32</ele>
        <time>2013-12-23T11:39:32Z</time>
      </trkpt>
      <trkpt lat="47.28737" lon="-1.7941">
        <ele>44.84</ele>
        <time>2013-12-23T11:39:34Z</time>
      </trkpt>
      <trkpt lat="47.2874" lon="-1.79428">
        <ele>44.36</ele>
        <time>2013-12-23T11:39:36Z</time>
      </trkpt>
      <trkpt lat="47.28741" lon="-1.79446">
        <ele>43.4</ele>
        <time>2013-12-23T11:39:38Z</time>
      </trkpt>
      <trkpt lat="47.28742" lon="-1.79465">
        <ele>42.92</ele>
        <time>2013-12-23T11:39:40Z</time>
      </trkpt>
      <trkpt lat="47.28741" lon="-1.79483">
        <ele>41.95</ele>
        <time>2013-12-23T11:39:42Z</time>
      </trkpt>
      <trkpt lat="47.28738" lon="-1.79499">
        <ele>41.47</ele>
        <time>2013-12-23T11:39:44Z</time>
      </trkpt>
      <trkpt lat="47.28737" lon="-1.79514">
        <ele>40.51</ele>
        <time>2013-12-23T11:39:46Z</time>
      </trkpt>
      <trkpt lat="47.28742" lon="-1.79526">
        <ele>40.03</ele>
        <time>2013-12-23T11:39:48Z</time>
      </trkpt>
      <trkpt lat="47.28747" lon="-1.79538">
        <ele>39.55</ele>
        <time>2013-12-23T11:39:50Z</time>
      </trkpt>
      <trkpt lat="47.28755" lon="-1.79553">
        <ele>39.07</ele>
        <time>2013-12-23T11:39:53Z</time>
      </trkpt>
      <trkpt lat="47.2876" lon="-1.79566">
        <ele>38.11</ele>
        <time>2013-12-23T11:39:56Z</time>
      </trkpt>
      <trkpt lat="47.28765" lon="-1.79579">
        <ele>38.11</ele>
        <time>2013-12-23T11:39:59Z</time>
      </trkpt>
      <trkpt lat="47.28771" lon="-1.79592">
        <ele>37.15</ele>
        <time>2013-12-23T11:40:02Z</time>
      </trkpt>
      <trkpt lat="47.28777" lon="-1.79606">
        <ele>36.19</ele>
        <time>2013-12-23T11:40:05Z</time>
      </trkpt>
      <trkpt lat="47.28784" lon="-1.7962">
        <ele>35.71</ele>
        <time>2013-12-23T11:40:08Z</time>
      </trkpt>
      <trkpt lat="47.28793" lon="-1.79629">
        <ele>34.74</ele>
        <time>2013-12-23T11:40:11Z</time>
      </trkpt>
      <trkpt lat="47.28802" lon="-1.7964">
        <ele>34.26</ele>
        <time>2013-12-23T11:40:14Z</time>
      </trkpt>
      <trkpt lat="47.28811" lon="-1.7965">
        <ele>33.3</ele>
        <time>2013-12-23T11:40:17Z</time>
      </trkpt>
      <trkpt lat="47.28819" lon="-1.79661">
        <ele>32.82</ele>
        <time>2013-12-23T11:40:20Z</time>
      </trkpt>
      <trkpt lat="47.28829" lon="-1.79668">
        <ele>31.86</ele>
        <time>2013-12-23T11:40:24Z</time>
      </trkpt>
      <trkpt lat="47.28838" lon="-1.79665">
        <ele>32.34</ele>
        <time>2013-12-23T11:40:36Z</time>
      </trkpt>
      <trkpt lat="47.28847" lon="-1.79657">
        <ele>32.34</ele>
        <time>2013-12-23T11:40:46Z</time>
      </trkpt>
      <trkpt lat="47.28857" lon="-1.79657">
        <ele>34.74</ele>
        <time>2013-12-23T11:40:51Z</time>
      </trkpt>
      <trkpt lat="47.28862" lon="-1.79674">
        <ele>39.55</ele>
        <time>2013-12-23T11:41:06Z</time>
      </trkpt>
      <trkpt lat="47.28866" lon="-1.79689">
        <ele>41.95</ele>
        <time>2013-12-23T11:41:13Z</time>
      </trkpt>
      <trkpt lat="47.28865" lon="-1.79708">
        <ele>43.4</ele>
        <time>2013-12-23T11:41:19Z</time>
      </trkpt>
      <trkpt lat="47.28872" lon="-1.79724">
        <ele>42.92</ele>
        <time>2013-12-23T11:41:25Z</time>
      </trkpt>
      <trkpt lat="47.28882" lon="-1.79734">
        <ele>42.92</ele>
        <time>2013-12-23T11:41:31Z</time>
      </trkpt>
      <trkpt lat="47.28892" lon="-1.79747">
        <ele>42.44</ele>
        <time>2013-12-23T11:41:37Z</time>
      </trkpt>
      <trkpt lat="47.289" lon="-1.79758">
        <ele>41.47</ele>
        <time>2013-12-23T11:41:43Z</time>
      </trkpt>
      <trkpt lat="47.28907" lon="-1.7977">
        <ele>41.95</ele>
        <time>2013-12-23T11:41:48Z</time>
      </trkpt>
      <trkpt lat="47.28913" lon="-1.79784">
        <ele>42.44</ele>
        <time>2013-12-23T11:41:53Z</time>
      </trkpt>
      <trkpt lat="47.28919" lon="-1.79797">
        <ele>43.4</ele>
        <time>2013-12-23T11:41:58Z</time>
      </trkpt>
      <trkpt lat="47.28927" lon="-1.79812">
        <ele>43.4</ele>
        <time>2013-12-23T11:42:03Z</time>
      </trkpt>
      <trkpt lat="47.28934" lon="-1.79823">
        <ele>42.92</ele>
        <time>2013-12-23T11:42:07Z</time>
      </trkpt>
      <trkpt lat="47.2894" lon="-1.79834">
        <ele>42.44</ele>
        <time>2013-12-23T11:42:11Z</time>
      </trkpt>
      <trkpt lat="47.28947" lon="-1.79845">
        <ele>40.51</ele>
        <time>2013-12-23T11:42:15Z</time>
      </trkpt>
      <trkpt lat="47.28955" lon="-1.79856">
        <ele>38.59</ele>
        <time>2013-12-23T11:42:19Z</time>
      </trkpt>
      <trkpt lat="47.28963" lon="-1.79869">
        <ele>36.67</ele>
        <time>2013-12-23T11:42:25Z</time>
      </trkpt>
      <trkpt lat="47.28969" lon="-1.79881">
        <ele>35.71</ele>
        <time>2013-12-23T11:42:29Z</time>
      </trkpt>
      <trkpt lat="47.28972" lon="-1.79899">
        <ele>35.71</ele>
        <time>2013-12-23T11:42:32Z</time>
      </trkpt>
      <trkpt lat="47.28974" lon="-1.7992">
        <ele>36.67</ele>
        <time>2013-12-23T11:42:35Z</time>
      </trkpt>
      <trkpt lat="47.28976" lon="-1.79939">
        <ele>38.11</ele>
        <time>2013-12-23T11:42:38Z</time>
      </trkpt>
      <trkpt lat="47.28978" lon="-1.79958">
        <ele>38.59</ele>
        <time>2013-12-23T11:42:41Z</time>
      </trkpt>
      <trkpt lat="47.28978" lon="-1.79978">
        <ele>38.59</ele>
        <time>2013-12-23T11:42:44Z</time>
      </trkpt>
      <trkpt lat="47.2898" lon="-1.79997">
        <ele>38.59</ele>
        <time>2013-12-23T11:42:47Z</time>
      </trkpt>
      <trkpt lat="47.28981" lon="-1.80013">
        <ele>38.59</ele>
        <time>2013-12-23T11:42:49Z</time>
      </trkpt>
      <trkpt lat="47.28981" lon="-1.80028">
        <ele>39.07</ele>
        <time>2013-12-23T11:42:51Z</time>
      </trkpt>
      <trkpt lat="47.28982" lon="-1.80044">
        <ele>39.07</ele>
        <time>2013-12-23T11:42:53Z</time>
      </trkpt>
      <trkpt lat="47.28987" lon="-1.80058">
        <ele>39.07</ele>
        <time>2013-12-23T11:42:55Z</time>
      </trkpt>
      <trkpt lat="47.28992" lon="-1.80073">
        <ele>39.07</ele>
        <time>2013-12-23T11:42:58Z</time>
      </trkpt>
      <trkpt lat="47.28996" lon="-1.80088">
        <ele>39.07</ele>
        <time>2013-12-23T11:43:01Z</time>
      </trkpt>
      <trkpt lat="47.28999" lon="-1.80105">
        <ele>39.07</ele>
        <time>2013-12-23T11:43:04Z</time>
      </trkpt>
      <trkpt lat="47.29002" lon="-1.80119">
        <ele>39.07</ele>
        <time>2013-12-23T11:43:07Z</time>
      </trkpt>
      <trkpt lat="47.29006" lon="-1.80136">
        <ele>38.59</ele>
        <time>2013-12-23T11:43:10Z</time>
      </trkpt>
      <trkpt lat="47.29014" lon="-1.8015">
        <ele>37.15</ele>
        <time>2013-12-23T11:43:13Z</time>
      </trkpt>
      <trkpt lat="47.29021" lon="-1.80162">
        <ele>35.23</ele>
        <time>2013-12-23T11:43:16Z</time>
      </trkpt>
      <trkpt lat="47.29028" lon="-1.80173">
        <ele>33.3</ele>
        <time>2013-12-23T11:43:19Z</time>
      </trkpt>
      <trkpt lat="47.29035" lon="-1.80186">
        <ele>32.34</ele>
        <time>2013-12-23T11:43:22Z</time>
      </trkpt>
      <trkpt lat="47.29043" lon="-1.80205">
        <ele>31.86</ele>
        <time>2013-12-23T11:43:25Z</time>
      </trkpt>
      <trkpt lat="47.29048" lon="-1.80218">
        <ele>31.38</ele>
        <time>2013-12-23T11:43:28Z</time>
      </trkpt>
      <trkpt lat="47.29053" lon="-1.80236">
        <ele>30.42</ele>
        <time>2013-12-23T11:43:31Z</time>
      </trkpt>
      <trkpt lat="47.29055" lon="-1.80254">
        <ele>29.94</ele>
        <time>2013-12-23T11:43:34Z</time>
      </trkpt>
      <trkpt lat="47.29061" lon="-1.80269">
        <ele>28.5</ele>
        <time>2013-12-23T11:43:37Z</time>
      </trkpt>
      <trkpt lat="47.2907" lon="-1.80277">
        <ele>27.53</ele>
        <time>2013-12-23T11:43:40Z</time>
      </trkpt>
      <trkpt lat="47.29078" lon="-1.80288">
        <ele>26.57</ele>
        <time>2013-12-23T11:43:44Z</time>
      </trkpt>
      <trkpt lat="47.29087" lon="-1.80306">
        <ele>26.09</ele>
        <time>2013-12-23T11:43:53Z</time>
      </trkpt>
      <trkpt lat="47.29099" lon="-1.80327">
        <ele>24.65</ele>
        <time>2013-12-23T11:43:59Z</time>
      </trkpt>
      <trkpt lat="47.29107" lon="-1.80341">
        <ele>26.09</ele>
        <time>2013-12-23T11:44:09Z</time>
      </trkpt>
      <trkpt lat="47.2911" lon="-1.80356">
        <ele>28.5</ele>
        <time>2013-12-23T11:44:17Z</time>
      </trkpt>
      <trkpt lat="47.29119" lon="-1.80367">
        <ele>30.42</ele>
        <time>2013-12-23T11:44:27Z</time>
      </trkpt>
      <trkpt lat="47.29121" lon="-1.80382">
        <ele>30.9</ele>
        <time>2013-12-23T11:44:35Z</time>
      </trkpt>
      <trkpt lat="47.29123" lon="-1.80399">
        <ele>32.34</ele>
        <time>2013-12-23T11:44:41Z</time>
      </trkpt>
      <trkpt lat="47.2913" lon="-1.80409">
        <ele>32.34</ele>
        <time>2013-12-23T11:44:47Z</time>
      </trkpt>
      <trkpt lat="47.29137" lon="-1.80422">
        <ele>33.3</ele>
        <time>2013-12-23T11:44:52Z</time>
      </trkpt>
      <trkpt lat="47.29144" lon="-1.80435">
        <ele>32.34</ele>
        <time>2013-12-23T11:44:57Z</time>
      </trkpt>
      <trkpt lat="47.29149" lon="-1.80448">
        <ele>30.9</ele>
        <time>2013-12-23T11:45:02Z</time>
      </trkpt>
      <trkpt lat="47.29153" lon="-1.80462">
        <ele>31.38</ele>
        <time>2013-12-23T11:45:06Z</time>
      </trkpt>
      <trkpt lat="47.29156" lon="-1.80478">
        <ele>31.86</ele>
        <time>2013-12-23T11:45:10Z</time>
      </trkpt>
      <trkpt lat="47.29161" lon="-1.80494">
        <ele>33.3</ele>
        <time>2013-12-23T11:45:14Z</time>
      </trkpt>
      <trkpt lat="47.29164" lon="-1.80509">
        <ele>33.78</ele>
        <time>2013-12-23T11:45:18Z</time>
      </trkpt>
      <trkpt lat="47.29169" lon="-1.80524">
        <ele>34.74</ele>
        <time>2013-12-23T11:45:22Z</time>
      </trkpt>
      <trkpt lat="47.29176" lon="-1.80537">
        <ele>33.78</ele>
        <time>2013-12-23T11:45:26Z</time>
      </trkpt>
      <trkpt lat="47.29182" lon="-1.80553">
        <ele>33.3</ele>
        <time>2013-12-23T11:45:30Z</time>
      </trkpt>
      <trkpt lat="47.29186" lon="-1.80568">
        <ele>33.3</ele>
        <time>2013-12-23T11:45:33Z</time>
      </trkpt>
      <trkpt lat="47.29189" lon="-1.80583">
        <ele>32.82</ele>
        <time>2013-12-23T11:45:36Z</time>
      </trkpt>
      <trkpt lat="47.29194" lon="-1.80596">
        <ele>32.34</ele>
        <time>2013-12-23T11:45:39Z</time>
      </trkpt>
      <trkpt lat="47.29199" lon="-1.80609">
        <ele>31.86</ele>
        <time>2013-12-23T11:45:42Z</time>
      </trkpt>
      <trkpt lat="47.29204" lon="-1.80622">
        <ele>31.38</ele>
        <time>2013-12-23T11:45:45Z</time>
      </trkpt>
      <trkpt lat="47.29209" lon="-1.80637">
        <ele>30.42</ele>
        <time>2013-12-23T11:45:48Z</time>
      </trkpt>
      <trkpt lat="47.29212" lon="-1.80651">
        <ele>30.42</ele>
        <time>2013-12-23T11:45:51Z</time>
      </trkpt>
      <trkpt lat="47.29216" lon="-1.80663">
        <ele>30.42</ele>
        <time>2013-12-23T11:45:54Z</time>
      </trkpt>
      <trkpt lat="47.29219" lon="-1.80679">
        <ele>30.42</ele>
        <time>2013-12-23T11:45:58Z</time>
      </trkpt>
      <trkpt lat="47.2922" lon="-1.80693">
        <ele>29.94</ele>
        <time>2013-12-23T11:46:02Z</time>
      </trkpt>
      <trkpt lat="47.29221" lon="-1.80708">
        <ele>29.46</ele>
        <time>2013-12-23T11:46:05Z</time>
      </trkpt>
      <trkpt lat="47.29223" lon="-1.80722">
        <ele>28.98</ele>
        <time>2013-12-23T11:46:08Z</time>
      </trkpt>
      <trkpt lat="47.29224" lon="-1.80738">
        <ele>28.98</ele>
        <time>2013-12-23T11:46:11Z</time>
      </trkpt>
      <trkpt lat="47.29225" lon="-1.80752">
        <ele>28.98</ele>
        <time>2013-12-23T11:46:14Z</time>
      </trkpt>
      <trkpt lat="47.29227" lon="-1.80766">
        <ele>28.5</ele>
        <time>2013-12-23T11:46:17Z</time>
      </trkpt>
      <trkpt lat="47.2923" lon="-1.80783">
        <ele>27.53</ele>
        <time>2013-12-23T11:46:20Z</time>
      </trkpt>
      <trkpt lat="47.29231" lon="-1.80798">
        <ele>27.05</ele>
        <time>2013-12-23T11:46:23Z</time>
      </trkpt>
      <trkpt lat="47.29233" lon="-1.80813">
        <ele>26.09</ele>
        <time>2013-12-23T11:46:26Z</time>
      </trkpt>
      <trkpt lat="47.29235" lon="-1.80827">
        <ele>26.09</ele>
        <time>2013-12-23T11:46:29Z</time>
      </trkpt>
      <trkpt lat="47.29239" lon="-1.80843">
        <ele>26.09</ele>
        <time>2013-12-23T11:46:33Z</time>
      </trkpt>
      <trkpt lat="47.29243" lon="-1.80856">
        <ele>26.09</ele>
        <time>2013-12-23T11:46:37Z</time>
      </trkpt>
      <trkpt lat="47.29248" lon="-1.8087">
        <ele>25.61</ele>
        <time>2013-12-23T11:46:43Z</time>
      </trkpt>
      <trkpt lat="47.29247" lon="-1.80885">
        <ele>26.57</ele>
        <time>2013-12-23T11:46:48Z</time>
      </trkpt>
      <trkpt lat="47.29251" lon="-1.80903">
        <ele>27.53</ele>
        <time>2013-12-23T11:46:53Z</time>
      </trkpt>
      <trkpt lat="47.29255" lon="-1.80919">
        <ele>28.02</ele>
        <time>2013-12-23T11:46:57Z</time>
      </trkpt>
      <trkpt lat="47.29262" lon="-1.80929">
        <ele>27.53</ele>
        <time>2013-12-23T11:47:01Z</time>
      </trkpt>
      <trkpt lat="47.29271" lon="-1.80924">
        <ele>29.46</ele>
        <time>2013-12-23T11:47:07Z</time>
      </trkpt>
      <trkpt lat="47.29282" lon="-1.80919">
        <ele>30.42</ele>
        <time>2013-12-23T11:47:14Z</time>
      </trkpt>
      <trkpt lat="47.29291" lon="-1.80913">
        <ele>30.42</ele>
        <time>2013-12-23T11:47:19Z</time>
      </trkpt>
      <trkpt lat="47.29301" lon="-1.80907">
        <ele>29.94</ele>
        <time>2013-12-23T11:47:24Z</time>
      </trkpt>
      <trkpt lat="47.29311" lon="-1.80902">
        <ele>30.42</ele>
        <time>2013-12-23T11:47:30Z</time>
      </trkpt>
      <trkpt lat="47.29321" lon="-1.80896">
        <ele>30.9</ele>
        <time>2013-12-23T11:47:36Z</time>
      </trkpt>
      <trkpt lat="47.29331" lon="-1.80889">
        <ele>30.9</ele>
        <time>2013-12-23T11:47:43Z</time>
      </trkpt>
      <trkpt lat="47.29336" lon="-1.80876">
        <ele>30.42</ele>
        <time>2013-12-23T11:47:49Z</time>
      </trkpt>
      <trkpt lat="47.29337" lon="-1.80862">
        <ele>31.38</ele>
        <time>2013-12-23T11:47:54Z</time>
      </trkpt>
      <trkpt lat="47.2934" lon="-1.80847">
        <ele>31.86</ele>
        <time>2013-12-23T11:48:00Z</time>
      </trkpt>
      <trkpt lat="47.29348" lon="-1.80837">
        <ele>31.38</ele>
        <time>2013-12-23T11:48:06Z</time>
      </trkpt>
      <trkpt lat="47.29357" lon="-1.80831">
        <ele>32.82</ele>
        <time>2013-12-23T11:48:12Z</time>
      </trkpt>
      <trkpt lat="47.29367" lon="-1.80824">
        <ele>33.78</ele>
        <time>2013-12-23T11:48:18Z</time>
      </trkpt>
      <trkpt lat="47.29377" lon="-1.80817">
        <ele>35.23</ele>
        <time>2013-12-23T11:48:25Z</time>
      </trkpt>
      <trkpt lat="47.29387" lon="-1.8081">
        <ele>36.19</ele>
        <time>2013-12-23T11:48:33Z</time>
      </trkpt>
      <trkpt lat="47.29397" lon="-1.80803">
        <ele>36.67</ele>
        <time>2013-12-23T11:48:40Z</time>
      </trkpt>
      <trkpt lat="47.29407" lon="-1.80792">
        <ele>38.11</ele>
        <time>2013-12-23T11:48:48Z</time>
      </trkpt>
      <trkpt lat="47.29413" lon="-1.80781">
        <ele>40.03</ele>
        <time>2013-12-23T11:48:55Z</time>
      </trkpt>
      <trkpt lat="47.2942" lon="-1.80768">
        <ele>41.95</ele>
        <time>2013-12-23T11:49:03Z</time>
      </trkpt>
      <trkpt lat="47.29427" lon="-1.80756">
        <ele>41.47</ele>
        <time>2013-12-23T11:49:10Z</time>
      </trkpt>
      <trkpt lat="47.29432" lon="-1.80744">
        <ele>43.4</ele>
        <time>2013-12-23T11:49:18Z</time>
      </trkpt>
      <trkpt lat="47.2944" lon="-1.80738">
        <ele>44.36</ele>
        <time>2013-12-23T11:49:24Z</time>
      </trkpt>
      <trkpt lat="47.29449" lon="-1.8073">
        <ele>46.28</ele>
        <time>2013-12-23T11:49:32Z</time>
      </trkpt>
      <trkpt lat="47.2946" lon="-1.80721">
        <ele>47.72</ele>
        <time>2013-12-23T11:49:43Z</time>
      </trkpt>
      <trkpt lat="47.2947" lon="-1.80715">
        <ele>48.68</ele>
        <time>2013-12-23T11:49:52Z</time>
      </trkpt>
      <trkpt lat="47.29481" lon="-1.80707">
        <ele>51.09</ele>
        <time>2013-12-23T11:50:02Z</time>
      </trkpt>
      <trkpt lat="47.29495" lon="-1.80708">
        <ele>54.45</ele>
        <time>2013-12-23T11:50:14Z</time>
      </trkpt>
      <trkpt lat="47.29509" lon="-1.807">
        <ele>60.22</ele>
        <time>2013-12-23T11:50:25Z</time>
      </trkpt>
      <trkpt lat="47.29522" lon="-1.80693">
        <ele>64.55</ele>
        <time>2013-12-23T11:50:37Z</time>
      </trkpt>
      <trkpt lat="47.29533" lon="-1.80683">
        <ele>65.03</ele>
        <time>2013-12-23T11:50:47Z</time>
      </trkpt>
      <trkpt lat="47.29543" lon="-1.80674">
        <ele>64.55</ele>
        <time>2013-12-23T11:50:53Z</time>
      </trkpt>
      <trkpt lat="47.29553" lon="-1.80664">
        <ele>64.55</ele>
        <time>2013-12-23T11:51:00Z</time>
      </trkpt>
      <trkpt lat="47.29563" lon="-1.80653">
        <ele>64.55</ele>
        <time>2013-12-23T11:51:07Z</time>
      </trkpt>
      <trkpt lat="47.29572" lon="-1.80641">
        <ele>64.55</ele>
        <time>2013-12-23T11:51:14Z</time>
      </trkpt>
      <trkpt lat="47.2958" lon="-1.80629">
        <ele>64.07</ele>
        <time>2013-12-23T11:51:20Z</time>
      </trkpt>
      <trkpt lat="47.29586" lon="-1.80617">
        <ele>64.55</ele>
        <time>2013-12-23T11:51:26Z</time>
      </trkpt>
      <trkpt lat="47.29593" lon="-1.80607">
        <ele>62.62</ele>
        <time>2013-12-23T11:52:01Z</time>
      </trkpt>
      <trkpt lat="47.29602" lon="-1.80598">
        <ele>64.07</ele>
        <time>2013-12-23T11:52:06Z</time>
      </trkpt>
      <trkpt lat="47.29612" lon="-1.8059">
        <ele>64.07</ele>
        <time>2013-12-23T11:52:10Z</time>
      </trkpt>
      <trkpt lat="47.29622" lon="-1.80583">
        <ele>64.07</ele>
        <time>2013-12-23T11:52:14Z</time>
      </trkpt>
      <trkpt lat="47.29632" lon="-1.80578">
        <ele>64.07</ele>
        <time>2013-12-23T11:52:17Z</time>
      </trkpt>
      <trkpt lat="47.29642" lon="-1.80574">
        <ele>64.07</ele>
        <time>2013-12-23T11:52:20Z</time>
      </trkpt>
      <trkpt lat="47.29653" lon="-1.80568">
        <ele>63.58</ele>
        <time>2013-12-23T11:52:23Z</time>
      </trkpt>
      <trkpt lat="47.29664" lon="-1.80563">
        <ele>63.1</ele>
        <time>2013-12-23T11:52:26Z</time>
      </trkpt>
      <trkpt lat="47.29675" lon="-1.80557">
        <ele>63.1</ele>
        <time>2013-12-23T11:52:29Z</time>
      </trkpt>
      <trkpt lat="47.29686" lon="-1.80549">
        <ele>62.62</ele>
        <time>2013-12-23T11:52:32Z</time>
      </trkpt>
      <trkpt lat="47.29697" lon="-1.80539">
        <ele>62.14</ele>
        <time>2013-12-23T11:52:35Z</time>
      </trkpt>
      <trkpt lat="47.29709" lon="-1.80531">
        <ele>61.18</ele>
        <time>2013-12-23T11:52:38Z</time>
      </trkpt>
      <trkpt lat="47.29721" lon="-1.80522">
        <ele>60.7</ele>
        <time>2013-12-23T11:52:41Z</time>
      </trkpt>
      <trkpt lat="47.29732" lon="-1.80513">
        <ele>60.22</ele>
        <time>2013-12-23T11:52:44Z</time>
      </trkpt>
      <trkpt lat="47.29742" lon="-1.80506">
        <ele>59.74</ele>
        <time>2013-12-23T11:52:47Z</time>
      </trkpt>
      <trkpt lat="47.29752" lon="-1.80509">
        <ele>59.74</ele>
        <time>2013-12-23T11:52:51Z</time>
      </trkpt>
      <trkpt lat="47.2976" lon="-1.80517">
        <ele>59.26</ele>
        <time>2013-12-23T11:52:54Z</time>
      </trkpt>
      <trkpt lat="47.29773" lon="-1.80522">
        <ele>58.78</ele>
        <time>2013-12-23T11:52:57Z</time>
      </trkpt>
      <trkpt lat="47.29783" lon="-1.80524">
        <ele>58.78</ele>
        <time>2013-12-23T11:52:59Z</time>
      </trkpt>
      <trkpt lat="47.29795" lon="-1.80526">
        <ele>58.78</ele>
        <time>2013-12-23T11:53:01Z</time>
      </trkpt>
      <trkpt lat="47.29806" lon="-1.80527">
        <ele>58.3</ele>
        <time>2013-12-23T11:53:03Z</time>
      </trkpt>
      <trkpt lat="47.29817" lon="-1.80528">
        <ele>58.3</ele>
        <time>2013-12-23T11:53:05Z</time>
      </trkpt>
      <trkpt lat="47.29827" lon="-1.80533">
        <ele>58.3</ele>
        <time>2013-12-23T11:53:07Z</time>
      </trkpt>
      <trkpt lat="47.29834" lon="-1.80545">
        <ele>57.82</ele>
        <time>2013-12-23T11:53:09Z</time>
      </trkpt>
      <trkpt lat="47.29838" lon="-1.80559">
        <ele>57.82</ele>
        <time>2013-12-23T11:53:11Z</time>
      </trkpt>
      <trkpt lat="47.29841" lon="-1.80574">
        <ele>57.34</ele>
        <time>2013-12-23T11:53:13Z</time>
      </trkpt>
      <trkpt lat="47.29845" lon="-1.8059">
        <ele>57.34</ele>
        <time>2013-12-23T11:53:15Z</time>
      </trkpt>
      <trkpt lat="47.29849" lon="-1.80605">
        <ele>57.34</ele>
        <time>2013-12-23T11:53:17Z</time>
      </trkpt>
      <trkpt lat="47.29853" lon="-1.80619">
        <ele>56.86</ele>
        <time>2013-12-23T11:53:19Z</time>
      </trkpt>
      <trkpt lat="47.29856" lon="-1.80634">
        <ele>56.86</ele>
        <time>2013-12-23T11:53:21Z</time>
      </trkpt>
      <trkpt lat="47.2986" lon="-1.80648">
        <ele>56.37</ele>
        <time>2013-12-23T11:53:23Z</time>
      </trkpt>
      <trkpt lat="47.29864" lon="-1.80663">
        <ele>56.37</ele>
        <time>2013-12-23T11:53:25Z</time>
      </trkpt>
      <trkpt lat="47.29868" lon="-1.80678">
        <ele>56.37</ele>
        <time>2013-12-23T11:53:27Z</time>
      </trkpt>
      <trkpt lat="47.29872" lon="-1.80693">
        <ele>56.37</ele>
        <time>2013-12-23T11:53:29Z</time>
      </trkpt>
      <trkpt lat="47.29876" lon="-1.80707">
        <ele>56.37</ele>
        <time>2013-12-23T11:53:31Z</time>
      </trkpt>
      <trkpt lat="47.29879" lon="-1.8072">
        <ele>56.86</ele>
        <time>2013-12-23T11:53:33Z</time>
      </trkpt>
      <trkpt lat="47.29882" lon="-1.80733">
        <ele>56.86</ele>
        <time>2013-12-23T11:53:35Z</time>
      </trkpt>
      <trkpt lat="47.29886" lon="-1.80745">
        <ele>56.86</ele>
        <time>2013-12-23T11:53:37Z</time>
      </trkpt>
      <trkpt lat="47.29889" lon="-1.80758">
        <ele>56.86</ele>
        <time>2013-12-23T11:53:39Z</time>
      </trkpt>
      <trkpt lat="47.29893" lon="-1.80771">
        <ele>57.34</ele>
        <time>2013-12-23T11:53:41Z</time>
      </trkpt>
      <trkpt lat="47.29897" lon="-1.80783">
        <ele>57.34</ele>
        <time>2013-12-23T11:53:43Z</time>
      </trkpt>
      <trkpt lat="47.29902" lon="-1.80796">
        <ele>57.82</ele>
        <time>2013-12-23T11:53:45Z</time>
      </trkpt>
      <trkpt lat="47.29906" lon="-1.80808">
        <ele>57.82</ele>
        <time>2013-12-23T11:53:47Z</time>
      </trkpt>
      <trkpt lat="47.2991" lon="-1.80821">
        <ele>57.82</ele>
        <time>2013-12-23T11:53:49Z</time>
      </trkpt>
      <trkpt lat="47.29913" lon="-1.80833">
        <ele>57.82</ele>
        <time>2013-12-23T11:53:51Z</time>
      </trkpt>
      <trkpt lat="47.29919" lon="-1.80851">
        <ele>58.3</ele>
        <time>2013-12-23T11:53:54Z</time>
      </trkpt>
      <trkpt lat="47.29924" lon="-1.80869">
        <ele>57.82</ele>
        <time>2013-12-23T11:53:57Z</time>
      </trkpt>
      <trkpt lat="47.29929" lon="-1.80881">
        <ele>57.82</ele>
        <time>2013-12-23T11:53:59Z</time>
      </trkpt>
      <trkpt lat="47.29934" lon="-1.80899">
        <ele>57.82</ele>
        <time>2013-12-23T11:54:02Z</time>
      </trkpt>
      <trkpt lat="47.29938" lon="-1.80912">
        <ele>57.34</ele>
        <time>2013-12-23T11:54:04Z</time>
      </trkpt>
      <trkpt lat="47.29942" lon="-1.80924">
        <ele>57.34</ele>
        <time>2013-12-23T11:54:06Z</time>
      </trkpt>
      <trkpt lat="47.29945" lon="-1.80937">
        <ele>57.34</ele>
        <time>2013-12-23T11:54:08Z</time>
      </trkpt>
      <trkpt lat="47.29951" lon="-1.80953">
        <ele>56.86</ele>
        <time>2013-12-23T11:54:11Z</time>
      </trkpt>
      <trkpt lat="47.29956" lon="-1.80966">
        <ele>56.86</ele>
        <time>2013-12-23T11:54:14Z</time>
      </trkpt>
      <trkpt lat="47.29961" lon="-1.80978">
        <ele>56.86</ele>
        <time>2013-12-23T11:54:17Z</time>
      </trkpt>
      <trkpt lat="47.29965" lon="-1.8099">
        <ele>55.89</ele>
        <time>2013-12-23T11:54:20Z</time>
      </trkpt>
      <trkpt lat="47.29971" lon="-1.81006">
        <ele>56.37</ele>
        <time>2013-12-23T11:54:24Z</time>
      </trkpt>
      <trkpt lat="47.29975" lon="-1.81018">
        <ele>56.86</ele>
        <time>2013-12-23T11:54:27Z</time>
      </trkpt>
      <trkpt lat="47.2998" lon="-1.81033">
        <ele>57.34</ele>
        <time>2013-12-23T11:54:30Z</time>
      </trkpt>
      <trkpt lat="47.29985" lon="-1.81046">
        <ele>57.82</ele>
        <time>2013-12-23T11:54:33Z</time>
      </trkpt>
      <trkpt lat="47.29988" lon="-1.81061">
        <ele>57.34</ele>
        <time>2013-12-23T11:54:36Z</time>
      </trkpt>
      <trkpt lat="47.29992" lon="-1.81078">
        <ele>57.34</ele>
        <time>2013-12-23T11:54:40Z</time>
      </trkpt>
      <trkpt lat="47.29997" lon="-1.81096">
        <ele>56.86</ele>
        <time>2013-12-23T11:54:44Z</time>
      </trkpt>
      <trkpt lat="47.30003" lon="-1.8111">
        <ele>56.37</ele>
        <time>2013-12-23T11:54:48Z</time>
      </trkpt>
      <trkpt lat="47.30012" lon="-1.8112">
        <ele>56.37</ele>
        <time>2013-12-23T11:54:51Z</time>
      </trkpt>
      <trkpt lat="47.30019" lon="-1.81133">
        <ele>56.37</ele>
        <time>2013-12-23T11:54:54Z</time>
      </trkpt>
      <trkpt lat="47.30024" lon="-1.81153">
        <ele>55.41</ele>
        <time>2013-12-23T11:54:58Z</time>
      </trkpt>
      <trkpt lat="47.30033" lon="-1.81168">
        <ele>54.93</ele>
        <time>2013-12-23T11:55:02Z</time>
      </trkpt>
      <trkpt lat="47.30038" lon="-1.81182">
        <ele>54.45</ele>
        <time>2013-12-23T11:55:05Z</time>
      </trkpt>
      <trkpt lat="47.30044" lon="-1.812">
        <ele>53.97</ele>
        <time>2013-12-23T11:55:09Z</time>
      </trkpt>
      <trkpt lat="47.30051" lon="-1.81219">
        <ele>53.01</ele>
        <time>2013-12-23T11:55:13Z</time>
      </trkpt>
      <trkpt lat="47.30054" lon="-1.81242">
        <ele>52.05</ele>
        <time>2013-12-23T11:55:17Z</time>
      </trkpt>
      <trkpt lat="47.3006" lon="-1.8126">
        <ele>50.61</ele>
        <time>2013-12-23T11:55:21Z</time>
      </trkpt>
      <trkpt lat="47.30064" lon="-1.81277">
        <ele>49.65</ele>
        <time>2013-12-23T11:55:25Z</time>
      </trkpt>
      <trkpt lat="47.30068" lon="-1.81297">
        <ele>49.16</ele>
        <time>2013-12-23T11:55:29Z</time>
      </trkpt>
      <trkpt lat="47.30073" lon="-1.81319">
        <ele>47.72</ele>
        <time>2013-12-23T11:55:34Z</time>
      </trkpt>
      <trkpt lat="47.30076" lon="-1.8134">
        <ele>47.24</ele>
        <time>2013-12-23T11:55:39Z</time>
      </trkpt>
      <trkpt lat="47.30081" lon="-1.81359">
        <ele>45.8</ele>
        <time>2013-12-23T11:55:43Z</time>
      </trkpt>
      <trkpt lat="47.30089" lon="-1.81389">
        <ele>42.44</ele>
        <time>2013-12-23T11:55:48Z</time>
      </trkpt>
      <trkpt lat="47.30099" lon="-1.81414">
        <ele>41.95</ele>
        <time>2013-12-23T11:55:53Z</time>
      </trkpt>
      <trkpt lat="47.301" lon="-1.81436">
        <ele>40.99</ele>
        <time>2013-12-23T11:55:57Z</time>
      </trkpt>
      <trkpt lat="47.30099" lon="-1.81451">
        <ele>40.03</ele>
        <time>2013-12-23T11:56:00Z</time>
      </trkpt>
      <trkpt lat="47.30097" lon="-1.81465">
        <ele>40.03</ele>
        <time>2013-12-23T11:56:03Z</time>
      </trkpt>
      <trkpt lat="47.30092" lon="-1.8148">
        <ele>39.55</ele>
        <time>2013-12-23T11:56:06Z</time>
      </trkpt>
      <trkpt lat="47.30089" lon="-1.81494">
        <ele>39.07</ele>
        <time>2013-12-23T11:56:09Z</time>
      </trkpt>
      <trkpt lat="47.30086" lon="-1.81512">
        <ele>38.59</ele>
        <time>2013-12-23T11:56:13Z</time>
      </trkpt>
      <trkpt lat="47.3008" lon="-1.81532">
        <ele>35.23</ele>
        <time>2013-12-23T11:56:17Z</time>
      </trkpt>
      <trkpt lat="47.30072" lon="-1.81561">
        <ele>30.9</ele>
        <time>2013-12-23T11:56:21Z</time>
      </trkpt>
      <trkpt lat="47.30064" lon="-1.81585">
        <ele>26.57</ele>
        <time>2013-12-23T11:56:25Z</time>
      </trkpt>
      <trkpt lat="47.30062" lon="-1.81607">
        <ele>25.13</ele>
        <time>2013-12-23T11:56:45Z</time>
      </trkpt>
      <trkpt lat="47.30065" lon="-1.81621">
        <ele>25.13</ele>
        <time>2013-12-23T11:56:58Z</time>
      </trkpt>
      <trkpt lat="47.30068" lon="-1.81637">
        <ele>26.09</ele>
        <time>2013-12-23T11:57:16Z</time>
      </trkpt>
      <trkpt lat="47.30066" lon="-1.81652">
        <ele>25.13</ele>
        <time>2013-12-23T11:57:22Z</time>
      </trkpt>
      <trkpt lat="47.30061" lon="-1.81667">
        <ele>27.05</ele>
        <time>2013-12-23T11:57:28Z</time>
      </trkpt>
      <trkpt lat="47.30055" lon="-1.81682">
        <ele>29.94</ele>
        <time>2013-12-23T11:57:34Z</time>
      </trkpt>
      <trkpt lat="47.30052" lon="-1.81697">
        <ele>32.34</ele>
        <time>2013-12-23T11:57:41Z</time>
      </trkpt>
      <trkpt lat="47.30051" lon="-1.81712">
        <ele>33.78</ele>
        <time>2013-12-23T11:57:48Z</time>
      </trkpt>
      <trkpt lat="47.30056" lon="-1.81729">
        <ele>33.3</ele>
        <time>2013-12-23T11:57:56Z</time>
      </trkpt>
      <trkpt lat="47.30066" lon="-1.81741">
        <ele>35.71</ele>
        <time>2013-12-23T11:58:09Z</time>
      </trkpt>
      <trkpt lat="47.30074" lon="-1.81755">
        <ele>33.78</ele>
        <time>2013-12-23T11:58:18Z</time>
      </trkpt>
      <trkpt lat="47.30081" lon="-1.8177">
        <ele>32.34</ele>
        <time>2013-12-23T11:58:27Z</time>
      </trkpt>
      <trkpt lat="47.30086" lon="-1.81787">
        <ele>33.3</ele>
        <time>2013-12-23T11:58:37Z</time>
      </trkpt>
      <trkpt lat="47.30091" lon="-1.81801">
        <ele>34.26</ele>
        <time>2013-12-23T11:58:45Z</time>
      </trkpt>
      <trkpt lat="47.30095" lon="-1.81816">
        <ele>35.71</ele>
        <time>2013-12-23T11:58:55Z</time>
      </trkpt>
      <trkpt lat="47.30103" lon="-1.81833">
        <ele>37.63</ele>
        <time>2013-12-23T11:59:05Z</time>
      </trkpt>
      <trkpt lat="47.30111" lon="-1.81845">
        <ele>39.55</ele>
        <time>2013-12-23T11:59:13Z</time>
      </trkpt>
      <trkpt lat="47.30119" lon="-1.81856">
        <ele>40.51</ele>
        <time>2013-12-23T11:59:22Z</time>
      </trkpt>
      <trkpt lat="47.30127" lon="-1.81865">
        <ele>40.51</ele>
        <time>2013-12-23T11:59:28Z</time>
      </trkpt>
      <trkpt lat="47.30135" lon="-1.81874">
        <ele>40.51</ele>
        <time>2013-12-23T11:59:34Z</time>
      </trkpt>
      <trkpt lat="47.30144" lon="-1.81885">
        <ele>41.47</ele>
        <time>2013-12-23T11:59:40Z</time>
      </trkpt>
      <trkpt lat="47.30151" lon="-1.81897">
        <ele>41.95</ele>
        <time>2013-12-23T11:59:45Z</time>
      </trkpt>
      <trkpt lat="47.30157" lon="-1.8191">
        <ele>41.95</ele>
        <time>2013-12-23T11:59:50Z</time>
      </trkpt>
      <trkpt lat="47.30163" lon="-1.81926">
        <ele>40.03</ele>
        <time>2013-12-23T11:59:56Z</time>
      </trkpt>
      <trkpt lat="47.30165" lon="-1.81945">
        <ele>38.11</ele>
        <time>2013-12-23T12:00:00Z</time>
      </trkpt>
      <trkpt lat="47.30161" lon="-1.8196">
        <ele>37.15</ele>
        <time>2013-12-23T12:00:03Z</time>
      </trkpt>
      <trkpt lat="47.30155" lon="-1.81974">
        <ele>36.67</ele>
        <time>2013-12-23T12:00:06Z</time>
      </trkpt>
      <trkpt lat="47.3015" lon="-1.81989">
        <ele>37.15</ele>
        <time>2013-12-23T12:00:09Z</time>
      </trkpt>
      <trkpt lat="47.30143" lon="-1.82002">
        <ele>37.63</ele>
        <time>2013-12-23T12:00:12Z</time>
      </trkpt>
      <trkpt lat="47.30135" lon="-1.82014">
        <ele>38.11</ele>
        <time>2013-12-23T12:00:15Z</time>
      </trkpt>
      <trkpt lat="47.30125" lon="-1.82025">
        <ele>39.07</ele>
        <time>2013-12-23T12:00:18Z</time>
      </trkpt>
      <trkpt lat="47.30116" lon="-1.82033">
        <ele>40.03</ele>
        <time>2013-12-23T12:00:21Z</time>
      </trkpt>
      <trkpt lat="47.30106" lon="-1.82041">
        <ele>41.95</ele>
        <time>2013-12-23T12:00:25Z</time>
      </trkpt>
      <trkpt lat="47.30098" lon="-1.82052">
        <ele>43.4</ele>
        <time>2013-12-23T12:00:29Z</time>
      </trkpt>
      <trkpt lat="47.30093" lon="-1.82067">
        <ele>43.4</ele>
        <time>2013-12-23T12:00:33Z</time>
      </trkpt>
      <trkpt lat="47.30091" lon="-1.82082">
        <ele>43.4</ele>
        <time>2013-12-23T12:00:37Z</time>
      </trkpt>
      <trkpt lat="47.30093" lon="-1.82098">
        <ele>43.4</ele>
        <time>2013-12-23T12:00:41Z</time>
      </trkpt>
      <trkpt lat="47.30097" lon="-1.82113">
        <ele>43.4</ele>
        <time>2013-12-23T12:00:45Z</time>
      </trkpt>
      <trkpt lat="47.30101" lon="-1.82128">
        <ele>43.88</ele>
        <time>2013-12-23T12:00:49Z</time>
      </trkpt>
      <trkpt lat="47.30105" lon="-1.8214">
        <ele>43.88</ele>
        <time>2013-12-23T12:00:52Z</time>
      </trkpt>
      <trkpt lat="47.30107" lon="-1.82155">
        <ele>43.4</ele>
        <time>2013-12-23T12:00:55Z</time>
      </trkpt>
      <trkpt lat="47.30108" lon="-1.82171">
        <ele>43.4</ele>
        <time>2013-12-23T12:00:58Z</time>
      </trkpt>
      <trkpt lat="47.30112" lon="-1.82188">
        <ele>42.92</ele>
        <time>2013-12-23T12:01:01Z</time>
      </trkpt>
      <trkpt lat="47.30113" lon="-1.82205">
        <ele>41.95</ele>
        <time>2013-12-23T12:01:04Z</time>
      </trkpt>
      <trkpt lat="47.30112" lon="-1.82219">
        <ele>41.47</ele>
        <time>2013-12-23T12:01:06Z</time>
      </trkpt>
      <trkpt lat="47.3011" lon="-1.82235">
        <ele>40.99</ele>
        <time>2013-12-23T12:01:08Z</time>
      </trkpt>
      <trkpt lat="47.30108" lon="-1.82253">
        <ele>39.55</ele>
        <time>2013-12-23T12:01:10Z</time>
      </trkpt>
      <trkpt lat="47.30104" lon="-1.82273">
        <ele>38.59</ele>
        <time>2013-12-23T12:01:12Z</time>
      </trkpt>
      <trkpt lat="47.30098" lon="-1.82292">
        <ele>37.63</ele>
        <time>2013-12-23T12:01:14Z</time>
      </trkpt>
      <trkpt lat="47.30089" lon="-1.82309">
        <ele>36.67</ele>
        <time>2013-12-23T12:01:16Z</time>
      </trkpt>
      <trkpt lat="47.30078" lon="-1.82324">
        <ele>35.71</ele>
        <time>2013-12-23T12:01:18Z</time>
      </trkpt>
      <trkpt lat="47.30066" lon="-1.82335">
        <ele>34.74</ele>
        <time>2013-12-23T12:01:20Z</time>
      </trkpt>
      <trkpt lat="47.30054" lon="-1.82344">
        <ele>33.78</ele>
        <time>2013-12-23T12:01:22Z</time>
      </trkpt>
      <trkpt lat="47.30042" lon="-1.82353">
        <ele>33.3</ele>
        <time>2013-12-23T12:01:24Z</time>
      </trkpt>
      <trkpt lat="47.30031" lon="-1.82361">
        <ele>32.34</ele>
        <time>2013-12-23T12:01:26Z</time>
      </trkpt>
      <trkpt lat="47.30023" lon="-1.82373">
        <ele>31.38</ele>
        <time>2013-12-23T12:01:28Z</time>
      </trkpt>
      <trkpt lat="47.30023" lon="-1.82389">
        <ele>30.9</ele>
        <time>2013-12-23T12:01:30Z</time>
      </trkpt>
      <trkpt lat="47.30025" lon="-1.82405">
        <ele>30.9</ele>
        <time>2013-12-23T12:01:32Z</time>
      </trkpt>
      <trkpt lat="47.30028" lon="-1.82422">
        <ele>30.42</ele>
        <time>2013-12-23T12:01:34Z</time>
      </trkpt>
      <trkpt lat="47.30031" lon="-1.82439">
        <ele>30.42</ele>
        <time>2013-12-23T12:01:36Z</time>
      </trkpt>
      <trkpt lat="47.30036" lon="-1.82456">
        <ele>29.94</ele>
        <time>2013-12-23T12:01:38Z</time>
      </trkpt>
      <trkpt lat="47.3004" lon="-1.82472">
        <ele>29.46</ele>
        <time>2013-12-23T12:01:40Z</time>
      </trkpt>
      <trkpt lat="47.30043" lon="-1.82489">
        <ele>29.46</ele>
        <time>2013-12-23T12:01:42Z</time>
      </trkpt>
      <trkpt lat="47.30049" lon="-1.82503">
        <ele>28.98</ele>
        <time>2013-12-23T12:01:44Z</time>
      </trkpt>
      <trkpt lat="47.30055" lon="-1.82518">
        <ele>28.02</ele>
        <time>2013-12-23T12:01:46Z</time>
      </trkpt>
      <trkpt lat="47.30061" lon="-1.82533">
        <ele>27.05</ele>
        <time>2013-12-23T12:01:48Z</time>
      </trkpt>
      <trkpt lat="47.30068" lon="-1.8255">
        <ele>26.09</ele>
        <time>2013-12-23T12:01:50Z</time>
      </trkpt>
      <trkpt lat="47.30074" lon="-1.82569">
        <ele>24.65</ele>
        <time>2013-12-23T12:01:52Z</time>
      </trkpt>
      <trkpt lat="47.30083" lon="-1.82587">
        <ele>24.17</ele>
        <time>2013-12-23T12:01:54Z</time>
      </trkpt>
      <trkpt lat="47.3009" lon="-1.82602">
        <ele>24.17</ele>
        <time>2013-12-23T12:01:56Z</time>
      </trkpt>
      <trkpt lat="47.30095" lon="-1.82615">
        <ele>24.17</ele>
        <time>2013-12-23T12:01:58Z</time>
      </trkpt>
      <trkpt lat="47.30101" lon="-1.8263">
        <ele>25.13</ele>
        <time>2013-12-23T12:02:01Z</time>
      </trkpt>
      <trkpt lat="47.30108" lon="-1.82642">
        <ele>25.61</ele>
        <time>2013-12-23T12:02:04Z</time>
      </trkpt>
      <trkpt lat="47.30114" lon="-1.82657">
        <ele>25.61</ele>
        <time>2013-12-23T12:02:07Z</time>
      </trkpt>
      <trkpt lat="47.3012" lon="-1.82674">
        <ele>24.65</ele>
        <time>2013-12-23T12:02:10Z</time>
      </trkpt>
      <trkpt lat="47.30127" lon="-1.8269">
        <ele>24.65</ele>
        <time>2013-12-23T12:02:13Z</time>
      </trkpt>
      <trkpt lat="47.30132" lon="-1.82705">
        <ele>24.65</ele>
        <time>2013-12-23T12:02:16Z</time>
      </trkpt>
      <trkpt lat="47.30137" lon="-1.82722">
        <ele>24.65</ele>
        <time>2013-12-23T12:02:19Z</time>
      </trkpt>
      <trkpt lat="47.30142" lon="-1.82738">
        <ele>25.61</ele>
        <time>2013-12-23T12:02:22Z</time>
      </trkpt>
      <trkpt lat="47.30149" lon="-1.82754">
        <ele>25.61</ele>
        <time>2013-12-23T12:02:25Z</time>
      </trkpt>
      <trkpt lat="47.30155" lon="-1.82769">
        <ele>26.09</ele>
        <time>2013-12-23T12:02:28Z</time>
      </trkpt>
      <trkpt lat="47.30162" lon="-1.82783">
        <ele>26.09</ele>
        <time>2013-12-23T12:02:31Z</time>
      </trkpt>
      <trkpt lat="47.30168" lon="-1.82799">
        <ele>26.57</ele>
        <time>2013-12-23T12:02:34Z</time>
      </trkpt>
      <trkpt lat="47.30176" lon="-1.82813">
        <ele>26.57</ele>
        <time>2013-12-23T12:02:37Z</time>
      </trkpt>
      <trkpt lat="47.30183" lon="-1.82828">
        <ele>26.57</ele>
        <time>2013-12-23T12:02:40Z</time>
      </trkpt>
      <trkpt lat="47.30191" lon="-1.82842">
        <ele>26.57</ele>
        <time>2013-12-23T12:02:43Z</time>
      </trkpt>
      <trkpt lat="47.302" lon="-1.82856">
        <ele>27.53</ele>
        <time>2013-12-23T12:02:46Z</time>
      </trkpt>
      <trkpt lat="47.30208" lon="-1.82869">
        <ele>27.53</ele>
        <time>2013-12-23T12:02:49Z</time>
      </trkpt>
      <trkpt lat="47.30217" lon="-1.82884">
        <ele>27.53</ele>
        <time>2013-12-23T12:02:52Z</time>
      </trkpt>
      <trkpt lat="47.30225" lon="-1.82898">
        <ele>27.53</ele>
        <time>2013-12-23T12:02:55Z</time>
      </trkpt>
      <trkpt lat="47.30232" lon="-1.82914">
        <ele>27.53</ele>
        <time>2013-12-23T12:02:58Z</time>
      </trkpt>
      <trkpt lat="47.30238" lon="-1.82927">
        <ele>27.53</ele>
        <time>2013-12-23T12:03:01Z</time>
      </trkpt>
      <trkpt lat="47.30244" lon="-1.8294">
        <ele>27.05</ele>
        <time>2013-12-23T12:03:04Z</time>
      </trkpt>
      <trkpt lat="47.30249" lon="-1.82954">
        <ele>26.57</ele>
        <time>2013-12-23T12:03:07Z</time>
      </trkpt>
      <trkpt lat="47.30255" lon="-1.82965">
        <ele>26.57</ele>
        <time>2013-12-23T12:03:10Z</time>
      </trkpt>
      <trkpt lat="47.30264" lon="-1.82973">
        <ele>27.53</ele>
        <time>2013-12-23T12:03:14Z</time>
      </trkpt>
      <trkpt lat="47.3027" lon="-1.82984">
        <ele>27.53</ele>
        <time>2013-12-23T12:03:17Z</time>
      </trkpt>
      <trkpt lat="47.30275" lon="-1.82998">
        <ele>27.05</ele>
        <time>2013-12-23T12:03:21Z</time>
      </trkpt>
      <trkpt lat="47.30279" lon="-1.83012">
        <ele>27.05</ele>
        <time>2013-12-23T12:03:25Z</time>
      </trkpt>
      <trkpt lat="47.30283" lon="-1.83025">
        <ele>27.53</ele>
        <time>2013-12-23T12:03:28Z</time>
      </trkpt>
      <trkpt lat="47.30287" lon="-1.83039">
        <ele>27.53</ele>
        <time>2013-12-23T12:03:31Z</time>
      </trkpt>
      <trkpt lat="47.30291" lon="-1.83052">
        <ele>28.02</ele>
        <time>2013-12-23T12:03:34Z</time>
      </trkpt>
      <trkpt lat="47.30294" lon="-1.83066">
        <ele>28.5</ele>
        <time>2013-12-23T12:03:37Z</time>
      </trkpt>
      <trkpt lat="47.30298" lon="-1.83079">
        <ele>28.5</ele>
        <time>2013-12-23T12:03:40Z</time>
      </trkpt>
      <trkpt lat="47.30301" lon="-1.83092">
        <ele>28.98</ele>
        <time>2013-12-23T12:03:43Z</time>
      </trkpt>
      <trkpt lat="47.30305" lon="-1.83108">
        <ele>29.46</ele>
        <time>2013-12-23T12:03:47Z</time>
      </trkpt>
      <trkpt lat="47.30308" lon="-1.83121">
        <ele>30.42</ele>
        <time>2013-12-23T12:03:51Z</time>
      </trkpt>
      <trkpt lat="47.30313" lon="-1.83135">
        <ele>29.94</ele>
        <time>2013-12-23T12:03:56Z</time>
      </trkpt>
      <trkpt lat="47.30318" lon="-1.83149">
        <ele>29.46</ele>
        <time>2013-12-23T12:03:59Z</time>
      </trkpt>
      <trkpt lat="47.30322" lon="-1.83161">
        <ele>28.5</ele>
        <time>2013-12-23T12:04:01Z</time>
      </trkpt>
      <trkpt lat="47.30326" lon="-1.83175">
        <ele>28.02</ele>
        <time>2013-12-23T12:04:03Z</time>
      </trkpt>
      <trkpt lat="47.30332" lon="-1.83189">
        <ele>27.05</ele>
        <time>2013-12-23T12:04:06Z</time>
      </trkpt>
      <trkpt lat="47.3034" lon="-1.832">
        <ele>26.09</ele>
        <time>2013-12-23T12:04:25Z</time>
      </trkpt>
      <trkpt lat="47.30346" lon="-1.83211">
        <ele>26.09</ele>
        <time>2013-12-23T12:04:28Z</time>
      </trkpt>
      <trkpt lat="47.30353" lon="-1.83224">
        <ele>26.09</ele>
        <time>2013-12-23T12:04:31Z</time>
      </trkpt>
      <trkpt lat="47.3036" lon="-1.83238">
        <ele>26.09</ele>
        <time>2013-12-23T12:04:34Z</time>
      </trkpt>
      <trkpt lat="47.30367" lon="-1.83253">
        <ele>25.61</ele>
        <time>2013-12-23T12:04:37Z</time>
      </trkpt>
      <trkpt lat="47.30374" lon="-1.83264">
        <ele>24.65</ele>
        <time>2013-12-23T12:04:39Z</time>
      </trkpt>
      <trkpt lat="47.30381" lon="-1.83273">
        <ele>24.17</ele>
        <time>2013-12-23T12:04:41Z</time>
      </trkpt>
      <trkpt lat="47.30393" lon="-1.83273">
        <ele>22.73</ele>
        <time>2013-12-23T12:04:44Z</time>
      </trkpt>
      <trkpt lat="47.30403" lon="-1.83271">
        <ele>21.77</ele>
        <time>2013-12-23T12:04:46Z</time>
      </trkpt>
      <trkpt lat="47.30414" lon="-1.83265">
        <ele>20.81</ele>
        <time>2013-12-23T12:04:49Z</time>
      </trkpt>
      <trkpt lat="47.30425" lon="-1.83268">
        <ele>19.84</ele>
        <time>2013-12-23T12:04:52Z</time>
      </trkpt>
      <trkpt lat="47.30432" lon="-1.83281">
        <ele>18.4</ele>
        <time>2013-12-23T12:04:55Z</time>
      </trkpt>
      <trkpt lat="47.30439" lon="-1.83296">
        <ele>16</ele>
        <time>2013-12-23T12:04:59Z</time>
      </trkpt>
      <trkpt lat="47.30441" lon="-1.83311">
        <ele>13.6</ele>
        <time>2013-12-23T12:05:04Z</time>
      </trkpt>
      <trkpt lat="47.30442" lon="-1.83338">
        <ele>13.6</ele>
        <time>2013-12-23T12:05:16Z</time>
      </trkpt>
      <trkpt lat="47.30437" lon="-1.83359">
        <ele>13.6</ele>
        <time>2013-12-23T12:05:23Z</time>
      </trkpt>
      <trkpt lat="47.30434" lon="-1.83378">
        <ele>14.56</ele>
        <time>2013-12-23T12:05:30Z</time>
      </trkpt>
      <trkpt lat="47.30436" lon="-1.83396">
        <ele>15.52</ele>
        <time>2013-12-23T12:05:37Z</time>
      </trkpt>
      <trkpt lat="47.30441" lon="-1.83415">
        <ele>17.44</ele>
        <time>2013-12-23T12:05:44Z</time>
      </trkpt>
      <trkpt lat="47.30448" lon="-1.83431">
        <ele>20.81</ele>
        <time>2013-12-23T12:05:50Z</time>
      </trkpt>
      <trkpt lat="47.30455" lon="-1.83444">
        <ele>20.81</ele>
        <time>2013-12-23T12:05:55Z</time>
      </trkpt>
      <trkpt lat="47.30463" lon="-1.83458">
        <ele>20.81</ele>
        <time>2013-12-23T12:06:00Z</time>
      </trkpt>
      <trkpt lat="47.30469" lon="-1.83472">
        <ele>20.81</ele>
        <time>2013-12-23T12:06:05Z</time>
      </trkpt>
      <trkpt lat="47.30476" lon="-1.83485">
        <ele>22.73</ele>
        <time>2013-12-23T12:06:09Z</time>
      </trkpt>
      <trkpt lat="47.30482" lon="-1.83495">
        <ele>23.69</ele>
        <time>2013-12-23T12:06:12Z</time>
      </trkpt>
      <trkpt lat="47.30488" lon="-1.83506">
        <ele>24.17</ele>
        <time>2013-12-23T12:06:15Z</time>
      </trkpt>
      <trkpt lat="47.30494" lon="-1.83518">
        <ele>24.65</ele>
        <time>2013-12-23T12:06:18Z</time>
      </trkpt>
      <trkpt lat="47.30501" lon="-1.8353">
        <ele>25.13</ele>
        <time>2013-12-23T12:06:21Z</time>
      </trkpt>
      <trkpt lat="47.30507" lon="-1.83542">
        <ele>25.13</ele>
        <time>2013-12-23T12:06:24Z</time>
      </trkpt>
      <trkpt lat="47.30514" lon="-1.83553">
        <ele>25.61</ele>
        <time>2013-12-23T12:06:27Z</time>
      </trkpt>
      <trkpt lat="47.30521" lon="-1.83565">
        <ele>25.61</ele>
        <time>2013-12-23T12:06:30Z</time>
      </trkpt>
      <trkpt lat="47.30528" lon="-1.83576">
        <ele>26.09</ele>
        <time>2013-12-23T12:06:33Z</time>
      </trkpt>
      <trkpt lat="47.30534" lon="-1.83587">
        <ele>26.57</ele>
        <time>2013-12-23T12:06:36Z</time>
      </trkpt>
      <trkpt lat="47.30545" lon="-1.83597">
        <ele>28.02</ele>
        <time>2013-12-23T12:06:40Z</time>
      </trkpt>
      <trkpt lat="47.30554" lon="-1.83607">
        <ele>28.5</ele>
        <time>2013-12-23T12:06:44Z</time>
      </trkpt>
      <trkpt lat="47.30562" lon="-1.83616">
        <ele>28.5</ele>
        <time>2013-12-23T12:06:47Z</time>
      </trkpt>
      <trkpt lat="47.30571" lon="-1.83626">
        <ele>28.5</ele>
        <time>2013-12-23T12:06:50Z</time>
      </trkpt>
      <trkpt lat="47.3058" lon="-1.83635">
        <ele>28.5</ele>
        <time>2013-12-23T12:06:53Z</time>
      </trkpt>
      <trkpt lat="47.30589" lon="-1.83643">
        <ele>28.5</ele>
        <time>2013-12-23T12:06:56Z</time>
      </trkpt>
      <trkpt lat="47.30596" lon="-1.83651">
        <ele>28.5</ele>
        <time>2013-12-23T12:06:59Z</time>
      </trkpt>
      <trkpt lat="47.30604" lon="-1.83659">
        <ele>28.5</ele>
        <time>2013-12-23T12:07:02Z</time>
      </trkpt>
      <trkpt lat="47.30614" lon="-1.83667">
        <ele>27.53</ele>
        <time>2013-12-23T12:07:13Z</time>
      </trkpt>
      <trkpt lat="47.30623" lon="-1.83675">
        <ele>27.05</ele>
        <time>2013-12-23T12:07:16Z</time>
      </trkpt>
      <trkpt lat="47.30632" lon="-1.83684">
        <ele>25.61</ele>
        <time>2013-12-23T12:08:45Z</time>
      </trkpt>
      <trkpt lat="47.3064" lon="-1.83694">
        <ele>26.09</ele>
        <time>2013-12-23T12:08:50Z</time>
      </trkpt>
      <trkpt lat="47.30648" lon="-1.83702">
        <ele>26.09</ele>
        <time>2013-12-23T12:08:54Z</time>
      </trkpt>
      <trkpt lat="47.30657" lon="-1.8371">
        <ele>26.09</ele>
        <time>2013-12-23T12:08:58Z</time>
      </trkpt>
      <trkpt lat="47.30667" lon="-1.83721">
        <ele>26.57</ele>
        <time>2013-12-23T12:09:02Z</time>
      </trkpt>
      <trkpt lat="47.30676" lon="-1.8373">
        <ele>27.05</ele>
        <time>2013-12-23T12:09:05Z</time>
      </trkpt>
      <trkpt lat="47.30684" lon="-1.83741">
        <ele>27.53</ele>
        <time>2013-12-23T12:09:08Z</time>
      </trkpt>
      <trkpt lat="47.30693" lon="-1.83754">
        <ele>28.5</ele>
        <time>2013-12-23T12:09:12Z</time>
      </trkpt>
      <trkpt lat="47.30701" lon="-1.83765">
        <ele>28.98</ele>
        <time>2013-12-23T12:09:16Z</time>
      </trkpt>
      <trkpt lat="47.30709" lon="-1.83775">
        <ele>29.46</ele>
        <time>2013-12-23T12:09:19Z</time>
      </trkpt>
      <trkpt lat="47.30718" lon="-1.83788">
        <ele>28.98</ele>
        <time>2013-12-23T12:09:22Z</time>
      </trkpt>
      <trkpt lat="47.30726" lon="-1.83801">
        <ele>28.98</ele>
        <time>2013-12-23T12:09:25Z</time>
      </trkpt>
      <trkpt lat="47.30733" lon="-1.83814">
        <ele>28.5</ele>
        <time>2013-12-23T12:09:28Z</time>
      </trkpt>
      <trkpt lat="47.30737" lon="-1.83828">
        <ele>28.02</ele>
        <time>2013-12-23T12:09:31Z</time>
      </trkpt>
      <trkpt lat="47.30743" lon="-1.83842">
        <ele>27.53</ele>
        <time>2013-12-23T12:09:35Z</time>
      </trkpt>
      <trkpt lat="47.30747" lon="-1.83857">
        <ele>27.53</ele>
        <time>2013-12-23T12:09:38Z</time>
      </trkpt>
      <trkpt lat="47.30752" lon="-1.83875">
        <ele>26.57</ele>
        <time>2013-12-23T12:09:41Z</time>
      </trkpt>
      <trkpt lat="47.30757" lon="-1.83894">
        <ele>26.57</ele>
        <time>2013-12-23T12:09:44Z</time>
      </trkpt>
      <trkpt lat="47.30761" lon="-1.83907">
        <ele>26.09</ele>
        <time>2013-12-23T12:09:46Z</time>
      </trkpt>
      <trkpt lat="47.30765" lon="-1.83919">
        <ele>25.61</ele>
        <time>2013-12-23T12:09:48Z</time>
      </trkpt>
      <trkpt lat="47.30769" lon="-1.83931">
        <ele>25.13</ele>
        <time>2013-12-23T12:09:50Z</time>
      </trkpt>
      <trkpt lat="47.30774" lon="-1.83944">
        <ele>24.65</ele>
        <time>2013-12-23T12:09:52Z</time>
      </trkpt>
      <trkpt lat="47.30779" lon="-1.83955">
        <ele>24.17</ele>
        <time>2013-12-23T12:09:54Z</time>
      </trkpt>
      <trkpt lat="47.30784" lon="-1.83967">
        <ele>23.69</ele>
        <time>2013-12-23T12:09:56Z</time>
      </trkpt>
      <trkpt lat="47.3079" lon="-1.83979">
        <ele>23.21</ele>
        <time>2013-12-23T12:09:58Z</time>
      </trkpt>
      <trkpt lat="47.30796" lon="-1.83991">
        <ele>22.73</ele>
        <time>2013-12-23T12:10:00Z</time>
      </trkpt>
      <trkpt lat="47.30805" lon="-1.84004">
        <ele>22.25</ele>
        <time>2013-12-23T12:10:02Z</time>
      </trkpt>
      <trkpt lat="47.30813" lon="-1.84017">
        <ele>21.77</ele>
        <time>2013-12-23T12:10:04Z</time>
      </trkpt>
      <trkpt lat="47.30821" lon="-1.84029">
        <ele>21.29</ele>
        <time>2013-12-23T12:10:06Z</time>
      </trkpt>
      <trkpt lat="47.30827" lon="-1.84041">
        <ele>20.81</ele>
        <time>2013-12-23T12:10:08Z</time>
      </trkpt>
      <trkpt lat="47.30834" lon="-1.84052">
        <ele>20.81</ele>
        <time>2013-12-23T12:10:10Z</time>
      </trkpt>
      <trkpt lat="47.30844" lon="-1.84066">
        <ele>20.32</ele>
        <time>2013-12-23T12:10:13Z</time>
      </trkpt>
      <trkpt lat="47.30854" lon="-1.84078">
        <ele>20.32</ele>
        <time>2013-12-23T12:10:16Z</time>
      </trkpt>
      <trkpt lat="47.30863" lon="-1.84091">
        <ele>20.81</ele>
        <time>2013-12-23T12:10:19Z</time>
      </trkpt>
      <trkpt lat="47.30871" lon="-1.84102">
        <ele>20.32</ele>
        <time>2013-12-23T12:10:22Z</time>
      </trkpt>
      <trkpt lat="47.30879" lon="-1.84113">
        <ele>19.84</ele>
        <time>2013-12-23T12:10:25Z</time>
      </trkpt>
      <trkpt lat="47.30887" lon="-1.84125">
        <ele>18.88</ele>
        <time>2013-12-23T12:10:28Z</time>
      </trkpt>
      <trkpt lat="47.30895" lon="-1.84137">
        <ele>18.88</ele>
        <time>2013-12-23T12:10:31Z</time>
      </trkpt>
      <trkpt lat="47.30903" lon="-1.84149">
        <ele>19.36</ele>
        <time>2013-12-23T12:10:35Z</time>
      </trkpt>
      <trkpt lat="47.3091" lon="-1.84162">
        <ele>20.81</ele>
        <time>2013-12-23T12:10:39Z</time>
      </trkpt>
      <trkpt lat="47.30915" lon="-1.84177">
        <ele>21.29</ele>
        <time>2013-12-23T12:10:44Z</time>
      </trkpt>
      <trkpt lat="47.3092" lon="-1.84193">
        <ele>21.77</ele>
        <time>2013-12-23T12:10:49Z</time>
      </trkpt>
      <trkpt lat="47.30929" lon="-1.84205">
        <ele>22.73</ele>
        <time>2013-12-23T12:10:55Z</time>
      </trkpt>
      <trkpt lat="47.30938" lon="-1.84217">
        <ele>23.21</ele>
        <time>2013-12-23T12:11:02Z</time>
      </trkpt>
      <trkpt lat="47.30948" lon="-1.84229">
        <ele>22.73</ele>
        <time>2013-12-23T12:11:09Z</time>
      </trkpt>
      <trkpt lat="47.30956" lon="-1.8424">
        <ele>22.73</ele>
        <time>2013-12-23T12:11:13Z</time>
      </trkpt>
      <trkpt lat="47.30964" lon="-1.84253">
        <ele>23.69</ele>
        <time>2013-12-23T12:11:17Z</time>
      </trkpt>
      <trkpt lat="47.30972" lon="-1.84267">
        <ele>23.69</ele>
        <time>2013-12-23T12:11:21Z</time>
      </trkpt>
      <trkpt lat="47.30978" lon="-1.84278">
        <ele>23.21</ele>
        <time>2013-12-23T12:11:24Z</time>
      </trkpt>
      <trkpt lat="47.30984" lon="-1.84291">
        <ele>23.21</ele>
        <time>2013-12-23T12:11:27Z</time>
      </trkpt>
      <trkpt lat="47.3099" lon="-1.84303">
        <ele>23.21</ele>
        <time>2013-12-23T12:11:30Z</time>
      </trkpt>
      <trkpt lat="47.30996" lon="-1.84316">
        <ele>23.21</ele>
        <time>2013-12-23T12:11:33Z</time>
      </trkpt>
      <trkpt lat="47.31004" lon="-1.84329">
        <ele>23.21</ele>
        <time>2013-12-23T12:11:37Z</time>
      </trkpt>
      <trkpt lat="47.31012" lon="-1.84341">
        <ele>23.21</ele>
        <time>2013-12-23T12:11:41Z</time>
      </trkpt>
      <trkpt lat="47.3102" lon="-1.84352">
        <ele>23.69</ele>
        <time>2013-12-23T12:11:45Z</time>
      </trkpt>
      <trkpt lat="47.31029" lon="-1.84364">
        <ele>24.17</ele>
        <time>2013-12-23T12:11:51Z</time>
      </trkpt>
      <trkpt lat="47.31037" lon="-1.84378">
        <ele>23.21</ele>
        <time>2013-12-23T12:11:56Z</time>
      </trkpt>
      <trkpt lat="47.31046" lon="-1.8439">
        <ele>23.21</ele>
        <time>2013-12-23T12:12:01Z</time>
      </trkpt>
      <trkpt lat="47.31054" lon="-1.84401">
        <ele>23.69</ele>
        <time>2013-12-23T12:12:05Z</time>
      </trkpt>
      <trkpt lat="47.31061" lon="-1.84411">
        <ele>24.65</ele>
        <time>2013-12-23T12:12:10Z</time>
      </trkpt>
      <trkpt lat="47.31066" lon="-1.84425">
        <ele>25.13</ele>
        <time>2013-12-23T12:12:15Z</time>
      </trkpt>
      <trkpt lat="47.31071" lon="-1.8444">
        <ele>24.17</ele>
        <time>2013-12-23T12:12:20Z</time>
      </trkpt>
      <trkpt lat="47.31078" lon="-1.84454">
        <ele>25.13</ele>
        <time>2013-12-23T12:12:25Z</time>
      </trkpt>
      <trkpt lat="47.31084" lon="-1.84465">
        <ele>25.61</ele>
        <time>2013-12-23T12:12:29Z</time>
      </trkpt>
      <trkpt lat="47.3109" lon="-1.84478">
        <ele>25.13</ele>
        <time>2013-12-23T12:12:34Z</time>
      </trkpt>
      <trkpt lat="47.31092" lon="-1.84494">
        <ele>24.65</ele>
        <time>2013-12-23T12:12:37Z</time>
      </trkpt>
      <trkpt lat="47.31092" lon="-1.84512">
        <ele>24.65</ele>
        <time>2013-12-23T12:12:40Z</time>
      </trkpt>
      <trkpt lat="47.311" lon="-1.84521">
        <ele>25.13</ele>
        <time>2013-12-23T12:12:43Z</time>
      </trkpt>
      <trkpt lat="47.31109" lon="-1.84531">
        <ele>25.13</ele>
        <time>2013-12-23T12:12:46Z</time>
      </trkpt>
      <trkpt lat="47.31115" lon="-1.84545">
        <ele>25.61</ele>
        <time>2013-12-23T12:12:49Z</time>
      </trkpt>
      <trkpt lat="47.31121" lon="-1.84559">
        <ele>25.61</ele>
        <time>2013-12-23T12:12:52Z</time>
      </trkpt>
      <trkpt lat="47.31128" lon="-1.84572">
        <ele>25.61</ele>
        <time>2013-12-23T12:12:55Z</time>
      </trkpt>
      <trkpt lat="47.31133" lon="-1.84585">
        <ele>25.13</ele>
        <time>2013-12-23T12:12:58Z</time>
      </trkpt>
      <trkpt lat="47.3114" lon="-1.84597">
        <ele>23.69</ele>
        <time>2013-12-23T12:13:02Z</time>
      </trkpt>
      <trkpt lat="47.31147" lon="-1.84611">
        <ele>23.21</ele>
        <time>2013-12-23T12:13:06Z</time>
      </trkpt>
      <trkpt lat="47.31154" lon="-1.84625">
        <ele>23.69</ele>
        <time>2013-12-23T12:13:10Z</time>
      </trkpt>
      <trkpt lat="47.31159" lon="-1.84638">
        <ele>23.69</ele>
        <time>2013-12-23T12:13:14Z</time>
      </trkpt>
      <trkpt lat="47.31166" lon="-1.8465">
        <ele>23.69</ele>
        <time>2013-12-23T12:13:18Z</time>
      </trkpt>
      <trkpt lat="47.31172" lon="-1.84661">
        <ele>23.21</ele>
        <time>2013-12-23T12:13:21Z</time>
      </trkpt>
      <trkpt lat="47.31179" lon="-1.84674">
        <ele>23.69</ele>
        <time>2013-12-23T12:13:25Z</time>
      </trkpt>
      <trkpt lat="47.31187" lon="-1.84687">
        <ele>24.17</ele>
        <time>2013-12-23T12:13:29Z</time>
      </trkpt>
      <trkpt lat="47.31193" lon="-1.84696">
        <ele>24.65</ele>
        <time>2013-12-23T12:13:32Z</time>
      </trkpt>
      <trkpt lat="47.31201" lon="-1.84709">
        <ele>25.13</ele>
        <time>2013-12-23T12:13:36Z</time>
      </trkpt>
      <trkpt lat="47.31207" lon="-1.8472">
        <ele>25.13</ele>
        <time>2013-12-23T12:13:40Z</time>
      </trkpt>
      <trkpt lat="47.31213" lon="-1.84732">
        <ele>25.13</ele>
        <time>2013-12-23T12:13:44Z</time>
      </trkpt>
      <trkpt lat="47.3122" lon="-1.84747">
        <ele>24.65</ele>
        <time>2013-12-23T12:13:49Z</time>
      </trkpt>
      <trkpt lat="47.31226" lon="-1.84761">
        <ele>24.65</ele>
        <time>2013-12-23T12:13:53Z</time>
      </trkpt>
      <trkpt lat="47.3123" lon="-1.84778">
        <ele>23.21</ele>
        <time>2013-12-23T12:13:57Z</time>
      </trkpt>
      <trkpt lat="47.31237" lon="-1.84789">
        <ele>22.25</ele>
        <time>2013-12-23T12:14:00Z</time>
      </trkpt>
      <trkpt lat="47.31242" lon="-1.84804">
        <ele>21.77</ele>
        <time>2013-12-23T12:14:03Z</time>
      </trkpt>
      <trkpt lat="47.31246" lon="-1.84819">
        <ele>21.29</ele>
        <time>2013-12-23T12:14:06Z</time>
      </trkpt>
      <trkpt lat="47.31252" lon="-1.84838">
        <ele>21.77</ele>
        <time>2013-12-23T12:14:09Z</time>
      </trkpt>
      <trkpt lat="47.31258" lon="-1.84854">
        <ele>21.29</ele>
        <time>2013-12-23T12:14:11Z</time>
      </trkpt>
      <trkpt lat="47.31262" lon="-1.84867">
        <ele>21.29</ele>
        <time>2013-12-23T12:14:13Z</time>
      </trkpt>
      <trkpt lat="47.31268" lon="-1.84885">
        <ele>20.81</ele>
        <time>2013-12-23T12:14:16Z</time>
      </trkpt>
      <trkpt lat="47.31273" lon="-1.84903">
        <ele>20.32</ele>
        <time>2013-12-23T12:14:19Z</time>
      </trkpt>
      <trkpt lat="47.31278" lon="-1.84918">
        <ele>20.32</ele>
        <time>2013-12-23T12:14:22Z</time>
      </trkpt>
      <trkpt lat="47.31283" lon="-1.84931">
        <ele>20.32</ele>
        <time>2013-12-23T12:14:25Z</time>
      </trkpt>
      <trkpt lat="47.3129" lon="-1.84946">
        <ele>19.36</ele>
        <time>2013-12-23T12:14:30Z</time>
      </trkpt>
      <trkpt lat="47.31299" lon="-1.84958">
        <ele>18.88</ele>
        <time>2013-12-23T12:14:36Z</time>
      </trkpt>
      <trkpt lat="47.31306" lon="-1.8497">
        <ele>18.88</ele>
        <time>2013-12-23T12:14:39Z</time>
      </trkpt>
      <trkpt lat="47.31312" lon="-1.84984">
        <ele>19.36</ele>
        <time>2013-12-23T12:14:42Z</time>
      </trkpt>
      <trkpt lat="47.3132" lon="-1.84998">
        <ele>19.84</ele>
        <time>2013-12-23T12:14:45Z</time>
      </trkpt>
      <trkpt lat="47.31328" lon="-1.85013">
        <ele>20.32</ele>
        <time>2013-12-23T12:14:48Z</time>
      </trkpt>
      <trkpt lat="47.31334" lon="-1.85026">
        <ele>20.32</ele>
        <time>2013-12-23T12:14:51Z</time>
      </trkpt>
      <trkpt lat="47.31339" lon="-1.85041">
        <ele>20.32</ele>
        <time>2013-12-23T12:14:54Z</time>
      </trkpt>
      <trkpt lat="47.31343" lon="-1.85057">
        <ele>20.32</ele>
        <time>2013-12-23T12:14:57Z</time>
      </trkpt>
      <trkpt lat="47.31348" lon="-1.85073">
        <ele>19.84</ele>
        <time>2013-12-23T12:15:00Z</time>
      </trkpt>
      <trkpt lat="47.31352" lon="-1.8509">
        <ele>18.4</ele>
        <time>2013-12-23T12:15:03Z</time>
      </trkpt>
      <trkpt lat="47.31356" lon="-1.85106">
        <ele>17.92</ele>
        <time>2013-12-23T12:15:06Z</time>
      </trkpt>
      <trkpt lat="47.31361" lon="-1.85124">
        <ele>17.44</ele>
        <time>2013-12-23T12:15:09Z</time>
      </trkpt>
      <trkpt lat="47.31366" lon="-1.85142">
        <ele>16</ele>
        <time>2013-12-23T12:15:12Z</time>
      </trkpt>
      <trkpt lat="47.31371" lon="-1.85159">
        <ele>14.56</ele>
        <time>2013-12-23T12:15:15Z</time>
      </trkpt>
      <trkpt lat="47.31377" lon="-1.85177">
        <ele>12.63</ele>
        <time>2013-12-23T12:15:18Z</time>
      </trkpt>
      <trkpt lat="47.31381" lon="-1.85191">
        <ele>11.67</ele>
        <time>2013-12-23T12:15:20Z</time>
      </trkpt>
      <trkpt lat="47.31383" lon="-1.85211">
        <ele>10.71</ele>
        <time>2013-12-23T12:15:23Z</time>
      </trkpt>
      <trkpt lat="47.31383" lon="-1.8523">
        <ele>9.27</ele>
        <time>2013-12-23T12:15:26Z</time>
      </trkpt>
      <trkpt lat="47.31383" lon="-1.85248">
        <ele>8.79</ele>
        <time>2013-12-23T12:15:29Z</time>
      </trkpt>
      <trkpt lat="47.31384" lon="-1.85265">
        <ele>8.31</ele>
        <time>2013-12-23T12:15:33Z</time>
      </trkpt>
      <trkpt lat="47.31379" lon="-1.85283">
        <ele>6.87</ele>
        <time>2013-12-23T12:15:43Z</time>
      </trkpt>
      <trkpt lat="47.31377" lon="-1.85299">
        <ele>6.87</ele>
        <time>2013-12-23T12:15:47Z</time>
      </trkpt>
      <trkpt lat="47.31374" lon="-1.85317">
        <ele>5.91</ele>
        <time>2013-12-23T12:15:51Z</time>
      </trkpt>
      <trkpt lat="47.31379" lon="-1.85331">
        <ele>3.98</ele>
        <time>2013-12-23T12:15:57Z</time>
      </trkpt>
      <trkpt lat="47.31381" lon="-1.85348">
        <ele>2.54</ele>
        <time>2013-12-23T12:16:02Z</time>
      </trkpt>
      <trkpt lat="47.31383" lon="-1.85366">
        <ele>1.58</ele>
        <time>2013-12-23T12:16:07Z</time>
      </trkpt>
      <trkpt lat="47.31387" lon="-1.85384">
        <ele>-0.34</ele>
        <time>2013-12-23T12:16:13Z</time>
      </trkpt>
      <trkpt lat="47.31391" lon="-1.85403">
        <ele>-3.71</ele>
        <time>2013-12-23T12:16:20Z</time>
      </trkpt>
      <trkpt lat="47.31392" lon="-1.85421">
        <ele>-4.19</ele>
        <time>2013-12-23T12:16:25Z</time>
      </trkpt>
      <trkpt lat="47.31391" lon="-1.85437">
        <ele>-3.23</ele>
        <time>2013-12-23T12:16:29Z</time>
      </trkpt>
      <trkpt lat="47.3139" lon="-1.85455">
        <ele>-1.3</ele>
        <time>2013-12-23T12:16:34Z</time>
      </trkpt>
      <trkpt lat="47.31389" lon="-1.85475">
        <ele>-0.34</ele>
        <time>2013-12-23T12:16:39Z</time>
      </trkpt>
      <trkpt lat="47.31388" lon="-1.85493">
        <ele>0.62</ele>
        <time>2013-12-23T12:16:44Z</time>
      </trkpt>
      <trkpt lat="47.31389" lon="-1.8551">
        <ele>1.58</ele>
        <time>2013-12-23T12:16:48Z</time>
      </trkpt>
      <trkpt lat="47.31392" lon="-1.85526">
        <ele>1.1</ele>
        <time>2013-12-23T12:16:53Z</time>
      </trkpt>
      <trkpt lat="47.31394" lon="-1.85546">
        <ele>0.62</ele>
        <time>2013-12-23T12:16:59Z</time>
      </trkpt>
      <trkpt lat="47.31394" lon="-1.85568">
        <ele>-0.34</ele>
        <time>2013-12-23T12:17:05Z</time>
      </trkpt>
      <trkpt lat="47.31393" lon="-1.85594">
        <ele>-0.34</ele>
        <time>2013-12-23T12:17:11Z</time>
      </trkpt>
      <trkpt lat="47.31396" lon="-1.85616">
        <ele>1.1</ele>
        <time>2013-12-23T12:17:17Z</time>
      </trkpt>
      <trkpt lat="47.31399" lon="-1.85633">
        <ele>2.54</ele>
        <time>2013-12-23T12:17:23Z</time>
      </trkpt>
      <trkpt lat="47.31407" lon="-1.8565">
        <ele>3.5</ele>
        <time>2013-12-23T12:17:30Z</time>
      </trkpt>
      <trkpt lat="47.31413" lon="-1.85664">
        <ele>3.5</ele>
        <time>2013-12-23T12:17:34Z</time>
      </trkpt>
      <trkpt lat="47.31417" lon="-1.8568">
        <ele>5.42</ele>
        <time>2013-12-23T12:17:38Z</time>
      </trkpt>
      <trkpt lat="47.31422" lon="-1.85695">
        <ele>8.31</ele>
        <time>2013-12-23T12:17:42Z</time>
      </trkpt>
      <trkpt lat="47.31426" lon="-1.85708">
        <ele>8.79</ele>
        <time>2013-12-23T12:17:45Z</time>
      </trkpt>
      <trkpt lat="47.31431" lon="-1.8572">
        <ele>8.79</ele>
        <time>2013-12-23T12:17:48Z</time>
      </trkpt>
      <trkpt lat="47.31435" lon="-1.85732">
        <ele>9.75</ele>
        <time>2013-12-23T12:17:51Z</time>
      </trkpt>
      <trkpt lat="47.3144" lon="-1.85748">
        <ele>10.71</ele>
        <time>2013-12-23T12:17:55Z</time>
      </trkpt>
      <trkpt lat="47.31446" lon="-1.85763">
        <ele>11.67</ele>
        <time>2013-12-23T12:17:59Z</time>
      </trkpt>
      <trkpt lat="47.31452" lon="-1.85775">
        <ele>12.15</ele>
        <time>2013-12-23T12:18:02Z</time>
      </trkpt>
      <trkpt lat="47.31457" lon="-1.85787">
        <ele>12.15</ele>
        <time>2013-12-23T12:18:05Z</time>
      </trkpt>
      <trkpt lat="47.31465" lon="-1.85799">
        <ele>12.15</ele>
        <time>2013-12-23T12:18:08Z</time>
      </trkpt>
      <trkpt lat="47.31472" lon="-1.8581">
        <ele>12.63</ele>
        <time>2013-12-23T12:18:11Z</time>
      </trkpt>
      <trkpt lat="47.31479" lon="-1.85821">
        <ele>12.63</ele>
        <time>2013-12-23T12:18:14Z</time>
      </trkpt>
      <trkpt lat="47.31488" lon="-1.85834">
        <ele>13.12</ele>
        <time>2013-12-23T12:18:18Z</time>
      </trkpt>
      <trkpt lat="47.31494" lon="-1.85846">
        <ele>13.12</ele>
        <time>2013-12-23T12:18:21Z</time>
      </trkpt>
      <trkpt lat="47.31499" lon="-1.85857">
        <ele>13.12</ele>
        <time>2013-12-23T12:18:24Z</time>
      </trkpt>
      <trkpt lat="47.31506" lon="-1.85871">
        <ele>13.6</ele>
        <time>2013-12-23T12:18:28Z</time>
      </trkpt>
      <trkpt lat="47.31512" lon="-1.85884">
        <ele>13.6</ele>
        <time>2013-12-23T12:18:32Z</time>
      </trkpt>
      <trkpt lat="47.31519" lon="-1.859">
        <ele>13.6</ele>
        <time>2013-12-23T12:18:36Z</time>
      </trkpt>
      <trkpt lat="47.31525" lon="-1.85914">
        <ele>14.08</ele>
        <time>2013-12-23T12:18:39Z</time>
      </trkpt>
      <trkpt lat="47.31531" lon="-1.85931">
        <ele>13.6</ele>
        <time>2013-12-23T12:18:42Z</time>
      </trkpt>
      <trkpt lat="47.31536" lon="-1.85942">
        <ele>13.12</ele>
        <time>2013-12-23T12:18:44Z</time>
      </trkpt>
      <trkpt lat="47.31542" lon="-1.85954">
        <ele>13.12</ele>
        <time>2013-12-23T12:18:46Z</time>
      </trkpt>
      <trkpt lat="47.3155" lon="-1.85963">
        <ele>13.12</ele>
        <time>2013-12-23T12:18:48Z</time>
      </trkpt>
      <trkpt lat="47.31559" lon="-1.85971">
        <ele>12.63</ele>
        <time>2013-12-23T12:18:50Z</time>
      </trkpt>
      <trkpt lat="47.31568" lon="-1.85982">
        <ele>12.15</ele>
        <time>2013-12-23T12:18:52Z</time>
      </trkpt>
      <trkpt lat="47.31578" lon="-1.85996">
        <ele>11.19</ele>
        <time>2013-12-23T12:18:54Z</time>
      </trkpt>
      <trkpt lat="47.31587" lon="-1.86012">
        <ele>10.23</ele>
        <time>2013-12-23T12:18:56Z</time>
      </trkpt>
      <trkpt lat="47.31593" lon="-1.86027">
        <ele>9.75</ele>
        <time>2013-12-23T12:18:58Z</time>
      </trkpt>
      <trkpt lat="47.31598" lon="-1.86042">
        <ele>8.79</ele>
        <time>2013-12-23T12:19:00Z</time>
      </trkpt>
      <trkpt lat="47.31605" lon="-1.86054">
        <ele>7.83</ele>
        <time>2013-12-23T12:19:02Z</time>
      </trkpt>
      <trkpt lat="47.31614" lon="-1.86065">
        <ele>7.35</ele>
        <time>2013-12-23T12:19:04Z</time>
      </trkpt>
      <trkpt lat="47.31622" lon="-1.86074">
        <ele>6.87</ele>
        <time>2013-12-23T12:19:06Z</time>
      </trkpt>
      <trkpt lat="47.3163" lon="-1.86083">
        <ele>6.39</ele>
        <time>2013-12-23T12:19:08Z</time>
      </trkpt>
      <trkpt lat="47.3164" lon="-1.86092">
        <ele>5.42</ele>
        <time>2013-12-23T12:19:11Z</time>
      </trkpt>
      <trkpt lat="47.31648" lon="-1.86101">
        <ele>5.42</ele>
        <time>2013-12-23T12:19:14Z</time>
      </trkpt>
      <trkpt lat="47.31655" lon="-1.8611">
        <ele>5.42</ele>
        <time>2013-12-23T12:19:18Z</time>
      </trkpt>
      <trkpt lat="47.31662" lon="-1.8612">
        <ele>5.91</ele>
        <time>2013-12-23T12:19:22Z</time>
      </trkpt>
      <trkpt lat="47.31667" lon="-1.86136">
        <ele>7.35</ele>
        <time>2013-12-23T12:19:26Z</time>
      </trkpt>
      <trkpt lat="47.31671" lon="-1.86151">
        <ele>7.83</ele>
        <time>2013-12-23T12:19:29Z</time>
      </trkpt>
      <trkpt lat="47.31674" lon="-1.86168">
        <ele>8.31</ele>
        <time>2013-12-23T12:19:33Z</time>
      </trkpt>
      <trkpt lat="47.31676" lon="-1.86185">
        <ele>8.79</ele>
        <time>2013-12-23T12:19:37Z</time>
      </trkpt>
      <trkpt lat="47.31677" lon="-1.86199">
        <ele>8.31</ele>
        <time>2013-12-23T12:19:40Z</time>
      </trkpt>
      <trkpt lat="47.31682" lon="-1.86218">
        <ele>7.35</ele>
        <time>2013-12-23T12:19:44Z</time>
      </trkpt>
      <trkpt lat="47.31688" lon="-1.86234">
        <ele>6.39</ele>
        <time>2013-12-23T12:19:48Z</time>
      </trkpt>
      <trkpt lat="47.31694" lon="-1.86244">
        <ele>6.87</ele>
        <time>2013-12-23T12:19:52Z</time>
      </trkpt>
      <trkpt lat="47.31703" lon="-1.8625">
        <ele>7.35</ele>
        <time>2013-12-23T12:19:57Z</time>
      </trkpt>
      <trkpt lat="47.31712" lon="-1.86245">
        <ele>10.23</ele>
        <time>2013-12-23T12:20:04Z</time>
      </trkpt>
      <trkpt lat="47.3172" lon="-1.86232">
        <ele>10.23</ele>
        <time>2013-12-23T12:20:10Z</time>
      </trkpt>
      <trkpt lat="47.31728" lon="-1.86221">
        <ele>10.23</ele>
        <time>2013-12-23T12:20:15Z</time>
      </trkpt>
      <trkpt lat="47.31737" lon="-1.86208">
        <ele>9.75</ele>
        <time>2013-12-23T12:20:21Z</time>
      </trkpt>
      <trkpt lat="47.31745" lon="-1.86196">
        <ele>10.23</ele>
        <time>2013-12-23T12:20:26Z</time>
      </trkpt>
      <trkpt lat="47.31752" lon="-1.86185">
        <ele>10.23</ele>
        <time>2013-12-23T12:20:31Z</time>
      </trkpt>
      <trkpt lat="47.31762" lon="-1.86174">
        <ele>11.67</ele>
        <time>2013-12-23T12:20:37Z</time>
      </trkpt>
      <trkpt lat="47.3177" lon="-1.86166">
        <ele>12.63</ele>
        <time>2013-12-23T12:20:43Z</time>
      </trkpt>
      <trkpt lat="47.31775" lon="-1.86154">
        <ele>13.12</ele>
        <time>2013-12-23T12:20:49Z</time>
      </trkpt>
      <trkpt lat="47.31777" lon="-1.86137">
        <ele>14.56</ele>
        <time>2013-12-23T12:20:57Z</time>
      </trkpt>
      <trkpt lat="47.31783" lon="-1.86124">
        <ele>14.56</ele>
        <time>2013-12-23T12:21:04Z</time>
      </trkpt>
      <trkpt lat="47.31792" lon="-1.86114">
        <ele>15.04</ele>
        <time>2013-12-23T12:21:10Z</time>
      </trkpt>
      <trkpt lat="47.31801" lon="-1.86105">
        <ele>15.52</ele>
        <time>2013-12-23T12:21:17Z</time>
      </trkpt>
      <trkpt lat="47.31809" lon="-1.86097">
        <ele>18.4</ele>
        <time>2013-12-23T12:21:23Z</time>
      </trkpt>
      <trkpt lat="47.31818" lon="-1.86089">
        <ele>19.84</ele>
        <time>2013-12-23T12:21:30Z</time>
      </trkpt>
      <trkpt lat="47.31828" lon="-1.86079">
        <ele>20.81</ele>
        <time>2013-12-23T12:21:39Z</time>
      </trkpt>
      <trkpt lat="47.31837" lon="-1.86072">
        <ele>20.81</ele>
        <time>2013-12-23T12:21:45Z</time>
      </trkpt>
      <trkpt lat="47.31847" lon="-1.86063">
        <ele>21.29</ele>
        <time>2013-12-23T12:21:51Z</time>
      </trkpt>
      <trkpt lat="47.31857" lon="-1.86055">
        <ele>22.25</ele>
        <time>2013-12-23T12:21:57Z</time>
      </trkpt>
      <trkpt lat="47.31867" lon="-1.86048">
        <ele>23.69</ele>
        <time>2013-12-23T12:22:04Z</time>
      </trkpt>
      <trkpt lat="47.31876" lon="-1.86035">
        <ele>25.61</ele>
        <time>2013-12-23T12:22:11Z</time>
      </trkpt>
      <trkpt lat="47.31884" lon="-1.86026">
        <ele>28.98</ele>
        <time>2013-12-23T12:22:18Z</time>
      </trkpt>
      <trkpt lat="47.31897" lon="-1.86024">
        <ele>32.34</ele>
        <time>2013-12-23T12:22:28Z</time>
      </trkpt>
      <trkpt lat="47.31909" lon="-1.86026">
        <ele>34.74</ele>
        <time>2013-12-23T12:22:38Z</time>
      </trkpt>
      <trkpt lat="47.3192" lon="-1.86029">
        <ele>36.19</ele>
        <time>2013-12-23T12:22:49Z</time>
      </trkpt>
      <trkpt lat="47.31932" lon="-1.86034">
        <ele>39.07</ele>
        <time>2013-12-23T12:23:00Z</time>
      </trkpt>
      <trkpt lat="47.31944" lon="-1.86038">
        <ele>40.03</ele>
        <time>2013-12-23T12:23:07Z</time>
      </trkpt>
      <trkpt lat="47.31955" lon="-1.86044">
        <ele>40.51</ele>
        <time>2013-12-23T12:23:14Z</time>
      </trkpt>
      <trkpt lat="47.31964" lon="-1.86054">
        <ele>41.47</ele>
        <time>2013-12-23T12:23:21Z</time>
      </trkpt>
      <trkpt lat="47.31973" lon="-1.86067">
        <ele>41.95</ele>
        <time>2013-12-23T12:23:26Z</time>
      </trkpt>
      <trkpt lat="47.31982" lon="-1.8608">
        <ele>41.95</ele>
        <time>2013-12-23T12:23:31Z</time>
      </trkpt>
      <trkpt lat="47.31991" lon="-1.86092">
        <ele>41.95</ele>
        <time>2013-12-23T12:23:36Z</time>
      </trkpt>
      <trkpt lat="47.31999" lon="-1.86103">
        <ele>42.92</ele>
        <time>2013-12-23T12:23:40Z</time>
      </trkpt>
      <trkpt lat="47.32006" lon="-1.86114">
        <ele>43.4</ele>
        <time>2013-12-23T12:23:44Z</time>
      </trkpt>
      <trkpt lat="47.32014" lon="-1.86123">
        <ele>44.36</ele>
        <time>2013-12-23T12:23:48Z</time>
      </trkpt>
      <trkpt lat="47.32023" lon="-1.8613">
        <ele>44.84</ele>
        <time>2013-12-23T12:23:52Z</time>
      </trkpt>
      <trkpt lat="47.32032" lon="-1.86138">
        <ele>45.8</ele>
        <time>2013-12-23T12:23:56Z</time>
      </trkpt>
      <trkpt lat="47.32041" lon="-1.86144">
        <ele>47.24</ele>
        <time>2013-12-23T12:24:00Z</time>
      </trkpt>
      <trkpt lat="47.3205" lon="-1.8615">
        <ele>47.72</ele>
        <time>2013-12-23T12:24:04Z</time>
      </trkpt>
      <trkpt lat="47.3206" lon="-1.86156">
        <ele>48.2</ele>
        <time>2013-12-23T12:24:08Z</time>
      </trkpt>
      <trkpt lat="47.3207" lon="-1.86162">
        <ele>46.76</ele>
        <time>2013-12-23T12:24:13Z</time>
      </trkpt>
      <trkpt lat="47.3208" lon="-1.86167">
        <ele>46.76</ele>
        <time>2013-12-23T12:24:18Z</time>
      </trkpt>
      <trkpt lat="47.32086" lon="-1.8618">
        <ele>47.24</ele>
        <time>2013-12-23T12:24:24Z</time>
      </trkpt>
      <trkpt lat="47.32086" lon="-1.86199">
        <ele>46.76</ele>
        <time>2013-12-23T12:24:28Z</time>
      </trkpt>
      <trkpt lat="47.32084" lon="-1.86215">
        <ele>45.8</ele>
        <time>2013-12-23T12:24:30Z</time>
      </trkpt>
      <trkpt lat="47.32082" lon="-1.86233">
        <ele>44.36</ele>
        <time>2013-12-23T12:24:32Z</time>
      </trkpt>
      <trkpt lat="47.32081" lon="-1.86252">
        <ele>42.92</ele>
        <time>2013-12-23T12:24:34Z</time>
      </trkpt>
      <trkpt lat="47.3208" lon="-1.8627">
        <ele>41.47</ele>
        <time>2013-12-23T12:24:36Z</time>
      </trkpt>
      <trkpt lat="47.32078" lon="-1.86288">
        <ele>40.03</ele>
        <time>2013-12-23T12:24:38Z</time>
      </trkpt>
      <trkpt lat="47.32077" lon="-1.86308">
        <ele>38.59</ele>
        <time>2013-12-23T12:24:40Z</time>
      </trkpt>
      <trkpt lat="47.32075" lon="-1.8633">
        <ele>37.15</ele>
        <time>2013-12-23T12:24:42Z</time>
      </trkpt>
      <trkpt lat="47.32073" lon="-1.86351">
        <ele>35.23</ele>
        <time>2013-12-23T12:24:44Z</time>
      </trkpt>
      <trkpt lat="47.32072" lon="-1.8637">
        <ele>33.3</ele>
        <time>2013-12-23T12:24:46Z</time>
      </trkpt>
      <trkpt lat="47.32073" lon="-1.86387">
        <ele>31.38</ele>
        <time>2013-12-23T12:24:48Z</time>
      </trkpt>
      <trkpt lat="47.32077" lon="-1.86404">
        <ele>28.98</ele>
        <time>2013-12-23T12:24:50Z</time>
      </trkpt>
      <trkpt lat="47.32084" lon="-1.86418">
        <ele>27.05</ele>
        <time>2013-12-23T12:24:52Z</time>
      </trkpt>
      <trkpt lat="47.32096" lon="-1.86426">
        <ele>24.65</ele>
        <time>2013-12-23T12:24:54Z</time>
      </trkpt>
      <trkpt lat="47.32108" lon="-1.86436">
        <ele>22.73</ele>
        <time>2013-12-23T12:24:56Z</time>
      </trkpt>
      <trkpt lat="47.32114" lon="-1.86454">
        <ele>21.29</ele>
        <time>2013-12-23T12:24:58Z</time>
      </trkpt>
      <trkpt lat="47.32114" lon="-1.86472">
        <ele>20.32</ele>
        <time>2013-12-23T12:25:00Z</time>
      </trkpt>
      <trkpt lat="47.32113" lon="-1.86486">
        <ele>19.84</ele>
        <time>2013-12-23T12:25:02Z</time>
      </trkpt>
      <trkpt lat="47.32117" lon="-1.86504">
        <ele>18.88</ele>
        <time>2013-12-23T12:25:05Z</time>
      </trkpt>
      <trkpt lat="47.32126" lon="-1.86514">
        <ele>18.4</ele>
        <time>2013-12-23T12:25:08Z</time>
      </trkpt>
      <trkpt lat="47.32136" lon="-1.86523">
        <ele>17.92</ele>
        <time>2013-12-23T12:25:11Z</time>
      </trkpt>
      <trkpt lat="47.32144" lon="-1.86535">
        <ele>18.4</ele>
        <time>2013-12-23T12:25:14Z</time>
      </trkpt>
      <trkpt lat="47.32149" lon="-1.8655">
        <ele>19.36</ele>
        <time>2013-12-23T12:25:17Z</time>
      </trkpt>
      <trkpt lat="47.32149" lon="-1.86564">
        <ele>19.84</ele>
        <time>2013-12-23T12:25:21Z</time>
      </trkpt>
      <trkpt lat="47.32152" lon="-1.86579">
        <ele>20.32</ele>
        <time>2013-12-23T12:25:26Z</time>
      </trkpt>
      <trkpt lat="47.32156" lon="-1.86592">
        <ele>20.32</ele>
        <time>2013-12-23T12:25:31Z</time>
      </trkpt>
      <trkpt lat="47.32162" lon="-1.86603">
        <ele>22.25</ele>
        <time>2013-12-23T12:25:37Z</time>
      </trkpt>
      <trkpt lat="47.32169" lon="-1.86616">
        <ele>24.17</ele>
        <time>2013-12-23T12:25:44Z</time>
      </trkpt>
      <trkpt lat="47.32176" lon="-1.86627">
        <ele>25.61</ele>
        <time>2013-12-23T12:25:50Z</time>
      </trkpt>
      <trkpt lat="47.32183" lon="-1.86638">
        <ele>27.53</ele>
        <time>2013-12-23T12:25:56Z</time>
      </trkpt>
      <trkpt lat="47.32194" lon="-1.86641">
        <ele>28.98</ele>
        <time>2013-12-23T12:26:03Z</time>
      </trkpt>
      <trkpt lat="47.32205" lon="-1.86638">
        <ele>30.9</ele>
        <time>2013-12-23T12:26:09Z</time>
      </trkpt>
      <trkpt lat="47.32214" lon="-1.86643">
        <ele>32.82</ele>
        <time>2013-12-23T12:26:14Z</time>
      </trkpt>
      <trkpt lat="47.32224" lon="-1.8665">
        <ele>33.78</ele>
        <time>2013-12-23T12:26:20Z</time>
      </trkpt>
      <trkpt lat="47.32233" lon="-1.86657">
        <ele>34.74</ele>
        <time>2013-12-23T12:26:25Z</time>
      </trkpt>
      <trkpt lat="47.32241" lon="-1.86663">
        <ele>35.71</ele>
        <time>2013-12-23T12:26:30Z</time>
      </trkpt>
      <trkpt lat="47.3225" lon="-1.8667">
        <ele>36.67</ele>
        <time>2013-12-23T12:26:35Z</time>
      </trkpt>
      <trkpt lat="47.3226" lon="-1.86676">
        <ele>37.15</ele>
        <time>2013-12-23T12:26:40Z</time>
      </trkpt>
      <trkpt lat="47.3227" lon="-1.86681">
        <ele>38.11</ele>
        <time>2013-12-23T12:26:45Z</time>
      </trkpt>
      <trkpt lat="47.3228" lon="-1.86687">
        <ele>38.11</ele>
        <time>2013-12-23T12:26:50Z</time>
      </trkpt>
      <trkpt lat="47.3229" lon="-1.86692">
        <ele>38.11</ele>
        <time>2013-12-23T12:26:55Z</time>
      </trkpt>
      <trkpt lat="47.32299" lon="-1.86698">
        <ele>38.59</ele>
        <time>2013-12-23T12:27:00Z</time>
      </trkpt>
      <trkpt lat="47.32309" lon="-1.86703">
        <ele>39.07</ele>
        <time>2013-12-23T12:27:05Z</time>
      </trkpt>
      <trkpt lat="47.32318" lon="-1.86708">
        <ele>39.55</ele>
        <time>2013-12-23T12:27:10Z</time>
      </trkpt>
      <trkpt lat="47.32328" lon="-1.86714">
        <ele>40.03</ele>
        <time>2013-12-23T12:27:15Z</time>
      </trkpt>
      <trkpt lat="47.32338" lon="-1.8672">
        <ele>40.03</ele>
        <time>2013-12-23T12:27:20Z</time>
      </trkpt>
      <trkpt lat="47.32347" lon="-1.86725">
        <ele>40.51</ele>
        <time>2013-12-23T12:27:24Z</time>
      </trkpt>
      <trkpt lat="47.32356" lon="-1.86731">
        <ele>40.03</ele>
        <time>2013-12-23T12:27:28Z</time>
      </trkpt>
      <trkpt lat="47.32364" lon="-1.86739">
        <ele>39.07</ele>
        <time>2013-12-23T12:27:33Z</time>
      </trkpt>
      <trkpt lat="47.32366" lon="-1.86756">
        <ele>39.07</ele>
        <time>2013-12-23T12:27:37Z</time>
      </trkpt>
      <trkpt lat="47.32369" lon="-1.86771">
        <ele>38.11</ele>
        <time>2013-12-23T12:27:40Z</time>
      </trkpt>
      <trkpt lat="47.32372" lon="-1.86787">
        <ele>37.15</ele>
        <time>2013-12-23T12:27:43Z</time>
      </trkpt>
      <trkpt lat="47.32374" lon="-1.86804">
        <ele>37.15</ele>
        <time>2013-12-23T12:27:46Z</time>
      </trkpt>
      <trkpt lat="47.32377" lon="-1.8682">
        <ele>37.15</ele>
        <time>2013-12-23T12:27:49Z</time>
      </trkpt>
      <trkpt lat="47.32379" lon="-1.86837">
        <ele>36.67</ele>
        <time>2013-12-23T12:27:52Z</time>
      </trkpt>
      <trkpt lat="47.32382" lon="-1.86854">
        <ele>36.67</ele>
        <time>2013-12-23T12:27:55Z</time>
      </trkpt>
      <trkpt lat="47.32384" lon="-1.86867">
        <ele>36.19</ele>
        <time>2013-12-23T12:27:57Z</time>
      </trkpt>
      <trkpt lat="47.32384" lon="-1.86882">
        <ele>35.23</ele>
        <time>2013-12-23T12:27:59Z</time>
      </trkpt>
      <trkpt lat="47.32385" lon="-1.86897">
        <ele>34.74</ele>
        <time>2013-12-23T12:28:01Z</time>
      </trkpt>
      <trkpt lat="47.32385" lon="-1.86913">
        <ele>34.26</ele>
        <time>2013-12-23T12:28:03Z</time>
      </trkpt>
      <trkpt lat="47.32385" lon="-1.86929">
        <ele>33.78</ele>
        <time>2013-12-23T12:28:05Z</time>
      </trkpt>
      <trkpt lat="47.32384" lon="-1.86944">
        <ele>32.82</ele>
        <time>2013-12-23T12:28:07Z</time>
      </trkpt>
      <trkpt lat="47.32385" lon="-1.86958">
        <ele>32.34</ele>
        <time>2013-12-23T12:28:09Z</time>
      </trkpt>
      <trkpt lat="47.32389" lon="-1.86977">
        <ele>31.38</ele>
        <time>2013-12-23T12:28:12Z</time>
      </trkpt>
      <trkpt lat="47.32394" lon="-1.86995">
        <ele>30.9</ele>
        <time>2013-12-23T12:28:15Z</time>
      </trkpt>
      <trkpt lat="47.32397" lon="-1.87012">
        <ele>30.9</ele>
        <time>2013-12-23T12:28:18Z</time>
      </trkpt>
      <trkpt lat="47.324" lon="-1.8703">
        <ele>30.42</ele>
        <time>2013-12-23T12:28:21Z</time>
      </trkpt>
      <trkpt lat="47.32404" lon="-1.87046">
        <ele>29.94</ele>
        <time>2013-12-23T12:28:24Z</time>
      </trkpt>
      <trkpt lat="47.32409" lon="-1.87062">
        <ele>29.46</ele>
        <time>2013-12-23T12:28:27Z</time>
      </trkpt>
      <trkpt lat="47.32413" lon="-1.87076">
        <ele>28.98</ele>
        <time>2013-12-23T12:28:29Z</time>
      </trkpt>
      <trkpt lat="47.32418" lon="-1.8709">
        <ele>28.02</ele>
        <time>2013-12-23T12:28:31Z</time>
      </trkpt>
      <trkpt lat="47.32424" lon="-1.87103">
        <ele>27.05</ele>
        <time>2013-12-23T12:28:33Z</time>
      </trkpt>
      <trkpt lat="47.32428" lon="-1.87116">
        <ele>26.09</ele>
        <time>2013-12-23T12:28:35Z</time>
      </trkpt>
      <trkpt lat="47.32433" lon="-1.8713">
        <ele>25.61</ele>
        <time>2013-12-23T12:28:37Z</time>
      </trkpt>
      <trkpt lat="47.32437" lon="-1.87141">
        <ele>24.65</ele>
        <time>2013-12-23T12:28:39Z</time>
      </trkpt>
      <trkpt lat="47.32443" lon="-1.87154">
        <ele>23.69</ele>
        <time>2013-12-23T12:28:41Z</time>
      </trkpt>
      <trkpt lat="47.32449" lon="-1.87165">
        <ele>23.21</ele>
        <time>2013-12-23T12:28:43Z</time>
      </trkpt>
      <trkpt lat="47.32454" lon="-1.87177">
        <ele>22.73</ele>
        <time>2013-12-23T12:28:45Z</time>
      </trkpt>
      <trkpt lat="47.32458" lon="-1.87189">
        <ele>22.25</ele>
        <time>2013-12-23T12:28:47Z</time>
      </trkpt>
      <trkpt lat="47.32463" lon="-1.87207">
        <ele>22.25</ele>
        <time>2013-12-23T12:28:50Z</time>
      </trkpt>
      <trkpt lat="47.32469" lon="-1.87225">
        <ele>21.77</ele>
        <time>2013-12-23T12:28:53Z</time>
      </trkpt>
      <trkpt lat="47.32475" lon="-1.87242">
        <ele>21.29</ele>
        <time>2013-12-23T12:28:56Z</time>
      </trkpt>
      <trkpt lat="47.32479" lon="-1.87258">
        <ele>22.25</ele>
        <time>2013-12-23T12:28:59Z</time>
      </trkpt>
      <trkpt lat="47.32486" lon="-1.87274">
        <ele>22.25</ele>
        <time>2013-12-23T12:29:02Z</time>
      </trkpt>
      <trkpt lat="47.32492" lon="-1.87288">
        <ele>22.25</ele>
        <time>2013-12-23T12:29:05Z</time>
      </trkpt>
      <trkpt lat="47.32499" lon="-1.87306">
        <ele>21.77</ele>
        <time>2013-12-23T12:29:08Z</time>
      </trkpt>
      <trkpt lat="47.32504" lon="-1.87319">
        <ele>21.29</ele>
        <time>2013-12-23T12:29:10Z</time>
      </trkpt>
      <trkpt lat="47.32511" lon="-1.87337">
        <ele>20.81</ele>
        <time>2013-12-23T12:29:13Z</time>
      </trkpt>
      <trkpt lat="47.32515" lon="-1.87351">
        <ele>20.32</ele>
        <time>2013-12-23T12:29:15Z</time>
      </trkpt>
      <trkpt lat="47.32521" lon="-1.87366">
        <ele>19.84</ele>
        <time>2013-12-23T12:29:17Z</time>
      </trkpt>
      <trkpt lat="47.32529" lon="-1.87377">
        <ele>19.36</ele>
        <time>2013-12-23T12:29:19Z</time>
      </trkpt>
      <trkpt lat="47.32536" lon="-1.8739">
        <ele>18.88</ele>
        <time>2013-12-23T12:29:22Z</time>
      </trkpt>
      <trkpt lat="47.32541" lon="-1.87403">
        <ele>17.92</ele>
        <time>2013-12-23T12:29:26Z</time>
      </trkpt>
      <trkpt lat="47.32543" lon="-1.87417">
        <ele>17.92</ele>
        <time>2013-12-23T12:29:31Z</time>
      </trkpt>
      <trkpt lat="47.32546" lon="-1.87434">
        <ele>18.4</ele>
        <time>2013-12-23T12:29:37Z</time>
      </trkpt>
      <trkpt lat="47.32551" lon="-1.8745">
        <ele>20.32</ele>
        <time>2013-12-23T12:29:43Z</time>
      </trkpt>
      <trkpt lat="47.32556" lon="-1.87466">
        <ele>21.77</ele>
        <time>2013-12-23T12:29:49Z</time>
      </trkpt>
      <trkpt lat="47.32562" lon="-1.8748">
        <ele>24.17</ele>
        <time>2013-12-23T12:29:55Z</time>
      </trkpt>
      <trkpt lat="47.32573" lon="-1.87479">
        <ele>25.13</ele>
        <time>2013-12-23T12:30:02Z</time>
      </trkpt>
      <trkpt lat="47.32584" lon="-1.87476">
        <ele>26.09</ele>
        <time>2013-12-23T12:30:08Z</time>
      </trkpt>
      <trkpt lat="47.32593" lon="-1.87473">
        <ele>27.05</ele>
        <time>2013-12-23T12:30:13Z</time>
      </trkpt>
      <trkpt lat="47.32603" lon="-1.8747">
        <ele>28.02</ele>
        <time>2013-12-23T12:30:19Z</time>
      </trkpt>
      <trkpt lat="47.32612" lon="-1.87467">
        <ele>28.5</ele>
        <time>2013-12-23T12:30:25Z</time>
      </trkpt>
      <trkpt lat="47.32623" lon="-1.87466">
        <ele>29.46</ele>
        <time>2013-12-23T12:30:31Z</time>
      </trkpt>
      <trkpt lat="47.32634" lon="-1.87465">
        <ele>30.9</ele>
        <time>2013-12-23T12:30:37Z</time>
      </trkpt>
      <trkpt lat="47.32644" lon="-1.87467">
        <ele>32.82</ele>
        <time>2013-12-23T12:30:43Z</time>
      </trkpt>
      <trkpt lat="47.32653" lon="-1.87475">
        <ele>35.71</ele>
        <time>2013-12-23T12:30:51Z</time>
      </trkpt>
      <trkpt lat="47.32663" lon="-1.8748">
        <ele>37.63</ele>
        <time>2013-12-23T12:30:59Z</time>
      </trkpt>
      <trkpt lat="47.32674" lon="-1.87482">
        <ele>38.11</ele>
        <time>2013-12-23T12:31:06Z</time>
      </trkpt>
      <trkpt lat="47.32685" lon="-1.8748">
        <ele>38.59</ele>
        <time>2013-12-23T12:31:13Z</time>
      </trkpt>
      <trkpt lat="47.32695" lon="-1.87477">
        <ele>40.03</ele>
        <time>2013-12-23T12:31:21Z</time>
      </trkpt>
      <trkpt lat="47.32708" lon="-1.87472">
        <ele>41.47</ele>
        <time>2013-12-23T12:31:29Z</time>
      </trkpt>
      <trkpt lat="47.32719" lon="-1.87475">
        <ele>41.47</ele>
        <time>2013-12-23T12:31:35Z</time>
      </trkpt>
      <trkpt lat="47.32729" lon="-1.87484">
        <ele>40.99</ele>
        <time>2013-12-23T12:31:39Z</time>
      </trkpt>
      <trkpt lat="47.32738" lon="-1.87493">
        <ele>41.47</ele>
        <time>2013-12-23T12:31:43Z</time>
      </trkpt>
      <trkpt lat="47.32747" lon="-1.87503">
        <ele>41.95</ele>
        <time>2013-12-23T12:31:48Z</time>
      </trkpt>
      <trkpt lat="47.32755" lon="-1.87512">
        <ele>41.95</ele>
        <time>2013-12-23T12:31:53Z</time>
      </trkpt>
      <trkpt lat="47.32763" lon="-1.87523">
        <ele>43.4</ele>
        <time>2013-12-23T12:31:58Z</time>
      </trkpt>
      <trkpt lat="47.32774" lon="-1.87534">
        <ele>46.28</ele>
        <time>2013-12-23T12:32:04Z</time>
      </trkpt>
      <trkpt lat="47.32784" lon="-1.87543">
        <ele>47.72</ele>
        <time>2013-12-23T12:32:08Z</time>
      </trkpt>
      <trkpt lat="47.32793" lon="-1.87549">
        <ele>49.16</ele>
        <time>2013-12-23T12:32:12Z</time>
      </trkpt>
      <trkpt lat="47.32805" lon="-1.87555">
        <ele>50.13</ele>
        <time>2013-12-23T12:32:17Z</time>
      </trkpt>
      <trkpt lat="47.32815" lon="-1.87562">
        <ele>50.13</ele>
        <time>2013-12-23T12:32:22Z</time>
      </trkpt>
      <trkpt lat="47.32821" lon="-1.87574">
        <ele>49.65</ele>
        <time>2013-12-23T12:32:26Z</time>
      </trkpt>
      <trkpt lat="47.32827" lon="-1.87589">
        <ele>49.16</ele>
        <time>2013-12-23T12:32:30Z</time>
      </trkpt>
      <trkpt lat="47.32835" lon="-1.87603">
        <ele>48.2</ele>
        <time>2013-12-23T12:32:34Z</time>
      </trkpt>
      <trkpt lat="47.32843" lon="-1.87613">
        <ele>48.68</ele>
        <time>2013-12-23T12:32:37Z</time>
      </trkpt>
      <trkpt lat="47.32852" lon="-1.87621">
        <ele>48.68</ele>
        <time>2013-12-23T12:32:40Z</time>
      </trkpt>
      <trkpt lat="47.32863" lon="-1.87623">
        <ele>49.16</ele>
        <time>2013-12-23T12:32:43Z</time>
      </trkpt>
      <trkpt lat="47.32872" lon="-1.87619">
        <ele>49.65</ele>
        <time>2013-12-23T12:32:46Z</time>
      </trkpt>
      <trkpt lat="47.32882" lon="-1.87614">
        <ele>50.13</ele>
        <time>2013-12-23T12:32:49Z</time>
      </trkpt>
      <trkpt lat="47.32891" lon="-1.87609">
        <ele>50.13</ele>
        <time>2013-12-23T12:32:52Z</time>
      </trkpt>
      <trkpt lat="47.32903" lon="-1.87605">
        <ele>50.61</ele>
        <time>2013-12-23T12:32:56Z</time>
      </trkpt>
      <trkpt lat="47.32915" lon="-1.87607">
        <ele>51.09</ele>
        <time>2013-12-23T12:33:00Z</time>
      </trkpt>
      <trkpt lat="47.32924" lon="-1.87617">
        <ele>51.57</ele>
        <time>2013-12-23T12:33:04Z</time>
      </trkpt>
      <trkpt lat="47.32931" lon="-1.87627">
        <ele>52.53</ele>
        <time>2013-12-23T12:33:08Z</time>
      </trkpt>
      <trkpt lat="47.32939" lon="-1.87638">
        <ele>53.01</ele>
        <time>2013-12-23T12:33:13Z</time>
      </trkpt>
      <trkpt lat="47.32947" lon="-1.87645">
        <ele>54.93</ele>
        <time>2013-12-23T12:33:18Z</time>
      </trkpt>
      <trkpt lat="47.32959" lon="-1.87651">
        <ele>56.86</ele>
        <time>2013-12-23T12:33:23Z</time>
      </trkpt>
      <trkpt lat="47.32969" lon="-1.87647">
        <ele>58.3</ele>
        <time>2013-12-23T12:33:27Z</time>
      </trkpt>
      <trkpt lat="47.32978" lon="-1.87641">
        <ele>58.3</ele>
        <time>2013-12-23T12:33:31Z</time>
      </trkpt>
      <trkpt lat="47.32987" lon="-1.87633">
        <ele>57.82</ele>
        <time>2013-12-23T12:33:35Z</time>
      </trkpt>
      <trkpt lat="47.32996" lon="-1.87626">
        <ele>57.82</ele>
        <time>2013-12-23T12:33:39Z</time>
      </trkpt>
      <trkpt lat="47.33007" lon="-1.87617">
        <ele>58.78</ele>
        <time>2013-12-23T12:33:44Z</time>
      </trkpt>
      <trkpt lat="47.33017" lon="-1.87611">
        <ele>58.3</ele>
        <time>2013-12-23T12:33:49Z</time>
      </trkpt>
      <trkpt lat="47.33028" lon="-1.8761">
        <ele>58.3</ele>
        <time>2013-12-23T12:33:53Z</time>
      </trkpt>
      <trkpt lat="47.33037" lon="-1.87616">
        <ele>57.82</ele>
        <time>2013-12-23T12:33:56Z</time>
      </trkpt>
      <trkpt lat="47.33045" lon="-1.87625">
        <ele>57.34</ele>
        <time>2013-12-23T12:33:59Z</time>
      </trkpt>
      <trkpt lat="47.33053" lon="-1.87634">
        <ele>56.86</ele>
        <time>2013-12-23T12:34:02Z</time>
      </trkpt>
      <trkpt lat="47.33063" lon="-1.87645">
        <ele>57.34</ele>
        <time>2013-12-23T12:34:06Z</time>
      </trkpt>
      <trkpt lat="47.33071" lon="-1.87656">
        <ele>58.3</ele>
        <time>2013-12-23T12:34:10Z</time>
      </trkpt>
      <trkpt lat="47.33079" lon="-1.87667">
        <ele>58.78</ele>
        <time>2013-12-23T12:34:14Z</time>
      </trkpt>
      <trkpt lat="47.33086" lon="-1.87678">
        <ele>59.26</ele>
        <time>2013-12-23T12:34:18Z</time>
      </trkpt>
      <trkpt lat="47.33093" lon="-1.87688">
        <ele>60.22</ele>
        <time>2013-12-23T12:34:22Z</time>
      </trkpt>
      <trkpt lat="47.331" lon="-1.87698">
        <ele>60.22</ele>
        <time>2013-12-23T12:34:26Z</time>
      </trkpt>
      <trkpt lat="47.33108" lon="-1.8771">
        <ele>61.18</ele>
        <time>2013-12-23T12:34:31Z</time>
      </trkpt>
      <trkpt lat="47.33116" lon="-1.87721">
        <ele>61.18</ele>
        <time>2013-12-23T12:34:36Z</time>
      </trkpt>
      <trkpt lat="47.33124" lon="-1.87729">
        <ele>61.66</ele>
        <time>2013-12-23T12:34:40Z</time>
      </trkpt>
      <trkpt lat="47.33134" lon="-1.87733">
        <ele>62.14</ele>
        <time>2013-12-23T12:34:45Z</time>
      </trkpt>
      <trkpt lat="47.33145" lon="-1.87734">
        <ele>63.1</ele>
        <time>2013-12-23T12:34:50Z</time>
      </trkpt>
      <trkpt lat="47.33155" lon="-1.87736">
        <ele>63.1</ele>
        <time>2013-12-23T12:34:54Z</time>
      </trkpt>
      <trkpt lat="47.33167" lon="-1.8774">
        <ele>62.14</ele>
        <time>2013-12-23T12:34:58Z</time>
      </trkpt>
      <trkpt lat="47.33176" lon="-1.87745">
        <ele>62.14</ele>
        <time>2013-12-23T12:35:01Z</time>
      </trkpt>
      <trkpt lat="47.33189" lon="-1.87749">
        <ele>62.62</ele>
        <time>2013-12-23T12:35:05Z</time>
      </trkpt>
      <trkpt lat="47.33202" lon="-1.87751">
        <ele>62.14</ele>
        <time>2013-12-23T12:35:09Z</time>
      </trkpt>
      <trkpt lat="47.33214" lon="-1.87752">
        <ele>61.18</ele>
        <time>2013-12-23T12:35:13Z</time>
      </trkpt>
      <trkpt lat="47.33225" lon="-1.87751">
        <ele>61.18</ele>
        <time>2013-12-23T12:35:17Z</time>
      </trkpt>
      <trkpt lat="47.33235" lon="-1.87748">
        <ele>61.18</ele>
        <time>2013-12-23T12:35:21Z</time>
      </trkpt>
      <trkpt lat="47.3325" lon="-1.87741">
        <ele>65.51</ele>
        <time>2013-12-23T12:39:11Z</time>
      </trkpt>
      <trkpt lat="47.33261" lon="-1.87739">
        <ele>65.03</ele>
        <time>2013-12-23T12:39:15Z</time>
      </trkpt>
      <trkpt lat="47.33271" lon="-1.87738">
        <ele>64.55</ele>
        <time>2013-12-23T12:39:18Z</time>
      </trkpt>
      <trkpt lat="47.33282" lon="-1.87737">
        <ele>64.07</ele>
        <time>2013-12-23T12:39:21Z</time>
      </trkpt>
      <trkpt lat="47.33294" lon="-1.87734">
        <ele>63.58</ele>
        <time>2013-12-23T12:39:24Z</time>
      </trkpt>
      <trkpt lat="47.33304" lon="-1.87733">
        <ele>63.1</ele>
        <time>2013-12-23T12:39:26Z</time>
      </trkpt>
      <trkpt lat="47.33313" lon="-1.87731">
        <ele>62.14</ele>
        <time>2013-12-23T12:39:28Z</time>
      </trkpt>
      <trkpt lat="47.33327" lon="-1.87727">
        <ele>61.18</ele>
        <time>2013-12-23T12:39:31Z</time>
      </trkpt>
      <trkpt lat="47.33339" lon="-1.87722">
        <ele>60.7</ele>
        <time>2013-12-23T12:39:34Z</time>
      </trkpt>
      <trkpt lat="47.3335" lon="-1.87721">
        <ele>60.22</ele>
        <time>2013-12-23T12:39:37Z</time>
      </trkpt>
      <trkpt lat="47.3336" lon="-1.87728">
        <ele>59.26</ele>
        <time>2013-12-23T12:39:41Z</time>
      </trkpt>
      <trkpt lat="47.33369" lon="-1.87742">
        <ele>57.34</ele>
        <time>2013-12-23T12:39:48Z</time>
      </trkpt>
      <trkpt lat="47.33382" lon="-1.87764">
        <ele>54.45</ele>
        <time>2013-12-23T12:39:55Z</time>
      </trkpt>
      <trkpt lat="47.33388" lon="-1.87781">
        <ele>52.53</ele>
        <time>2013-12-23T12:40:00Z</time>
      </trkpt>
      <trkpt lat="47.33387" lon="-1.87796">
        <ele>52.53</ele>
        <time>2013-12-23T12:40:04Z</time>
      </trkpt>
      <trkpt lat="47.33385" lon="-1.87813">
        <ele>53.01</ele>
        <time>2013-12-23T12:40:08Z</time>
      </trkpt>
      <trkpt lat="47.33386" lon="-1.87831">
        <ele>53.97</ele>
        <time>2013-12-23T12:40:13Z</time>
      </trkpt>
      <trkpt lat="47.33386" lon="-1.8785">
        <ele>55.89</ele>
        <time>2013-12-23T12:40:19Z</time>
      </trkpt>
      <trkpt lat="47.33385" lon="-1.87868">
        <ele>58.3</ele>
        <time>2013-12-23T12:40:24Z</time>
      </trkpt>
      <trkpt lat="47.33386" lon="-1.87886">
        <ele>59.74</ele>
        <time>2013-12-23T12:40:29Z</time>
      </trkpt>
      <trkpt lat="47.33388" lon="-1.87901">
        <ele>58.78</ele>
        <time>2013-12-23T12:40:33Z</time>
      </trkpt>
      <trkpt lat="47.3339" lon="-1.87916">
        <ele>58.78</ele>
        <time>2013-12-23T12:40:37Z</time>
      </trkpt>
      <trkpt lat="47.33393" lon="-1.87931">
        <ele>58.78</ele>
        <time>2013-12-23T12:40:41Z</time>
      </trkpt>
      <trkpt lat="47.33395" lon="-1.87944">
        <ele>59.74</ele>
        <time>2013-12-23T12:40:45Z</time>
      </trkpt>
      <trkpt lat="47.33397" lon="-1.87959">
        <ele>60.22</ele>
        <time>2013-12-23T12:40:50Z</time>
      </trkpt>
      <trkpt lat="47.334" lon="-1.87975">
        <ele>60.22</ele>
        <time>2013-12-23T12:40:55Z</time>
      </trkpt>
      <trkpt lat="47.33401" lon="-1.87992">
        <ele>60.22</ele>
        <time>2013-12-23T12:40:59Z</time>
      </trkpt>
      <trkpt lat="47.33404" lon="-1.88006">
        <ele>60.22</ele>
        <time>2013-12-23T12:41:02Z</time>
      </trkpt>
      <trkpt lat="47.33406" lon="-1.8802">
        <ele>59.74</ele>
        <time>2013-12-23T12:41:05Z</time>
      </trkpt>
      <trkpt lat="47.33409" lon="-1.88034">
        <ele>59.26</ele>
        <time>2013-12-23T12:41:08Z</time>
      </trkpt>
      <trkpt lat="47.33411" lon="-1.88048">
        <ele>59.26</ele>
        <time>2013-12-23T12:41:11Z</time>
      </trkpt>
      <trkpt lat="47.33407" lon="-1.88063">
        <ele>59.26</ele>
        <time>2013-12-23T12:41:15Z</time>
      </trkpt>
      <trkpt lat="47.33397" lon="-1.88068">
        <ele>59.26</ele>
        <time>2013-12-23T12:41:20Z</time>
      </trkpt>
      <trkpt lat="47.33385" lon="-1.88069">
        <ele>59.74</ele>
        <time>2013-12-23T12:41:24Z</time>
      </trkpt>
      <trkpt lat="47.33376" lon="-1.8807">
        <ele>59.26</ele>
        <time>2013-12-23T12:41:27Z</time>
      </trkpt>
      <trkpt lat="47.33366" lon="-1.88071">
        <ele>58.78</ele>
        <time>2013-12-23T12:41:30Z</time>
      </trkpt>
      <trkpt lat="47.33356" lon="-1.88071">
        <ele>58.3</ele>
        <time>2013-12-23T12:41:33Z</time>
      </trkpt>
      <trkpt lat="47.33346" lon="-1.88072">
        <ele>58.3</ele>
        <time>2013-12-23T12:41:36Z</time>
      </trkpt>
      <trkpt lat="47.33334" lon="-1.88071">
        <ele>57.34</ele>
        <time>2013-12-23T12:41:39Z</time>
      </trkpt>
      <trkpt lat="47.33324" lon="-1.88072">
        <ele>57.34</ele>
        <time>2013-12-23T12:41:42Z</time>
      </trkpt>
      <trkpt lat="47.33314" lon="-1.88078">
        <ele>57.34</ele>
        <time>2013-12-23T12:41:45Z</time>
      </trkpt>
      <trkpt lat="47.33305" lon="-1.88092">
        <ele>56.37</ele>
        <time>2013-12-23T12:41:48Z</time>
      </trkpt>
      <trkpt lat="47.33299" lon="-1.88107">
        <ele>55.41</ele>
        <time>2013-12-23T12:41:51Z</time>
      </trkpt>
      <trkpt lat="47.33292" lon="-1.88121">
        <ele>54.93</ele>
        <time>2013-12-23T12:41:54Z</time>
      </trkpt>
      <trkpt lat="47.33285" lon="-1.88135">
        <ele>53.97</ele>
        <time>2013-12-23T12:41:57Z</time>
      </trkpt>
      <trkpt lat="47.33279" lon="-1.88152">
        <ele>53.49</ele>
        <time>2013-12-23T12:42:00Z</time>
      </trkpt>
      <trkpt lat="47.33276" lon="-1.88166">
        <ele>52.53</ele>
        <time>2013-12-23T12:42:02Z</time>
      </trkpt>
      <trkpt lat="47.33273" lon="-1.88181">
        <ele>51.09</ele>
        <time>2013-12-23T12:42:04Z</time>
      </trkpt>
      <trkpt lat="47.33271" lon="-1.88195">
        <ele>50.13</ele>
        <time>2013-12-23T12:42:06Z</time>
      </trkpt>
      <trkpt lat="47.33271" lon="-1.88211">
        <ele>48.68</ele>
        <time>2013-12-23T12:42:09Z</time>
      </trkpt>
      <trkpt lat="47.33273" lon="-1.88228">
        <ele>47.24</ele>
        <time>2013-12-23T12:42:13Z</time>
      </trkpt>
      <trkpt lat="47.33277" lon="-1.88244">
        <ele>46.28</ele>
        <time>2013-12-23T12:42:18Z</time>
      </trkpt>
      <trkpt lat="47.33282" lon="-1.88262">
        <ele>46.28</ele>
        <time>2013-12-23T12:42:23Z</time>
      </trkpt>
      <trkpt lat="47.33285" lon="-1.8828">
        <ele>48.68</ele>
        <time>2013-12-23T12:42:27Z</time>
      </trkpt>
      <trkpt lat="47.3329" lon="-1.88294">
        <ele>49.65</ele>
        <time>2013-12-23T12:42:30Z</time>
      </trkpt>
      <trkpt lat="47.33296" lon="-1.88306">
        <ele>51.09</ele>
        <time>2013-12-23T12:42:33Z</time>
      </trkpt>
      <trkpt lat="47.33302" lon="-1.8832">
        <ele>52.05</ele>
        <time>2013-12-23T12:42:37Z</time>
      </trkpt>
      <trkpt lat="47.33307" lon="-1.88336">
        <ele>52.05</ele>
        <time>2013-12-23T12:42:41Z</time>
      </trkpt>
      <trkpt lat="47.33302" lon="-1.88348">
        <ele>52.53</ele>
        <time>2013-12-23T12:42:44Z</time>
      </trkpt>
      <trkpt lat="47.33296" lon="-1.88359">
        <ele>52.53</ele>
        <time>2013-12-23T12:42:47Z</time>
      </trkpt>
      <trkpt lat="47.33294" lon="-1.88374">
        <ele>51.57</ele>
        <time>2013-12-23T12:42:50Z</time>
      </trkpt>
      <trkpt lat="47.3329" lon="-1.88393">
        <ele>50.13</ele>
        <time>2013-12-23T12:42:53Z</time>
      </trkpt>
      <trkpt lat="47.33287" lon="-1.88406">
        <ele>49.65</ele>
        <time>2013-12-23T12:42:55Z</time>
      </trkpt>
      <trkpt lat="47.33282" lon="-1.88418">
        <ele>49.16</ele>
        <time>2013-12-23T12:42:57Z</time>
      </trkpt>
      <trkpt lat="47.33275" lon="-1.88429">
        <ele>48.68</ele>
        <time>2013-12-23T12:42:59Z</time>
      </trkpt>
      <trkpt lat="47.33267" lon="-1.88439">
        <ele>48.68</ele>
        <time>2013-12-23T12:43:01Z</time>
      </trkpt>
      <trkpt lat="47.33259" lon="-1.8845">
        <ele>48.2</ele>
        <time>2013-12-23T12:43:03Z</time>
      </trkpt>
      <trkpt lat="47.3325" lon="-1.88461">
        <ele>47.24</ele>
        <time>2013-12-23T12:43:05Z</time>
      </trkpt>
      <trkpt lat="47.33241" lon="-1.88471">
        <ele>46.28</ele>
        <time>2013-12-23T12:43:07Z</time>
      </trkpt>
      <trkpt lat="47.33232" lon="-1.88481">
        <ele>45.32</ele>
        <time>2013-12-23T12:43:09Z</time>
      </trkpt>
      <trkpt lat="47.33224" lon="-1.88492">
        <ele>44.36</ele>
        <time>2013-12-23T12:43:11Z</time>
      </trkpt>
      <trkpt lat="47.33222" lon="-1.88505">
        <ele>43.4</ele>
        <time>2013-12-23T12:43:13Z</time>
      </trkpt>
      <trkpt lat="47.33228" lon="-1.88524">
        <ele>41.95</ele>
        <time>2013-12-23T12:43:16Z</time>
      </trkpt>
      <trkpt lat="47.33234" lon="-1.88537">
        <ele>40.99</ele>
        <time>2013-12-23T12:43:18Z</time>
      </trkpt>
      <trkpt lat="47.3324" lon="-1.8855">
        <ele>39.55</ele>
        <time>2013-12-23T12:43:21Z</time>
      </trkpt>
      <trkpt lat="47.33253" lon="-1.88548">
        <ele>38.59</ele>
        <time>2013-12-23T12:43:27Z</time>
      </trkpt>
      <trkpt lat="47.33263" lon="-1.88538">
        <ele>38.59</ele>
        <time>2013-12-23T12:43:31Z</time>
      </trkpt>
      <trkpt lat="47.33272" lon="-1.88545">
        <ele>38.59</ele>
        <time>2013-12-23T12:43:35Z</time>
      </trkpt>
      <trkpt lat="47.33279" lon="-1.88557">
        <ele>38.59</ele>
        <time>2013-12-23T12:43:38Z</time>
      </trkpt>
      <trkpt lat="47.33289" lon="-1.8856">
        <ele>38.59</ele>
        <time>2013-12-23T12:43:42Z</time>
      </trkpt>
      <trkpt lat="47.33299" lon="-1.8855">
        <ele>39.55</ele>
        <time>2013-12-23T12:43:46Z</time>
      </trkpt>
      <trkpt lat="47.33311" lon="-1.88544">
        <ele>39.55</ele>
        <time>2013-12-23T12:43:50Z</time>
      </trkpt>
      <trkpt lat="47.33322" lon="-1.88549">
        <ele>40.03</ele>
        <time>2013-12-23T12:43:54Z</time>
      </trkpt>
      <trkpt lat="47.33327" lon="-1.88561">
        <ele>40.03</ele>
        <time>2013-12-23T12:43:57Z</time>
      </trkpt>
      <trkpt lat="47.33333" lon="-1.88576">
        <ele>40.99</ele>
        <time>2013-12-23T12:44:01Z</time>
      </trkpt>
      <trkpt lat="47.33338" lon="-1.8859">
        <ele>40.99</ele>
        <time>2013-12-23T12:44:04Z</time>
      </trkpt>
      <trkpt lat="47.33342" lon="-1.88603">
        <ele>41.47</ele>
        <time>2013-12-23T12:44:07Z</time>
      </trkpt>
      <trkpt lat="47.33349" lon="-1.88618">
        <ele>41.95</ele>
        <time>2013-12-23T12:44:11Z</time>
      </trkpt>
      <trkpt lat="47.33357" lon="-1.88632">
        <ele>41.95</ele>
        <time>2013-12-23T12:44:14Z</time>
      </trkpt>
      <trkpt lat="47.33363" lon="-1.8865">
        <ele>41.95</ele>
        <time>2013-12-23T12:44:17Z</time>
      </trkpt>
      <trkpt lat="47.33367" lon="-1.88662">
        <ele>41.95</ele>
        <time>2013-12-23T12:44:19Z</time>
      </trkpt>
      <trkpt lat="47.33373" lon="-1.8868">
        <ele>41.95</ele>
        <time>2013-12-23T12:44:22Z</time>
      </trkpt>
      <trkpt lat="47.33378" lon="-1.88696">
        <ele>41.47</ele>
        <time>2013-12-23T12:44:25Z</time>
      </trkpt>
      <trkpt lat="47.33386" lon="-1.88713">
        <ele>41.95</ele>
        <time>2013-12-23T12:44:29Z</time>
      </trkpt>
      <trkpt lat="47.33394" lon="-1.88731">
        <ele>41.95</ele>
        <time>2013-12-23T12:44:33Z</time>
      </trkpt>
      <trkpt lat="47.33408" lon="-1.88731">
        <ele>43.4</ele>
        <time>2013-12-23T12:44:38Z</time>
      </trkpt>
      <trkpt lat="47.33418" lon="-1.88721">
        <ele>43.4</ele>
        <time>2013-12-23T12:44:41Z</time>
      </trkpt>
      <trkpt lat="47.33426" lon="-1.8871">
        <ele>42.92</ele>
        <time>2013-12-23T12:44:44Z</time>
      </trkpt>
      <trkpt lat="47.33435" lon="-1.88712">
        <ele>40.03</ele>
        <time>2013-12-23T12:44:49Z</time>
      </trkpt>
      <trkpt lat="47.33443" lon="-1.88728">
        <ele>37.63</ele>
        <time>2013-12-23T12:44:53Z</time>
      </trkpt>
      <trkpt lat="47.33449" lon="-1.88741">
        <ele>36.19</ele>
        <time>2013-12-23T12:44:55Z</time>
      </trkpt>
      <trkpt lat="47.33456" lon="-1.88751">
        <ele>34.74</ele>
        <time>2013-12-23T12:44:57Z</time>
      </trkpt>
      <trkpt lat="47.33467" lon="-1.88756">
        <ele>32.82</ele>
        <time>2013-12-23T12:45:01Z</time>
      </trkpt>
      <trkpt lat="47.33475" lon="-1.88747">
        <ele>30.42</ele>
        <time>2013-12-23T12:45:07Z</time>
      </trkpt>
      <trkpt lat="47.33482" lon="-1.88735">
        <ele>29.94</ele>
        <time>2013-12-23T12:45:12Z</time>
      </trkpt>
      <trkpt lat="47.33489" lon="-1.88724">
        <ele>30.9</ele>
        <time>2013-12-23T12:45:17Z</time>
      </trkpt>
      <trkpt lat="47.33496" lon="-1.88712">
        <ele>31.38</ele>
        <time>2013-12-23T12:45:23Z</time>
      </trkpt>
      <trkpt lat="47.33505" lon="-1.88714">
        <ele>32.82</ele>
        <time>2013-12-23T12:45:30Z</time>
      </trkpt>
      <trkpt lat="47.33515" lon="-1.8872">
        <ele>35.71</ele>
        <time>2013-12-23T12:45:41Z</time>
      </trkpt>
      <trkpt lat="47.33527" lon="-1.8873">
        <ele>37.63</ele>
        <time>2013-12-23T12:45:52Z</time>
      </trkpt>
      <trkpt lat="47.33538" lon="-1.88736">
        <ele>39.07</ele>
        <time>2013-12-23T12:46:00Z</time>
      </trkpt>
      <trkpt lat="47.33551" lon="-1.88741">
        <ele>41.47</ele>
        <time>2013-12-23T12:46:08Z</time>
      </trkpt>
      <trkpt lat="47.33561" lon="-1.88746">
        <ele>43.88</ele>
        <time>2013-12-23T12:46:15Z</time>
      </trkpt>
      <trkpt lat="47.33574" lon="-1.88753">
        <ele>45.8</ele>
        <time>2013-12-23T12:46:24Z</time>
      </trkpt>
      <trkpt lat="47.33587" lon="-1.88757">
        <ele>44.36</ele>
        <time>2013-12-23T12:46:31Z</time>
      </trkpt>
      <trkpt lat="47.33601" lon="-1.8876">
        <ele>44.84</ele>
        <time>2013-12-23T12:46:38Z</time>
      </trkpt>
      <trkpt lat="47.33614" lon="-1.88764">
        <ele>46.28</ele>
        <time>2013-12-23T12:46:46Z</time>
      </trkpt>
      <trkpt lat="47.33626" lon="-1.88772">
        <ele>47.24</ele>
        <time>2013-12-23T12:46:52Z</time>
      </trkpt>
      <trkpt lat="47.33637" lon="-1.8878">
        <ele>49.16</ele>
        <time>2013-12-23T12:46:59Z</time>
      </trkpt>
      <trkpt lat="47.33649" lon="-1.88782">
        <ele>51.09</ele>
        <time>2013-12-23T12:47:05Z</time>
      </trkpt>
      <trkpt lat="47.33661" lon="-1.88781">
        <ele>52.53</ele>
        <time>2013-12-23T12:47:12Z</time>
      </trkpt>
      <trkpt lat="47.33672" lon="-1.88781">
        <ele>53.01</ele>
        <time>2013-12-23T12:47:18Z</time>
      </trkpt>
      <trkpt lat="47.33672" lon="-1.88796">
        <ele>52.05</ele>
        <time>2013-12-23T12:47:23Z</time>
      </trkpt>
      <trkpt lat="47.33671" lon="-1.8881">
        <ele>51.57</ele>
        <time>2013-12-23T12:47:27Z</time>
      </trkpt>
      <trkpt lat="47.33671" lon="-1.88828">
        <ele>52.05</ele>
        <time>2013-12-23T12:47:32Z</time>
      </trkpt>
      <trkpt lat="47.3367" lon="-1.88844">
        <ele>53.01</ele>
        <time>2013-12-23T12:47:37Z</time>
      </trkpt>
      <trkpt lat="47.33669" lon="-1.88861">
        <ele>53.97</ele>
        <time>2013-12-23T12:47:43Z</time>
      </trkpt>
      <trkpt lat="47.33669" lon="-1.88878">
        <ele>53.49</ele>
        <time>2013-12-23T12:47:48Z</time>
      </trkpt>
      <trkpt lat="47.33669" lon="-1.88895">
        <ele>53.97</ele>
        <time>2013-12-23T12:47:54Z</time>
      </trkpt>
      <trkpt lat="47.3367" lon="-1.88915">
        <ele>54.45</ele>
        <time>2013-12-23T12:48:00Z</time>
      </trkpt>
      <trkpt lat="47.3367" lon="-1.88933">
        <ele>54.45</ele>
        <time>2013-12-23T12:48:05Z</time>
      </trkpt>
      <trkpt lat="47.33662" lon="-1.88944">
        <ele>54.45</ele>
        <time>2013-12-23T12:48:09Z</time>
      </trkpt>
      <trkpt lat="47.33653" lon="-1.88948">
        <ele>53.97</ele>
        <time>2013-12-23T12:48:13Z</time>
      </trkpt>
      <trkpt lat="47.33643" lon="-1.88951">
        <ele>53.49</ele>
        <time>2013-12-23T12:48:17Z</time>
      </trkpt>
      <trkpt lat="47.33631" lon="-1.88958">
        <ele>52.53</ele>
        <time>2013-12-23T12:48:21Z</time>
      </trkpt>
      <trkpt lat="47.33622" lon="-1.88965">
        <ele>52.05</ele>
        <time>2013-12-23T12:48:24Z</time>
      </trkpt>
      <trkpt lat="47.33613" lon="-1.88973">
        <ele>51.09</ele>
        <time>2013-12-23T12:48:27Z</time>
      </trkpt>
      <trkpt lat="47.33604" lon="-1.88985">
        <ele>50.61</ele>
        <time>2013-12-23T12:48:30Z</time>
      </trkpt>
      <trkpt lat="47.33596" lon="-1.88994">
        <ele>50.61</ele>
        <time>2013-12-23T12:48:33Z</time>
      </trkpt>
      <trkpt lat="47.3359" lon="-1.89007">
        <ele>49.16</ele>
        <time>2013-12-23T12:48:36Z</time>
      </trkpt>
      <trkpt lat="47.33592" lon="-1.89026">
        <ele>47.72</ele>
        <time>2013-12-23T12:48:39Z</time>
      </trkpt>
      <trkpt lat="47.33594" lon="-1.8904">
        <ele>47.24</ele>
        <time>2013-12-23T12:48:41Z</time>
      </trkpt>
      <trkpt lat="47.33597" lon="-1.89053">
        <ele>46.76</ele>
        <time>2013-12-23T12:48:43Z</time>
      </trkpt>
      <trkpt lat="47.336" lon="-1.89067">
        <ele>46.28</ele>
        <time>2013-12-23T12:48:45Z</time>
      </trkpt>
      <trkpt lat="47.33603" lon="-1.89081">
        <ele>46.28</ele>
        <time>2013-12-23T12:48:47Z</time>
      </trkpt>
      <trkpt lat="47.33608" lon="-1.891">
        <ele>45.8</ele>
        <time>2013-12-23T12:48:50Z</time>
      </trkpt>
      <trkpt lat="47.33612" lon="-1.89116">
        <ele>45.32</ele>
        <time>2013-12-23T12:48:53Z</time>
      </trkpt>
      <trkpt lat="47.33617" lon="-1.89134">
        <ele>44.36</ele>
        <time>2013-12-23T12:48:56Z</time>
      </trkpt>
      <trkpt lat="47.33622" lon="-1.89146">
        <ele>43.4</ele>
        <time>2013-12-23T12:48:59Z</time>
      </trkpt>
      <trkpt lat="47.33633" lon="-1.89147">
        <ele>42.92</ele>
        <time>2013-12-23T12:49:03Z</time>
      </trkpt>
      <trkpt lat="47.33643" lon="-1.89142">
        <ele>43.88</ele>
        <time>2013-12-23T12:49:07Z</time>
      </trkpt>
      <trkpt lat="47.33652" lon="-1.89137">
        <ele>44.36</ele>
        <time>2013-12-23T12:49:11Z</time>
      </trkpt>
      <trkpt lat="47.33661" lon="-1.89133">
        <ele>45.32</ele>
        <time>2013-12-23T12:49:15Z</time>
      </trkpt>
      <trkpt lat="47.3367" lon="-1.89127">
        <ele>46.28</ele>
        <time>2013-12-23T12:49:19Z</time>
      </trkpt>
      <trkpt lat="47.3368" lon="-1.89121">
        <ele>46.28</ele>
        <time>2013-12-23T12:49:23Z</time>
      </trkpt>
      <trkpt lat="47.3369" lon="-1.89116">
        <ele>46.28</ele>
        <time>2013-12-23T12:49:27Z</time>
      </trkpt>
      <trkpt lat="47.33701" lon="-1.89112">
        <ele>45.8</ele>
        <time>2013-12-23T12:49:31Z</time>
      </trkpt>
      <trkpt lat="47.33711" lon="-1.89108">
        <ele>46.28</ele>
        <time>2013-12-23T12:49:36Z</time>
      </trkpt>
      <trkpt lat="47.33722" lon="-1.89105">
        <ele>46.28</ele>
        <time>2013-12-23T12:49:40Z</time>
      </trkpt>
      <trkpt lat="47.33733" lon="-1.89102">
        <ele>46.28</ele>
        <time>2013-12-23T12:49:44Z</time>
      </trkpt>
      <trkpt lat="47.33744" lon="-1.891">
        <ele>46.76</ele>
        <time>2013-12-23T12:49:48Z</time>
      </trkpt>
      <trkpt lat="47.33756" lon="-1.89099">
        <ele>47.24</ele>
        <time>2013-12-23T12:49:52Z</time>
      </trkpt>
      <trkpt lat="47.33767" lon="-1.89097">
        <ele>46.76</ele>
        <time>2013-12-23T12:49:56Z</time>
      </trkpt>
      <trkpt lat="47.33778" lon="-1.89096">
        <ele>47.72</ele>
        <time>2013-12-23T12:50:01Z</time>
      </trkpt>
      <trkpt lat="47.33788" lon="-1.89094">
        <ele>48.68</ele>
        <time>2013-12-23T12:50:05Z</time>
      </trkpt>
      <trkpt lat="47.338" lon="-1.89092">
        <ele>49.16</ele>
        <time>2013-12-23T12:50:09Z</time>
      </trkpt>
      <trkpt lat="47.33811" lon="-1.89089">
        <ele>49.65</ele>
        <time>2013-12-23T12:50:13Z</time>
      </trkpt>
      <trkpt lat="47.33821" lon="-1.89084">
        <ele>50.13</ele>
        <time>2013-12-23T12:50:17Z</time>
      </trkpt>
      <trkpt lat="47.33831" lon="-1.89079">
        <ele>50.61</ele>
        <time>2013-12-23T12:50:21Z</time>
      </trkpt>
      <trkpt lat="47.3384" lon="-1.89073">
        <ele>51.09</ele>
        <time>2013-12-23T12:50:25Z</time>
      </trkpt>
      <trkpt lat="47.33849" lon="-1.89074">
        <ele>51.09</ele>
        <time>2013-12-23T12:50:29Z</time>
      </trkpt>
      <trkpt lat="47.33852" lon="-1.89088">
        <ele>52.05</ele>
        <time>2013-12-23T12:50:33Z</time>
      </trkpt>
      <trkpt lat="47.33854" lon="-1.89103">
        <ele>52.53</ele>
        <time>2013-12-23T12:50:38Z</time>
      </trkpt>
      <trkpt lat="47.33856" lon="-1.89117">
        <ele>53.49</ele>
        <time>2013-12-23T12:50:43Z</time>
      </trkpt>
      <trkpt lat="47.33857" lon="-1.89131">
        <ele>53.97</ele>
        <time>2013-12-23T12:50:49Z</time>
      </trkpt>
      <trkpt lat="47.3386" lon="-1.89146">
        <ele>54.93</ele>
        <time>2013-12-23T12:50:55Z</time>
      </trkpt>
      <trkpt lat="47.3386" lon="-1.89161">
        <ele>54.93</ele>
        <time>2013-12-23T12:51:00Z</time>
      </trkpt>
      <trkpt lat="47.33859" lon="-1.89179">
        <ele>54.93</ele>
        <time>2013-12-23T12:51:05Z</time>
      </trkpt>
      <trkpt lat="47.33856" lon="-1.89196">
        <ele>54.45</ele>
        <time>2013-12-23T12:51:09Z</time>
      </trkpt>
      <trkpt lat="47.33853" lon="-1.89212">
        <ele>54.45</ele>
        <time>2013-12-23T12:51:13Z</time>
      </trkpt>
      <trkpt lat="47.33853" lon="-1.89231">
        <ele>53.97</ele>
        <time>2013-12-23T12:51:17Z</time>
      </trkpt>
      <trkpt lat="47.33846" lon="-1.89242">
        <ele>53.01</ele>
        <time>2013-12-23T12:51:20Z</time>
      </trkpt>
      <trkpt lat="47.33833" lon="-1.89249">
        <ele>52.05</ele>
        <time>2013-12-23T12:51:23Z</time>
      </trkpt>
      <trkpt lat="47.33823" lon="-1.89253">
        <ele>51.57</ele>
        <time>2013-12-23T12:51:25Z</time>
      </trkpt>
      <trkpt lat="47.33813" lon="-1.89256">
        <ele>50.61</ele>
        <time>2013-12-23T12:51:27Z</time>
      </trkpt>
      <trkpt lat="47.33804" lon="-1.8926">
        <ele>49.65</ele>
        <time>2013-12-23T12:51:29Z</time>
      </trkpt>
      <trkpt lat="47.33798" lon="-1.89276">
        <ele>48.2</ele>
        <time>2013-12-23T12:51:32Z</time>
      </trkpt>
      <trkpt lat="47.33798" lon="-1.89297">
        <ele>46.76</ele>
        <time>2013-12-23T12:51:35Z</time>
      </trkpt>
      <trkpt lat="47.33792" lon="-1.89311">
        <ele>44.84</ele>
        <time>2013-12-23T12:51:38Z</time>
      </trkpt>
      <trkpt lat="47.33782" lon="-1.89315">
        <ele>44.36</ele>
        <time>2013-12-23T12:51:40Z</time>
      </trkpt>
      <trkpt lat="47.33773" lon="-1.8932">
        <ele>43.4</ele>
        <time>2013-12-23T12:51:42Z</time>
      </trkpt>
      <trkpt lat="47.33763" lon="-1.89323">
        <ele>43.4</ele>
        <time>2013-12-23T12:51:44Z</time>
      </trkpt>
      <trkpt lat="47.3375" lon="-1.89327">
        <ele>42.92</ele>
        <time>2013-12-23T12:51:47Z</time>
      </trkpt>
      <trkpt lat="47.33741" lon="-1.89328">
        <ele>42.44</ele>
        <time>2013-12-23T12:51:50Z</time>
      </trkpt>
      <trkpt lat="47.33735" lon="-1.89342">
        <ele>41.47</ele>
        <time>2013-12-23T12:51:53Z</time>
      </trkpt>
      <trkpt lat="47.33731" lon="-1.89359">
        <ele>40.51</ele>
        <time>2013-12-23T12:51:56Z</time>
      </trkpt>
      <trkpt lat="47.33729" lon="-1.89377">
        <ele>39.55</ele>
        <time>2013-12-23T12:51:59Z</time>
      </trkpt>
      <trkpt lat="47.33727" lon="-1.89393">
        <ele>38.11</ele>
        <time>2013-12-23T12:52:02Z</time>
      </trkpt>
      <trkpt lat="47.33725" lon="-1.89411">
        <ele>36.19</ele>
        <time>2013-12-23T12:52:06Z</time>
      </trkpt>
      <trkpt lat="47.33714" lon="-1.89418">
        <ele>33.3</ele>
        <time>2013-12-23T12:52:10Z</time>
      </trkpt>
      <trkpt lat="47.33702" lon="-1.89417">
        <ele>31.86</ele>
        <time>2013-12-23T12:52:13Z</time>
      </trkpt>
      <trkpt lat="47.33692" lon="-1.89422">
        <ele>30.9</ele>
        <time>2013-12-23T12:52:17Z</time>
      </trkpt>
      <trkpt lat="47.33688" lon="-1.89438">
        <ele>30.42</ele>
        <time>2013-12-23T12:52:22Z</time>
      </trkpt>
      <trkpt lat="47.33681" lon="-1.89454">
        <ele>36.19</ele>
        <time>2013-12-23T12:52:55Z</time>
      </trkpt>
      <trkpt lat="47.33674" lon="-1.8947">
        <ele>42.92</ele>
        <time>2013-12-23T12:53:23Z</time>
      </trkpt>
      <trkpt lat="47.33671" lon="-1.89492">
        <ele>44.36</ele>
        <time>2013-12-23T12:53:45Z</time>
      </trkpt>
      <trkpt lat="47.33661" lon="-1.895">
        <ele>43.88</ele>
        <time>2013-12-23T12:53:50Z</time>
      </trkpt>
      <trkpt lat="47.33651" lon="-1.89501">
        <ele>43.4</ele>
        <time>2013-12-23T12:53:55Z</time>
      </trkpt>
      <trkpt lat="47.33645" lon="-1.89516">
        <ele>42.44</ele>
        <time>2013-12-23T12:54:01Z</time>
      </trkpt>
      <trkpt lat="47.33646" lon="-1.8953">
        <ele>42.92</ele>
        <time>2013-12-23T12:54:04Z</time>
      </trkpt>
      <trkpt lat="47.33652" lon="-1.89545">
        <ele>42.92</ele>
        <time>2013-12-23T12:54:10Z</time>
      </trkpt>
      <trkpt lat="47.33655" lon="-1.89563">
        <ele>42.44</ele>
        <time>2013-12-23T12:54:16Z</time>
      </trkpt>
      <trkpt lat="47.3366" lon="-1.8958">
        <ele>42.92</ele>
        <time>2013-12-23T12:54:21Z</time>
      </trkpt>
      <trkpt lat="47.33664" lon="-1.89597">
        <ele>43.4</ele>
        <time>2013-12-23T12:54:26Z</time>
      </trkpt>
      <trkpt lat="47.33667" lon="-1.89614">
        <ele>43.4</ele>
        <time>2013-12-23T12:54:31Z</time>
      </trkpt>
      <trkpt lat="47.3367" lon="-1.89633">
        <ele>43.88</ele>
        <time>2013-12-23T12:54:36Z</time>
      </trkpt>
      <trkpt lat="47.33672" lon="-1.89649">
        <ele>42.92</ele>
        <time>2013-12-23T12:54:40Z</time>
      </trkpt>
      <trkpt lat="47.33676" lon="-1.89667">
        <ele>41.95</ele>
        <time>2013-12-23T12:54:44Z</time>
      </trkpt>
      <trkpt lat="47.33681" lon="-1.89685">
        <ele>40.03</ele>
        <time>2013-12-23T12:54:48Z</time>
      </trkpt>
      <trkpt lat="47.33686" lon="-1.89697">
        <ele>39.07</ele>
        <time>2013-12-23T12:54:51Z</time>
      </trkpt>
      <trkpt lat="47.33695" lon="-1.89708">
        <ele>39.07</ele>
        <time>2013-12-23T12:54:55Z</time>
      </trkpt>
      <trkpt lat="47.33704" lon="-1.89717">
        <ele>39.07</ele>
        <time>2013-12-23T12:54:59Z</time>
      </trkpt>
      <trkpt lat="47.33714" lon="-1.89727">
        <ele>39.55</ele>
        <time>2013-12-23T12:55:03Z</time>
      </trkpt>
      <trkpt lat="47.33725" lon="-1.89731">
        <ele>39.55</ele>
        <time>2013-12-23T12:55:07Z</time>
      </trkpt>
      <trkpt lat="47.33736" lon="-1.8973">
        <ele>40.03</ele>
        <time>2013-12-23T12:55:11Z</time>
      </trkpt>
      <trkpt lat="47.33745" lon="-1.89729">
        <ele>40.51</ele>
        <time>2013-12-23T12:55:15Z</time>
      </trkpt>
      <trkpt lat="47.33756" lon="-1.89728">
        <ele>42.44</ele>
        <time>2013-12-23T12:55:20Z</time>
      </trkpt>
      <trkpt lat="47.33766" lon="-1.89725">
        <ele>43.4</ele>
        <time>2013-12-23T12:55:25Z</time>
      </trkpt>
      <trkpt lat="47.33776" lon="-1.89721">
        <ele>44.84</ele>
        <time>2013-12-23T12:55:30Z</time>
      </trkpt>
      <trkpt lat="47.33786" lon="-1.89714">
        <ele>44.84</ele>
        <time>2013-12-23T12:55:35Z</time>
      </trkpt>
      <trkpt lat="47.33793" lon="-1.89705">
        <ele>44.84</ele>
        <time>2013-12-23T12:55:40Z</time>
      </trkpt>
      <trkpt lat="47.33801" lon="-1.89696">
        <ele>44.84</ele>
        <time>2013-12-23T12:55:46Z</time>
      </trkpt>
      <trkpt lat="47.33806" lon="-1.89681">
        <ele>44.36</ele>
        <time>2013-12-23T12:55:51Z</time>
      </trkpt>
      <trkpt lat="47.33812" lon="-1.89669">
        <ele>44.84</ele>
        <time>2013-12-23T12:55:56Z</time>
      </trkpt>
      <trkpt lat="47.3382" lon="-1.89658">
        <ele>43.88</ele>
        <time>2013-12-23T12:56:01Z</time>
      </trkpt>
      <trkpt lat="47.33831" lon="-1.89651">
        <ele>43.88</ele>
        <time>2013-12-23T12:56:07Z</time>
      </trkpt>
      <trkpt lat="47.33841" lon="-1.89647">
        <ele>44.84</ele>
        <time>2013-12-23T12:56:13Z</time>
      </trkpt>
      <trkpt lat="47.33852" lon="-1.89643">
        <ele>45.32</ele>
        <time>2013-12-23T12:56:18Z</time>
      </trkpt>
      <trkpt lat="47.33863" lon="-1.89641">
        <ele>45.32</ele>
        <time>2013-12-23T12:56:24Z</time>
      </trkpt>
      <trkpt lat="47.33874" lon="-1.89639">
        <ele>45.32</ele>
        <time>2013-12-23T12:56:29Z</time>
      </trkpt>
      <trkpt lat="47.33885" lon="-1.89638">
        <ele>45.8</ele>
        <time>2013-12-23T12:56:34Z</time>
      </trkpt>
      <trkpt lat="47.33896" lon="-1.89637">
        <ele>46.28</ele>
        <time>2013-12-23T12:56:39Z</time>
      </trkpt>
      <trkpt lat="47.33907" lon="-1.89636">
        <ele>46.76</ele>
        <time>2013-12-23T12:56:45Z</time>
      </trkpt>
      <trkpt lat="47.33918" lon="-1.8963">
        <ele>49.16</ele>
        <time>2013-12-23T12:56:51Z</time>
      </trkpt>
      <trkpt lat="47.3393" lon="-1.89624">
        <ele>50.61</ele>
        <time>2013-12-23T12:56:58Z</time>
      </trkpt>
      <trkpt lat="47.33941" lon="-1.89618">
        <ele>50.61</ele>
        <time>2013-12-23T12:57:03Z</time>
      </trkpt>
      <trkpt lat="47.33952" lon="-1.89613">
        <ele>51.09</ele>
        <time>2013-12-23T12:57:08Z</time>
      </trkpt>
      <trkpt lat="47.33963" lon="-1.8961">
        <ele>51.57</ele>
        <time>2013-12-23T12:57:13Z</time>
      </trkpt>
      <trkpt lat="47.33974" lon="-1.8961">
        <ele>51.57</ele>
        <time>2013-12-23T12:57:19Z</time>
      </trkpt>
      <trkpt lat="47.33987" lon="-1.89609">
        <ele>50.61</ele>
        <time>2013-12-23T12:57:25Z</time>
      </trkpt>
      <trkpt lat="47.34" lon="-1.8961">
        <ele>50.13</ele>
        <time>2013-12-23T12:57:31Z</time>
      </trkpt>
      <trkpt lat="47.34011" lon="-1.89611">
        <ele>49.65</ele>
        <time>2013-12-23T12:57:36Z</time>
      </trkpt>
      <trkpt lat="47.34023" lon="-1.8961">
        <ele>50.61</ele>
        <time>2013-12-23T12:57:42Z</time>
      </trkpt>
      <trkpt lat="47.34036" lon="-1.89609">
        <ele>51.57</ele>
        <time>2013-12-23T12:57:48Z</time>
      </trkpt>
      <trkpt lat="47.34049" lon="-1.89606">
        <ele>51.57</ele>
        <time>2013-12-23T12:57:54Z</time>
      </trkpt>
      <trkpt lat="47.3406" lon="-1.89601">
        <ele>53.49</ele>
        <time>2013-12-23T12:58:00Z</time>
      </trkpt>
      <trkpt lat="47.34072" lon="-1.89593">
        <ele>56.37</ele>
        <time>2013-12-23T12:58:07Z</time>
      </trkpt>
      <trkpt lat="47.34082" lon="-1.89584">
        <ele>57.34</ele>
        <time>2013-12-23T12:58:13Z</time>
      </trkpt>
      <trkpt lat="47.34093" lon="-1.89588">
        <ele>58.78</ele>
        <time>2013-12-23T12:58:20Z</time>
      </trkpt>
      <trkpt lat="47.34098" lon="-1.89599">
        <ele>59.26</ele>
        <time>2013-12-23T12:58:25Z</time>
      </trkpt>
      <trkpt lat="47.34105" lon="-1.89611">
        <ele>59.26</ele>
        <time>2013-12-23T12:58:29Z</time>
      </trkpt>
      <trkpt lat="47.3411" lon="-1.89627">
        <ele>59.26</ele>
        <time>2013-12-23T12:58:33Z</time>
      </trkpt>
      <trkpt lat="47.34115" lon="-1.89643">
        <ele>59.74</ele>
        <time>2013-12-23T12:58:37Z</time>
      </trkpt>
      <trkpt lat="47.34119" lon="-1.89657">
        <ele>59.74</ele>
        <time>2013-12-23T12:58:41Z</time>
      </trkpt>
      <trkpt lat="47.34122" lon="-1.89672">
        <ele>60.22</ele>
        <time>2013-12-23T12:58:45Z</time>
      </trkpt>
      <trkpt lat="47.3412" lon="-1.89688">
        <ele>59.74</ele>
        <time>2013-12-23T12:58:49Z</time>
      </trkpt>
      <trkpt lat="47.34115" lon="-1.89701">
        <ele>59.74</ele>
        <time>2013-12-23T12:58:52Z</time>
      </trkpt>
      <trkpt lat="47.34109" lon="-1.89714">
        <ele>59.74</ele>
        <time>2013-12-23T12:58:55Z</time>
      </trkpt>
      <trkpt lat="47.34102" lon="-1.89727">
        <ele>59.74</ele>
        <time>2013-12-23T12:58:58Z</time>
      </trkpt>
      <trkpt lat="47.34096" lon="-1.8974">
        <ele>59.74</ele>
        <time>2013-12-23T12:59:01Z</time>
      </trkpt>
      <trkpt lat="47.34091" lon="-1.89755">
        <ele>59.74</ele>
        <time>2013-12-23T12:59:04Z</time>
      </trkpt>
      <trkpt lat="47.34088" lon="-1.89768">
        <ele>60.22</ele>
        <time>2013-12-23T12:59:07Z</time>
      </trkpt>
      <trkpt lat="47.34085" lon="-1.89782">
        <ele>60.7</ele>
        <time>2013-12-23T12:59:10Z</time>
      </trkpt>
      <trkpt lat="47.34083" lon="-1.89795">
        <ele>61.18</ele>
        <time>2013-12-23T12:59:13Z</time>
      </trkpt>
      <trkpt lat="47.34082" lon="-1.89809">
        <ele>61.18</ele>
        <time>2013-12-23T12:59:16Z</time>
      </trkpt>
      <trkpt lat="47.3408" lon="-1.89824">
        <ele>60.7</ele>
        <time>2013-12-23T12:59:19Z</time>
      </trkpt>
      <trkpt lat="47.34078" lon="-1.89843">
        <ele>59.74</ele>
        <time>2013-12-23T12:59:22Z</time>
      </trkpt>
      <trkpt lat="47.34079" lon="-1.89856">
        <ele>58.78</ele>
        <time>2013-12-23T12:59:24Z</time>
      </trkpt>
      <trkpt lat="47.34082" lon="-1.89876">
        <ele>57.34</ele>
        <time>2013-12-23T12:59:27Z</time>
      </trkpt>
      <trkpt lat="47.34085" lon="-1.89895">
        <ele>56.86</ele>
        <time>2013-12-23T12:59:30Z</time>
      </trkpt>
      <trkpt lat="47.34089" lon="-1.89913">
        <ele>56.86</ele>
        <time>2013-12-23T12:59:33Z</time>
      </trkpt>
      <trkpt lat="47.34093" lon="-1.89931">
        <ele>56.37</ele>
        <time>2013-12-23T12:59:36Z</time>
      </trkpt>
      <trkpt lat="47.34097" lon="-1.89949">
        <ele>56.37</ele>
        <time>2013-12-23T12:59:39Z</time>
      </trkpt>
      <trkpt lat="47.34101" lon="-1.89968">
        <ele>56.37</ele>
        <time>2013-12-23T12:59:42Z</time>
      </trkpt>
      <trkpt lat="47.34106" lon="-1.89985">
        <ele>56.37</ele>
        <time>2013-12-23T12:59:45Z</time>
      </trkpt>
      <trkpt lat="47.3411" lon="-1.90003">
        <ele>56.37</ele>
        <time>2013-12-23T12:59:48Z</time>
      </trkpt>
      <trkpt lat="47.34112" lon="-1.90023">
        <ele>55.89</ele>
        <time>2013-12-23T12:59:51Z</time>
      </trkpt>
      <trkpt lat="47.34114" lon="-1.90042">
        <ele>55.41</ele>
        <time>2013-12-23T12:59:54Z</time>
      </trkpt>
      <trkpt lat="47.34116" lon="-1.90055">
        <ele>54.93</ele>
        <time>2013-12-23T12:59:56Z</time>
      </trkpt>
      <trkpt lat="47.34119" lon="-1.9007">
        <ele>54.45</ele>
        <time>2013-12-23T12:59:58Z</time>
      </trkpt>
      <trkpt lat="47.34122" lon="-1.90085">
        <ele>53.97</ele>
        <time>2013-12-23T13:00:00Z</time>
      </trkpt>
      <trkpt lat="47.34125" lon="-1.90102">
        <ele>53.49</ele>
        <time>2013-12-23T13:00:02Z</time>
      </trkpt>
      <trkpt lat="47.34129" lon="-1.9012">
        <ele>52.53</ele>
        <time>2013-12-23T13:00:04Z</time>
      </trkpt>
      <trkpt lat="47.34133" lon="-1.90139">
        <ele>52.05</ele>
        <time>2013-12-23T13:00:06Z</time>
      </trkpt>
      <trkpt lat="47.34137" lon="-1.90161">
        <ele>50.61</ele>
        <time>2013-12-23T13:00:08Z</time>
      </trkpt>
      <trkpt lat="47.34141" lon="-1.90184">
        <ele>49.65</ele>
        <time>2013-12-23T13:00:10Z</time>
      </trkpt>
      <trkpt lat="47.34143" lon="-1.90205">
        <ele>48.68</ele>
        <time>2013-12-23T13:00:12Z</time>
      </trkpt>
      <trkpt lat="47.3414" lon="-1.90223">
        <ele>48.2</ele>
        <time>2013-12-23T13:00:14Z</time>
      </trkpt>
      <trkpt lat="47.34133" lon="-1.90234">
        <ele>47.72</ele>
        <time>2013-12-23T13:00:16Z</time>
      </trkpt>
      <trkpt lat="47.34122" lon="-1.90242">
        <ele>47.72</ele>
        <time>2013-12-23T13:00:19Z</time>
      </trkpt>
      <trkpt lat="47.34113" lon="-1.90246">
        <ele>47.72</ele>
        <time>2013-12-23T13:00:22Z</time>
      </trkpt>
      <trkpt lat="47.34103" lon="-1.90253">
        <ele>47.72</ele>
        <time>2013-12-23T13:00:25Z</time>
      </trkpt>
      <trkpt lat="47.34096" lon="-1.90265">
        <ele>47.24</ele>
        <time>2013-12-23T13:00:28Z</time>
      </trkpt>
      <trkpt lat="47.34094" lon="-1.9028">
        <ele>46.76</ele>
        <time>2013-12-23T13:00:31Z</time>
      </trkpt>
      <trkpt lat="47.34094" lon="-1.90297">
        <ele>46.76</ele>
        <time>2013-12-23T13:00:34Z</time>
      </trkpt>
      <trkpt lat="47.34095" lon="-1.90318">
        <ele>46.28</ele>
        <time>2013-12-23T13:00:37Z</time>
      </trkpt>
      <trkpt lat="47.34095" lon="-1.90333">
        <ele>45.8</ele>
        <time>2013-12-23T13:00:39Z</time>
      </trkpt>
      <trkpt lat="47.34095" lon="-1.9035">
        <ele>44.84</ele>
        <time>2013-12-23T13:00:41Z</time>
      </trkpt>
      <trkpt lat="47.34094" lon="-1.90366">
        <ele>43.88</ele>
        <time>2013-12-23T13:00:43Z</time>
      </trkpt>
      <trkpt lat="47.34091" lon="-1.9038">
        <ele>43.4</ele>
        <time>2013-12-23T13:00:45Z</time>
      </trkpt>
      <trkpt lat="47.34085" lon="-1.90392">
        <ele>43.4</ele>
        <time>2013-12-23T13:00:47Z</time>
      </trkpt>
      <trkpt lat="47.3408" lon="-1.90404">
        <ele>43.4</ele>
        <time>2013-12-23T13:00:49Z</time>
      </trkpt>
      <trkpt lat="47.34081" lon="-1.90422">
        <ele>43.88</ele>
        <time>2013-12-23T13:00:52Z</time>
      </trkpt>
      <trkpt lat="47.34085" lon="-1.90437">
        <ele>44.36</ele>
        <time>2013-12-23T13:00:55Z</time>
      </trkpt>
      <trkpt lat="47.34088" lon="-1.90451">
        <ele>44.84</ele>
        <time>2013-12-23T13:00:58Z</time>
      </trkpt>
      <trkpt lat="47.34091" lon="-1.90466">
        <ele>44.84</ele>
        <time>2013-12-23T13:01:01Z</time>
      </trkpt>
      <trkpt lat="47.34094" lon="-1.9048">
        <ele>45.32</ele>
        <time>2013-12-23T13:01:04Z</time>
      </trkpt>
      <trkpt lat="47.34098" lon="-1.90496">
        <ele>45.8</ele>
        <time>2013-12-23T13:01:07Z</time>
      </trkpt>
      <trkpt lat="47.34103" lon="-1.90513">
        <ele>45.32</ele>
        <time>2013-12-23T13:01:10Z</time>
      </trkpt>
      <trkpt lat="47.34108" lon="-1.90529">
        <ele>45.32</ele>
        <time>2013-12-23T13:01:13Z</time>
      </trkpt>
      <trkpt lat="47.34112" lon="-1.90542">
        <ele>45.8</ele>
        <time>2013-12-23T13:01:16Z</time>
      </trkpt>
      <trkpt lat="47.34118" lon="-1.90557">
        <ele>45.8</ele>
        <time>2013-12-23T13:01:19Z</time>
      </trkpt>
      <trkpt lat="47.34123" lon="-1.90576">
        <ele>45.32</ele>
        <time>2013-12-23T13:01:22Z</time>
      </trkpt>
      <trkpt lat="47.34127" lon="-1.90589">
        <ele>44.36</ele>
        <time>2013-12-23T13:01:24Z</time>
      </trkpt>
      <trkpt lat="47.34131" lon="-1.90606">
        <ele>43.4</ele>
        <time>2013-12-23T13:01:26Z</time>
      </trkpt>
      <trkpt lat="47.34134" lon="-1.9062">
        <ele>42.92</ele>
        <time>2013-12-23T13:01:28Z</time>
      </trkpt>
      <trkpt lat="47.34137" lon="-1.90634">
        <ele>42.44</ele>
        <time>2013-12-23T13:01:30Z</time>
      </trkpt>
      <trkpt lat="47.3414" lon="-1.90648">
        <ele>42.44</ele>
        <time>2013-12-23T13:01:32Z</time>
      </trkpt>
      <trkpt lat="47.34141" lon="-1.90662">
        <ele>41.95</ele>
        <time>2013-12-23T13:01:34Z</time>
      </trkpt>
      <trkpt lat="47.34144" lon="-1.90677">
        <ele>41.47</ele>
        <time>2013-12-23T13:01:36Z</time>
      </trkpt>
      <trkpt lat="47.34147" lon="-1.90693">
        <ele>40.99</ele>
        <time>2013-12-23T13:01:38Z</time>
      </trkpt>
      <trkpt lat="47.34149" lon="-1.90711">
        <ele>40.03</ele>
        <time>2013-12-23T13:01:40Z</time>
      </trkpt>
      <trkpt lat="47.3415" lon="-1.90729">
        <ele>38.59</ele>
        <time>2013-12-23T13:01:42Z</time>
      </trkpt>
      <trkpt lat="47.34152" lon="-1.90746">
        <ele>37.63</ele>
        <time>2013-12-23T13:01:44Z</time>
      </trkpt>
      <trkpt lat="47.34158" lon="-1.90761">
        <ele>36.67</ele>
        <time>2013-12-23T13:01:46Z</time>
      </trkpt>
      <trkpt lat="47.34164" lon="-1.90774">
        <ele>35.71</ele>
        <time>2013-12-23T13:01:48Z</time>
      </trkpt>
      <trkpt lat="47.34173" lon="-1.90783">
        <ele>34.26</ele>
        <time>2013-12-23T13:01:51Z</time>
      </trkpt>
      <trkpt lat="47.34182" lon="-1.90789">
        <ele>33.3</ele>
        <time>2013-12-23T13:01:55Z</time>
      </trkpt>
      <trkpt lat="47.34191" lon="-1.90801">
        <ele>32.34</ele>
        <time>2013-12-23T13:01:59Z</time>
      </trkpt>
      <trkpt lat="47.34196" lon="-1.90819">
        <ele>32.82</ele>
        <time>2013-12-23T13:02:03Z</time>
      </trkpt>
      <trkpt lat="47.34201" lon="-1.90837">
        <ele>32.82</ele>
        <time>2013-12-23T13:02:07Z</time>
      </trkpt>
      <trkpt lat="47.34204" lon="-1.90852">
        <ele>33.3</ele>
        <time>2013-12-23T13:02:11Z</time>
      </trkpt>
      <trkpt lat="47.34208" lon="-1.90869">
        <ele>33.78</ele>
        <time>2013-12-23T13:02:15Z</time>
      </trkpt>
      <trkpt lat="47.34211" lon="-1.90885">
        <ele>34.74</ele>
        <time>2013-12-23T13:02:18Z</time>
      </trkpt>
      <trkpt lat="47.34215" lon="-1.90899">
        <ele>34.74</ele>
        <time>2013-12-23T13:02:20Z</time>
      </trkpt>
      <trkpt lat="47.34219" lon="-1.90919">
        <ele>35.71</ele>
        <time>2013-12-23T13:02:23Z</time>
      </trkpt>
      <trkpt lat="47.34223" lon="-1.90936">
        <ele>35.71</ele>
        <time>2013-12-23T13:02:26Z</time>
      </trkpt>
      <trkpt lat="47.34228" lon="-1.90952">
        <ele>35.23</ele>
        <time>2013-12-23T13:02:29Z</time>
      </trkpt>
      <trkpt lat="47.34231" lon="-1.90968">
        <ele>34.74</ele>
        <time>2013-12-23T13:02:32Z</time>
      </trkpt>
      <trkpt lat="47.34231" lon="-1.90985">
        <ele>34.26</ele>
        <time>2013-12-23T13:02:35Z</time>
      </trkpt>
      <trkpt lat="47.34226" lon="-1.91003">
        <ele>33.3</ele>
        <time>2013-12-23T13:02:38Z</time>
      </trkpt>
      <trkpt lat="47.34218" lon="-1.91019">
        <ele>32.34</ele>
        <time>2013-12-23T13:02:41Z</time>
      </trkpt>
      <trkpt lat="47.34208" lon="-1.91034">
        <ele>30.42</ele>
        <time>2013-12-23T13:02:44Z</time>
      </trkpt>
      <trkpt lat="47.34208" lon="-1.9105">
        <ele>28.5</ele>
        <time>2013-12-23T13:02:47Z</time>
      </trkpt>
      <trkpt lat="47.34215" lon="-1.91066">
        <ele>28.02</ele>
        <time>2013-12-23T13:02:50Z</time>
      </trkpt>
      <trkpt lat="47.34222" lon="-1.91083">
        <ele>25.61</ele>
        <time>2013-12-23T13:02:53Z</time>
      </trkpt>
      <trkpt lat="47.34228" lon="-1.91098">
        <ele>24.17</ele>
        <time>2013-12-23T13:02:56Z</time>
      </trkpt>
      <trkpt lat="47.34234" lon="-1.91112">
        <ele>23.21</ele>
        <time>2013-12-23T13:03:00Z</time>
      </trkpt>
      <trkpt lat="47.34242" lon="-1.91122">
        <ele>22.73</ele>
        <time>2013-12-23T13:03:04Z</time>
      </trkpt>
      <trkpt lat="47.34251" lon="-1.91116">
        <ele>23.69</ele>
        <time>2013-12-23T13:03:09Z</time>
      </trkpt>
      <trkpt lat="47.34261" lon="-1.91112">
        <ele>24.65</ele>
        <time>2013-12-23T13:03:14Z</time>
      </trkpt>
      <trkpt lat="47.34271" lon="-1.9111">
        <ele>26.09</ele>
        <time>2013-12-23T13:03:19Z</time>
      </trkpt>
      <trkpt lat="47.3428" lon="-1.91108">
        <ele>26.57</ele>
        <time>2013-12-23T13:03:24Z</time>
      </trkpt>
      <trkpt lat="47.34289" lon="-1.91101">
        <ele>28.02</ele>
        <time>2013-12-23T13:03:30Z</time>
      </trkpt>
      <trkpt lat="47.34296" lon="-1.9109">
        <ele>29.46</ele>
        <time>2013-12-23T13:03:37Z</time>
      </trkpt>
      <trkpt lat="47.34296" lon="-1.91074">
        <ele>33.3</ele>
        <time>2013-12-23T13:03:51Z</time>
      </trkpt>
      <trkpt lat="47.34296" lon="-1.91057">
        <ele>34.74</ele>
        <time>2013-12-23T13:04:00Z</time>
      </trkpt>
      <trkpt lat="47.34301" lon="-1.91041">
        <ele>36.67</ele>
        <time>2013-12-23T13:04:07Z</time>
      </trkpt>
      <trkpt lat="47.3431" lon="-1.9104">
        <ele>38.59</ele>
        <time>2013-12-23T13:04:15Z</time>
      </trkpt>
      <trkpt lat="47.3432" lon="-1.9104">
        <ele>38.59</ele>
        <time>2013-12-23T13:04:24Z</time>
      </trkpt>
      <trkpt lat="47.34331" lon="-1.9104">
        <ele>39.55</ele>
        <time>2013-12-23T13:04:33Z</time>
      </trkpt>
      <trkpt lat="47.34341" lon="-1.91042">
        <ele>40.51</ele>
        <time>2013-12-23T13:04:40Z</time>
      </trkpt>
      <trkpt lat="47.34353" lon="-1.9104">
        <ele>40.99</ele>
        <time>2013-12-23T13:04:47Z</time>
      </trkpt>
      <trkpt lat="47.34365" lon="-1.91039">
        <ele>42.44</ele>
        <time>2013-12-23T13:04:55Z</time>
      </trkpt>
      <trkpt lat="47.34378" lon="-1.91033">
        <ele>45.8</ele>
        <time>2013-12-23T13:05:03Z</time>
      </trkpt>
      <trkpt lat="47.34391" lon="-1.91028">
        <ele>47.24</ele>
        <time>2013-12-23T13:05:12Z</time>
      </trkpt>
      <trkpt lat="47.34404" lon="-1.91022">
        <ele>50.13</ele>
        <time>2013-12-23T13:05:19Z</time>
      </trkpt>
      <trkpt lat="47.34417" lon="-1.91018">
        <ele>51.57</ele>
        <time>2013-12-23T13:05:26Z</time>
      </trkpt>
      <trkpt lat="47.34429" lon="-1.9102">
        <ele>53.01</ele>
        <time>2013-12-23T13:05:34Z</time>
      </trkpt>
      <trkpt lat="47.34442" lon="-1.9102">
        <ele>53.49</ele>
        <time>2013-12-23T13:05:43Z</time>
      </trkpt>
      <trkpt lat="47.34453" lon="-1.91019">
        <ele>53.97</ele>
        <time>2013-12-23T13:05:50Z</time>
      </trkpt>
      <trkpt lat="47.34464" lon="-1.91027">
        <ele>56.86</ele>
        <time>2013-12-23T13:05:57Z</time>
      </trkpt>
      <trkpt lat="47.3447" lon="-1.9104">
        <ele>57.82</ele>
        <time>2013-12-23T13:06:03Z</time>
      </trkpt>
      <trkpt lat="47.34473" lon="-1.91053">
        <ele>57.82</ele>
        <time>2013-12-23T13:06:07Z</time>
      </trkpt>
      <trkpt lat="47.34476" lon="-1.91068">
        <ele>57.82</ele>
        <time>2013-12-23T13:06:11Z</time>
      </trkpt>
      <trkpt lat="47.3448" lon="-1.91084">
        <ele>57.34</ele>
        <time>2013-12-23T13:06:15Z</time>
      </trkpt>
      <trkpt lat="47.34483" lon="-1.911">
        <ele>57.34</ele>
        <time>2013-12-23T13:06:19Z</time>
      </trkpt>
      <trkpt lat="47.34486" lon="-1.91116">
        <ele>57.82</ele>
        <time>2013-12-23T13:06:23Z</time>
      </trkpt>
      <trkpt lat="47.34489" lon="-1.91132">
        <ele>57.34</ele>
        <time>2013-12-23T13:06:27Z</time>
      </trkpt>
      <trkpt lat="47.34491" lon="-1.91148">
        <ele>57.34</ele>
        <time>2013-12-23T13:06:31Z</time>
      </trkpt>
      <trkpt lat="47.34492" lon="-1.91163">
        <ele>56.37</ele>
        <time>2013-12-23T13:06:35Z</time>
      </trkpt>
      <trkpt lat="47.34498" lon="-1.91178">
        <ele>55.41</ele>
        <time>2013-12-23T13:06:39Z</time>
      </trkpt>
      <trkpt lat="47.34507" lon="-1.91175">
        <ele>55.89</ele>
        <time>2013-12-23T13:06:43Z</time>
      </trkpt>
      <trkpt lat="47.34516" lon="-1.91171">
        <ele>55.41</ele>
        <time>2013-12-23T13:06:46Z</time>
      </trkpt>
      <trkpt lat="47.34526" lon="-1.91163">
        <ele>55.41</ele>
        <time>2013-12-23T13:06:49Z</time>
      </trkpt>
      <trkpt lat="47.34535" lon="-1.91158">
        <ele>55.41</ele>
        <time>2013-12-23T13:06:52Z</time>
      </trkpt>
      <trkpt lat="47.34544" lon="-1.91154">
        <ele>55.41</ele>
        <time>2013-12-23T13:06:55Z</time>
      </trkpt>
      <trkpt lat="47.34553" lon="-1.91149">
        <ele>55.89</ele>
        <time>2013-12-23T13:06:58Z</time>
      </trkpt>
      <trkpt lat="47.34562" lon="-1.91144">
        <ele>55.89</ele>
        <time>2013-12-23T13:07:01Z</time>
      </trkpt>
      <trkpt lat="47.34571" lon="-1.91141">
        <ele>55.89</ele>
        <time>2013-12-23T13:07:04Z</time>
      </trkpt>
      <trkpt lat="47.34582" lon="-1.91138">
        <ele>55.89</ele>
        <time>2013-12-23T13:07:09Z</time>
      </trkpt>
      <trkpt lat="47.34594" lon="-1.91141">
        <ele>55.89</ele>
        <time>2013-12-23T13:07:13Z</time>
      </trkpt>
      <trkpt lat="47.34603" lon="-1.91137">
        <ele>56.37</ele>
        <time>2013-12-23T13:07:16Z</time>
      </trkpt>
      <trkpt lat="47.34612" lon="-1.91133">
        <ele>56.86</ele>
        <time>2013-12-23T13:07:19Z</time>
      </trkpt>
      <trkpt lat="47.34622" lon="-1.91131">
        <ele>56.86</ele>
        <time>2013-12-23T13:07:22Z</time>
      </trkpt>
      <trkpt lat="47.34631" lon="-1.91126">
        <ele>57.34</ele>
        <time>2013-12-23T13:07:25Z</time>
      </trkpt>
      <trkpt lat="47.34641" lon="-1.91122">
        <ele>57.82</ele>
        <time>2013-12-23T13:07:29Z</time>
      </trkpt>
      <trkpt lat="47.34648" lon="-1.91133">
        <ele>58.78</ele>
        <time>2013-12-23T13:07:34Z</time>
      </trkpt>
      <trkpt lat="47.34653" lon="-1.91148">
        <ele>58.78</ele>
        <time>2013-12-23T13:07:38Z</time>
      </trkpt>
      <trkpt lat="47.34661" lon="-1.91159">
        <ele>58.78</ele>
        <time>2013-12-23T13:07:42Z</time>
      </trkpt>
      <trkpt lat="47.34671" lon="-1.91158">
        <ele>58.78</ele>
        <time>2013-12-23T13:07:46Z</time>
      </trkpt>
      <trkpt lat="47.3468" lon="-1.91153">
        <ele>60.22</ele>
        <time>2013-12-23T13:07:51Z</time>
      </trkpt>
      <trkpt lat="47.34692" lon="-1.91151">
        <ele>62.14</ele>
        <time>2013-12-23T13:07:57Z</time>
      </trkpt>
      <trkpt lat="47.34701" lon="-1.91159">
        <ele>62.14</ele>
        <time>2013-12-23T13:08:01Z</time>
      </trkpt>
      <trkpt lat="47.34704" lon="-1.91172">
        <ele>61.66</ele>
        <time>2013-12-23T13:08:04Z</time>
      </trkpt>
      <trkpt lat="47.34707" lon="-1.91185">
        <ele>62.14</ele>
        <time>2013-12-23T13:08:07Z</time>
      </trkpt>
      <trkpt lat="47.34711" lon="-1.912">
        <ele>62.62</ele>
        <time>2013-12-23T13:08:11Z</time>
      </trkpt>
      <trkpt lat="47.34713" lon="-1.91218">
        <ele>62.62</ele>
        <time>2013-12-23T13:08:15Z</time>
      </trkpt>
      <trkpt lat="47.34717" lon="-1.91235">
        <ele>61.66</ele>
        <time>2013-12-23T13:08:18Z</time>
      </trkpt>
      <trkpt lat="47.34719" lon="-1.91254">
        <ele>61.18</ele>
        <time>2013-12-23T13:08:21Z</time>
      </trkpt>
      <trkpt lat="47.34722" lon="-1.91271">
        <ele>60.7</ele>
        <time>2013-12-23T13:08:23Z</time>
      </trkpt>
      <trkpt lat="47.34724" lon="-1.9129">
        <ele>60.22</ele>
        <time>2013-12-23T13:08:25Z</time>
      </trkpt>
      <trkpt lat="47.34727" lon="-1.91308">
        <ele>59.26</ele>
        <time>2013-12-23T13:08:27Z</time>
      </trkpt>
      <trkpt lat="47.34729" lon="-1.91325">
        <ele>57.82</ele>
        <time>2013-12-23T13:08:29Z</time>
      </trkpt>
      <trkpt lat="47.34731" lon="-1.91343">
        <ele>56.86</ele>
        <time>2013-12-23T13:08:31Z</time>
      </trkpt>
      <trkpt lat="47.34733" lon="-1.91361">
        <ele>56.37</ele>
        <time>2013-12-23T13:08:33Z</time>
      </trkpt>
      <trkpt lat="47.34734" lon="-1.91379">
        <ele>55.89</ele>
        <time>2013-12-23T13:08:35Z</time>
      </trkpt>
      <trkpt lat="47.34735" lon="-1.91394">
        <ele>55.41</ele>
        <time>2013-12-23T13:08:37Z</time>
      </trkpt>
      <trkpt lat="47.3474" lon="-1.91408">
        <ele>54.45</ele>
        <time>2013-12-23T13:08:40Z</time>
      </trkpt>
      <trkpt lat="47.34748" lon="-1.91418">
        <ele>53.49</ele>
        <time>2013-12-23T13:08:43Z</time>
      </trkpt>
      <trkpt lat="47.34758" lon="-1.91421">
        <ele>53.49</ele>
        <time>2013-12-23T13:08:46Z</time>
      </trkpt>
      <trkpt lat="47.3477" lon="-1.91421">
        <ele>53.01</ele>
        <time>2013-12-23T13:08:49Z</time>
      </trkpt>
      <trkpt lat="47.34782" lon="-1.91419">
        <ele>53.97</ele>
        <time>2013-12-23T13:08:53Z</time>
      </trkpt>
      <trkpt lat="47.34796" lon="-1.91412">
        <ele>54.45</ele>
        <time>2013-12-23T13:08:56Z</time>
      </trkpt>
      <trkpt lat="47.3481" lon="-1.91405">
        <ele>54.93</ele>
        <time>2013-12-23T13:08:59Z</time>
      </trkpt>
      <trkpt lat="47.34824" lon="-1.914">
        <ele>54.93</ele>
        <time>2013-12-23T13:09:02Z</time>
      </trkpt>
      <trkpt lat="47.34836" lon="-1.91394">
        <ele>54.45</ele>
        <time>2013-12-23T13:09:05Z</time>
      </trkpt>
      <trkpt lat="47.34849" lon="-1.91389">
        <ele>53.01</ele>
        <time>2013-12-23T13:09:08Z</time>
      </trkpt>
      <trkpt lat="47.34861" lon="-1.91385">
        <ele>52.05</ele>
        <time>2013-12-23T13:09:11Z</time>
      </trkpt>
      <trkpt lat="47.34872" lon="-1.91382">
        <ele>51.57</ele>
        <time>2013-12-23T13:09:14Z</time>
      </trkpt>
      <trkpt lat="47.34884" lon="-1.91379">
        <ele>51.09</ele>
        <time>2013-12-23T13:09:17Z</time>
      </trkpt>
      <trkpt lat="47.34895" lon="-1.91378">
        <ele>51.09</ele>
        <time>2013-12-23T13:09:20Z</time>
      </trkpt>
      <trkpt lat="47.34906" lon="-1.91378">
        <ele>51.09</ele>
        <time>2013-12-23T13:09:23Z</time>
      </trkpt>
      <trkpt lat="47.34915" lon="-1.91378">
        <ele>52.05</ele>
        <time>2013-12-23T13:09:26Z</time>
      </trkpt>
      <trkpt lat="47.34925" lon="-1.91377">
        <ele>52.53</ele>
        <time>2013-12-23T13:09:29Z</time>
      </trkpt>
      <trkpt lat="47.34934" lon="-1.91374">
        <ele>53.01</ele>
        <time>2013-12-23T13:09:32Z</time>
      </trkpt>
      <trkpt lat="47.34946" lon="-1.9137">
        <ele>53.01</ele>
        <time>2013-12-23T13:09:36Z</time>
      </trkpt>
      <trkpt lat="47.34958" lon="-1.91366">
        <ele>52.53</ele>
        <time>2013-12-23T13:09:40Z</time>
      </trkpt>
      <trkpt lat="47.34969" lon="-1.91363">
        <ele>52.53</ele>
        <time>2013-12-23T13:09:44Z</time>
      </trkpt>
      <trkpt lat="47.34978" lon="-1.9136">
        <ele>52.53</ele>
        <time>2013-12-23T13:09:47Z</time>
      </trkpt>
      <trkpt lat="47.34989" lon="-1.91355">
        <ele>52.05</ele>
        <time>2013-12-23T13:09:51Z</time>
      </trkpt>
      <trkpt lat="47.34999" lon="-1.91349">
        <ele>52.05</ele>
        <time>2013-12-23T13:09:55Z</time>
      </trkpt>
      <trkpt lat="47.35007" lon="-1.91344">
        <ele>52.05</ele>
        <time>2013-12-23T13:09:58Z</time>
      </trkpt>
      <trkpt lat="47.35015" lon="-1.91335">
        <ele>53.97</ele>
        <time>2013-12-23T13:11:07Z</time>
      </trkpt>
      <trkpt lat="47.35024" lon="-1.91327">
        <ele>53.01</ele>
        <time>2013-12-23T13:11:11Z</time>
      </trkpt>
      <trkpt lat="47.35034" lon="-1.91319">
        <ele>52.05</ele>
        <time>2013-12-23T13:11:15Z</time>
      </trkpt>
      <trkpt lat="47.35045" lon="-1.91311">
        <ele>52.53</ele>
        <time>2013-12-23T13:11:19Z</time>
      </trkpt>
      <trkpt lat="47.35054" lon="-1.91307">
        <ele>52.53</ele>
        <time>2013-12-23T13:11:22Z</time>
      </trkpt>
      <trkpt lat="47.35065" lon="-1.91303">
        <ele>52.05</ele>
        <time>2013-12-23T13:11:25Z</time>
      </trkpt>
      <trkpt lat="47.35075" lon="-1.91297">
        <ele>52.05</ele>
        <time>2013-12-23T13:11:28Z</time>
      </trkpt>
      <trkpt lat="47.35086" lon="-1.91287">
        <ele>53.01</ele>
        <time>2013-12-23T13:11:32Z</time>
      </trkpt>
      <trkpt lat="47.35096" lon="-1.9128">
        <ele>53.49</ele>
        <time>2013-12-23T13:11:35Z</time>
      </trkpt>
      <trkpt lat="47.35107" lon="-1.91274">
        <ele>54.45</ele>
        <time>2013-12-23T13:11:38Z</time>
      </trkpt>
      <trkpt lat="47.35118" lon="-1.91269">
        <ele>54.45</ele>
        <time>2013-12-23T13:11:41Z</time>
      </trkpt>
      <trkpt lat="47.35129" lon="-1.91262">
        <ele>53.97</ele>
        <time>2013-12-23T13:11:44Z</time>
      </trkpt>
      <trkpt lat="47.35138" lon="-1.9125">
        <ele>54.45</ele>
        <time>2013-12-23T13:11:47Z</time>
      </trkpt>
      <trkpt lat="47.35142" lon="-1.91235">
        <ele>54.93</ele>
        <time>2013-12-23T13:11:50Z</time>
      </trkpt>
      <trkpt lat="47.35143" lon="-1.91217">
        <ele>55.89</ele>
        <time>2013-12-23T13:11:54Z</time>
      </trkpt>
      <trkpt lat="47.35149" lon="-1.912">
        <ele>55.89</ele>
        <time>2013-12-23T13:11:58Z</time>
      </trkpt>
      <trkpt lat="47.35158" lon="-1.9119">
        <ele>54.93</ele>
        <time>2013-12-23T13:12:01Z</time>
      </trkpt>
      <trkpt lat="47.35169" lon="-1.91189">
        <ele>54.93</ele>
        <time>2013-12-23T13:12:04Z</time>
      </trkpt>
      <trkpt lat="47.35176" lon="-1.91199">
        <ele>55.41</ele>
        <time>2013-12-23T13:12:08Z</time>
      </trkpt>
      <trkpt lat="47.35181" lon="-1.91214">
        <ele>54.45</ele>
        <time>2013-12-23T13:12:12Z</time>
      </trkpt>
      <trkpt lat="47.35184" lon="-1.9123">
        <ele>53.01</ele>
        <time>2013-12-23T13:12:16Z</time>
      </trkpt>
      <trkpt lat="47.35184" lon="-1.91245">
        <ele>52.53</ele>
        <time>2013-12-23T13:12:19Z</time>
      </trkpt>
      <trkpt lat="47.35179" lon="-1.9126">
        <ele>51.09</ele>
        <time>2013-12-23T13:12:22Z</time>
      </trkpt>
      <trkpt lat="47.35171" lon="-1.91274">
        <ele>49.65</ele>
        <time>2013-12-23T13:12:25Z</time>
      </trkpt>
      <trkpt lat="47.35169" lon="-1.9129">
        <ele>48.68</ele>
        <time>2013-12-23T13:12:29Z</time>
      </trkpt>
      <trkpt lat="47.35172" lon="-1.91307">
        <ele>48.68</ele>
        <time>2013-12-23T13:12:33Z</time>
      </trkpt>
      <trkpt lat="47.35175" lon="-1.91322">
        <ele>48.68</ele>
        <time>2013-12-23T13:12:37Z</time>
      </trkpt>
      <trkpt lat="47.35178" lon="-1.91336">
        <ele>49.65</ele>
        <time>2013-12-23T13:12:42Z</time>
      </trkpt>
      <trkpt lat="47.35181" lon="-1.91351">
        <ele>50.61</ele>
        <time>2013-12-23T13:12:47Z</time>
      </trkpt>
      <trkpt lat="47.35185" lon="-1.91366">
        <ele>52.05</ele>
        <time>2013-12-23T13:12:52Z</time>
      </trkpt>
      <trkpt lat="47.35189" lon="-1.91383">
        <ele>53.01</ele>
        <time>2013-12-23T13:12:57Z</time>
      </trkpt>
      <trkpt lat="47.35195" lon="-1.91396">
        <ele>54.45</ele>
        <time>2013-12-23T13:13:02Z</time>
      </trkpt>
      <trkpt lat="47.35201" lon="-1.9141">
        <ele>54.93</ele>
        <time>2013-12-23T13:13:06Z</time>
      </trkpt>
      <trkpt lat="47.35208" lon="-1.91424">
        <ele>55.89</ele>
        <time>2013-12-23T13:13:10Z</time>
      </trkpt>
      <trkpt lat="47.35215" lon="-1.91437">
        <ele>56.37</ele>
        <time>2013-12-23T13:13:14Z</time>
      </trkpt>
      <trkpt lat="47.35221" lon="-1.91449">
        <ele>56.86</ele>
        <time>2013-12-23T13:13:18Z</time>
      </trkpt>
      <trkpt lat="47.35229" lon="-1.91461">
        <ele>58.3</ele>
        <time>2013-12-23T13:13:22Z</time>
      </trkpt>
      <trkpt lat="47.35237" lon="-1.91475">
        <ele>58.78</ele>
        <time>2013-12-23T13:13:26Z</time>
      </trkpt>
      <trkpt lat="47.35244" lon="-1.91484">
        <ele>58.78</ele>
        <time>2013-12-23T13:13:29Z</time>
      </trkpt>
      <trkpt lat="47.35251" lon="-1.91493">
        <ele>58.78</ele>
        <time>2013-12-23T13:13:32Z</time>
      </trkpt>
      <trkpt lat="47.35259" lon="-1.91503">
        <ele>59.74</ele>
        <time>2013-12-23T13:13:35Z</time>
      </trkpt>
      <trkpt lat="47.35265" lon="-1.91514">
        <ele>60.22</ele>
        <time>2013-12-23T13:13:38Z</time>
      </trkpt>
      <trkpt lat="47.3527" lon="-1.91525">
        <ele>59.74</ele>
        <time>2013-12-23T13:13:41Z</time>
      </trkpt>
      <trkpt lat="47.35276" lon="-1.91535">
        <ele>59.74</ele>
        <time>2013-12-23T13:13:44Z</time>
      </trkpt>
      <trkpt lat="47.35282" lon="-1.91547">
        <ele>59.74</ele>
        <time>2013-12-23T13:13:47Z</time>
      </trkpt>
      <trkpt lat="47.35287" lon="-1.9156">
        <ele>60.22</ele>
        <time>2013-12-23T13:13:50Z</time>
      </trkpt>
      <trkpt lat="47.3529" lon="-1.91573">
        <ele>60.22</ele>
        <time>2013-12-23T13:13:53Z</time>
      </trkpt>
      <trkpt lat="47.35293" lon="-1.91587">
        <ele>60.22</ele>
        <time>2013-12-23T13:13:56Z</time>
      </trkpt>
      <trkpt lat="47.35296" lon="-1.916">
        <ele>60.22</ele>
        <time>2013-12-23T13:13:59Z</time>
      </trkpt>
      <trkpt lat="47.353" lon="-1.91617">
        <ele>59.74</ele>
        <time>2013-12-23T13:14:03Z</time>
      </trkpt>
      <trkpt lat="47.35304" lon="-1.9163">
        <ele>59.74</ele>
        <time>2013-12-23T13:14:06Z</time>
      </trkpt>
      <trkpt lat="47.35307" lon="-1.91645">
        <ele>59.26</ele>
        <time>2013-12-23T13:14:09Z</time>
      </trkpt>
      <trkpt lat="47.35311" lon="-1.9166">
        <ele>59.26</ele>
        <time>2013-12-23T13:14:12Z</time>
      </trkpt>
      <trkpt lat="47.35316" lon="-1.91674">
        <ele>59.26</ele>
        <time>2013-12-23T13:14:15Z</time>
      </trkpt>
      <trkpt lat="47.35321" lon="-1.9169">
        <ele>58.78</ele>
        <time>2013-12-23T13:14:18Z</time>
      </trkpt>
      <trkpt lat="47.35327" lon="-1.91705">
        <ele>58.78</ele>
        <time>2013-12-23T13:14:21Z</time>
      </trkpt>
      <trkpt lat="47.35333" lon="-1.91721">
        <ele>58.3</ele>
        <time>2013-12-23T13:14:24Z</time>
      </trkpt>
      <trkpt lat="47.35338" lon="-1.91736">
        <ele>58.3</ele>
        <time>2013-12-23T13:14:27Z</time>
      </trkpt>
      <trkpt lat="47.35344" lon="-1.91752">
        <ele>57.82</ele>
        <time>2013-12-23T13:14:30Z</time>
      </trkpt>
      <trkpt lat="47.35351" lon="-1.91769">
        <ele>57.82</ele>
        <time>2013-12-23T13:14:33Z</time>
      </trkpt>
      <trkpt lat="47.35357" lon="-1.91784">
        <ele>57.34</ele>
        <time>2013-12-23T13:14:36Z</time>
      </trkpt>
      <trkpt lat="47.35364" lon="-1.918">
        <ele>57.34</ele>
        <time>2013-12-23T13:14:39Z</time>
      </trkpt>
      <trkpt lat="47.3537" lon="-1.91817">
        <ele>56.86</ele>
        <time>2013-12-23T13:14:42Z</time>
      </trkpt>
      <trkpt lat="47.35376" lon="-1.91832">
        <ele>56.86</ele>
        <time>2013-12-23T13:14:45Z</time>
      </trkpt>
      <trkpt lat="47.35381" lon="-1.91846">
        <ele>56.37</ele>
        <time>2013-12-23T13:14:48Z</time>
      </trkpt>
      <trkpt lat="47.35385" lon="-1.91861">
        <ele>55.89</ele>
        <time>2013-12-23T13:14:51Z</time>
      </trkpt>
      <trkpt lat="47.35389" lon="-1.91875">
        <ele>56.37</ele>
        <time>2013-12-23T13:14:54Z</time>
      </trkpt>
      <trkpt lat="47.35392" lon="-1.91891">
        <ele>56.37</ele>
        <time>2013-12-23T13:14:57Z</time>
      </trkpt>
      <trkpt lat="47.35396" lon="-1.91909">
        <ele>55.89</ele>
        <time>2013-12-23T13:15:00Z</time>
      </trkpt>
      <trkpt lat="47.35399" lon="-1.91928">
        <ele>54.93</ele>
        <time>2013-12-23T13:15:03Z</time>
      </trkpt>
      <trkpt lat="47.35402" lon="-1.9194">
        <ele>54.93</ele>
        <time>2013-12-23T13:15:05Z</time>
      </trkpt>
      <trkpt lat="47.35407" lon="-1.91958">
        <ele>53.97</ele>
        <time>2013-12-23T13:15:08Z</time>
      </trkpt>
      <trkpt lat="47.35413" lon="-1.91969">
        <ele>53.49</ele>
        <time>2013-12-23T13:15:11Z</time>
      </trkpt>
      <trkpt lat="47.35419" lon="-1.9198">
        <ele>53.01</ele>
        <time>2013-12-23T13:15:14Z</time>
      </trkpt>
      <trkpt lat="47.35427" lon="-1.91994">
        <ele>52.05</ele>
        <time>2013-12-23T13:15:17Z</time>
      </trkpt>
      <trkpt lat="47.35432" lon="-1.92007">
        <ele>52.05</ele>
        <time>2013-12-23T13:15:19Z</time>
      </trkpt>
      <trkpt lat="47.35438" lon="-1.9202">
        <ele>51.57</ele>
        <time>2013-12-23T13:15:21Z</time>
      </trkpt>
      <trkpt lat="47.35444" lon="-1.92033">
        <ele>51.57</ele>
        <time>2013-12-23T13:15:23Z</time>
      </trkpt>
      <trkpt lat="47.35451" lon="-1.92046">
        <ele>51.09</ele>
        <time>2013-12-23T13:15:25Z</time>
      </trkpt>
      <trkpt lat="47.35458" lon="-1.92059">
        <ele>51.09</ele>
        <time>2013-12-23T13:15:27Z</time>
      </trkpt>
      <trkpt lat="47.35465" lon="-1.92072">
        <ele>50.61</ele>
        <time>2013-12-23T13:15:29Z</time>
      </trkpt>
      <trkpt lat="47.35474" lon="-1.92085">
        <ele>50.61</ele>
        <time>2013-12-23T13:15:31Z</time>
      </trkpt>
      <trkpt lat="47.35482" lon="-1.92094">
        <ele>50.61</ele>
        <time>2013-12-23T13:15:33Z</time>
      </trkpt>
      <trkpt lat="47.3549" lon="-1.92103">
        <ele>50.61</ele>
        <time>2013-12-23T13:15:35Z</time>
      </trkpt>
      <trkpt lat="47.35498" lon="-1.92111">
        <ele>50.61</ele>
        <time>2013-12-23T13:15:37Z</time>
      </trkpt>
      <trkpt lat="47.35508" lon="-1.92119">
        <ele>50.61</ele>
        <time>2013-12-23T13:15:39Z</time>
      </trkpt>
      <trkpt lat="47.35517" lon="-1.92129">
        <ele>50.61</ele>
        <time>2013-12-23T13:15:41Z</time>
      </trkpt>
      <trkpt lat="47.35527" lon="-1.92139">
        <ele>50.61</ele>
        <time>2013-12-23T13:15:43Z</time>
      </trkpt>
      <trkpt lat="47.35537" lon="-1.92148">
        <ele>50.61</ele>
        <time>2013-12-23T13:15:45Z</time>
      </trkpt>
      <trkpt lat="47.35547" lon="-1.92156">
        <ele>51.09</ele>
        <time>2013-12-23T13:15:47Z</time>
      </trkpt>
      <trkpt lat="47.35557" lon="-1.92164">
        <ele>50.61</ele>
        <time>2013-12-23T13:15:49Z</time>
      </trkpt>
      <trkpt lat="47.35568" lon="-1.92171">
        <ele>50.61</ele>
        <time>2013-12-23T13:15:51Z</time>
      </trkpt>
      <trkpt lat="47.35579" lon="-1.92178">
        <ele>50.13</ele>
        <time>2013-12-23T13:15:53Z</time>
      </trkpt>
      <trkpt lat="47.35592" lon="-1.92185">
        <ele>48.2</ele>
        <time>2013-12-23T13:15:56Z</time>
      </trkpt>
      <trkpt lat="47.35604" lon="-1.92185">
        <ele>45.8</ele>
        <time>2013-12-23T13:16:00Z</time>
      </trkpt>
      <trkpt lat="47.35606" lon="-1.92172">
        <ele>45.8</ele>
        <time>2013-12-23T13:16:05Z</time>
      </trkpt>
      <trkpt lat="47.35609" lon="-1.92157">
        <ele>46.28</ele>
        <time>2013-12-23T13:16:10Z</time>
      </trkpt>
      <trkpt lat="47.35615" lon="-1.92147">
        <ele>46.28</ele>
        <time>2013-12-23T13:16:14Z</time>
      </trkpt>
      <trkpt lat="47.35624" lon="-1.92135">
        <ele>45.32</ele>
        <time>2013-12-23T13:16:18Z</time>
      </trkpt>
      <trkpt lat="47.35632" lon="-1.92127">
        <ele>44.36</ele>
        <time>2013-12-23T13:16:21Z</time>
      </trkpt>
      <trkpt lat="47.3564" lon="-1.9212">
        <ele>43.4</ele>
        <time>2013-12-23T13:16:24Z</time>
      </trkpt>
      <trkpt lat="47.35648" lon="-1.92113">
        <ele>41.95</ele>
        <time>2013-12-23T13:16:27Z</time>
      </trkpt>
      <trkpt lat="47.35654" lon="-1.92102">
        <ele>41.47</ele>
        <time>2013-12-23T13:16:30Z</time>
      </trkpt>
      <trkpt lat="47.35665" lon="-1.92102">
        <ele>40.51</ele>
        <time>2013-12-23T13:16:34Z</time>
      </trkpt>
      <trkpt lat="47.35674" lon="-1.92113">
        <ele>39.55</ele>
        <time>2013-12-23T13:16:38Z</time>
      </trkpt>
      <trkpt lat="47.35686" lon="-1.92119">
        <ele>39.07</ele>
        <time>2013-12-23T13:16:41Z</time>
      </trkpt>
      <trkpt lat="47.35696" lon="-1.92117">
        <ele>37.63</ele>
        <time>2013-12-23T13:16:43Z</time>
      </trkpt>
      <trkpt lat="47.35706" lon="-1.92114">
        <ele>37.15</ele>
        <time>2013-12-23T13:16:45Z</time>
      </trkpt>
      <trkpt lat="47.35716" lon="-1.92112">
        <ele>36.67</ele>
        <time>2013-12-23T13:16:47Z</time>
      </trkpt>
      <trkpt lat="47.35724" lon="-1.92117">
        <ele>36.19</ele>
        <time>2013-12-23T13:16:49Z</time>
      </trkpt>
      <trkpt lat="47.35732" lon="-1.92133">
        <ele>36.19</ele>
        <time>2013-12-23T13:16:52Z</time>
      </trkpt>
      <trkpt lat="47.3574" lon="-1.9215">
        <ele>35.71</ele>
        <time>2013-12-23T13:16:55Z</time>
      </trkpt>
      <trkpt lat="47.35745" lon="-1.92161">
        <ele>36.19</ele>
        <time>2013-12-23T13:16:57Z</time>
      </trkpt>
      <trkpt lat="47.35751" lon="-1.92179">
        <ele>35.71</ele>
        <time>2013-12-23T13:17:00Z</time>
      </trkpt>
      <trkpt lat="47.35756" lon="-1.92196">
        <ele>35.71</ele>
        <time>2013-12-23T13:17:03Z</time>
      </trkpt>
      <trkpt lat="47.35759" lon="-1.92212">
        <ele>35.23</ele>
        <time>2013-12-23T13:17:06Z</time>
      </trkpt>
      <trkpt lat="47.35762" lon="-1.92229">
        <ele>34.26</ele>
        <time>2013-12-23T13:17:09Z</time>
      </trkpt>
      <trkpt lat="47.35763" lon="-1.92246">
        <ele>34.26</ele>
        <time>2013-12-23T13:17:12Z</time>
      </trkpt>
      <trkpt lat="47.35764" lon="-1.92264">
        <ele>34.74</ele>
        <time>2013-12-23T13:17:16Z</time>
      </trkpt>
      <trkpt lat="47.35764" lon="-1.92278">
        <ele>34.74</ele>
        <time>2013-12-23T13:17:19Z</time>
      </trkpt>
      <trkpt lat="47.35763" lon="-1.92291">
        <ele>34.74</ele>
        <time>2013-12-23T13:17:22Z</time>
      </trkpt>
      <trkpt lat="47.35763" lon="-1.92308">
        <ele>34.74</ele>
        <time>2013-12-23T13:17:26Z</time>
      </trkpt>
      <trkpt lat="47.35763" lon="-1.92322">
        <ele>34.74</ele>
        <time>2013-12-23T13:17:29Z</time>
      </trkpt>
      <trkpt lat="47.35763" lon="-1.92336">
        <ele>34.74</ele>
        <time>2013-12-23T13:17:33Z</time>
      </trkpt>
      <trkpt lat="47.35766" lon="-1.9235">
        <ele>35.23</ele>
        <time>2013-12-23T13:17:40Z</time>
      </trkpt>
      <trkpt lat="47.35776" lon="-1.92353">
        <ele>37.15</ele>
        <time>2013-12-23T13:17:48Z</time>
      </trkpt>
      <trkpt lat="47.35779" lon="-1.92368">
        <ele>39.07</ele>
        <time>2013-12-23T13:17:55Z</time>
      </trkpt>
      <trkpt lat="47.35783" lon="-1.92384">
        <ele>39.55</ele>
        <time>2013-12-23T13:18:03Z</time>
      </trkpt>
      <trkpt lat="47.35784" lon="-1.92399">
        <ele>40.51</ele>
        <time>2013-12-23T13:18:10Z</time>
      </trkpt>
      <trkpt lat="47.35788" lon="-1.92419">
        <ele>41.47</ele>
        <time>2013-12-23T13:18:16Z</time>
      </trkpt>
      <trkpt lat="47.35791" lon="-1.92441">
        <ele>42.44</ele>
        <time>2013-12-23T13:18:21Z</time>
      </trkpt>
      <trkpt lat="47.35794" lon="-1.92457">
        <ele>42.92</ele>
        <time>2013-12-23T13:18:26Z</time>
      </trkpt>
      <trkpt lat="47.35796" lon="-1.92473">
        <ele>43.4</ele>
        <time>2013-12-23T13:18:31Z</time>
      </trkpt>
      <trkpt lat="47.35799" lon="-1.92488">
        <ele>44.84</ele>
        <time>2013-12-23T13:18:36Z</time>
      </trkpt>
      <trkpt lat="47.35801" lon="-1.92504">
        <ele>44.84</ele>
        <time>2013-12-23T13:18:41Z</time>
      </trkpt>
      <trkpt lat="47.35804" lon="-1.92518">
        <ele>44.84</ele>
        <time>2013-12-23T13:18:45Z</time>
      </trkpt>
      <trkpt lat="47.35806" lon="-1.92533">
        <ele>45.32</ele>
        <time>2013-12-23T13:18:49Z</time>
      </trkpt>
      <trkpt lat="47.35809" lon="-1.92549">
        <ele>45.32</ele>
        <time>2013-12-23T13:18:53Z</time>
      </trkpt>
      <trkpt lat="47.35811" lon="-1.92565">
        <ele>45.32</ele>
        <time>2013-12-23T13:18:57Z</time>
      </trkpt>
      <trkpt lat="47.35813" lon="-1.92581">
        <ele>45.32</ele>
        <time>2013-12-23T13:19:01Z</time>
      </trkpt>
      <trkpt lat="47.35815" lon="-1.92596">
        <ele>45.32</ele>
        <time>2013-12-23T13:19:05Z</time>
      </trkpt>
      <trkpt lat="47.35817" lon="-1.92615">
        <ele>45.32</ele>
        <time>2013-12-23T13:19:10Z</time>
      </trkpt>
      <trkpt lat="47.35819" lon="-1.9263">
        <ele>45.32</ele>
        <time>2013-12-23T13:19:13Z</time>
      </trkpt>
      <trkpt lat="47.35822" lon="-1.92646">
        <ele>45.32</ele>
        <time>2013-12-23T13:19:16Z</time>
      </trkpt>
      <trkpt lat="47.35824" lon="-1.92663">
        <ele>45.8</ele>
        <time>2013-12-23T13:19:19Z</time>
      </trkpt>
      <trkpt lat="47.35826" lon="-1.9268">
        <ele>45.8</ele>
        <time>2013-12-23T13:19:22Z</time>
      </trkpt>
      <trkpt lat="47.35827" lon="-1.92696">
        <ele>46.28</ele>
        <time>2013-12-23T13:19:25Z</time>
      </trkpt>
      <trkpt lat="47.35829" lon="-1.92713">
        <ele>46.76</ele>
        <time>2013-12-23T13:19:29Z</time>
      </trkpt>
      <trkpt lat="47.35832" lon="-1.92728">
        <ele>47.24</ele>
        <time>2013-12-23T13:19:33Z</time>
      </trkpt>
      <trkpt lat="47.35837" lon="-1.92742">
        <ele>47.24</ele>
        <time>2013-12-23T13:19:40Z</time>
      </trkpt>
      <trkpt lat="47.3584" lon="-1.9276">
        <ele>47.24</ele>
        <time>2013-12-23T13:19:44Z</time>
      </trkpt>
      <trkpt lat="47.35842" lon="-1.92776">
        <ele>47.72</ele>
        <time>2013-12-23T13:19:48Z</time>
      </trkpt>
      <trkpt lat="47.35843" lon="-1.92793">
        <ele>48.68</ele>
        <time>2013-12-23T13:19:53Z</time>
      </trkpt>
      <trkpt lat="47.35844" lon="-1.92808">
        <ele>48.68</ele>
        <time>2013-12-23T13:19:57Z</time>
      </trkpt>
      <trkpt lat="47.35845" lon="-1.92823">
        <ele>48.68</ele>
        <time>2013-12-23T13:20:01Z</time>
      </trkpt>
      <trkpt lat="47.35845" lon="-1.92837">
        <ele>48.68</ele>
        <time>2013-12-23T13:20:05Z</time>
      </trkpt>
      <trkpt lat="47.35846" lon="-1.92852">
        <ele>49.16</ele>
        <time>2013-12-23T13:20:10Z</time>
      </trkpt>
      <trkpt lat="47.35848" lon="-1.92869">
        <ele>50.61</ele>
        <time>2013-12-23T13:20:16Z</time>
      </trkpt>
      <trkpt lat="47.35848" lon="-1.92886">
        <ele>50.61</ele>
        <time>2013-12-23T13:20:22Z</time>
      </trkpt>
      <trkpt lat="47.35852" lon="-1.92902">
        <ele>50.61</ele>
        <time>2013-12-23T13:20:27Z</time>
      </trkpt>
      <trkpt lat="47.35858" lon="-1.92915">
        <ele>49.65</ele>
        <time>2013-12-23T13:20:31Z</time>
      </trkpt>
      <trkpt lat="47.35862" lon="-1.92934">
        <ele>50.61</ele>
        <time>2013-12-23T13:20:36Z</time>
      </trkpt>
      <trkpt lat="47.35861" lon="-1.9295">
        <ele>50.61</ele>
        <time>2013-12-23T13:20:39Z</time>
      </trkpt>
      <trkpt lat="47.3586" lon="-1.9297">
        <ele>51.09</ele>
        <time>2013-12-23T13:20:43Z</time>
      </trkpt>
      <trkpt lat="47.35857" lon="-1.92985">
        <ele>51.57</ele>
        <time>2013-12-23T13:20:46Z</time>
      </trkpt>
      <trkpt lat="47.35853" lon="-1.92998">
        <ele>51.09</ele>
        <time>2013-12-23T13:20:49Z</time>
      </trkpt>
      <trkpt lat="47.3585" lon="-1.93019">
        <ele>50.13</ele>
        <time>2013-12-23T13:20:52Z</time>
      </trkpt>
      <trkpt lat="47.3585" lon="-1.93035">
        <ele>49.16</ele>
        <time>2013-12-23T13:20:54Z</time>
      </trkpt>
      <trkpt lat="47.35848" lon="-1.9305">
        <ele>48.68</ele>
        <time>2013-12-23T13:20:56Z</time>
      </trkpt>
      <trkpt lat="47.35846" lon="-1.93065">
        <ele>48.2</ele>
        <time>2013-12-23T13:20:58Z</time>
      </trkpt>
      <trkpt lat="47.35843" lon="-1.93081">
        <ele>47.24</ele>
        <time>2013-12-23T13:21:00Z</time>
      </trkpt>
      <trkpt lat="47.35838" lon="-1.93098">
        <ele>46.28</ele>
        <time>2013-12-23T13:21:02Z</time>
      </trkpt>
      <trkpt lat="47.35832" lon="-1.93114">
        <ele>45.32</ele>
        <time>2013-12-23T13:21:04Z</time>
      </trkpt>
      <trkpt lat="47.35826" lon="-1.93126">
        <ele>45.32</ele>
        <time>2013-12-23T13:21:06Z</time>
      </trkpt>
      <trkpt lat="47.3582" lon="-1.93141">
        <ele>44.84</ele>
        <time>2013-12-23T13:21:09Z</time>
      </trkpt>
      <trkpt lat="47.35816" lon="-1.93155">
        <ele>43.4</ele>
        <time>2013-12-23T13:21:12Z</time>
      </trkpt>
      <trkpt lat="47.35809" lon="-1.9317">
        <ele>42.44</ele>
        <time>2013-12-23T13:21:15Z</time>
      </trkpt>
      <trkpt lat="47.35801" lon="-1.93187">
        <ele>41.95</ele>
        <time>2013-12-23T13:21:18Z</time>
      </trkpt>
      <trkpt lat="47.35795" lon="-1.93198">
        <ele>41.95</ele>
        <time>2013-12-23T13:21:20Z</time>
      </trkpt>
      <trkpt lat="47.35789" lon="-1.9321">
        <ele>41.95</ele>
        <time>2013-12-23T13:21:22Z</time>
      </trkpt>
      <trkpt lat="47.35781" lon="-1.93224">
        <ele>41.95</ele>
        <time>2013-12-23T13:21:25Z</time>
      </trkpt>
      <trkpt lat="47.35775" lon="-1.93239">
        <ele>41.95</ele>
        <time>2013-12-23T13:21:28Z</time>
      </trkpt>
      <trkpt lat="47.35778" lon="-1.93254">
        <ele>41.47</ele>
        <time>2013-12-23T13:21:31Z</time>
      </trkpt>
      <trkpt lat="47.35778" lon="-1.93269">
        <ele>40.99</ele>
        <time>2013-12-23T13:21:33Z</time>
      </trkpt>
      <trkpt lat="47.35777" lon="-1.93286">
        <ele>40.03</ele>
        <time>2013-12-23T13:21:35Z</time>
      </trkpt>
      <trkpt lat="47.35775" lon="-1.93303">
        <ele>39.55</ele>
        <time>2013-12-23T13:21:37Z</time>
      </trkpt>
      <trkpt lat="47.35774" lon="-1.93318">
        <ele>39.07</ele>
        <time>2013-12-23T13:21:39Z</time>
      </trkpt>
      <trkpt lat="47.35772" lon="-1.93337">
        <ele>39.55</ele>
        <time>2013-12-23T13:21:42Z</time>
      </trkpt>
      <trkpt lat="47.3577" lon="-1.93353">
        <ele>40.03</ele>
        <time>2013-12-23T13:21:46Z</time>
      </trkpt>
      <trkpt lat="47.35768" lon="-1.93369">
        <ele>40.51</ele>
        <time>2013-12-23T13:21:50Z</time>
      </trkpt>
      <trkpt lat="47.35767" lon="-1.93381">
        <ele>41.47</ele>
        <time>2013-12-23T13:21:55Z</time>
      </trkpt>
      <trkpt lat="47.3576" lon="-1.93391">
        <ele>41.95</ele>
        <time>2013-12-23T13:22:00Z</time>
      </trkpt>
      <trkpt lat="47.35755" lon="-1.93401">
        <ele>43.4</ele>
        <time>2013-12-23T13:22:29Z</time>
      </trkpt>
      <trkpt lat="47.35756" lon="-1.93416">
        <ele>44.36</ele>
        <time>2013-12-23T13:22:33Z</time>
      </trkpt>
      <trkpt lat="47.35757" lon="-1.93431">
        <ele>45.32</ele>
        <time>2013-12-23T13:22:37Z</time>
      </trkpt>
      <trkpt lat="47.35759" lon="-1.93446">
        <ele>45.8</ele>
        <time>2013-12-23T13:22:41Z</time>
      </trkpt>
      <trkpt lat="47.35761" lon="-1.9346">
        <ele>46.76</ele>
        <time>2013-12-23T13:22:45Z</time>
      </trkpt>
      <trkpt lat="47.35763" lon="-1.93473">
        <ele>47.24</ele>
        <time>2013-12-23T13:22:49Z</time>
      </trkpt>
      <trkpt lat="47.35766" lon="-1.93486">
        <ele>48.2</ele>
        <time>2013-12-23T13:22:53Z</time>
      </trkpt>
      <trkpt lat="47.35769" lon="-1.93502">
        <ele>49.65</ele>
        <time>2013-12-23T13:22:58Z</time>
      </trkpt>
      <trkpt lat="47.35773" lon="-1.93518">
        <ele>50.13</ele>
        <time>2013-12-23T13:23:03Z</time>
      </trkpt>
      <trkpt lat="47.35777" lon="-1.93533">
        <ele>50.61</ele>
        <time>2013-12-23T13:23:08Z</time>
      </trkpt>
      <trkpt lat="47.3578" lon="-1.93548">
        <ele>51.57</ele>
        <time>2013-12-23T13:23:13Z</time>
      </trkpt>
      <trkpt lat="47.35784" lon="-1.93563">
        <ele>52.53</ele>
        <time>2013-12-23T13:23:18Z</time>
      </trkpt>
      <trkpt lat="47.35787" lon="-1.93576">
        <ele>53.01</ele>
        <time>2013-12-23T13:23:22Z</time>
      </trkpt>
      <trkpt lat="47.3579" lon="-1.93592">
        <ele>53.01</ele>
        <time>2013-12-23T13:23:27Z</time>
      </trkpt>
      <trkpt lat="47.35792" lon="-1.93605">
        <ele>53.49</ele>
        <time>2013-12-23T13:23:31Z</time>
      </trkpt>
      <trkpt lat="47.35795" lon="-1.93621">
        <ele>54.45</ele>
        <time>2013-12-23T13:23:36Z</time>
      </trkpt>
      <trkpt lat="47.35798" lon="-1.93635">
        <ele>54.93</ele>
        <time>2013-12-23T13:23:40Z</time>
      </trkpt>
      <trkpt lat="47.358" lon="-1.93649">
        <ele>55.41</ele>
        <time>2013-12-23T13:23:44Z</time>
      </trkpt>
      <trkpt lat="47.35803" lon="-1.93664">
        <ele>55.41</ele>
        <time>2013-12-23T13:23:48Z</time>
      </trkpt>
      <trkpt lat="47.35805" lon="-1.9368">
        <ele>55.89</ele>
        <time>2013-12-23T13:23:52Z</time>
      </trkpt>
      <trkpt lat="47.35808" lon="-1.93696">
        <ele>55.89</ele>
        <time>2013-12-23T13:23:56Z</time>
      </trkpt>
      <trkpt lat="47.35811" lon="-1.93713">
        <ele>55.89</ele>
        <time>2013-12-23T13:24:00Z</time>
      </trkpt>
      <trkpt lat="47.35814" lon="-1.93729">
        <ele>55.89</ele>
        <time>2013-12-23T13:24:04Z</time>
      </trkpt>
      <trkpt lat="47.35817" lon="-1.93743">
        <ele>55.89</ele>
        <time>2013-12-23T13:24:07Z</time>
      </trkpt>
      <trkpt lat="47.35819" lon="-1.93757">
        <ele>55.89</ele>
        <time>2013-12-23T13:24:10Z</time>
      </trkpt>
      <trkpt lat="47.35822" lon="-1.93773">
        <ele>55.89</ele>
        <time>2013-12-23T13:24:14Z</time>
      </trkpt>
      <trkpt lat="47.35825" lon="-1.93788">
        <ele>55.89</ele>
        <time>2013-12-23T13:24:19Z</time>
      </trkpt>
      <trkpt lat="47.35827" lon="-1.93804">
        <ele>55.89</ele>
        <time>2013-12-23T13:24:22Z</time>
      </trkpt>
      <trkpt lat="47.3583" lon="-1.93821">
        <ele>55.41</ele>
        <time>2013-12-23T13:24:25Z</time>
      </trkpt>
      <trkpt lat="47.35833" lon="-1.93839">
        <ele>55.41</ele>
        <time>2013-12-23T13:24:28Z</time>
      </trkpt>
      <trkpt lat="47.35835" lon="-1.93854">
        <ele>55.41</ele>
        <time>2013-12-23T13:24:31Z</time>
      </trkpt>
      <trkpt lat="47.35839" lon="-1.9387">
        <ele>54.93</ele>
        <time>2013-12-23T13:24:34Z</time>
      </trkpt>
      <trkpt lat="47.35842" lon="-1.93887">
        <ele>54.45</ele>
        <time>2013-12-23T13:24:37Z</time>
      </trkpt>
      <trkpt lat="47.35846" lon="-1.93905">
        <ele>53.49</ele>
        <time>2013-12-23T13:24:40Z</time>
      </trkpt>
      <trkpt lat="47.35851" lon="-1.93922">
        <ele>53.49</ele>
        <time>2013-12-23T13:24:43Z</time>
      </trkpt>
      <trkpt lat="47.35852" lon="-1.93939">
        <ele>53.01</ele>
        <time>2013-12-23T13:24:46Z</time>
      </trkpt>
      <trkpt lat="47.35849" lon="-1.93956">
        <ele>52.05</ele>
        <time>2013-12-23T13:24:49Z</time>
      </trkpt>
      <trkpt lat="47.35854" lon="-1.93971">
        <ele>51.09</ele>
        <time>2013-12-23T13:24:52Z</time>
      </trkpt>
      <trkpt lat="47.3586" lon="-1.93987">
        <ele>51.09</ele>
        <time>2013-12-23T13:24:55Z</time>
      </trkpt>
      <trkpt lat="47.35865" lon="-1.94001">
        <ele>50.61</ele>
        <time>2013-12-23T13:24:58Z</time>
      </trkpt>
      <trkpt lat="47.35871" lon="-1.94013">
        <ele>50.61</ele>
        <time>2013-12-23T13:25:01Z</time>
      </trkpt>
      <trkpt lat="47.35876" lon="-1.94026">
        <ele>50.61</ele>
        <time>2013-12-23T13:25:04Z</time>
      </trkpt>
      <trkpt lat="47.35881" lon="-1.94038">
        <ele>50.61</ele>
        <time>2013-12-23T13:25:07Z</time>
      </trkpt>
      <trkpt lat="47.3588" lon="-1.94054">
        <ele>50.13</ele>
        <time>2013-12-23T13:25:10Z</time>
      </trkpt>
      <trkpt lat="47.35872" lon="-1.94068">
        <ele>50.13</ele>
        <time>2013-12-23T13:25:13Z</time>
      </trkpt>
      <trkpt lat="47.35864" lon="-1.94074">
        <ele>49.65</ele>
        <time>2013-12-23T13:25:15Z</time>
      </trkpt>
      <trkpt lat="47.35855" lon="-1.94081">
        <ele>49.65</ele>
        <time>2013-12-23T13:25:17Z</time>
      </trkpt>
      <trkpt lat="47.35847" lon="-1.94087">
        <ele>49.16</ele>
        <time>2013-12-23T13:25:19Z</time>
      </trkpt>
      <trkpt lat="47.35836" lon="-1.94096">
        <ele>48.68</ele>
        <time>2013-12-23T13:25:22Z</time>
      </trkpt>
      <trkpt lat="47.35827" lon="-1.94102">
        <ele>48.2</ele>
        <time>2013-12-23T13:25:24Z</time>
      </trkpt>
      <trkpt lat="47.35819" lon="-1.94108">
        <ele>47.24</ele>
        <time>2013-12-23T13:25:26Z</time>
      </trkpt>
      <trkpt lat="47.3581" lon="-1.94114">
        <ele>46.76</ele>
        <time>2013-12-23T13:25:28Z</time>
      </trkpt>
      <trkpt lat="47.358" lon="-1.94121">
        <ele>46.28</ele>
        <time>2013-12-23T13:25:30Z</time>
      </trkpt>
      <trkpt lat="47.35792" lon="-1.94127">
        <ele>45.32</ele>
        <time>2013-12-23T13:25:32Z</time>
      </trkpt>
      <trkpt lat="47.35784" lon="-1.94134">
        <ele>44.84</ele>
        <time>2013-12-23T13:25:34Z</time>
      </trkpt>
      <trkpt lat="47.35776" lon="-1.94141">
        <ele>43.4</ele>
        <time>2013-12-23T13:25:36Z</time>
      </trkpt>
      <trkpt lat="47.35774" lon="-1.94154">
        <ele>41.47</ele>
        <time>2013-12-23T13:25:40Z</time>
      </trkpt>
      <trkpt lat="47.35782" lon="-1.94166">
        <ele>41.47</ele>
        <time>2013-12-23T13:25:43Z</time>
      </trkpt>
      <trkpt lat="47.35791" lon="-1.94179">
        <ele>41.95</ele>
        <time>2013-12-23T13:25:46Z</time>
      </trkpt>
      <trkpt lat="47.35799" lon="-1.94193">
        <ele>42.44</ele>
        <time>2013-12-23T13:25:49Z</time>
      </trkpt>
      <trkpt lat="47.35808" lon="-1.94207">
        <ele>43.88</ele>
        <time>2013-12-23T13:25:52Z</time>
      </trkpt>
      <trkpt lat="47.35815" lon="-1.94221">
        <ele>44.84</ele>
        <time>2013-12-23T13:25:55Z</time>
      </trkpt>
      <trkpt lat="47.3582" lon="-1.94238">
        <ele>45.32</ele>
        <time>2013-12-23T13:25:58Z</time>
      </trkpt>
      <trkpt lat="47.35825" lon="-1.94255">
        <ele>45.32</ele>
        <time>2013-12-23T13:26:01Z</time>
      </trkpt>
      <trkpt lat="47.35831" lon="-1.9427">
        <ele>45.8</ele>
        <time>2013-12-23T13:26:04Z</time>
      </trkpt>
      <trkpt lat="47.3584" lon="-1.94285">
        <ele>46.76</ele>
        <time>2013-12-23T13:26:07Z</time>
      </trkpt>
      <trkpt lat="47.35845" lon="-1.94296">
        <ele>48.2</ele>
        <time>2013-12-23T13:26:09Z</time>
      </trkpt>
      <trkpt lat="47.35852" lon="-1.94305">
        <ele>48.2</ele>
        <time>2013-12-23T13:26:11Z</time>
      </trkpt>
      <trkpt lat="47.35859" lon="-1.94313">
        <ele>48.2</ele>
        <time>2013-12-23T13:26:13Z</time>
      </trkpt>
      <trkpt lat="47.35871" lon="-1.9432">
        <ele>47.72</ele>
        <time>2013-12-23T13:26:16Z</time>
      </trkpt>
      <trkpt lat="47.3588" lon="-1.94324">
        <ele>47.24</ele>
        <time>2013-12-23T13:26:18Z</time>
      </trkpt>
      <trkpt lat="47.35891" lon="-1.94326">
        <ele>47.24</ele>
        <time>2013-12-23T13:26:21Z</time>
      </trkpt>
      <trkpt lat="47.35901" lon="-1.94327">
        <ele>47.24</ele>
        <time>2013-12-23T13:26:24Z</time>
      </trkpt>
      <trkpt lat="47.35913" lon="-1.94329">
        <ele>47.24</ele>
        <time>2013-12-23T13:26:27Z</time>
      </trkpt>
      <trkpt lat="47.35923" lon="-1.94331">
        <ele>47.24</ele>
        <time>2013-12-23T13:26:30Z</time>
      </trkpt>
      <trkpt lat="47.35934" lon="-1.94335">
        <ele>47.24</ele>
        <time>2013-12-23T13:26:34Z</time>
      </trkpt>
      <trkpt lat="47.35934" lon="-1.94344">
        <ele>47.24</ele>
        <time>2013-12-23T13:26:42Z</time>
      </trkpt>
      <trkpt lat="47.35927" lon="-1.94354">
        <ele>47.24</ele>
        <time>2013-12-23T13:26:45Z</time>
      </trkpt>
      <trkpt lat="47.35918" lon="-1.94365">
        <ele>46.76</ele>
        <time>2013-12-23T13:26:49Z</time>
      </trkpt>
      <trkpt lat="47.35911" lon="-1.94374">
        <ele>46.28</ele>
        <time>2013-12-23T13:26:53Z</time>
      </trkpt>
      <trkpt lat="47.35904" lon="-1.94382">
        <ele>46.28</ele>
        <time>2013-12-23T13:26:56Z</time>
      </trkpt>
      <trkpt lat="47.35896" lon="-1.94396">
        <ele>45.8</ele>
        <time>2013-12-23T13:27:00Z</time>
      </trkpt>
      <trkpt lat="47.35888" lon="-1.94405">
        <ele>44.84</ele>
        <time>2013-12-23T13:27:02Z</time>
      </trkpt>
      <trkpt lat="47.3588" lon="-1.94413">
        <ele>43.88</ele>
        <time>2013-12-23T13:27:04Z</time>
      </trkpt>
      <trkpt lat="47.35871" lon="-1.94423">
        <ele>43.4</ele>
        <time>2013-12-23T13:27:06Z</time>
      </trkpt>
      <trkpt lat="47.35863" lon="-1.94434">
        <ele>41.95</ele>
        <time>2013-12-23T13:27:08Z</time>
      </trkpt>
      <trkpt lat="47.35856" lon="-1.94446">
        <ele>40.03</ele>
        <time>2013-12-23T13:27:10Z</time>
      </trkpt>
      <trkpt lat="47.35852" lon="-1.94463">
        <ele>38.59</ele>
        <time>2013-12-23T13:27:12Z</time>
      </trkpt>
      <trkpt lat="47.35855" lon="-1.94482">
        <ele>37.15</ele>
        <time>2013-12-23T13:27:14Z</time>
      </trkpt>
      <trkpt lat="47.35861" lon="-1.945">
        <ele>35.71</ele>
        <time>2013-12-23T13:27:16Z</time>
      </trkpt>
      <trkpt lat="47.35867" lon="-1.94518">
        <ele>34.26</ele>
        <time>2013-12-23T13:27:18Z</time>
      </trkpt>
      <trkpt lat="47.35871" lon="-1.94534">
        <ele>32.82</ele>
        <time>2013-12-23T13:27:20Z</time>
      </trkpt>
      <trkpt lat="47.35868" lon="-1.94549">
        <ele>31.38</ele>
        <time>2013-12-23T13:27:22Z</time>
      </trkpt>
      <trkpt lat="47.35857" lon="-1.9456">
        <ele>29.94</ele>
        <time>2013-12-23T13:27:24Z</time>
      </trkpt>
      <trkpt lat="47.35844" lon="-1.94567">
        <ele>28.98</ele>
        <time>2013-12-23T13:27:26Z</time>
      </trkpt>
      <trkpt lat="47.35831" lon="-1.94575">
        <ele>27.53</ele>
        <time>2013-12-23T13:27:28Z</time>
      </trkpt>
      <trkpt lat="47.35822" lon="-1.94586">
        <ele>26.09</ele>
        <time>2013-12-23T13:27:30Z</time>
      </trkpt>
      <trkpt lat="47.35821" lon="-1.94602">
        <ele>25.61</ele>
        <time>2013-12-23T13:27:32Z</time>
      </trkpt>
      <trkpt lat="47.35824" lon="-1.94619">
        <ele>25.13</ele>
        <time>2013-12-23T13:27:34Z</time>
      </trkpt>
      <trkpt lat="47.35827" lon="-1.94634">
        <ele>24.65</ele>
        <time>2013-12-23T13:27:36Z</time>
      </trkpt>
      <trkpt lat="47.35832" lon="-1.94651">
        <ele>24.17</ele>
        <time>2013-12-23T13:27:38Z</time>
      </trkpt>
      <trkpt lat="47.35836" lon="-1.94668">
        <ele>23.21</ele>
        <time>2013-12-23T13:27:40Z</time>
      </trkpt>
      <trkpt lat="47.3584" lon="-1.94686">
        <ele>22.73</ele>
        <time>2013-12-23T13:27:42Z</time>
      </trkpt>
      <trkpt lat="47.35844" lon="-1.94704">
        <ele>22.73</ele>
        <time>2013-12-23T13:27:44Z</time>
      </trkpt>
      <trkpt lat="47.35847" lon="-1.94721">
        <ele>22.25</ele>
        <time>2013-12-23T13:27:46Z</time>
      </trkpt>
      <trkpt lat="47.35851" lon="-1.94737">
        <ele>21.77</ele>
        <time>2013-12-23T13:27:48Z</time>
      </trkpt>
      <trkpt lat="47.35854" lon="-1.94752">
        <ele>21.77</ele>
        <time>2013-12-23T13:27:50Z</time>
      </trkpt>
      <trkpt lat="47.35856" lon="-1.94766">
        <ele>21.77</ele>
        <time>2013-12-23T13:27:52Z</time>
      </trkpt>
      <trkpt lat="47.35857" lon="-1.94784">
        <ele>21.77</ele>
        <time>2013-12-23T13:27:55Z</time>
      </trkpt>
      <trkpt lat="47.35848" lon="-1.94799">
        <ele>21.29</ele>
        <time>2013-12-23T13:27:58Z</time>
      </trkpt>
      <trkpt lat="47.35839" lon="-1.94808">
        <ele>20.32</ele>
        <time>2013-12-23T13:28:00Z</time>
      </trkpt>
      <trkpt lat="47.35829" lon="-1.94818">
        <ele>19.84</ele>
        <time>2013-12-23T13:28:02Z</time>
      </trkpt>
      <trkpt lat="47.3582" lon="-1.94827">
        <ele>18.88</ele>
        <time>2013-12-23T13:28:04Z</time>
      </trkpt>
      <trkpt lat="47.35812" lon="-1.94836">
        <ele>17.92</ele>
        <time>2013-12-23T13:28:06Z</time>
      </trkpt>
      <trkpt lat="47.35806" lon="-1.94846">
        <ele>16.48</ele>
        <time>2013-12-23T13:28:09Z</time>
      </trkpt>
      <trkpt lat="47.35807" lon="-1.94862">
        <ele>16</ele>
        <time>2013-12-23T13:28:13Z</time>
      </trkpt>
      <trkpt lat="47.35813" lon="-1.94879">
        <ele>16</ele>
        <time>2013-12-23T13:28:16Z</time>
      </trkpt>
      <trkpt lat="47.35818" lon="-1.94893">
        <ele>15.52</ele>
        <time>2013-12-23T13:28:18Z</time>
      </trkpt>
      <trkpt lat="47.35824" lon="-1.94908">
        <ele>15.04</ele>
        <time>2013-12-23T13:28:20Z</time>
      </trkpt>
      <trkpt lat="47.3583" lon="-1.94924">
        <ele>14.56</ele>
        <time>2013-12-23T13:28:22Z</time>
      </trkpt>
      <trkpt lat="47.35836" lon="-1.9494">
        <ele>14.08</ele>
        <time>2013-12-23T13:28:24Z</time>
      </trkpt>
      <trkpt lat="47.35842" lon="-1.94956">
        <ele>14.08</ele>
        <time>2013-12-23T13:28:26Z</time>
      </trkpt>
      <trkpt lat="47.35848" lon="-1.94972">
        <ele>13.6</ele>
        <time>2013-12-23T13:28:28Z</time>
      </trkpt>
      <trkpt lat="47.35853" lon="-1.94987">
        <ele>13.6</ele>
        <time>2013-12-23T13:28:30Z</time>
      </trkpt>
      <trkpt lat="47.35859" lon="-1.95002">
        <ele>13.12</ele>
        <time>2013-12-23T13:28:32Z</time>
      </trkpt>
      <trkpt lat="47.35861" lon="-1.95016">
        <ele>12.63</ele>
        <time>2013-12-23T13:28:34Z</time>
      </trkpt>
      <trkpt lat="47.35855" lon="-1.95028">
        <ele>11.67</ele>
        <time>2013-12-23T13:28:37Z</time>
      </trkpt>
      <trkpt lat="47.3585" lon="-1.95019">
        <ele>12.15</ele>
        <time>2013-12-23T13:28:41Z</time>
      </trkpt>
      <trkpt lat="47.35841" lon="-1.95007">
        <ele>16</ele>
        <time>2013-12-23T13:29:26Z</time>
      </trkpt>
      <trkpt lat="47.35832" lon="-1.94994">
        <ele>16</ele>
        <time>2013-12-23T13:29:30Z</time>
      </trkpt>
      <trkpt lat="47.35826" lon="-1.94982">
        <ele>16</ele>
        <time>2013-12-23T13:29:33Z</time>
      </trkpt>
      <trkpt lat="47.35818" lon="-1.94976">
        <ele>16</ele>
        <time>2013-12-23T13:29:36Z</time>
      </trkpt>
      <trkpt lat="47.3581" lon="-1.94969">
        <ele>16</ele>
        <time>2013-12-23T13:29:39Z</time>
      </trkpt>
      <trkpt lat="47.35803" lon="-1.94956">
        <ele>15.52</ele>
        <time>2013-12-23T13:29:42Z</time>
      </trkpt>
      <trkpt lat="47.35798" lon="-1.94944">
        <ele>15.52</ele>
        <time>2013-12-23T13:29:45Z</time>
      </trkpt>
      <trkpt lat="47.35793" lon="-1.94932">
        <ele>15.04</ele>
        <time>2013-12-23T13:29:48Z</time>
      </trkpt>
      <trkpt lat="47.35787" lon="-1.94918">
        <ele>15.04</ele>
        <time>2013-12-23T13:29:51Z</time>
      </trkpt>
      <trkpt lat="47.35782" lon="-1.94905">
        <ele>15.04</ele>
        <time>2013-12-23T13:29:54Z</time>
      </trkpt>
      <trkpt lat="47.35777" lon="-1.94893">
        <ele>15.52</ele>
        <time>2013-12-23T13:29:57Z</time>
      </trkpt>
      <trkpt lat="47.35772" lon="-1.94881">
        <ele>15.04</ele>
        <time>2013-12-23T13:30:00Z</time>
      </trkpt>
      <trkpt lat="47.35767" lon="-1.94869">
        <ele>15.52</ele>
        <time>2013-12-23T13:30:03Z</time>
      </trkpt>
      <trkpt lat="47.35761" lon="-1.94857">
        <ele>15.52</ele>
        <time>2013-12-23T13:30:07Z</time>
      </trkpt>
    </trkseg>
  </trk>
</gpx>